
Distance (Route):
Temperature : -9.5°C
Humidity : 33.6%
Pressure : 0hPa| Receiver | Frames | First received | Last received |
|---|---|---|---|
| IW2NTF | 578 | 2026-09-03 11:30:58 | 2026-09-03 13:21:46 |
| DO3MHA-11 | 297 | 2026-09-03 11:33:14 | 2026-09-03 13:13:22 |
| DB0UT-7 | 205 | 2026-09-03 11:14:23 | 2026-09-03 13:18:36 |
| BIOWL1-15 | 111 | 2026-09-03 12:27:12 | 2026-09-03 12:56:41 |
| DL2OL | 109 | 2026-09-03 11:18:18 | 2026-09-03 13:21:45 |
| DO3MHA-12 | 89 | 2026-09-03 11:35:59 | 2026-09-03 13:12:52 |
| DF7PN | 85 | 2026-09-03 12:02:01 | 2026-09-03 13:03:38 |
| DM0DOS-11 | 81 | 2026-09-03 12:21:52 | 2026-09-03 12:56:19 |
| DK5PH-5 | 72 | 2026-09-03 11:48:48 | 2026-09-03 13:05:58 |
| DL6DJ-15 | 28 | 2026-09-03 12:26:08 | 2026-09-03 12:57:42 |
| DH7VM-15 | 27 | 2026-09-03 11:30:45 | 2026-09-03 13:09:11 |
| BIOWL9-15 | 24 | 2026-09-03 12:26:23 | 2026-09-03 12:56:24 |
| DB0ND-19 | 20 | 2026-09-03 11:17:19 | 2026-09-03 11:40:36 |
| HASLITAL | 20 | 2026-09-03 12:36:10 | 2026-09-03 12:53:07 |
| OE5DXL-15 | 6 | 2026-09-03 12:20:40 | 2026-09-03 12:52:28 |
| DB0NH | 2 | 2026-09-03 12:12:33 | 2026-09-03 12:13:05 |
| DL8DAS-14 | 2 | 2026-09-03 12:51:29 | 2026-09-03 12:53:02 |
| DL8DAS-15 | 1 | 2026-09-03 12:41:14 | 2026-09-03 12:41:14 |
| Receiver | Date | Latitude | Longitude | Direction | Speed | Altitude | Climb | Temperature | Humidity | Pressure | Voltage | Killtimer | Uptime | BKT | XDATA |
|---|---|---|---|---|---|---|---|---|---|---|---|---|---|---|---|
| IW2NTF | 2026-09-03 13:21:46 | 46.18057 | 7.75139 | 141° | 73km/h | 6095m | -9.9m/s | -9.5°C | 33.6% | 0hPa | 2.6V | 08:00:14 | 02:48:48 | 00:00:00 | |
| DL2OL | 2026-09-03 13:21:45 | 46.18014 | 7.75191 | 142° | 71km/h | 6065m | -10.0m/s | -9.3°C | 33.7% | 0hPa | 2.6V | 00:00:00 | 00:00:00 | 00:00:00 | |
| IW2NTF | 2026-09-03 13:21:04 | 46.18668 | 7.74351 | 129° | 64km/h | 6566m | -10.7m/s | -12.2°C | 16.2% | 0hPa | 2.6V | 08:00:59 | 02:48:03 | 00:00:00 | |
| IW2NTF | 2026-09-03 13:20:53 | 46.18776 | 7.74147 | 127° | 60km/h | 6678m | -10.1m/s | -12.5°C | 20.1% | 0hPa | 2.5V | 08:01:10 | 02:47:52 | 00:00:00 | |
| IW2NTF | 2026-09-03 13:20:42 | 46.18874 | 7.73963 | 130° | 62km/h | 6779m | -11m/s | -13.2°C | 21.9% | 0hPa | 2.5V | 08:01:20 | 02:47:42 | 00:00:00 | |
| IW2NTF | 2026-09-03 13:20:32 | 46.18983 | 7.73788 | 132° | 64km/h | 6878m | -10.8m/s | -13.8°C | 29.2% | 0hPa | 2.5V | 08:01:30 | 02:47:32 | 00:00:00 | |
| IW2NTF | 2026-09-03 13:20:22 | 46.19098 | 7.73611 | 133° | 66km/h | 6978m | -9.7m/s | -14.3°C | 30.5% | 0hPa | 2.5V | 08:01:40 | 02:47:22 | 00:00:00 | |
| IW2NTF | 2026-09-03 13:20:10 | 46.19237 | 7.73392 | 132° | 68km/h | 7101m | -9.8m/s | -15.2°C | 29.5% | 0hPa | 2.5V | 08:01:52 | 02:47:10 | 00:00:00 | |
| IW2NTF | 2026-09-03 13:20:00 | 46.19350 | 7.73207 | 132° | 66km/h | 7203m | -10.6m/s | -16.1°C | 20.8% | 0hPa | 2.6V | 08:02:02 | 02:47:00 | 00:00:00 | |
| IW2NTF | 2026-09-03 13:19:51 | 46.19470 | 7.73018 | 132° | 71km/h | 7303m | -10.7m/s | -16.9°C | 17.8% | 0hPa | 2.5V | 08:02:12 | 02:46:50 | 00:00:00 | |
| IW2NTF | 2026-09-03 13:19:41 | 46.19600 | 7.72829 | 135° | 73km/h | 7403m | -10.9m/s | -17.7°C | 23.9% | 0hPa | 2.6V | 08:02:22 | 02:46:40 | 00:00:00 | |
| DL2OL | 2026-09-03 13:19:38 | 46.19547 | 7.72905 | 138° | 71km/h | 7364m | -10.0m/s | -17.3°C | 19.6% | 0hPa | 2.6V | 00:00:00 | 00:00:00 | 00:00:00 | |
| IW2NTF | 2026-09-03 13:19:30 | 46.19743 | 7.72644 | 138° | 78km/h | 7504m | -9.4m/s | -18.6°C | 35% | 0hPa | 2.6V | 08:02:32 | 02:46:30 | 00:00:00 | |
| IW2NTF | 2026-09-03 13:19:20 | 46.19889 | 7.72451 | 135° | 80km/h | 7605m | -10.7m/s | -19.4°C | 34.4% | 0hPa | 2.5V | 08:02:42 | 02:46:20 | 00:00:00 | |
| IW2NTF | 2026-09-03 13:19:08 | 46.20039 | 7.72253 | 136° | 82km/h | 7705m | -10.5m/s | -20.1°C | 21.1% | 0hPa | 2.6V | 08:02:52 | 02:46:10 | 00:00:00 | |
| IW2NTF | 2026-09-03 13:18:57 | 46.20201 | 7.72055 | 141° | 88km/h | 7806m | -9.5m/s | -20.8°C | 26.7% | 0hPa | 2.6V | 08:03:02 | 02:46:00 | 00:00:00 | |
| DL2OL | 2026-09-03 13:18:51 | 46.20251 | 7.71995 | 143° | 86km/h | 7836m | -10.0m/s | -21.1°C | 28.8% | 0hPa | 2.6V | 00:00:00 | 00:00:00 | 00:00:00 | |
| IW2NTF | 2026-09-03 13:18:47 | 46.20372 | 7.71855 | 139° | 89km/h | 7908m | -10.4m/s | -21.5°C | 44.7% | 0hPa | 2.6V | 08:03:12 | 02:45:50 | 00:00:00 | |
| IW2NTF | 2026-09-03 13:18:37 | 46.20546 | 7.71648 | 140° | 89km/h | 8011m | -9.9m/s | -22.4°C | 36.2% | 0hPa | 2.5V | 08:03:22 | 02:45:40 | 00:00:00 | |
| DB0UT-7 | 2026-09-03 13:18:36 | 46.20529 | 7.71668 | 141° | 91km/h | 8000m | -11.0m/s | -22.2°C | 36.5% | 0hPa | 2.5V | 00:00:00 | 02:45:41 | 00:00:00 | |
| IW2NTF | 2026-09-03 13:18:28 | 46.20722 | 7.71431 | 138° | 93km/h | 8111m | -10.4m/s | -23.3°C | 40.8% | 0hPa | 2.5V | 08:03:32 | 02:45:30 | 00:00:00 | |
| IW2NTF | 2026-09-03 13:18:17 | 46.20899 | 7.71208 | 139° | 93km/h | 8215m | -9.9m/s | -24.2°C | 43.5% | 0hPa | 2.6V | 08:03:42 | 02:45:20 | 00:00:00 | |
| IW2NTF | 2026-09-03 13:18:08 | 46.21075 | 7.70984 | 139° | 93km/h | 8319m | -10.2m/s | -25.2°C | 46.1% | 0hPa | 2.5V | 08:03:52 | 02:45:10 | 00:00:00 | |
| DL2OL | 2026-09-03 13:18:07 | 46.21022 | 7.71051 | 140° | 95km/h | 8287m | -10.1m/s | -24.9°C | 43.2% | 0hPa | 2.5V | 00:00:00 | 00:00:00 | 00:00:00 | |
| DB0UT-7 | 2026-09-03 13:18:06 | 46.21057 | 7.71006 | 139° | 89km/h | 8308m | -11.2m/s | -25.1°C | 46.0% | 0hPa | 2.5V | 00:00:00 | 00:00:00 | 00:00:00 | |
| IW2NTF | 2026-09-03 13:17:57 | 46.21247 | 7.70763 | 137° | 91km/h | 8423m | -11.1m/s | -26.2°C | 49.5% | 0hPa | 2.5V | 08:04:02 | 02:45:00 | 00:00:00 | |
| IW2NTF | 2026-09-03 13:17:47 | 46.21421 | 7.70553 | 140° | 89km/h | 8530m | -11.3m/s | -27.2°C | 55.8% | 0hPa | 2.5V | 08:04:12 | 02:44:50 | 00:00:00 | |
| IW2NTF | 2026-09-03 13:17:37 | 46.21602 | 7.70349 | 141° | 91km/h | 8637m | -11.1m/s | -28.2°C | 57.2% | 0hPa | 2.6V | 08:04:22 | 02:44:40 | 00:00:00 | |
| DB0UT-7 | 2026-09-03 13:17:36 | 46.21584 | 7.70370 | 142° | 93km/h | 8626m | -11.2m/s | -28.0°C | 56.5% | 0hPa | 2.6V | 00:00:00 | 02:44:41 | 00:00:00 | |
| IW2NTF | 2026-09-03 13:17:27 | 46.21788 | 7.70151 | 143° | 91km/h | 8743m | -11.4m/s | -28.9°C | 46.1% | 0hPa | 2.5V | 08:04:32 | 02:44:30 | 00:00:00 | |
| DL2OL | 2026-09-03 13:17:19 | 46.21881 | 7.70051 | 143° | 93km/h | 8795m | -10.9m/s | -29.3°C | 37.6% | 0hPa | 2.5V | 00:00:00 | 00:00:00 | 00:00:00 | |
| IW2NTF | 2026-09-03 13:17:17 | 46.21977 | 7.69950 | 143° | 95km/h | 8847m | -10.1m/s | -29.8°C | 39.5% | 0hPa | 2.5V | 08:04:42 | 02:44:20 | 00:00:00 | |
| IW2NTF | 2026-09-03 13:17:07 | 46.22168 | 7.69744 | 144° | 93km/h | 8954m | -10.6m/s | -30.8°C | 41.8% | 0hPa | 2.6V | 08:04:52 | 02:44:10 | 00:00:00 | |
| DB0UT-7 | 2026-09-03 13:17:06 | 46.22149 | 7.69764 | 144° | 97km/h | 8943m | -11.6m/s | -30.6°C | 41.5% | 0hPa | 2.5V | 00:00:00 | 00:00:00 | 00:00:00 | |
| IW2NTF | 2026-09-03 13:16:57 | 46.22364 | 7.69538 | 144° | 99km/h | 9057m | -10.3m/s | -31.8°C | 45.7% | 0hPa | 2.5V | 08:05:02 | 02:44:00 | 00:00:00 | |
| IW2NTF | 2026-09-03 13:16:48 | 46.22560 | 7.69329 | 142° | 97km/h | 9166m | -11.4m/s | -32.9°C | 49.8% | 0hPa | 2.6V | 08:05:12 | 02:43:50 | 00:00:00 | |
| IW2NTF | 2026-09-03 13:16:37 | 46.22757 | 7.69116 | 143° | 97km/h | 9277m | -11.3m/s | -34°C | 53.9% | 0hPa | 2.5V | 08:05:22 | 02:43:40 | 00:00:00 | |
| DB0UT-7 | 2026-09-03 13:16:36 | 46.22738 | 7.69136 | 144° | 102km/h | 9265m | -12.0m/s | -33.8°C | 53.3% | 0hPa | 2.6V | 00:00:00 | 02:43:41 | 00:00:00 | |
| DB0UT-7 | 2026-09-03 13:16:06 | 46.23388 | 7.68532 | 150° | 106km/h | 9608m | -11.4m/s | -36.9°C | 59.0% | 0hPa | 2.6V | 08:05:00 | 00:00:00 | 00:00:00 | |
| IW2NTF | 2026-09-03 13:15:58 | 46.23691 | 7.68287 | 152° | 104km/h | 9748m | -11.5m/s | -37.6°C | 64.6% | 0hPa | 2.6V | 08:06:04 | 02:42:58 | 00:00:00 | |
| DL2OL | 2026-09-03 13:15:53 | 46.23668 | 7.68305 | 152° | 106km/h | 9737m | -10.7m/s | -37.6°C | 59.9% | 0hPa | 2.6V | 08:06:00 | 00:00:00 | 00:00:00 | |
| IW2NTF | 2026-09-03 13:15:47 | 46.23927 | 7.68114 | 153° | 108km/h | 9851m | -9.3m/s | -38.5°C | 68.4% | 0hPa | 2.6V | 08:06:14 | 02:42:48 | 00:00:00 | |
| IW2NTF | 2026-09-03 13:15:37 | 46.24165 | 7.67939 | 151° | 102km/h | 9949m | -11.1m/s | -39.2°C | 68.6% | 0hPa | 2.6V | 08:06:24 | 02:42:38 | 00:00:00 | |
| DB0UT-7 | 2026-09-03 13:15:36 | 46.24095 | 7.67990 | 154° | 102km/h | 9919m | -10.4m/s | -38.9°C | 68.3% | 0hPa | 2.6V | 00:00:00 | 02:42:41 | 00:00:00 | |
| IW2NTF | 2026-09-03 13:15:27 | 46.24393 | 7.67760 | 150° | 104km/h | 10054m | -10.9m/s | -40°C | 68.8% | 0hPa | 2.6V | 08:06:34 | 02:42:28 | 00:00:00 | |
| DL2OL | 2026-09-03 13:15:08 | 46.24712 | 7.67510 | 153° | 102km/h | 10203m | -10.2m/s | -41.3°C | 66.0% | 0hPa | 2.6V | 08:07:00 | 00:00:00 | 00:00:00 | |
| DB0UT-7 | 2026-09-03 13:15:06 | 46.24780 | 7.67458 | 153° | 100km/h | 10233m | -10.5m/s | -41.5°C | 72.3% | 0hPa | 2.6V | 00:00:00 | 00:00:00 | 00:00:00 | |
| DL2OL | 2026-09-03 13:14:24 | 46.25694 | 7.66742 | 151° | 100km/h | 10684m | -11.8m/s | -45.6°C | 56.8% | 0hPa | 2.6V | 08:07:00 | 00:00:00 | 00:00:00 | |
| DB0UT-7 | 2026-09-03 13:14:06 | 46.26122 | 7.66403 | 152° | 102km/h | 10911m | -11.3m/s | -47.6°C | 61.1% | 0hPa | 2.6V | 00:00:00 | 00:00:00 | 00:00:00 | |
| IW2NTF | 2026-09-03 13:13:52 | 46.26552 | 7.66068 | 151° | 102km/h | 11117m | -11.3m/s | -49.4°C | 51.1% | 0hPa | 2.6V | 08:08:10 | 02:40:52 | 00:00:00 | |
| DL2OL | 2026-09-03 13:13:39 | 46.26711 | 7.65945 | 153° | 104km/h | 11194m | -10.9m/s | -50.0°C | 44.5% | 0hPa | 2.6V | 00:00:00 | 00:00:00 | 00:00:00 | |
| DB0UT-7 | 2026-09-03 13:13:36 | 46.26803 | 7.65873 | 152° | 110km/h | 11238m | -11.0m/s | -50.4°C | 50.5% | 0hPa | 2.6V | 00:00:00 | 02:40:41 | 00:00:00 | |
| IW2NTF | 2026-09-03 13:13:32 | 46.26965 | 7.65750 | 152° | 106km/h | 11315m | -10.9m/s | -51.1°C | 49.5% | 0hPa | 2.6V | 08:08:28 | 02:40:34 | 00:00:00 | |
| DO3MHA-11 | 2026-09-03 13:13:22 | 46.27136 | 7.65623 | 153° | 113km/h | 11391m | -10.9m/s | -51.8°C | 49.0% | 0hPa | 2.6V | 00:00:00 | 02:40:27 | 00:00:00 | |
| DO3MHA-11 | 2026-09-03 13:13:12 | 46.27390 | 7.65436 | 153° | 117km/h | 11500m | -10.6m/s | -52.7°C | 49.0% | 0hPa | 2.6V | 00:00:00 | 02:40:17 | 00:00:00 | |
| DB0UT-7 | 2026-09-03 13:13:06 | 46.27547 | 7.65317 | 152° | 122km/h | 11564m | -8.0m/s | -53.2°C | 48.3% | 0hPa | 2.5V | 00:00:00 | 00:00:00 | 00:00:00 | |
| DL2OL | 2026-09-03 13:13:04 | 46.27573 | 7.65296 | 153° | 119km/h | 11574m | -10.5m/s | -53.4°C | 41.4% | 0hPa | 2.5V | 00:00:00 | 00:00:00 | 00:00:00 | |
| DO3MHA-11 | 2026-09-03 13:13:02 | 46.27653 | 7.65234 | 152° | 120km/h | 11605m | -10.5m/s | -53.5°C | 47.2% | 0hPa | 2.5V | 00:00:00 | 02:40:07 | 00:00:00 | |
| DO3MHA-12 | 2026-09-03 13:12:52 | 46.27919 | 7.65022 | 151° | 122km/h | 11711m | -10.7m/s | -54.4°C | 46.9% | 0hPa | 2.5V | 00:00:00 | 02:39:57 | 00:00:00 | |
| DO3MHA-12 | 2026-09-03 13:12:42 | 46.28190 | 7.64805 | 152° | 124km/h | 11817m | -10.6m/s | -55.4°C | 47.1% | 0hPa | 2.5V | 00:00:00 | 02:39:47 | 00:00:00 | |
| DB0UT-7 | 2026-09-03 13:12:36 | 46.28355 | 7.64673 | 151° | 124km/h | 11882m | -10.9m/s | -56.0°C | 45.9% | 0hPa | 2.5V | 00:00:00 | 02:39:41 | 00:00:00 | |
| DO3MHA-12 | 2026-09-03 13:12:32 | 46.28464 | 7.64584 | 152° | 124km/h | 11925m | -10.7m/s | -56.4°C | 46.7% | 0hPa | 2.5V | 00:00:00 | 02:39:37 | 00:00:00 | |
| IW2NTF | 2026-09-03 13:12:21 | 46.28913 | 7.64250 | 153° | 124km/h | 12094m | -10.5m/s | -57.9°C | 45.5% | 0hPa | 2.6V | 08:09:41 | 02:39:21 | 00:00:00 | |
| DL2OL | 2026-09-03 13:12:16 | 46.28884 | 7.64270 | 155° | 124km/h | 12083m | -10.5m/s | -57.9°C | 37.8% | 0hPa | 2.5V | 00:00:00 | 00:00:00 | 00:00:00 | |
| DO3MHA-11 | 2026-09-03 13:12:12 | 46.29024 | 7.64169 | 154° | 122km/h | 12136m | -10.2m/s | -58.3°C | 46.2% | 0hPa | 2.5V | 00:00:00 | 02:39:17 | 00:00:00 | |
| IW2NTF | 2026-09-03 13:12:11 | 46.29191 | 7.64052 | 154° | 120km/h | 12197m | -10.3m/s | -58.9°C | 48.8% | 0hPa | 2.5V | 08:09:51 | 02:39:11 | 00:00:00 | |
| DB0UT-7 | 2026-09-03 13:12:06 | 46.29191 | 7.64052 | 155° | 119km/h | 12198m | -10.2m/s | -58.8°C | 48.8% | 0hPa | 2.5V | 00:00:00 | 00:00:00 | 00:00:00 | |
| DO3MHA-11 | 2026-09-03 13:12:02 | 46.29301 | 7.63976 | 155° | 120km/h | 12239m | -10.4m/s | -59.2°C | 49.9% | 0hPa | 2.5V | 00:00:00 | 02:39:07 | 00:00:00 | |
| IW2NTF | 2026-09-03 13:11:58 | 46.29465 | 7.63863 | 155° | 119km/h | 12302m | -10.4m/s | -59.9°C | 50.2% | 0hPa | 2.5V | 08:10:01 | 02:39:01 | 00:00:00 | |
| DO3MHA-11 | 2026-09-03 13:11:52 | 46.29575 | 7.63791 | 157° | 119km/h | 12344m | -10.4m/s | 0°C | 0% | 0hPa | 2.6V | 00:00:00 | 02:38:57 | 00:00:00 | |
| DO3MHA-12 | 2026-09-03 13:11:50 | 46.29630 | 7.63756 | 157° | 119km/h | 12365m | -10.5m/s | -60.4°C | 49.9% | 0hPa | 2.6V | 00:00:00 | 02:38:55 | 00:00:00 | |
| IW2NTF | 2026-09-03 13:11:48 | 46.29741 | 7.63689 | 157° | 119km/h | 12407m | -10.8m/s | -60.8°C | 49.3% | 0hPa | 2.6V | 08:10:11 | 02:38:51 | 00:00:00 | |
| DO3MHA-11 | 2026-09-03 13:11:42 | 46.29852 | 7.63623 | 159° | 115km/h | 12449m | -10.7m/s | -61.1°C | 49.9% | 0hPa | 2.5V | 00:00:00 | 02:38:47 | 00:00:00 | |
| DO3MHA-12 | 2026-09-03 13:11:39 | 46.29934 | 7.63575 | 159° | 115km/h | 12481m | -10.7m/s | -61.3°C | 50.2% | 0hPa | 2.5V | 08:10:00 | 02:38:44 | 00:00:00 | |
| IW2NTF | 2026-09-03 13:11:38 | 46.30016 | 7.63529 | 158° | 115km/h | 12513m | -10.7m/s | -61.6°C | 50.6% | 0hPa | 2.6V | 08:10:21 | 02:38:41 | 00:00:00 | |
| DB0UT-7 | 2026-09-03 13:11:36 | 46.30016 | 7.63529 | 159° | 110km/h | 12513m | -10.7m/s | -61.6°C | 50.6% | 0hPa | 2.6V | 08:10:00 | 02:38:41 | 00:00:00 | |
| DO3MHA-11 | 2026-09-03 13:11:32 | 46.30124 | 7.63469 | 159° | 111km/h | 12556m | -10.6m/s | -62.0°C | 50.5% | 0hPa | 2.6V | 00:00:00 | 02:38:37 | 00:00:00 | |
| DO3MHA-12 | 2026-09-03 13:11:29 | 46.30204 | 7.63425 | 160° | 110km/h | 12588m | -10.8m/s | -62.1°C | 49.2% | 0hPa | 2.6V | 00:00:00 | 02:38:34 | 00:00:00 | |
| IW2NTF | 2026-09-03 13:11:28 | 46.30283 | 7.63380 | 158° | 111km/h | 12620m | -10.7m/s | -62.4°C | 49% | 0hPa | 2.6V | 08:10:31 | 02:38:31 | 00:00:00 | |
| IW2NTF | 2026-09-03 13:11:22 | 46.30535 | 7.63222 | 154° | 106km/h | 12726m | -10.4m/s | -62.8°C | 47.6% | 0hPa | 2.6V | 08:10:41 | 02:38:21 | 00:00:00 | |
| DO3MHA-12 | 2026-09-03 13:11:19 | 46.30462 | 7.63271 | 156° | 106km/h | 12695m | -10.8m/s | -62.6°C | 48.8% | 0hPa | 2.5V | 00:00:00 | 02:38:24 | 00:00:00 | |
| DO3MHA-11 | 2026-09-03 13:11:12 | 46.30630 | 7.63151 | 152° | 106km/h | 12768m | -10.1m/s | -62.7°C | 46.2% | 0hPa | 2.5V | 08:10:00 | 02:38:17 | 00:00:00 | |
| IW2NTF | 2026-09-03 13:11:11 | 46.30769 | 7.63035 | 149° | 108km/h | 12831m | -10.7m/s | -63°C | 45.1% | 0hPa | 2.6V | 08:10:51 | 02:38:11 | 00:00:00 | |
| DO3MHA-12 | 2026-09-03 13:11:09 | 46.30699 | 7.63095 | 150° | 110km/h | 12799m | -10.5m/s | -62.8°C | 46.2% | 0hPa | 2.5V | 00:00:00 | 02:38:14 | 00:00:00 | |
| DL2OL | 2026-09-03 13:11:07 | 46.30723 | 7.63075 | 151° | 108km/h | 12810m | -10.4m/s | -63.0°C | 37.3% | 0hPa | 2.6V | 00:00:00 | 00:00:00 | 00:00:00 | |
| DB0UT-7 | 2026-09-03 13:11:06 | 46.30769 | 7.63035 | 150° | 122km/h | 12831m | -10.6m/s | -62.9°C | 45.1% | 0hPa | 2.6V | 00:00:00 | 00:00:00 | 00:00:00 | |
| DO3MHA-11 | 2026-09-03 13:11:02 | 46.30862 | 7.62950 | 147° | 117km/h | 12873m | -10.4m/s | -63.0°C | 44.6% | 0hPa | 2.6V | 00:00:00 | 02:38:07 | 00:00:00 | |
| IW2NTF | 2026-09-03 13:10:59 | 46.31005 | 7.62807 | 144° | 119km/h | 12937m | -10.7m/s | -63.1°C | 42.5% | 0hPa | 2.6V | 08:11:01 | 02:38:01 | 00:00:00 | |
| DO3MHA-12 | 2026-09-03 13:10:59 | 46.30932 | 7.62881 | 146° | 111km/h | 12905m | -10.6m/s | -63.1°C | 43.5% | 0hPa | 2.6V | 00:00:00 | 02:38:04 | 00:00:00 | |
| IW2NTF | 2026-09-03 13:10:49 | 46.31258 | 7.62541 | 143° | 130km/h | 13045m | -10.8m/s | -63.3°C | 38.6% | 0hPa | 2.6V | 08:11:11 | 02:37:51 | 00:00:00 | |
| IW2NTF | 2026-09-03 13:10:39 | 46.31528 | 7.62259 | 144° | 133km/h | 13154m | -10.9m/s | -64°C | 35.4% | 0hPa | 2.6V | 08:11:21 | 02:37:41 | 00:00:00 | |
| DB0UT-7 | 2026-09-03 13:10:36 | 46.31528 | 7.62259 | 145° | 124km/h | 13154m | -10.9m/s | -63.9°C | 35.4% | 0hPa | 2.6V | 00:00:00 | 02:37:41 | 00:00:00 | |
| IW2NTF | 2026-09-03 13:10:29 | 46.31816 | 7.61992 | 150° | 133km/h | 13264m | -11m/s | -64.5°C | 31% | 0hPa | 2.6V | 08:11:31 | 02:37:31 | 00:00:00 | |
| DL2OL | 2026-09-03 13:10:22 | 46.31903 | 7.61921 | 152° | 130km/h | 13298m | -11.2m/s | -64.5°C | 21.1% | 0hPa | 2.5V | 00:00:00 | 00:00:00 | 00:00:00 | |
| IW2NTF | 2026-09-03 13:10:20 | 46.32100 | 7.61773 | 153° | 119km/h | 13376m | -11.4m/s | -63.9°C | 23.5% | 0hPa | 2.5V | 08:11:41 | 02:37:21 | 00:00:00 | |
| DO3MHA-11 | 2026-09-03 13:10:15 | 46.32127 | 7.61753 | 153° | 108km/h | 13388m | -11.4m/s | -63.7°C | 22.6% | 0hPa | 2.5V | 00:00:00 | 02:37:20 | 00:00:00 | |
| IW2NTF | 2026-09-03 13:10:06 | 46.32340 | 7.61581 | 147° | 99km/h | 13490m | -11.4m/s | -62.9°C | 17.4% | 0hPa | 2.5V | 08:11:51 | 02:37:11 | 00:00:00 | |
| DB0UT-7 | 2026-09-03 13:10:06 | 46.32340 | 7.61581 | 148° | 93km/h | 13490m | -11.3m/s | -62.9°C | 17.4% | 0hPa | 2.5V | 00:00:00 | 00:00:00 | 00:00:00 | |
| DO3MHA-11 | 2026-09-03 13:10:05 | 46.32361 | 7.61562 | 147° | 95km/h | 13502m | -11.5m/s | -62.8°C | 17.1% | 0hPa | 2.5V | 00:00:00 | 02:37:10 | 00:00:00 | |
| IW2NTF | 2026-09-03 13:09:59 | 46.32535 | 7.61374 | 142° | 95km/h | 13604m | -11.4m/s | -62.3°C | 14% | 0hPa | 2.5V | 08:12:01 | 02:37:01 | 00:00:00 | |
| DO3MHA-11 | 2026-09-03 13:09:55 | 46.32554 | 7.61352 | 142° | 78km/h | 13615m | -11.3m/s | -62.2°C | 13.4% | 0hPa | 2.5V | 00:00:00 | 02:37:00 | 00:00:00 | |
| IW2NTF | 2026-09-03 13:09:49 | 46.32717 | 7.61165 | 141° | 89km/h | 13720m | -11.5m/s | -61.2°C | 10.9% | 0hPa | 2.5V | 08:12:11 | 02:36:51 | 00:00:00 | |
| IW2NTF | 2026-09-03 13:09:39 | 46.32893 | 7.60958 | 141° | 88km/h | 13836m | -11.7m/s | -60.5°C | 9.7% | 0hPa | 2.6V | 08:12:21 | 02:36:41 | 00:00:00 | |
| DB0UT-7 | 2026-09-03 13:09:36 | 46.32893 | 7.60958 | 142° | 82km/h | 13836m | -11.6m/s | -60.5°C | 9.7% | 0hPa | 2.6V | 00:00:00 | 02:36:41 | 00:00:00 | |
| IW2NTF | 2026-09-03 13:09:29 | 46.33060 | 7.60755 | 136° | 80km/h | 13955m | -11.8m/s | -59.8°C | 10% | 0hPa | 2.6V | 08:12:31 | 02:36:31 | 00:00:00 | |
| IW2NTF | 2026-09-03 13:09:19 | 46.33196 | 7.60548 | 132° | 80km/h | 14074m | -11.6m/s | -59.4°C | 9% | 0hPa | 2.5V | 08:12:41 | 02:36:21 | 00:00:00 | |
| DH7VM-15 | 2026-09-03 13:09:11 | 46.33251 | 7.60459 | 134° | 84km/h | 14121m | -12.2m/s | -59.7°C | 4.6% | 0hPa | 2.5V | 00:00:00 | 00:00:00 | 00:00:00 | |
| IW2NTF | 2026-09-03 13:09:09 | 46.33339 | 7.60326 | 134° | 80km/h | 14193m | -12.2m/s | -59.3°C | 8.1% | 0hPa | 2.5V | 08:12:51 | 02:36:11 | 00:00:00 | |
| DB0UT-7 | 2026-09-03 13:09:06 | 46.33339 | 7.60326 | 135° | 78km/h | 14194m | -12.2m/s | -59.2°C | 8.1% | 0hPa | 2.6V | 00:00:00 | 00:00:00 | 00:00:00 | |
| IW2NTF | 2026-09-03 13:08:58 | 46.33471 | 7.60122 | 131° | 77km/h | 14314m | -12.2m/s | -59°C | 8.1% | 0hPa | 2.6V | 08:13:01 | 02:36:01 | 00:00:00 | |
| DL2OL | 2026-09-03 13:08:54 | 46.33484 | 7.60101 | 132° | 77km/h | 14327m | -12.2m/s | -58.9°C | 4.5% | 0hPa | 2.5V | 00:00:00 | 00:00:00 | 00:00:00 | |
| IW2NTF | 2026-09-03 13:08:48 | 46.33598 | 7.59906 | 130° | 78km/h | 14437m | -12.4m/s | -59.6°C | 8.1% | 0hPa | 2.5V | 08:13:11 | 02:35:51 | 00:00:00 | |
| IW2NTF | 2026-09-03 13:08:41 | 46.33729 | 7.59686 | 128° | 78km/h | 14561m | -12.6m/s | -59.7°C | 8.4% | 0hPa | 2.6V | 08:13:21 | 02:35:41 | 00:00:00 | |
| DB0UT-7 | 2026-09-03 13:08:36 | 46.33729 | 7.59686 | 129° | 71km/h | 14561m | -12.6m/s | -59.7°C | 8.4% | 0hPa | 2.6V | 00:00:00 | 02:35:41 | 00:00:00 | |
| IW2NTF | 2026-09-03 13:08:28 | 46.33846 | 7.59461 | 125° | 75km/h | 14686m | -12.5m/s | -59.9°C | 8.1% | 0hPa | 2.6V | 08:13:31 | 02:35:31 | 00:00:00 | |
| IW2NTF | 2026-09-03 13:08:21 | 46.33947 | 7.59240 | 120° | 66km/h | 14811m | -12.6m/s | -59.5°C | 7.6% | 0hPa | 2.5V | 08:13:41 | 02:35:21 | 00:00:00 | |
| DO3MHA-11 | 2026-09-03 13:08:16 | 46.33947 | 7.59240 | 121° | 62km/h | 14811m | -12.5m/s | -59.5°C | 7.6% | 0hPa | 2.5V | 00:00:00 | 02:35:21 | 00:00:00 | |
| DL2OL | 2026-09-03 13:08:10 | 46.33985 | 7.59138 | 118° | 60km/h | 14874m | -12.5m/s | -60.0°C | 4.0% | 0hPa | 2.5V | 08:14:00 | 00:00:00 | 00:00:00 | |
| IW2NTF | 2026-09-03 13:08:08 | 46.34019 | 7.59038 | 114° | 60km/h | 14937m | -12.6m/s | -60.2°C | 7.6% | 0hPa | 2.5V | 08:13:51 | 02:35:11 | 00:00:00 | |
| IW2NTF | 2026-09-03 13:07:58 | 46.34087 | 7.58823 | 112° | 69km/h | 15064m | -12.7m/s | -60°C | 7.3% | 0hPa | 2.6V | 08:14:01 | 02:35:01 | 00:00:00 | |
| DB0UT-7 | 2026-09-03 13:07:36 | 46.34252 | 7.58328 | 120° | 69km/h | 15320m | -12.9m/s | -61.0°C | 7.3% | 0hPa | 2.5V | 00:00:00 | 02:34:41 | 00:00:00 | |
| DL2OL | 2026-09-03 13:07:27 | 46.34340 | 7.58127 | 126° | 80km/h | 15423m | -12.8m/s | -61.4°C | 3.5% | 0hPa | 2.5V | 08:15:00 | 00:00:00 | 00:00:00 | |
| DB0UT-7 | 2026-09-03 13:07:06 | 46.34566 | 7.57728 | 124° | 64km/h | 15706m | -13.0m/s | -60.9°C | 6.9% | 0hPa | 2.5V | 08:14:00 | 00:00:00 | 00:00:00 | |
| DL2OL | 2026-09-03 13:06:42 | 46.34736 | 7.57279 | 129° | 75km/h | 16007m | -13.3m/s | -61.3°C | 2.9% | 0hPa | 2.6V | 00:00:00 | 00:00:00 | 00:00:00 | |
| DB0UT-7 | 2026-09-03 13:06:36 | 46.34815 | 7.57140 | 131° | 60km/h | 16100m | -13.2m/s | -60.9°C | 6.7% | 0hPa | 2.6V | 00:00:00 | 02:33:41 | 00:00:00 | |
| DB0UT-7 | 2026-09-03 13:06:06 | 46.35077 | 7.56595 | 132° | 53km/h | 16516m | -14.2m/s | -59.6°C | 5.6% | 0hPa | 2.6V | 00:00:00 | 00:00:00 | 00:00:00 | |
| DK5PH-5 | 2026-09-03 13:05:58 | 46.35157 | 7.56483 | 140° | 53km/h | 16631m | -14.1m/s | -59.7°C | 5.5% | 0hPa | 2.6V | 00:00:00 | 02:33:03 | 00:00:00 | |
| IW2NTF | 2026-09-03 13:05:41 | 46.35328 | 7.56148 | 119° | 62km/h | 16954m | -14.7m/s | -59.8°C | 5.4% | 0hPa | 2.6V | 08:16:21 | 02:32:41 | 00:00:00 | |
| DL2OL | 2026-09-03 13:05:38 | 46.35305 | 7.56206 | 121° | 60km/h | 16909m | -14.5m/s | -60.0°C | 2.0% | 0hPa | 2.6V | 08:16:00 | 00:00:00 | 00:00:00 | |
| DB0UT-7 | 2026-09-03 13:05:36 | 46.35328 | 7.56148 | 120° | 57km/h | 16954m | -14.7m/s | -59.7°C | 5.4% | 0hPa | 2.6V | 00:00:00 | 02:32:41 | 00:00:00 | |
| DK5PH-5 | 2026-09-03 13:05:28 | 46.35390 | 7.56001 | 128° | 24km/h | 17076m | -15.1m/s | -59.6°C | 5.2% | 0hPa | 2.5V | 00:00:00 | 02:32:33 | 00:00:00 | |
| IW2NTF | 2026-09-03 13:05:27 | 46.35408 | 7.55972 | 131° | 53km/h | 17106m | -15m/s | -59.4°C | 5.1% | 0hPa | 2.5V | 08:16:31 | 02:32:31 | 00:00:00 | |
| IW2NTF | 2026-09-03 13:05:21 | 46.35505 | 7.55834 | 135° | 58km/h | 17257m | -14.9m/s | -59.2°C | 5% | 0hPa | 2.6V | 08:16:41 | 02:32:21 | 00:00:00 | |
| IW2NTF | 2026-09-03 13:05:07 | 46.35624 | 7.55699 | 149° | 53km/h | 17400m | -14.6m/s | -59.6°C | 5.1% | 0hPa | 2.6V | 08:16:51 | 02:32:11 | 00:00:00 | |
| DB0UT-7 | 2026-09-03 13:05:05 | 46.35635 | 7.55689 | 151° | 37km/h | 17416m | -15.8m/s | -59.6°C | 5.1% | 0hPa | 2.5V | 00:00:00 | 00:00:00 | 00:00:00 | |
| IW2NTF | 2026-09-03 13:05:01 | 46.35724 | 7.55618 | 150° | 40km/h | 17545m | -13.5m/s | -59°C | 5% | 0hPa | 2.5V | 08:17:01 | 02:32:01 | 00:00:00 | |
| DL2OL | 2026-09-03 13:04:54 | 46.35733 | 7.55611 | 153° | 40km/h | 17559m | -13.0m/s | -58.9°C | 1.6% | 0hPa | 2.5V | 08:17:00 | 00:00:00 | 00:00:00 | |
| IW2NTF | 2026-09-03 13:04:47 | 46.35798 | 7.55560 | 140° | 27km/h | 17671m | -11.9m/s | -58.5°C | 4.8% | 0hPa | 2.5V | 08:17:11 | 02:31:51 | 00:00:00 | |
| IW2NTF | 2026-09-03 13:04:41 | 46.35845 | 7.55475 | 124° | 27km/h | 17801m | -12.2m/s | -58.9°C | 5% | 0hPa | 2.6V | 08:17:21 | 02:31:41 | 00:00:00 | |
| DB0UT-7 | 2026-09-03 13:04:35 | 46.35849 | 7.55467 | 125° | 40km/h | 17814m | -12.6m/s | -58.8°C | 5.1% | 0hPa | 2.5V | 00:00:00 | 02:31:40 | 00:00:00 | |
| IW2NTF | 2026-09-03 13:04:27 | 46.35881 | 7.55381 | 114° | 33km/h | 17932m | -13m/s | -57.5°C | 4.5% | 0hPa | 2.5V | 08:17:31 | 02:31:31 | 00:00:00 | |
| IW2NTF | 2026-09-03 13:04:22 | 46.35939 | 7.55262 | 134° | 49km/h | 18065m | -13.9m/s | -57.4°C | 4.5% | 0hPa | 2.7V | 08:17:41 | 02:31:21 | 00:00:00 | |
| DL2OL | 2026-09-03 13:04:11 | 46.35976 | 7.55209 | 138° | 53km/h | 18118m | -12.2m/s | -57.4°C | 1.3% | 0hPa | 2.5V | 00:00:00 | 00:00:00 | 00:00:00 | |
| IW2NTF | 2026-09-03 13:04:07 | 46.36031 | 7.55143 | 145° | 42km/h | 18194m | -11.6m/s | -57.2°C | 4.5% | 0hPa | 2.5V | 08:17:51 | 02:31:11 | 00:00:00 | |
| DB0UT-7 | 2026-09-03 13:04:05 | 46.36040 | 7.55135 | 148° | 37km/h | 18207m | -13.4m/s | -57.0°C | 4.5% | 0hPa | 2.6V | 00:00:00 | 00:00:00 | 00:00:00 | |
| IW2NTF | 2026-09-03 13:04:01 | 46.36108 | 7.55076 | 144° | 33km/h | 18323m | -11.8m/s | -56.5°C | 4.3% | 0hPa | 2.7V | 08:18:01 | 02:31:01 | 00:00:00 | |
| IW2NTF | 2026-09-03 13:03:47 | 46.36169 | 7.54992 | 136° | 37km/h | 18450m | -11.8m/s | -55.9°C | 4.1% | 0hPa | 2.6V | 08:18:11 | 02:30:51 | 00:00:00 | |
| IW2NTF | 2026-09-03 13:03:41 | 46.36254 | 7.54919 | 161° | 37km/h | 18577m | -12.1m/s | -55.9°C | 4.1% | 0hPa | 2.7V | 08:18:21 | 02:30:41 | 00:00:00 | |
| DF7PN | 2026-09-03 13:03:38 | 46.36236 | 7.54928 | 156° | 38km/h | 18551m | -12.5m/s | -55.8°C | 1.0% | -1.0hPa | 2.6V | 00:00:00 | 00:00:00 | 00:00:00 | |
| DB0UT-7 | 2026-09-03 13:03:35 | 46.36262 | 7.54915 | 165° | 15km/h | 18590m | -12.7m/s | -55.8°C | 4.1% | 0hPa | 2.6V | 00:00:00 | 02:30:40 | 00:00:00 | |
| DL2OL | 2026-09-03 13:03:27 | 46.36313 | 7.54907 | 185° | 24km/h | 18678m | -12.2m/s | -55.7°C | 1.2% | 0hPa | 2.6V | 00:00:00 | 00:00:00 | 00:00:00 | |
| IW2NTF | 2026-09-03 13:03:27 | 46.36324 | 7.54909 | 188° | 18km/h | 18703m | -12.9m/s | -55.4°C | 3.9% | 0hPa | 2.6V | 08:18:31 | 02:30:31 | 00:00:00 | |
| IW2NTF | 2026-09-03 13:03:21 | 46.36352 | 7.54919 | 226° | 5km/h | 18833m | -12.6m/s | -55.6°C | 3.8% | 0hPa | 2.6V | 08:18:41 | 02:30:21 | 00:00:00 | |
| IW2NTF | 2026-09-03 13:03:07 | 46.36356 | 7.54933 | 50° | 4km/h | 18965m | -13.4m/s | -56.5°C | 4.3% | 0hPa | 2.7V | 08:18:51 | 02:30:11 | 00:00:00 | |
| DF7PN | 2026-09-03 13:03:07 | 46.36357 | 7.54933 | 39° | 2km/h | 18952m | -13.0m/s | -56.4°C | 1.0% | -1.0hPa | 2.6V | 00:00:00 | 00:00:00 | 00:00:00 | |
| DB0UT-7 | 2026-09-03 13:03:05 | 46.36355 | 7.54931 | 51° | 15km/h | 18978m | -13.0m/s | -56.6°C | 4.3% | 0hPa | 2.6V | 00:00:00 | 00:00:00 | 00:00:00 | |
| IW2NTF | 2026-09-03 13:02:58 | 46.36345 | 7.54899 | 113° | 15km/h | 19098m | -13.2m/s | -56.9°C | 4.3% | 0hPa | 2.6V | 08:19:01 | 02:30:01 | 00:00:00 | |
| DK5PH-5 | 2026-09-03 13:02:51 | 46.36361 | 7.54878 | 145° | 18km/h | 19166m | -13.7m/s | -56.8°C | 4.5% | 0hPa | 2.6V | 00:00:00 | 02:29:56 | 00:00:00 | |
| IW2NTF | 2026-09-03 13:02:48 | 46.36376 | 7.54856 | 123° | 15km/h | 19233m | -13.6m/s | -56.6°C | 4.4% | 0hPa | 2.6V | 08:19:11 | 02:29:51 | 00:00:00 | |
| DL2OL | 2026-09-03 13:02:42 | 46.36382 | 7.54844 | 130° | 13km/h | 19274m | -13.4m/s | -56.2°C | 1.2% | 0hPa | 2.6V | 00:00:00 | 00:00:00 | 00:00:00 | |
| IW2NTF | 2026-09-03 13:02:38 | 46.36406 | 7.54811 | 144° | 24km/h | 19371m | -13.8m/s | -55.6°C | 4.1% | 0hPa | 2.6V | 08:19:21 | 02:29:41 | 00:00:00 | |
| DB0UT-7 | 2026-09-03 13:02:35 | 46.36410 | 7.54806 | 147° | 11km/h | 19385m | -13.7m/s | -55.5°C | 4.1% | 0hPa | 2.6V | 08:19:00 | 02:29:40 | 00:00:00 | |
| IW2NTF | 2026-09-03 13:02:28 | 46.36458 | 7.54788 | 173° | 16km/h | 19511m | -13.9m/s | -55.1°C | 3.9% | 0hPa | 2.7V | 08:19:31 | 02:29:31 | 00:00:00 | |
| IW2NTF | 2026-09-03 13:02:22 | 46.36478 | 7.54798 | 272° | 5km/h | 19653m | -13.9m/s | -55°C | 3.7% | 0hPa | 2.7V | 08:19:41 | 02:29:21 | 00:00:00 | |
| IW2NTF | 2026-09-03 13:02:11 | 46.36474 | 7.54809 | 216° | 2km/h | 19799m | -14.5m/s | -56.1°C | 4% | 0hPa | 2.7V | 08:19:51 | 02:29:11 | 00:00:00 | |
| DB0UT-7 | 2026-09-03 13:02:05 | 46.36475 | 7.54809 | 190° | 15km/h | 19813m | -14.5m/s | -56.1°C | 4.1% | 0hPa | 2.7V | 00:00:00 | 00:00:00 | 00:00:00 | |
| IW2NTF | 2026-09-03 13:02:01 | 46.36484 | 7.54799 | 95° | 7km/h | 19944m | -14.5m/s | -56.4°C | 4.1% | 0hPa | 2.7V | 08:20:01 | 02:29:01 | 00:00:00 | |
| DL2OL | 2026-09-03 13:01:59 | 46.36480 | 7.54806 | 149° | 5km/h | 19886m | -14.4m/s | -56.1°C | 1.1% | 0hPa | 2.6V | 00:00:00 | 00:00:00 | 00:00:00 | |
| IW2NTF | 2026-09-03 13:01:51 | 46.36478 | 7.54758 | 95° | 15km/h | 20088m | -14.5m/s | -57.3°C | 4.7% | 0hPa | 2.6V | 08:20:11 | 02:28:51 | 00:00:00 | |
| IW2NTF | 2026-09-03 13:01:41 | 46.36487 | 7.54663 | 96° | 37km/h | 20234m | -14.7m/s | -56.6°C | 4.6% | 0hPa | 2.6V | 08:20:21 | 02:28:41 | 00:00:00 | |
| DH7VM-15 | 2026-09-03 13:01:39 | 46.36483 | 7.54712 | 98° | 29km/h | 20176m | -14.4m/s | -56.8°C | 1.1% | 0hPa | 2.6V | 08:20:00 | 00:00:00 | 00:00:00 | |
| DB0UT-7 | 2026-09-03 13:01:35 | 46.36488 | 7.54650 | 98° | 24km/h | 20249m | -14.6m/s | -56.3°C | 4.5% | 0hPa | 2.6V | 00:00:00 | 02:28:40 | 00:00:00 | |
| IW2NTF | 2026-09-03 13:01:31 | 46.36518 | 7.54533 | 131° | 37km/h | 20383m | -15m/s | -54.9°C | 4.1% | 0hPa | 2.6V | 08:20:31 | 02:28:31 | 00:00:00 | |
| IW2NTF | 2026-09-03 13:01:20 | 46.36572 | 7.54477 | 144° | 16km/h | 20534m | -15.3m/s | -53.4°C | 3.6% | 0hPa | 2.6V | 08:20:41 | 02:28:21 | 00:00:00 | |
| IW2NTF | 2026-09-03 13:01:10 | 46.36583 | 7.54455 | 67° | 5km/h | 20689m | -15.3m/s | -53.3°C | 3.4% | 0hPa | 2.7V | 08:20:51 | 02:28:11 | 00:00:00 | |
| DB0UT-7 | 2026-09-03 13:01:05 | 46.36583 | 7.54453 | 62° | 11km/h | 20704m | -15.4m/s | -53.4°C | 3.5% | 0hPa | 2.6V | 00:00:00 | 00:00:00 | 00:00:00 | |
| DK5PH-5 | 2026-09-03 13:01:03 | 46.36580 | 7.54448 | 55° | 11km/h | 20736m | -15.7m/s | -53.6°C | 3.6% | 0hPa | 2.6V | 00:00:00 | 02:28:08 | 00:00:00 | |
| IW2NTF | 2026-09-03 13:01:00 | 46.36574 | 7.54419 | 100° | 15km/h | 20845m | -15.7m/s | -54°C | 3.7% | 0hPa | 2.6V | 08:21:01 | 02:28:01 | 00:00:00 | |
| IW2NTF | 2026-09-03 13:00:46 | 46.36586 | 7.54393 | 25° | 5km/h | 21003m | -16m/s | -54.3°C | 3.7% | 0hPa | 2.6V | 08:21:11 | 02:27:51 | 00:00:00 | |
| IW2NTF | 2026-09-03 13:00:38 | 46.36572 | 7.54358 | 87° | 16km/h | 21165m | -16.3m/s | -54.3°C | 3.7% | 0hPa | 2.6V | 08:21:21 | 02:27:41 | 00:00:00 | |
| DB0UT-7 | 2026-09-03 13:00:35 | 46.36571 | 7.54353 | 87° | 16km/h | 21182m | -16.3m/s | -54.3°C | 3.7% | 0hPa | 2.7V | 00:00:00 | 02:27:40 | 00:00:00 | |
| DK5PH-5 | 2026-09-03 13:00:33 | 46.36570 | 7.54341 | 75° | 16km/h | 21214m | -16.1m/s | -54.4°C | 3.7% | 0hPa | 2.7V | 00:00:00 | 02:27:38 | 00:00:00 | |
| DF7PN | 2026-09-03 13:00:32 | 46.36569 | 7.54336 | 68° | 16km/h | 21231m | -16.1m/s | -54.5°C | 0.8% | -1.0hPa | 2.7V | 00:00:00 | 00:00:00 | 00:00:00 | |
| IW2NTF | 2026-09-03 13:00:28 | 46.36554 | 7.54295 | 66° | 24km/h | 21329m | -16.5m/s | -54.6°C | 3.8% | 0hPa | 2.7V | 08:21:31 | 02:27:31 | 00:00:00 | |
| DH7VM-15 | 2026-09-03 13:00:25 | 46.36553 | 7.54295 | 68° | 24km/h | 21329m | -16.5m/s | -54.6°C | 0.9% | 0hPa | 2.6V | 00:00:00 | 00:00:00 | 00:00:00 | |
| IW2NTF | 2026-09-03 13:00:20 | 46.36550 | 7.54235 | 87° | 7km/h | 21495m | -16.7m/s | -55.2°C | 4% | 0hPa | 2.6V | 08:21:41 | 02:27:21 | 00:00:00 | |
| DL2OL | 2026-09-03 13:00:13 | 46.36549 | 7.54230 | 78° | 7km/h | 21529m | -16.8m/s | -55.0°C | 1.0% | 0hPa | 2.6V | 00:00:00 | 00:00:00 | 00:00:00 | |
| IW2NTF | 2026-09-03 13:00:07 | 46.36554 | 7.54189 | 118° | 20km/h | 21664m | -17.1m/s | -54.2°C | 3.8% | 0hPa | 2.6V | 08:21:51 | 02:27:11 | 00:00:00 | |
| DB0UT-7 | 2026-09-03 13:00:05 | 46.36556 | 7.54183 | 122° | 15km/h | 21682m | -17.2m/s | -54.2°C | 3.8% | 0hPa | 2.7V | 00:00:00 | 00:00:00 | 00:00:00 | |
| DF7PN | 2026-09-03 13:00:01 | 46.36565 | 7.54162 | 111° | 7km/h | 21767m | -17.3m/s | -54.3°C | 0.8% | -1.0hPa | 2.7V | 00:00:00 | 00:00:00 | 00:00:00 | |
| IW2NTF | 2026-09-03 12:59:58 | 46.36565 | 7.54150 | 84° | 11km/h | 21836m | -17.2m/s | -53.9°C | 3.8% | 0hPa | 2.7V | 08:22:01 | 02:27:01 | 00:00:00 | |
| IW2NTF | 2026-09-03 12:59:48 | 46.36576 | 7.54080 | 121° | 20km/h | 22010m | -17.3m/s | -53.8°C | 3.8% | 0hPa | 2.6V | 08:22:11 | 02:26:51 | 00:00:00 | |
| DL2OL | 2026-09-03 12:59:38 | 46.36594 | 7.54059 | 177° | 11km/h | 22133m | -17.9m/s | -53.2°C | 0.8% | 0hPa | 2.6V | 08:22:00 | 00:00:00 | 00:00:00 | |
| IW2NTF | 2026-09-03 12:59:37 | 46.36602 | 7.54059 | 180° | 11km/h | 22187m | -17.6m/s | -53°C | 3.6% | 0hPa | 2.6V | 08:22:21 | 02:26:41 | 00:00:00 | |
| DK5PH-5 | 2026-09-03 12:59:37 | 46.36599 | 7.54059 | 182° | 13km/h | 22169m | -17.8m/s | -52.9°C | 3.6% | 0hPa | 2.6V | 00:00:00 | 02:26:42 | 00:00:00 | |
| DB0UT-7 | 2026-09-03 12:59:35 | 46.36605 | 7.54059 | 174° | 11km/h | 22205m | -17.8m/s | -52.9°C | 3.5% | 0hPa | 2.6V | 00:00:00 | 02:26:40 | 00:00:00 | |
| IW2NTF | 2026-09-03 12:59:32 | 46.36625 | 7.54038 | 114° | 11km/h | 22366m | -18.1m/s | -52.6°C | 3.4% | 0hPa | 2.7V | 08:22:31 | 02:26:31 | 00:00:00 | |
| DF7PN | 2026-09-03 12:59:30 | 46.36621 | 7.54048 | 131° | 11km/h | 22312m | -18.0m/s | -52.5°C | 0.7% | -1.0hPa | 2.6V | 00:00:00 | 00:00:00 | 00:00:00 | |
| IW2NTF | 2026-09-03 12:59:22 | 46.36642 | 7.54007 | 168° | 9km/h | 22549m | -18.4m/s | -52.7°C | 3.4% | 0hPa | 2.6V | 08:22:41 | 02:26:21 | 00:00:00 | |
| IW2NTF | 2026-09-03 12:59:11 | 46.36651 | 7.54037 | 293° | 13km/h | 22734m | -18.5m/s | -52.7°C | 3.4% | 0hPa | 2.6V | 08:22:51 | 02:26:11 | 00:00:00 | |
| DB0UT-7 | 2026-09-03 12:59:05 | 46.36649 | 7.54041 | 298° | 15km/h | 22752m | -18.6m/s | -52.7°C | 3.5% | 0hPa | 2.7V | 00:00:00 | 00:00:00 | 00:00:00 | |
| DF7PN | 2026-09-03 12:58:59 | 46.36642 | 7.54059 | 337° | 4km/h | 22883m | -18.9m/s | -53.0°C | 0.7% | -1.0hPa | 2.7V | 00:00:00 | 00:00:00 | 00:00:00 | |
| DL2OL | 2026-09-03 12:58:57 | 46.36642 | 7.54058 | 338° | 4km/h | 22883m | -18.9m/s | -53.0°C | 0.8% | 0hPa | 2.7V | 00:00:00 | 00:00:00 | 00:00:00 | |
| IW2NTF | 2026-09-03 12:58:56 | 46.36639 | 7.54058 | 18° | 5km/h | 22921m | -18.7m/s | -53.2°C | 3.7% | 0hPa | 2.7V | 08:23:01 | 02:26:01 | 00:00:00 | |
| IW2NTF | 2026-09-03 12:58:51 | 46.36636 | 7.54018 | 127° | 20km/h | 23110m | -19.1m/s | -53.2°C | 3.6% | 0hPa | 2.6V | 08:23:11 | 02:25:51 | 00:00:00 | |
| IW2NTF | 2026-09-03 12:58:36 | 46.36689 | 7.53968 | 190° | 16km/h | 23342m | -19.2m/s | -52.4°C | 3.5% | 0hPa | 2.7V | 08:23:23 | 02:25:39 | 00:00:00 | |
| DB0UT-7 | 2026-09-03 12:58:35 | 46.36684 | 7.53968 | 178° | 13km/h | 23323m | -19.1m/s | -52.4°C | 3.5% | 0hPa | 2.6V | 00:00:00 | 02:25:40 | 00:00:00 | |
| IW2NTF | 2026-09-03 12:58:29 | 46.36707 | 7.54004 | 322° | 11km/h | 23538m | -20m/s | -52.1°C | 3.5% | 0hPa | 2.6V | 08:23:33 | 02:25:29 | 00:00:00 | |
| DF7PN | 2026-09-03 12:58:28 | 46.36710 | 7.53994 | 261° | 9km/h | 23479m | -19.7m/s | -52.4°C | 0.7% | -1.0hPa | 2.7V | 00:00:00 | 00:00:00 | 00:00:00 | |
| DL2OL | 2026-09-03 12:58:21 | 46.36701 | 7.54009 | 322° | 15km/h | 23579m | -20.0m/s | -51.8°C | 0.7% | 0hPa | 2.7V | 00:00:00 | 00:00:00 | 00:00:00 | |
| IW2NTF | 2026-09-03 12:58:19 | 46.36697 | 7.54045 | 235° | 13km/h | 23739m | -20.8m/s | -51.4°C | 3.2% | 0hPa | 2.7V | 08:23:43 | 02:25:19 | 00:00:00 | |
| DK5PH-5 | 2026-09-03 12:58:14 | 46.36697 | 7.54045 | 236° | 13km/h | 23740m | -20.7m/s | -51.3°C | 3.2% | 0hPa | 2.7V | 00:00:00 | 02:25:19 | 00:00:00 | |
| DO3MHA-11 | 2026-09-03 12:58:13 | 46.36699 | 7.54049 | 226° | 13km/h | 23760m | -20.3m/s | -51.3°C | 3.2% | 0hPa | 2.7V | 00:00:00 | 02:25:18 | 00:00:00 | |
| IW2NTF | 2026-09-03 12:58:09 | 46.36713 | 7.54061 | 226° | 11km/h | 23943m | -20.6m/s | -51.3°C | 3.2% | 0hPa | 2.7V | 08:23:53 | 02:25:09 | 00:00:00 | |
| DB0UT-7 | 2026-09-03 12:58:05 | 46.36712 | 7.54058 | 218° | 15km/h | 23923m | -20.5m/s | -51.2°C | 3.2% | 0hPa | 2.7V | 08:23:00 | 00:00:00 | 00:00:00 | |
| DF7PN | 2026-09-03 12:57:56 | 46.36727 | 7.54107 | 260° | 16km/h | 24109m | -21.0m/s | -51.6°C | 0.6% | -1.0hPa | 2.6V | 00:00:00 | 00:00:00 | 00:00:00 | |
| IW2NTF | 2026-09-03 12:57:54 | 46.36728 | 7.54119 | 263° | 16km/h | 24151m | -21m/s | -51.8°C | 3.4% | 0hPa | 2.6V | 08:24:03 | 02:24:59 | 00:00:00 | |
| DL2OL | 2026-09-03 12:57:53 | 46.36728 | 7.54119 | 265° | 16km/h | 24151m | -21.0m/s | -51.8°C | 0.7% | 0hPa | 2.7V | 00:00:00 | 00:00:00 | 00:00:00 | |
| DO3MHA-11 | 2026-09-03 12:57:50 | 46.36727 | 7.54139 | 290° | 13km/h | 24236m | -21.2m/s | -51.6°C | 3.3% | 0hPa | 2.7V | 00:00:00 | 02:24:55 | 00:00:00 | |
| IW2NTF | 2026-09-03 12:57:44 | 46.36713 | 7.54158 | 335° | 15km/h | 24364m | -21.9m/s | -51.4°C | 3.2% | 0hPa | 2.7V | 08:24:13 | 02:24:49 | 00:00:00 | |
| DL6DJ-15 | 2026-09-03 12:57:42 | 46.36707 | 7.54162 | 332° | 13km/h | 24408m | -21.4m/s | -51.3°C | 0.6% | -1.0hPa | 2.7V | 00:00:00 | 00:00:00 | 00:00:00 | |
| DO3MHA-11 | 2026-09-03 12:57:40 | 46.36701 | 7.54168 | 321° | 18km/h | 24452m | -21.4m/s | -51.3°C | 3.3% | 0hPa | 2.7V | 00:00:00 | 02:24:45 | 00:00:00 | |
| IW2NTF | 2026-09-03 12:57:34 | 46.36682 | 7.54187 | 340° | 18km/h | 24583m | -22.4m/s | -51.1°C | 3.2% | 0hPa | 2.7V | 08:24:23 | 02:24:39 | 00:00:00 | |
| DO3MHA-11 | 2026-09-03 12:57:30 | 46.36659 | 7.54194 | 356° | 26km/h | 24672m | -22.3m/s | -51.2°C | 3.3% | 0hPa | 2.7V | 00:00:00 | 02:24:35 | 00:00:00 | |
| IW2NTF | 2026-09-03 12:57:28 | 46.36619 | 7.54196 | 359° | 24km/h | 24807m | -22.8m/s | -50.6°C | 3.1% | 0hPa | 2.7V | 08:24:33 | 02:24:29 | 00:00:00 | |
| DF7PN | 2026-09-03 12:57:25 | 46.36625 | 7.54196 | 356° | 24km/h | 24784m | -22.7m/s | -50.8°C | 0.6% | -1.0hPa | 2.6V | 00:00:00 | 00:00:00 | 00:00:00 | |
| DO3MHA-11 | 2026-09-03 12:57:20 | 46.36599 | 7.54192 | 17° | 24km/h | 24899m | -22.7m/s | -50.5°C | 3.1% | 0hPa | 2.6V | 00:00:00 | 02:24:25 | 00:00:00 | |
| IW2NTF | 2026-09-03 12:57:19 | 46.36571 | 7.54168 | 45° | 26km/h | 25035m | -23.4m/s | -50.3°C | 3.1% | 0hPa | 2.6V | 08:24:43 | 02:24:19 | 00:00:00 | |
| DO3MHA-11 | 2026-09-03 12:57:10 | 46.36555 | 7.54139 | 62° | 16km/h | 25129m | -22.8m/s | -50.5°C | 3.1% | 0hPa | 2.6V | 00:00:00 | 02:24:15 | 00:00:00 | |
| IW2NTF | 2026-09-03 12:57:04 | 46.36547 | 7.54102 | 76° | 15km/h | 25269m | -23.7m/s | -50.3°C | 3.1% | 0hPa | 2.6V | 08:24:53 | 02:24:09 | 00:00:00 | |
| DO3MHA-11 | 2026-09-03 12:57:00 | 46.36544 | 7.54086 | 60° | 13km/h | 25363m | -23.9m/s | -50.4°C | 3.2% | 0hPa | 2.6V | 00:00:00 | 02:24:05 | 00:00:00 | |
| DL2OL | 2026-09-03 12:56:58 | 46.36542 | 7.54082 | 60° | 11km/h | 25386m | -23.7m/s | -50.6°C | 0.6% | 0hPa | 2.6V | 00:00:00 | 00:00:00 | 00:00:00 | |
| IW2NTF | 2026-09-03 12:56:54 | 46.36528 | 7.54069 | 17° | 15km/h | 25505m | -24.1m/s | -50.1°C | 3.2% | 0hPa | 2.6V | 08:25:03 | 02:23:59 | 00:00:00 | |
| DO3MHA-11 | 2026-09-03 12:56:50 | 46.36514 | 7.54063 | 16° | 15km/h | 25602m | -24.5m/s | -49.6°C | 3.0% | 0hPa | 2.6V | 00:00:00 | 02:23:55 | 00:00:00 | |
| IW2NTF | 2026-09-03 12:56:44 | 46.36506 | 7.54044 | 103° | 15km/h | 25748m | -24.6m/s | -49.9°C | 3.1% | 0hPa | 2.6V | 08:25:13 | 02:23:49 | 00:00:00 | |
| BIOWL1-15 | 2026-09-03 12:56:41 | 46.36515 | 7.54025 | 141° | 15km/h | 25848m | -24.8m/s | -49.8°C | 0% | 0hPa | 2.7V | 08:26:14 | 02:23:45 | 00:00:00 | |
| DL6DJ-15 | 2026-09-03 12:56:40 | 46.36515 | 7.54025 | 140° | 15km/h | 25848m | -24.8m/s | -49.8°C | 0.5% | -1.0hPa | 2.7V | 00:00:00 | 00:00:00 | 00:00:00 | |
| DO3MHA-11 | 2026-09-03 12:56:39 | 46.36518 | 7.54022 | 153° | 13km/h | 25873m | -24.6m/s | -49.7°C | 3.1% | 0hPa | 2.7V | 00:00:00 | 02:23:44 | 00:00:00 | |
| IW2NTF | 2026-09-03 12:56:34 | 46.36525 | 7.54025 | 294° | 9km/h | 25997m | -25m/s | -49.3°C | 3% | 0hPa | 2.7V | 08:25:23 | 02:23:39 | 00:00:00 | |
| DO3MHA-11 | 2026-09-03 12:56:29 | 46.36508 | 7.54042 | 338° | 20km/h | 26125m | -25.2m/s | -49.1°C | 3.0% | 0hPa | 2.7V | 08:25:00 | 02:23:34 | 00:00:00 | |
| DK5PH-5 | 2026-09-03 12:56:27 | 46.36499 | 7.54045 | 360° | 11km/h | 26175m | -24.5m/s | -49.0°C | 3.0% | 0hPa | 2.7V | 00:00:00 | 02:23:32 | 00:00:00 | |
| IW2NTF | 2026-09-03 12:56:24 | 46.36488 | 7.54037 | 41° | 20km/h | 26249m | -25.5m/s | -48.9°C | 2.9% | 0hPa | 2.7V | 08:25:33 | 02:23:29 | 00:00:00 | |
| BIOWL1-15 | 2026-09-03 12:56:24 | 46.36487 | 7.54037 | 42° | 20km/h | 26249m | -25.5m/s | -48.9°C | 0% | 0hPa | 2.7V | 08:26:14 | 02:23:29 | 00:00:00 | |
| BIOWL9-15 | 2026-09-03 12:56:24 | 46.36484 | 7.54032 | 48° | 22km/h | 26275m | -25.6m/s | -48.8°C | 0.5% | -1.0hPa | 2.6V | 00:00:00 | 00:00:00 | 00:00:00 | |
| DF7PN | 2026-09-03 12:56:23 | 46.36484 | 7.54032 | 48° | 22km/h | 26275m | -25.6m/s | -48.8°C | 0.5% | -1.0hPa | 2.6V | 00:00:00 | 00:00:00 | 00:00:00 | |
| DM0DOS-11 | 2026-09-03 12:56:19 | 46.36473 | 7.53995 | 135° | 5km/h | 26481m | -26.2m/s | -48.3°C | 2.7% | 0hPa | 2.6V | 08:30:00 | 02:23:20 | 00:00:00 | |
| DO3MHA-11 | 2026-09-03 12:56:19 | 46.36473 | 7.54008 | 74° | 9km/h | 26378m | -25.4m/s | -48.2°C | 2.7% | 0hPa | 2.7V | 00:00:00 | 02:23:24 | 00:00:00 | |
| IW2NTF | 2026-09-03 12:56:14 | 46.36475 | 7.53994 | 171° | 7km/h | 26508m | -26m/s | -48.3°C | 2.7% | 0hPa | 2.7V | 08:25:43 | 02:23:19 | 00:00:00 | |
| BIOWL1-15 | 2026-09-03 12:56:13 | 46.36476 | 7.53994 | 196° | 7km/h | 26533m | -25.9m/s | -48.4°C | 0% | 0hPa | 2.7V | 08:26:14 | 02:23:18 | 00:00:00 | |
| DL2OL | 2026-09-03 12:56:12 | 46.36476 | 7.53994 | 197° | 7km/h | 26534m | -25.9m/s | -48.4°C | 0.5% | 0hPa | 2.6V | 00:00:00 | 00:00:00 | 00:00:00 | |
| DO3MHA-11 | 2026-09-03 12:56:09 | 46.36482 | 7.53999 | 239° | 9km/h | 26638m | -26.6m/s | -48.6°C | 2.8% | 0hPa | 2.6V | 00:00:00 | 02:23:14 | 00:00:00 | |
| IW2NTF | 2026-09-03 12:56:04 | 46.36475 | 7.54006 | 331° | 13km/h | 26771m | -26.4m/s | -48.9°C | 3% | 0hPa | 2.6V | 08:25:53 | 02:23:09 | 00:00:00 | |
| BIOWL1-15 | 2026-09-03 12:56:02 | 46.36469 | 7.54009 | 350° | 15km/h | 26825m | -27.3m/s | -48.9°C | 0% | 0hPa | 2.7V | 08:26:14 | 02:23:07 | 00:00:00 | |
| DO3MHA-11 | 2026-09-03 12:55:59 | 46.36457 | 7.54008 | 15° | 16km/h | 26907m | -27.4m/s | -48.7°C | 3.0% | 0hPa | 2.7V | 00:00:00 | 02:23:04 | 00:00:00 | |
| IW2NTF | 2026-09-03 12:55:56 | 46.36439 | 7.53989 | 53° | 22km/h | 27042m | -27.5m/s | -48.5°C | 3% | 0hPa | 2.7V | 08:26:03 | 02:22:59 | 00:00:00 | |
| BIOWL1-15 | 2026-09-03 12:55:52 | 46.36433 | 7.53976 | 62° | 18km/h | 27097m | -27.3m/s | -48.4°C | 0% | 0hPa | 2.6V | 08:26:14 | 02:22:57 | 00:00:00 | |
| DF7PN | 2026-09-03 12:55:52 | 46.36433 | 7.53976 | 61° | 16km/h | 27097m | -27.3m/s | -48.4°C | 0.5% | -1.0hPa | 2.7V | 00:00:00 | 00:00:00 | 00:00:00 | |
| IW2NTF | 2026-09-03 12:55:49 | 46.36427 | 7.53951 | 77° | 4km/h | 27318m | -27.7m/s | -47.1°C | 2.6% | 0hPa | 2.7V | 08:26:13 | 02:22:49 | 00:00:00 | |
| BIOWL1-15 | 2026-09-03 12:55:42 | 46.36427 | 7.53948 | 81° | 7km/h | 27374m | -28.2m/s | -47.3°C | 0% | 0hPa | 2.7V | 08:27:56 | 02:22:47 | 00:00:00 | |
| DO3MHA-11 | 2026-09-03 12:55:38 | 46.36423 | 7.53936 | 47° | 11km/h | 27488m | -28.4m/s | -47.2°C | 2.7% | 0hPa | 2.6V | 00:00:00 | 02:22:43 | 00:00:00 | |
| IW2NTF | 2026-09-03 12:55:37 | 46.36415 | 7.53929 | 17° | 9km/h | 27601m | -29.1m/s | -46.8°C | 2.6% | 0hPa | 2.6V | 08:26:23 | 02:22:39 | 00:00:00 | |
| BIOWL1-15 | 2026-09-03 12:55:31 | 46.36407 | 7.53927 | 5° | 13km/h | 27688m | -28.8m/s | -47.1°C | 0% | 0hPa | 2.7V | 08:27:56 | 02:22:36 | 00:00:00 | |
| IW2NTF | 2026-09-03 12:55:29 | 46.36381 | 7.53905 | 44° | 22km/h | 27891m | -28.8m/s | -46.7°C | 2.6% | 0hPa | 2.7V | 08:26:33 | 02:22:29 | 00:00:00 | |
| DO3MHA-11 | 2026-09-03 12:55:28 | 46.36397 | 7.53923 | 31° | 22km/h | 27775m | -28.9m/s | -47.1°C | 2.7% | 0hPa | 2.6V | 00:00:00 | 02:22:33 | 00:00:00 | |
| DK5PH-5 | 2026-09-03 12:55:26 | 46.36389 | 7.53915 | 40° | 22km/h | 27833m | -29.3m/s | -46.9°C | 2.7% | 0hPa | 2.6V | 00:00:00 | 02:22:31 | 00:00:00 | |
| DF7PN | 2026-09-03 12:55:21 | 46.36369 | 7.53884 | 54° | 26km/h | 27979m | -29.9m/s | -46.5°C | 0.4% | -1.0hPa | 2.6V | 00:00:00 | 00:00:00 | 00:00:00 | |
| DO3MHA-11 | 2026-09-03 12:55:18 | 46.36358 | 7.53862 | 59° | 18km/h | 28068m | -29.4m/s | -46.1°C | 2.5% | 0hPa | 2.6V | 00:00:00 | 02:22:23 | 00:00:00 | |
| IW2NTF | 2026-09-03 12:55:16 | 46.36350 | 7.53836 | 70° | 18km/h | 28187m | -30.2m/s | -46°C | 2.5% | 0hPa | 2.6V | 08:26:43 | 02:22:19 | 00:00:00 | |
| DL2OL | 2026-09-03 12:55:14 | 46.36351 | 7.53842 | 70° | 18km/h | 28157m | -30.2m/s | -46.1°C | 0.4% | 0hPa | 2.7V | 00:00:00 | 00:00:00 | 00:00:00 | |
| IW2NTF | 2026-09-03 12:55:09 | 46.36340 | 7.53777 | 68° | 20km/h | 28491m | -30.6m/s | -45.6°C | 2.5% | 0hPa | 2.7V | 08:26:53 | 02:22:09 | 00:00:00 | |
| BIOWL1-15 | 2026-09-03 12:55:06 | 46.36342 | 7.53789 | 70° | 16km/h | 28430m | -30.2m/s | -45.7°C | 0% | 0hPa | 2.7V | 08:27:56 | 02:22:11 | 00:00:00 | |
| DB0UT-7 | 2026-09-03 12:55:05 | 46.36341 | 7.53783 | 73° | 13km/h | 28461m | -30.8m/s | -45.6°C | 2.5% | 0hPa | 2.7V | 00:00:00 | 00:00:00 | 00:00:00 | |
| DO3MHA-11 | 2026-09-03 12:54:58 | 46.36331 | 7.53726 | 93° | 16km/h | 28677m | -31.4m/s | -45.5°C | 2.4% | 0hPa | 2.7V | 08:26:00 | 02:22:03 | 00:00:00 | |
| IW2NTF | 2026-09-03 12:54:57 | 46.36337 | 7.53698 | 140° | 16km/h | 28802m | -31.3m/s | -45°C | 2.3% | 0hPa | 2.6V | 08:27:03 | 02:21:59 | 00:00:00 | |
| DF7PN | 2026-09-03 12:54:50 | 46.36350 | 7.53690 | 177° | 9km/h | 28937m | -37.5m/s | -44.9°C | 0.3% | -1.0hPa | 2.7V | 00:00:00 | 00:00:00 | 00:00:00 | |
| IW2NTF | 2026-09-03 12:54:49 | 46.36361 | 7.53687 | 128° | 5km/h | 29129m | -29.2m/s | -45.3°C | 2.4% | 0hPa | 2.7V | 08:27:13 | 02:21:49 | 00:00:00 | |
| BIOWL1-15 | 2026-09-03 12:54:41 | 46.36362 | 7.53684 | 87° | 2km/h | 29217m | -29.3m/s | -45.1°C | 0% | 0hPa | 2.6V | 08:27:56 | 02:21:46 | 00:00:00 | |
| DO3MHA-11 | 2026-09-03 12:54:38 | 46.36360 | 7.53683 | 20° | 13km/h | 29305m | -29.1m/s | -45.0°C | 2.4% | 0hPa | 2.6V | 00:00:00 | 02:21:43 | 00:00:00 | |
| IW2NTF | 2026-09-03 12:54:37 | 46.36357 | 7.53674 | 88° | 13km/h | 29418m | -28.3m/s | -45.2°C | 2.4% | 0hPa | 2.6V | 08:27:23 | 02:21:39 | 00:00:00 | |
| DB0UT-7 | 2026-09-03 12:54:35 | 46.36357 | 7.53678 | 74° | 15km/h | 29391m | -28.7m/s | -45.1°C | 2.4% | 0hPa | 2.7V | 00:00:00 | 02:21:40 | 00:00:00 | |
| IW2NTF | 2026-09-03 12:54:29 | 46.36375 | 7.53633 | 141° | 11km/h | 29714m | -32.2m/s | -44.6°C | 2.3% | 0hPa | 2.7V | 08:27:33 | 02:21:29 | 00:00:00 | |
| DO3MHA-11 | 2026-09-03 12:54:26 | 46.36370 | 7.53636 | 151° | 18km/h | 29653m | -30.9m/s | -44.8°C | 2.4% | 0hPa | 2.7V | 00:00:00 | 02:21:31 | 00:00:00 | |
| DL2OL | 2026-09-03 12:54:20 | 46.36382 | 7.53621 | 124° | 18km/h | 29808m | -31.3m/s | -44.5°C | 0.3% | 0hPa | 2.7V | 00:00:00 | 00:00:00 | 00:00:00 | |
| DF7PN | 2026-09-03 12:54:19 | 46.36388 | 7.53608 | 124° | 24km/h | 29869m | -30.5m/s | -44.6°C | 0.3% | -1.0hPa | 2.7V | 00:00:00 | 00:00:00 | 00:00:00 | |
| IW2NTF | 2026-09-03 12:54:16 | 46.36405 | 7.53580 | 148° | 13km/h | 30028m | -31.6m/s | -44.6°C | 2.4% | 0hPa | 2.7V | 08:27:43 | 02:21:19 | 00:00:00 | |
| BIOWL1-15 | 2026-09-03 12:54:09 | 46.36413 | 7.53578 | 123° | 4km/h | 30182m | -30.6m/s | -43.9°C | 0% | 0hPa | 2.7V | 08:27:56 | 02:21:14 | 00:00:00 | |
| BIOWL1-15 | 2026-09-03 12:54:01 | 46.36416 | 7.53548 | 102° | 7km/h | 30499m | -30.3m/s | -43.5°C | 0% | 0hPa | 2.7V | 18:12:15 | 02:21:04 | 00:00:00 | |
| DH7VM-15 | 2026-09-03 12:53:59 | 46.36416 | 7.53551 | 109° | 9km/h | 30468m | -30.6m/s | -43.4°C | 0.3% | 0hPa | 2.7V | 00:00:00 | 00:00:00 | 00:00:00 | |
| IW2NTF | 2026-09-03 12:53:56 | 46.36420 | 7.53536 | 127° | 5km/h | 30646m | -29.6m/s | -43.4°C | 2.3% | 0hPa | 2.7V | 08:28:03 | 02:20:59 | 00:00:00 | |
| IW2NTF | 2026-09-03 12:53:49 | 46.36435 | 7.53489 | 115° | 29km/h | 30957m | -31.5m/s | -42.3°C | 2.1% | 0hPa | 2.6V | 08:28:13 | 02:20:49 | 00:00:00 | |
| BIOWL1-15 | 2026-09-03 12:53:48 | 46.36427 | 7.53521 | 108° | 16km/h | 30832m | -31.7m/s | -42.7°C | 0% | 0hPa | 2.7V | 18:12:15 | 02:20:53 | 00:00:00 | |
| DK5PH-5 | 2026-09-03 12:53:42 | 46.36443 | 7.53469 | 127° | 20km/h | 31019m | -31.5m/s | -42.1°C | 2.1% | 0hPa | 2.6V | 00:00:00 | 02:20:47 | 00:00:00 | |
| DH7VM-15 | 2026-09-03 12:53:39 | 46.36453 | 7.53453 | 139° | 29km/h | 31083m | -31.7m/s | -42.0°C | 0.2% | 0hPa | 2.6V | 00:00:00 | 00:00:00 | 00:00:00 | |
| IW2NTF | 2026-09-03 12:53:37 | 46.36491 | 7.53440 | 190° | 24km/h | 31267m | -31m/s | -41.5°C | 2.1% | 0hPa | 2.6V | 08:28:23 | 02:20:39 | 00:00:00 | |
| DB0UT-7 | 2026-09-03 12:53:35 | 46.36485 | 7.53438 | 189° | 16km/h | 31236m | -30.8m/s | -41.6°C | 2.1% | 0hPa | 2.6V | 08:28:00 | 02:20:40 | 00:00:00 | |
| DL6DJ-15 | 2026-09-03 12:53:34 | 46.36491 | 7.53440 | 190° | 22km/h | 31267m | -31.0m/s | -41.5°C | 0.2% | -1.0hPa | 2.6V | 00:00:00 | 00:00:00 | 00:00:00 | |
| IW2NTF | 2026-09-03 12:53:28 | 46.36512 | 7.53474 | 287° | 15km/h | 31584m | -32.3m/s | -40.1°C | 1.9% | 0hPa | 2.6V | 08:28:33 | 02:20:29 | 00:00:00 | |
| BIOWL1-15 | 2026-09-03 12:53:17 | 46.36507 | 7.53488 | 140° | 20km/h | 31879m | -34.4m/s | -38.7°C | 0% | 0hPa | 2.7V | 18:12:15 | 02:20:20 | 00:00:00 | |
| DF7PN | 2026-09-03 12:53:17 | 46.36504 | 7.53492 | 115° | 13km/h | 31846m | -33.2m/s | -38.8°C | 0.1% | -1.0hPa | 2.7V | 00:00:00 | 00:00:00 | 00:00:00 | |
| IW2NTF | 2026-09-03 12:53:16 | 46.36511 | 7.53483 | 150° | 24km/h | 31913m | -33.3m/s | -38.7°C | 1.7% | 0hPa | 2.7V | 08:28:43 | 02:20:19 | 00:00:00 | |
| DK5PH-5 | 2026-09-03 12:53:12 | 46.36523 | 7.53475 | 163° | 24km/h | 31980m | -34.7m/s | -38.9°C | 1.8% | 0hPa | 2.7V | 00:00:00 | 02:20:17 | 00:00:00 | |
| IW2NTF | 2026-09-03 12:53:09 | 46.36559 | 7.53491 | 270° | 15km/h | 32264m | -36m/s | -38.6°C | 1.8% | 0hPa | 2.7V | 08:30:00 | 02:20:09 | 00:00:00 | |
| HASLITAL | 2026-09-03 12:53:07 | 46.36550 | 7.53474 | 201° | 20km/h | 32118m | -35.2m/s | -39.1°C | 0.2% | 0hPa | 2.7V | 08:29:00 | 00:00:00 | 00:00:00 | |
| DB0UT-7 | 2026-09-03 12:53:05 | 46.36558 | 7.53486 | 256° | 18km/h | 32228m | -36.2m/s | -38.6°C | 1.8% | 0hPa | 2.7V | 00:00:00 | 00:00:00 | 00:00:00 | |
| DL6DJ-15 | 2026-09-03 12:53:03 | 46.36559 | 7.53501 | 271° | 9km/h | 32336m | -35.0m/s | -38.2°C | 0.1% | -1.0hPa | 2.7V | 00:00:00 | 00:00:00 | 00:00:00 | |
| DL8DAS-14 | 2026-09-03 12:53:02 | 46.36559 | 7.53504 | 232° | 4km/h | 32371m | -35.5m/s | 0°C | -1.0% | -1.0hPa | 2.7V | 00:00:00 | 00:00:00 | 00:00:00 | |
| IW2NTF | 2026-09-03 12:52:56 | 46.36589 | 7.53494 | 183° | 31km/h | 32619m | -34.3m/s | -37.6°C | 1.6% | 0hPa | 2.7V | 08:30:00 | 02:19:59 | 00:00:00 | |
| BIOWL1-15 | 2026-09-03 12:52:53 | 46.36597 | 7.53495 | 193° | 35km/h | 32653m | -35.2m/s | -37.6°C | 0% | 0hPa | 2.7V | 18:12:15 | 02:19:58 | 00:00:00 | |
| BIOWL9-15 | 2026-09-03 12:52:46 | 46.36640 | 7.53548 | 243° | 24km/h | 32906m | -37.0m/s | -37.1°C | 0.1% | -1.0hPa | 2.7V | 00:00:00 | 00:00:00 | 00:00:00 | |
| BIOWL1-15 | 2026-09-03 12:52:42 | 46.36646 | 7.53564 | 176° | 0km/h | 33051m | -35.8m/s | -37.1°C | 0% | 0hPa | 2.7V | 18:12:15 | 02:19:47 | 00:00:00 | |
| DK5PH-5 | 2026-09-03 12:52:42 | 46.36646 | 7.53564 | 177° | 16km/h | 33052m | -35.7m/s | -37.0°C | 1.6% | 0hPa | 2.7V | 08:29:00 | 02:19:47 | 00:00:00 | |
| IW2NTF | 2026-09-03 12:52:36 | 46.36649 | 7.53586 | 253° | 26km/h | 33352m | -38.5m/s | -37.1°C | 1.6% | 0hPa | 2.6V | 08:30:00 | 02:19:39 | 00:00:00 | |
| BIOWL1-15 | 2026-09-03 12:52:31 | 46.36654 | 7.53633 | 290° | 11km/h | 33581m | -38.9m/s | -36.2°C | 0% | 0hPa | 2.7V | 18:12:15 | 02:19:33 | 00:00:00 | |
| IW2NTF | 2026-09-03 12:52:29 | 46.36647 | 7.53639 | 351° | 11km/h | 33735m | -37.5m/s | -36.4°C | 1.6% | 0hPa | 2.6V | 08:30:00 | 02:19:29 | 00:00:00 | |
| OE5DXL-15 | 2026-09-03 12:52:28 | 46.36653 | 7.53636 | 302° | 15km/h | 33620m | -38.6m/s | 0°C | 0% | 0hPa | 2.6V | 00:00:00 | 00:00:00 | 00:00:00 | |
| HASLITAL | 2026-09-03 12:52:26 | 46.36653 | 7.53636 | 303° | 7km/h | 33620m | -38.7m/s | -36.2°C | 0.1% | 0hPa | 2.6V | 08:29:00 | 00:00:00 | 00:00:00 | |
| IW2NTF | 2026-09-03 12:52:16 | 46.36628 | 7.53696 | 309° | 15km/h | 34136m | -43.5m/s | -35.3°C | 1.6% | 0hPa | 2.6V | 08:30:00 | 02:19:19 | 00:00:00 | |
| BIOWL1-15 | 2026-09-03 12:52:07 | 46.36633 | 7.53705 | 184° | 15km/h | 34421m | -41.3m/s | -35.2°C | 0% | 0hPa | 2.6V | 18:12:15 | 02:19:12 | 00:00:00 | |
| DO3MHA-11 | 2026-09-03 12:52:06 | 46.36637 | 7.53705 | 191° | 24km/h | 34464m | -42.7m/s | -35.1°C | 1.6% | 0hPa | 2.6V | 00:00:00 | 02:19:11 | 00:00:00 | |
| BIOWL1-15 | 2026-09-03 12:51:52 | 46.36714 | 7.53841 | 273° | 22km/h | 35257m | -45.6m/s | -32°C | 0% | 0hPa | 2.6V | 18:12:15 | 02:18:53 | 00:00:00 | |
| OE5DXL-15 | 2026-09-03 12:51:50 | 46.36713 | 7.53834 | 256° | 33km/h | 35211m | -47.0m/s | 0°C | 0% | 0hPa | 2.7V | 00:00:00 | 00:00:00 | 00:00:00 | |
| IW2NTF | 2026-09-03 12:51:47 | 46.36696 | 7.53872 | 321° | 35km/h | 35452m | -50.6m/s | -31.3°C | 1.2% | 0hPa | 2.7V | 08:30:00 | 02:18:49 | 00:00:00 | |
| BIOWL9-15 | 2026-09-03 12:51:44 | 46.36696 | 7.53872 | 321° | 35km/h | 35452m | -50.6m/s | -31.3°C | 0.0% | -1.0hPa | 2.7V | 00:00:00 | 00:00:00 | 00:00:00 | |
| BIOWL1-15 | 2026-09-03 12:51:38 | 46.36668 | 7.53916 | 273° | 20km/h | 35694m | -27.3m/s | -31.9°C | 0% | 0hPa | 2.7V | 18:12:15 | 02:18:43 | 00:00:00 | |
| IW2NTF | 2026-09-03 12:51:36 | 46.36696 | 7.53946 | 236° | 33km/h | 35833m | -44.2m/s | -31.2°C | 1.3% | 0hPa | 2.7V | 08:30:00 | 02:18:39 | 00:00:00 | |
| DO3MHA-11 | 2026-09-03 12:51:36 | 46.36680 | 7.53930 | 210° | 35km/h | 35760m | -35.9m/s | -31.7°C | 1.3% | 0hPa | 2.7V | 00:00:00 | 02:18:41 | 00:00:00 | |
| DB0UT-7 | 2026-09-03 12:51:35 | 46.36689 | 7.53937 | 209° | 33km/h | 35794m | -33.1m/s | -31.5°C | 1.3% | 0hPa | 2.7V | 00:00:00 | 02:18:40 | 00:00:00 | |
| DL2OL | 2026-09-03 12:51:34 | 46.36689 | 7.53937 | 209° | 44km/h | 35794m | -33.2m/s | -31.6°C | 0.0% | 0hPa | 2.7V | 00:00:00 | 00:00:00 | 00:00:00 | |
| DL6DJ-15 | 2026-09-03 12:51:30 | 46.36694 | 7.54012 | 296° | 33km/h | 36022m | -12.1m/s | -30.6°C | 0.0% | -1.0hPa | 2.7V | 00:00:00 | 00:00:00 | 00:00:00 | |
| DL8DAS-14 | 2026-09-03 12:51:29 | 46.36690 | 7.54023 | 295° | 33km/h | 36029m | -2.1m/s | 0°C | -1.0% | -1.0hPa | 2.7V | 00:00:00 | 00:00:00 | 00:00:00 | |
| IW2NTF | 2026-09-03 12:51:26 | 46.36682 | 7.54053 | 286° | 24km/h | 36015m | 5.5m/s | -30.6°C | 1.2% | 0hPa | 2.7V | 08:30:00 | 02:18:29 | 00:00:00 | |
| DO3MHA-11 | 2026-09-03 12:51:26 | 46.36687 | 7.54034 | 292° | 24km/h | 36028m | 6.7m/s | -30.6°C | 1.2% | 0hPa | 2.6V | 00:00:00 | 02:18:31 | 08:30:00 | |
| HASLITAL | 2026-09-03 12:51:21 | 46.36679 | 7.54066 | 297° | 16km/h | 36005m | 5.2m/s | -30.7°C | 0.1% | 0hPa | 2.7V | 00:00:00 | 00:00:00 | 00:00:00 | |
| IW2NTF | 2026-09-03 12:51:16 | 46.36653 | 7.54120 | 260° | 31km/h | 35959m | 7.4m/s | -30.7°C | 1.2% | 0hPa | 2.7V | 08:30:00 | 02:18:19 | 00:00:00 | |
| DO3MHA-11 | 2026-09-03 12:51:16 | 46.36655 | 7.54101 | 296° | 38km/h | 35972m | 4.9m/s | -30.6°C | 1.2% | 0hPa | 2.7V | 00:00:00 | 02:18:21 | 00:00:00 | |
| DF7PN | 2026-09-03 12:51:12 | 46.36658 | 7.54146 | 251° | 40km/h | 35947m | 4.6m/s | -30.8°C | 0.0% | -1.0hPa | 2.7V | 00:00:00 | 00:00:00 | 00:00:00 | |
| DM0DOS-11 | 2026-09-03 12:51:09 | 46.36657 | 7.54205 | 299° | 44km/h | 35926m | 7.3m/s | -31.3°C | 1.3% | 0hPa | 2.7V | 08:30:00 | 02:18:13 | 00:00:00 | |
| IW2NTF | 2026-09-03 12:51:06 | 46.36628 | 7.54243 | 325° | 24km/h | 35905m | 4.8m/s | -31.6°C | 1.3% | 0hPa | 2.6V | 08:30:00 | 02:18:09 | 00:00:00 | |
| DO3MHA-11 | 2026-09-03 12:51:06 | 46.36642 | 7.54228 | 323° | 33km/h | 35914m | 4.3m/s | -31.5°C | 1.3% | 0hPa | 2.7V | 00:00:00 | 02:18:11 | 00:00:00 | |
| DB0UT-7 | 2026-09-03 12:51:05 | 46.36634 | 7.54236 | 327° | 27km/h | 35910m | 3.5m/s | -31.6°C | 1.3% | 0hPa | 2.7V | 00:00:00 | 00:00:00 | 00:00:00 | |
| DM0DOS-11 | 2026-09-03 12:50:59 | 46.36639 | 7.54277 | 249° | 33km/h | 35869m | 5.4m/s | -31.7°C | 1.4% | 0hPa | 2.7V | 08:30:00 | 02:18:03 | 00:00:00 | |
| DL6DJ-15 | 2026-09-03 12:50:58 | 46.36624 | 7.54340 | 309° | 37km/h | 35839m | 6.3m/s | -31.9°C | 0.0% | -1.0hPa | 2.6V | 00:00:00 | 00:00:00 | 00:00:00 | |
| HASLITAL | 2026-09-03 12:50:57 | 46.36639 | 7.54277 | 250° | 33km/h | 35869m | 5.4m/s | -31.7°C | 0.1% | 0hPa | 2.6V | 00:00:00 | 00:00:00 | 00:00:00 | |
| IW2NTF | 2026-09-03 12:50:56 | 46.36629 | 7.54328 | 305° | 42km/h | 35845m | 5.9m/s | -31.8°C | 1.4% | 0hPa | 2.6V | 08:30:00 | 02:17:59 | 00:00:00 | |
| OE5DXL-15 | 2026-09-03 12:50:54 | 46.36623 | 7.54340 | 310° | 24km/h | 35839m | 6.3m/s | 0°C | 0% | 0hPa | 2.7V | 00:00:00 | 00:00:00 | 00:00:00 | |
| DO3MHA-11 | 2026-09-03 12:50:52 | 46.36618 | 7.54350 | 310° | 24km/h | 35833m | 6.3m/s | -31.9°C | 1.4% | 0hPa | 2.7V | 00:00:00 | 02:17:57 | 00:00:00 | |
| DM0DOS-11 | 2026-09-03 12:50:49 | 46.36607 | 7.54377 | 287° | 16km/h | 35808m | 6.2m/s | 0°C | 0% | 0hPa | 2.7V | 08:30:00 | 02:17:53 | 00:00:00 | |
| IW2NTF | 2026-09-03 12:50:46 | 46.36596 | 7.54405 | 306° | 29km/h | 35783m | 5.5m/s | -32°C | 1.4% | 0hPa | 2.6V | 08:30:00 | 02:17:49 | 00:00:00 | |
| BIOWL1-15 | 2026-09-03 12:50:46 | 46.36603 | 7.54389 | 299° | 22km/h | 35795m | 6.5m/s | -32.2°C | 0% | 0hPa | 2.7V | 18:12:15 | 02:17:51 | 00:00:00 | |
| DM0DOS-11 | 2026-09-03 12:50:44 | 46.36577 | 7.54463 | 280° | 27km/h | 35748m | 6m/s | -31.9°C | 1.4% | 0hPa | 2.6V | 08:30:00 | 02:17:43 | 00:00:00 | |
| BIOWL9-15 | 2026-09-03 12:50:43 | 46.36587 | 7.54423 | 302° | 31km/h | 35773m | 5.0m/s | -32.0°C | 0.0% | -1.0hPa | 2.7V | 00:00:00 | 00:00:00 | 00:00:00 | |
| DO3MHA-11 | 2026-09-03 12:50:42 | 46.36587 | 7.54423 | 303° | 29km/h | 35773m | 5.0m/s | -31.9°C | 1.4% | 0hPa | 2.7V | 00:00:00 | 02:17:47 | 00:00:00 | |
| DF7PN | 2026-09-03 12:50:41 | 46.36584 | 7.54433 | 296° | 29km/h | 35767m | 5.8m/s | -32.0°C | 0.0% | -1.0hPa | 2.7V | 00:00:00 | 00:00:00 | 00:00:00 | |
| DK5PH-5 | 2026-09-03 12:50:38 | 46.36577 | 7.54463 | 281° | 27km/h | 35749m | 5.9m/s | -31.9°C | 1.4% | 0hPa | 2.7V | 00:00:00 | 02:17:43 | 00:00:00 | |
| IW2NTF | 2026-09-03 12:50:36 | 46.36557 | 7.54501 | 335° | 37km/h | 35719m | 7.5m/s | -32.1°C | 1.4% | 0hPa | 2.7V | 08:30:00 | 02:17:38 | 00:00:00 | |
| BIOWL1-15 | 2026-09-03 12:50:35 | 46.36570 | 7.54488 | 314° | 26km/h | 35732m | 5.4m/s | -32°C | 0% | 0hPa | 2.7V | 18:12:15 | 02:17:40 | 00:00:00 | |
| DB0UT-7 | 2026-09-03 12:50:35 | 46.36569 | 7.54488 | 314° | 27km/h | 35733m | 5.3m/s | -32.0°C | 1.4% | 0hPa | 2.7V | 00:00:00 | 02:17:40 | 00:00:00 | |
| DM0DOS-11 | 2026-09-03 12:50:33 | 46.36524 | 7.54528 | 281° | 18km/h | 35692m | 8.2m/s | -32°C | 1.4% | 0hPa | 2.7V | 08:30:00 | 02:17:33 | 00:00:00 | |
| DO3MHA-11 | 2026-09-03 12:50:32 | 46.36548 | 7.54506 | 339° | 27km/h | 35713m | 5.6m/s | -32.0°C | 1.4% | 0hPa | 2.7V | 00:00:00 | 02:17:37 | 00:00:00 | |
| IW2NTF | 2026-09-03 12:50:27 | 46.36534 | 7.54570 | 280° | 24km/h | 35662m | 6m/s | -31.8°C | 1.3% | 0hPa | 2.7V | 08:30:00 | 02:17:28 | 00:00:00 | |
| BIOWL1-15 | 2026-09-03 12:50:26 | 46.36534 | 7.54561 | 255° | 26km/h | 35667m | 4.3m/s | -31.8°C | 0% | 0hPa | 2.6V | 18:12:15 | 02:17:29 | 00:00:00 | |
| DM0DOS-11 | 2026-09-03 12:50:23 | 46.36498 | 7.54601 | 342° | 37km/h | 35631m | 5.4m/s | -32°C | 1.4% | 0hPa | 2.7V | 08:30:00 | 02:17:23 | 00:00:00 | |
| BIOWL1-15 | 2026-09-03 12:50:15 | 46.36484 | 7.54624 | 253° | 20km/h | 35600m | 5m/s | -31.8°C | 0% | 0hPa | 2.6V | 18:12:15 | 02:17:18 | 00:00:00 | |
| IW2NTF | 2026-09-03 12:50:14 | 46.36484 | 7.54624 | 253° | 20km/h | 35600m | 5m/s | -31.8°C | 1.4% | 0hPa | 2.6V | 08:30:00 | 02:17:18 | 00:00:00 | |
| DM0DOS-11 | 2026-09-03 12:50:13 | 46.36464 | 7.54664 | 335° | 31km/h | 35565m | 4.9m/s | -32°C | 1.4% | 0hPa | 2.6V | 08:30:00 | 02:17:12 | 00:00:00 | |
| BIOWL9-15 | 2026-09-03 12:50:12 | 46.36485 | 7.54639 | 283° | 20km/h | 35590m | 5.8m/s | -31.7°C | 0.0% | -1.0hPa | 2.7V | 00:00:00 | 00:00:00 | 00:00:00 | |
| DF7PN | 2026-09-03 12:50:10 | 46.36482 | 7.54646 | 305° | 24km/h | 35584m | 6.7m/s | -31.7°C | 0.0% | -1.0hPa | 2.7V | 00:00:00 | 00:00:00 | 00:00:00 | |
| DK5PH-5 | 2026-09-03 12:50:08 | 46.36471 | 7.54659 | 332° | 26km/h | 35571m | 5.8m/s | -31.8°C | 1.3% | 0hPa | 2.7V | 00:00:00 | 02:17:13 | 00:00:00 | |
| DB0UT-7 | 2026-09-03 12:50:05 | 46.36452 | 7.54673 | 328° | 26km/h | 35556m | 6.0m/s | -31.8°C | 1.3% | 0hPa | 2.7V | 00:00:00 | 00:00:00 | 00:00:00 | |
| IW2NTF | 2026-09-03 12:50:04 | 46.36449 | 7.54681 | 261° | 13km/h | 35542m | 6.8m/s | -31.8°C | 1.4% | 0hPa | 2.7V | 08:30:00 | 02:17:08 | 00:00:00 | |
| BIOWL1-15 | 2026-09-03 12:50:03 | 46.36449 | 7.54681 | 261° | 13km/h | 35542m | 6.8m/s | -31.8°C | 0% | 0hPa | 2.7V | 18:12:15 | 02:17:08 | 00:00:00 | |
| DO3MHA-11 | 2026-09-03 12:50:02 | 46.36450 | 7.54686 | 241° | 26km/h | 35535m | 6.1m/s | -31.7°C | 1.3% | 0hPa | 2.7V | 00:00:00 | 02:17:07 | 00:00:00 | |
| DM0DOS-11 | 2026-09-03 12:49:57 | 46.36419 | 7.54771 | 288° | 22km/h | 35475m | 6.1m/s | -31.9°C | 1.3% | 0hPa | 2.7V | 08:30:00 | 02:16:57 | 00:00:00 | |
| DL6DJ-15 | 2026-09-03 12:49:56 | 46.36419 | 7.54784 | 252° | 15km/h | 35464m | 5.5m/s | -31.7°C | 0.1% | -1.0hPa | 2.7V | 00:00:00 | 00:00:00 | 00:00:00 | |
| IW2NTF | 2026-09-03 12:49:54 | 46.36422 | 7.54763 | 305° | 27km/h | 35481m | 6.6m/s | -31.8°C | 1.3% | 0hPa | 2.7V | 08:30:00 | 02:16:58 | 00:00:00 | |
| BIOWL1-15 | 2026-09-03 12:49:52 | 46.36419 | 7.54771 | 289° | 22km/h | 35475m | 6.1m/s | -31.9°C | 0% | 0hPa | 2.7V | 18:12:15 | 02:16:57 | 00:00:00 | |
| DO3MHA-11 | 2026-09-03 12:49:52 | 46.36419 | 7.54771 | 289° | 20km/h | 35476m | 6.1m/s | -31.8°C | 1.3% | 0hPa | 2.7V | 00:00:00 | 02:16:57 | 08:30:00 | |
| IW2NTF | 2026-09-03 12:49:44 | 46.36416 | 7.54826 | 283° | 26km/h | 35422m | 6.7m/s | -32.1°C | 1.4% | 0hPa | 2.6V | 08:30:00 | 02:16:48 | 00:00:00 | |
| BIOWL1-15 | 2026-09-03 12:49:44 | 46.36415 | 7.54836 | 280° | 29km/h | 35415m | 6.5m/s | -32°C | 0% | 0hPa | 2.7V | 18:12:15 | 02:16:47 | 00:00:00 | |
| DM0DOS-11 | 2026-09-03 12:49:42 | 46.36414 | 7.54847 | 279° | 33km/h | 35409m | 5.9m/s | -32°C | 1.4% | 0hPa | 2.7V | 08:30:00 | 02:16:46 | 00:00:00 | |
| DO3MHA-11 | 2026-09-03 12:49:41 | 46.36414 | 7.54847 | 280° | 35km/h | 35409m | 5.9m/s | -32.0°C | 1.4% | 0hPa | 2.6V | 00:00:00 | 02:16:46 | 00:00:00 | |
| BIOWL9-15 | 2026-09-03 12:49:40 | 46.36412 | 7.54860 | 284° | 35km/h | 35403m | 5.4m/s | -32.1°C | 0.1% | -1.0hPa | 2.6V | 00:00:00 | 00:00:00 | 00:00:00 | |
| DF7PN | 2026-09-03 12:49:39 | 46.36409 | 7.54873 | 289° | 38km/h | 35397m | 6.8m/s | -32.3°C | 0.1% | -1.0hPa | 2.6V | 00:00:00 | 00:00:00 | 00:00:00 | |
| DK5PH-5 | 2026-09-03 12:49:38 | 46.36405 | 7.54886 | 295° | 37km/h | 35391m | 6.9m/s | -32.4°C | 1.4% | 0hPa | 2.6V | 00:00:00 | 02:16:43 | 00:00:00 | |
| IW2NTF | 2026-09-03 12:49:34 | 46.36404 | 7.54966 | 233° | 37km/h | 35347m | 5.6m/s | -32.5°C | 1.4% | 0hPa | 2.6V | 08:30:00 | 02:16:36 | 00:00:00 | |
| BIOWL1-15 | 2026-09-03 12:49:31 | 46.36404 | 7.54966 | 233° | 37km/h | 35347m | 5.6m/s | -32.5°C | 0% | 0hPa | 2.6V | 18:12:15 | 02:16:36 | 00:00:00 | |
| DO3MHA-11 | 2026-09-03 12:49:28 | 46.36415 | 7.55001 | 267° | 33km/h | 35331m | 7.1m/s | -32.5°C | 1.4% | 0hPa | 2.7V | 00:00:00 | 02:16:33 | 00:00:00 | |
| DL6DJ-15 | 2026-09-03 12:49:25 | 46.36407 | 7.55042 | 293° | 42km/h | 35312m | 4.9m/s | -32.6°C | 0.1% | -1.0hPa | 2.7V | 00:00:00 | 00:00:00 | 00:00:00 | |
| IW2NTF | 2026-09-03 12:49:24 | 46.36401 | 7.55095 | 250° | 33km/h | 35288m | 7.1m/s | -32.5°C | 1.4% | 0hPa | 2.7V | 08:30:00 | 02:16:26 | 00:00:00 | |
| DM0DOS-11 | 2026-09-03 12:49:24 | 46.36409 | 7.55116 | 234° | 33km/h | 35275m | 5.5m/s | -32.4°C | 1.4% | 0hPa | 2.6V | 08:30:00 | 02:16:24 | 00:00:00 | |
| BIOWL1-15 | 2026-09-03 12:49:21 | 46.36401 | 7.55095 | 251° | 33km/h | 35288m | 7.1m/s | -32.5°C | 0% | 0hPa | 2.7V | 18:12:15 | 02:16:26 | 00:00:00 | |
| DO3MHA-11 | 2026-09-03 12:49:17 | 46.36417 | 7.55135 | 251° | 35km/h | 35264m | 6.3m/s | -32.3°C | 1.4% | 0hPa | 2.7V | 00:00:00 | 02:16:22 | 00:00:00 | |
| DM0DOS-11 | 2026-09-03 12:49:14 | 46.36418 | 7.55229 | 243° | 40km/h | 35213m | 5.9m/s | -32.1°C | 1.3% | 0hPa | 2.6V | 08:30:00 | 02:16:14 | 00:00:00 | |
| BIOWL1-15 | 2026-09-03 12:49:12 | 46.36414 | 7.55216 | 251° | 38km/h | 35220m | 6.9m/s | -32.1°C | 0% | 0hPa | 2.6V | 18:12:15 | 02:16:15 | 00:00:00 | |
| DF7PN | 2026-09-03 12:49:09 | 46.36423 | 7.55242 | 240° | 38km/h | 35208m | 5.6m/s | -32.1°C | 0.1% | -1.0hPa | 2.6V | 00:00:00 | 00:00:00 | 00:00:00 | |
| DK5PH-5 | 2026-09-03 12:49:07 | 46.36427 | 7.55254 | 242° | 37km/h | 35202m | 6.4m/s | -32.0°C | 1.4% | 0hPa | 2.6V | 00:00:00 | 02:16:12 | 00:00:00 | |
| DO3MHA-11 | 2026-09-03 12:49:05 | 46.36435 | 7.55275 | 245° | 31km/h | 35189m | 5.6m/s | -32.0°C | 1.4% | 0hPa | 2.6V | 00:00:00 | 02:16:10 | 00:00:00 | |
| IW2NTF | 2026-09-03 12:49:04 | 46.36456 | 7.55328 | 245° | 33km/h | 35152m | 5.5m/s | -32.1°C | 1.4% | 0hPa | 2.6V | 08:30:00 | 02:16:04 | 00:00:00 | |
| BIOWL1-15 | 2026-09-03 12:49:01 | 46.36456 | 7.55328 | 245° | 33km/h | 35152m | 5.5m/s | -32.1°C | 0% | 0hPa | 2.6V | 18:12:15 | 02:16:04 | 00:00:00 | |
| DO3MHA-11 | 2026-09-03 12:48:55 | 46.36464 | 7.55380 | 260° | 40km/h | 35129m | 4.7m/s | -32.3°C | 1.4% | 0hPa | 2.7V | 00:00:00 | 02:16:00 | 00:00:00 | |
| IW2NTF | 2026-09-03 12:48:54 | 46.36506 | 7.55451 | 213° | 44km/h | 35093m | 4.6m/s | -32.5°C | 1.4% | 0hPa | 2.7V | 08:30:00 | 02:15:54 | 00:00:00 | |
| DM0DOS-11 | 2026-09-03 12:48:52 | 46.36514 | 7.55460 | 218° | 38km/h | 35087m | 6m/s | -32.6°C | 1.4% | 0hPa | 2.6V | 08:30:00 | 02:15:53 | 00:00:00 | |
| BIOWL1-15 | 2026-09-03 12:48:48 | 46.36529 | 7.55500 | 257° | 33km/h | 35062m | 4.9m/s | -32.6°C | 0% | 0hPa | 2.7V | 18:12:15 | 02:15:49 | 00:00:00 | |
| DL2OL | 2026-09-03 12:48:47 | 46.36514 | 7.55460 | 220° | 38km/h | 35088m | 6.0m/s | -32.6°C | 0.1% | 0hPa | 2.7V | 00:00:00 | 00:00:00 | 00:00:00 | |
| DO3MHA-12 | 2026-09-03 12:48:45 | 46.36527 | 7.55488 | 257° | 37km/h | 35068m | 5.7m/s | -32.6°C | 1.4% | 0hPa | 2.7V | 00:00:00 | 02:15:50 | 00:00:00 | |
| IW2NTF | 2026-09-03 12:48:44 | 46.36558 | 7.55557 | 217° | 46km/h | 35033m | 5.5m/s | -32.5°C | 1.4% | 0hPa | 2.7V | 08:30:00 | 02:15:44 | 00:00:00 | |
| BIOWL1-15 | 2026-09-03 12:48:38 | 46.36591 | 7.55589 | 210° | 31km/h | 35008m | 5.6m/s | -32.4°C | 0% | 0hPa | 2.7V | 18:12:15 | 02:15:40 | 00:00:00 | |
| BIOWL1-15 | 2026-09-03 12:48:25 | 46.36644 | 7.55674 | 247° | 33km/h | 34949m | 3.8m/s | -32.3°C | 0% | 0hPa | 2.6V | 18:12:15 | 02:15:30 | 00:00:00 | |
| DO3MHA-11 | 2026-09-03 12:48:25 | 46.36644 | 7.55674 | 248° | 33km/h | 34950m | 3.7m/s | -32.2°C | 1.3% | 0hPa | 2.7V | 00:00:00 | 02:15:30 | 00:00:00 | |
| IW2NTF | 2026-09-03 12:48:24 | 46.36692 | 7.55708 | 185° | 37km/h | 34914m | 4.3m/s | -32.1°C | 1.3% | 0hPa | 2.7V | 08:30:00 | 02:15:24 | 00:00:00 | |
| BIOWL1-15 | 2026-09-03 12:48:15 | 46.36712 | 7.55744 | 256° | 33km/h | 34882m | 4.4m/s | -32.5°C | 0% | 0hPa | 2.7V | 18:12:15 | 02:15:18 | 00:00:00 | |
| IW2NTF | 2026-09-03 12:48:14 | 46.36740 | 7.55787 | 207° | 51km/h | 34857m | 5.7m/s | -32.4°C | 1.3% | 0hPa | 2.7V | 08:30:00 | 02:15:14 | 00:00:00 | |
| HASLITAL | 2026-09-03 12:48:10 | 46.36721 | 7.55767 | 230° | 42km/h | 34871m | 7.1m/s | -32.4°C | 0.1% | 0hPa | 2.6V | 00:00:00 | 00:00:00 | 00:00:00 | |
| DK5PH-5 | 2026-09-03 12:48:07 | 46.36771 | 7.55807 | 208° | 31km/h | 34842m | 5.6m/s | -32.6°C | 1.4% | 0hPa | 2.6V | 00:00:00 | 02:15:11 | 08:30:00 | |
| DO3MHA-11 | 2026-09-03 12:48:05 | 46.36778 | 7.55814 | 219° | 29km/h | 34836m | 6.6m/s | -32.6°C | 1.3% | 0hPa | 2.6V | 00:00:00 | 02:15:10 | 00:00:00 | |
| IW2NTF | 2026-09-03 12:48:04 | 46.36792 | 7.55855 | 214° | 27km/h | 34801m | 6.5m/s | -32.9°C | 1.4% | 0hPa | 2.6V | 08:30:00 | 02:15:04 | 00:00:00 | |
| DB0UT-7 | 2026-09-03 12:48:04 | 46.36782 | 7.55820 | 240° | 26km/h | 34829m | 6.9m/s | -32.6°C | 1.3% | 0hPa | 2.7V | 00:00:00 | 00:00:00 | 00:00:00 | |
| DL6DJ-15 | 2026-09-03 12:47:52 | 46.36859 | 7.55904 | 233° | 33km/h | 34762m | 6.0m/s | -33.1°C | 0.1% | -1.0hPa | 2.7V | 00:00:00 | 00:00:00 | 00:00:00 | |
| HASLITAL | 2026-09-03 12:47:50 | 46.36863 | 7.55914 | 250° | 27km/h | 34756m | 5.8m/s | -33.1°C | 0.1% | 0hPa | 2.7V | 00:00:00 | 00:00:00 | 00:00:00 | |
| IW2NTF | 2026-09-03 12:47:47 | 46.36866 | 7.55933 | 184° | 7km/h | 34731m | 5.7m/s | -33.2°C | 1.4% | 0hPa | 2.7V | 08:30:00 | 02:14:52 | 00:00:00 | |
| DO3MHA-11 | 2026-09-03 12:47:45 | 46.36873 | 7.55933 | 185° | 24km/h | 34721m | 4.5m/s | -33.4°C | 1.4% | 0hPa | 2.6V | 00:00:00 | 02:14:50 | 00:00:00 | |
| DO3MHA-12 | 2026-09-03 12:47:44 | 46.36877 | 7.55934 | 198° | 20km/h | 34716m | 5.3m/s | -33.4°C | 1.4% | 0hPa | 2.6V | 00:00:00 | 02:14:49 | 08:30:00 | |
| IW2NTF | 2026-09-03 12:47:42 | 46.36917 | 7.55984 | 170° | 16km/h | 34662m | 6.1m/s | -34°C | 1.5% | 0hPa | 2.6V | 08:30:00 | 02:14:40 | 00:00:00 | |
| DK5PH-5 | 2026-09-03 12:47:36 | 46.36913 | 7.55984 | 189° | 11km/h | 34669m | 6.9m/s | -33.9°C | 1.4% | 0hPa | 2.6V | 00:00:00 | 02:14:41 | 00:00:00 | |
| DO3MHA-11 | 2026-09-03 12:47:35 | 46.36917 | 7.55984 | 171° | 13km/h | 34662m | 6.0m/s | -34.0°C | 1.5% | 0hPa | 2.6V | 00:00:00 | 02:14:40 | 00:00:00 | |
| DB0UT-7 | 2026-09-03 12:47:34 | 46.36921 | 7.55982 | 166° | 13km/h | 34657m | 5.3m/s | -34.2°C | 1.4% | 0hPa | 2.6V | 00:00:00 | 02:14:39 | 00:00:00 | |
| DM0DOS-11 | 2026-09-03 12:47:31 | 46.36932 | 7.55994 | 256° | 15km/h | 34627m | 5m/s | -35.1°C | 1.6% | 0hPa | 2.6V | 08:30:00 | 02:14:34 | 00:00:00 | |
| HASLITAL | 2026-09-03 12:47:30 | 46.36929 | 7.55984 | 237° | 11km/h | 34639m | 6.4m/s | -34.7°C | 0.1% | 0hPa | 2.7V | 00:00:00 | 00:00:00 | 00:00:00 | |
| IW2NTF | 2026-09-03 12:47:26 | 46.36938 | 7.56005 | 177° | 9km/h | 34603m | 5.7m/s | -35.6°C | 1.6% | 0hPa | 2.7V | 08:30:00 | 02:14:30 | 00:00:00 | |
| BIOWL1-15 | 2026-09-03 12:47:21 | 46.36949 | 7.56009 | 187° | 7km/h | 34570m | 4.9m/s | -35.9°C | 0% | 0hPa | 2.7V | 18:12:15 | 02:14:24 | 00:00:00 | |
| IW2NTF | 2026-09-03 12:47:20 | 46.36958 | 7.55997 | 107° | 15km/h | 34546m | 4.2m/s | -36°C | 1.7% | 0hPa | 2.7V | 08:30:00 | 02:14:20 | 00:00:00 | |
| BIOWL1-15 | 2026-09-03 12:47:08 | 46.36934 | 7.55991 | 358° | 16km/h | 34505m | 6.4m/s | -35.9°C | 0% | 0hPa | 2.6V | 18:12:15 | 02:14:13 | 00:00:00 | |
| IW2NTF | 2026-09-03 12:47:06 | 46.36929 | 7.55987 | 92° | 5km/h | 34487m | 4.8m/s | -35.8°C | 1.7% | 0hPa | 2.7V | 08:30:00 | 02:14:10 | 00:00:00 | |
| DO3MHA-11 | 2026-09-03 12:47:05 | 46.36928 | 7.55987 | 93° | 15km/h | 34488m | 4.7m/s | -35.7°C | 1.7% | 0hPa | 2.7V | 00:00:00 | 02:14:10 | 00:00:00 | |
| DK5PH-5 | 2026-09-03 12:47:04 | 46.36929 | 7.55986 | 131° | 20km/h | 34483m | 4.7m/s | -35.8°C | 1.7% | 0hPa | 2.7V | 00:00:00 | 02:14:09 | 00:00:00 | |
| IW2NTF | 2026-09-03 12:47:00 | 46.36899 | 7.56008 | 28° | 15km/h | 34429m | 5.5m/s | -35.6°C | 1.6% | 0hPa | 2.7V | 08:30:00 | 02:14:00 | 00:00:00 | |
| BIOWL1-15 | 2026-09-03 12:46:57 | 46.36908 | 7.56011 | 353° | 20km/h | 34441m | 6.9m/s | -35.7°C | 0% | 0hPa | 2.6V | 18:12:15 | 02:14:02 | 00:00:00 | |
| BIOWL1-15 | 2026-09-03 12:46:47 | 46.36871 | 7.56040 | 306° | 24km/h | 34385m | 6m/s | -35.5°C | 0% | 0hPa | 2.6V | 18:12:15 | 02:13:52 | 00:00:00 | |
| IW2NTF | 2026-09-03 12:46:46 | 46.36865 | 7.56049 | 327° | 11km/h | 34373m | 5.6m/s | -35.6°C | 1.7% | 0hPa | 2.7V | 08:30:00 | 02:13:50 | 00:00:00 | |
| DO3MHA-11 | 2026-09-03 12:46:45 | 46.36865 | 7.56049 | 328° | 24km/h | 34374m | 5.5m/s | -35.5°C | 1.7% | 0hPa | 2.7V | 00:00:00 | 02:13:50 | 08:30:00 | |
| IW2NTF | 2026-09-03 12:46:40 | 46.36827 | 7.56111 | 269° | 22km/h | 34317m | 7.1m/s | -35.4°C | 1.6% | 0hPa | 2.6V | 08:30:00 | 02:13:40 | 00:00:00 | |
| BIOWL1-15 | 2026-09-03 12:46:36 | 46.36828 | 7.56102 | 284° | 27km/h | 34324m | 6.2m/s | -35.5°C | 0% | 0hPa | 2.6V | 18:12:15 | 02:13:41 | 00:00:00 | |
| DO3MHA-11 | 2026-09-03 12:46:35 | 46.36827 | 7.56110 | 270° | 24km/h | 34318m | 7.0m/s | -35.3°C | 1.6% | 0hPa | 2.6V | 00:00:00 | 02:13:40 | 00:00:00 | |
| DK5PH-5 | 2026-09-03 12:46:34 | 46.36828 | 7.56118 | 254° | 26km/h | 34311m | 6.0m/s | -35.3°C | 1.6% | 0hPa | 2.6V | 00:00:00 | 02:13:39 | 00:00:00 | |
| DF7PN | 2026-09-03 12:46:33 | 46.36830 | 7.56127 | 266° | 11km/h | 34302m | 4.2m/s | -35.4°C | 0.1% | -1.0hPa | 2.7V | 00:00:00 | 00:00:00 | 00:00:00 | |
| IW2NTF | 2026-09-03 12:46:29 | 46.36795 | 7.56189 | 287° | 20km/h | 34257m | 7.1m/s | -35.9°C | 1.7% | 0hPa | 2.7V | 08:30:00 | 02:13:29 | 00:00:00 | |
| BIOWL1-15 | 2026-09-03 12:46:27 | 46.36798 | 7.56181 | 305° | 27km/h | 34263m | 5.7m/s | -35.8°C | 0% | 0hPa | 2.6V | 18:12:15 | 02:13:30 | 00:00:00 | |
| DO3MHA-11 | 2026-09-03 12:46:25 | 46.36797 | 7.56181 | 305° | 27km/h | 34264m | 5.6m/s | -35.7°C | 1.6% | 0hPa | 2.6V | 00:00:00 | 02:13:30 | 00:00:00 | |
| DL6DJ-15 | 2026-09-03 12:46:19 | 46.36806 | 7.56222 | 257° | 27km/h | 34228m | 6.1m/s | -35.9°C | 0.1% | -1.0hPa | 2.6V | 00:00:00 | 00:00:00 | 00:00:00 | |
| IW2NTF | 2026-09-03 12:46:18 | 46.36793 | 7.56300 | 283° | 26km/h | 34194m | 6.3m/s | -36°C | 1.7% | 0hPa | 2.6V | 08:30:00 | 02:13:18 | 00:00:00 | |
| BIOWL1-15 | 2026-09-03 12:46:15 | 46.36798 | 7.56276 | 291° | 42km/h | 34205m | 4.3m/s | -36°C | 0% | 0hPa | 2.6V | 18:12:15 | 02:13:20 | 00:00:00 | |
| DO3MHA-11 | 2026-09-03 12:46:15 | 46.36798 | 7.56276 | 292° | 22km/h | 34205m | 4.2m/s | -35.9°C | 1.7% | 0hPa | 2.6V | 00:00:00 | 02:13:20 | 00:00:00 | |
| IW2NTF | 2026-09-03 12:46:07 | 46.36787 | 7.56365 | 296° | 27km/h | 34137m | 6.6m/s | -35.8°C | 1.6% | 0hPa | 2.6V | 08:30:00 | 02:13:08 | 00:00:00 | |
| BIOWL1-15 | 2026-09-03 12:46:04 | 46.36790 | 7.56356 | 297° | 29km/h | 34143m | 5.3m/s | -35.8°C | 0% | 0hPa | 2.7V | 18:12:15 | 02:13:09 | 00:00:00 | |
| DK5PH-5 | 2026-09-03 12:46:04 | 46.36790 | 7.56356 | 298° | 20km/h | 34144m | 5.2m/s | -35.8°C | 1.6% | 0hPa | 2.6V | 00:00:00 | 02:13:09 | 00:00:00 | |
| BIOWL9-15 | 2026-09-03 12:46:03 | 46.36784 | 7.56374 | 296° | 24km/h | 34131m | 6.3m/s | -35.8°C | 0.1% | -1.0hPa | 2.6V | 00:00:00 | 00:00:00 | 00:00:00 | |
| DF7PN | 2026-09-03 12:46:02 | 46.36782 | 7.56382 | 294° | 20km/h | 34125m | 5.9m/s | -35.8°C | 0.1% | -1.0hPa | 2.6V | 00:00:00 | 00:00:00 | 00:00:00 | |
| IW2NTF | 2026-09-03 12:45:58 | 46.36752 | 7.56447 | 307° | 22km/h | 34081m | 6.4m/s | -36.2°C | 1.6% | 0hPa | 2.6V | 08:30:00 | 02:12:58 | 00:00:00 | |
| BIOWL1-15 | 2026-09-03 12:45:54 | 46.36755 | 7.56440 | 309° | 27km/h | 34086m | 4.5m/s | -36.2°C | 0% | 0hPa | 2.6V | 18:12:15 | 02:12:59 | 00:00:00 | |
| DL6DJ-15 | 2026-09-03 12:45:48 | 46.36746 | 7.56463 | 292° | 13km/h | 34050m | 6.1m/s | -36.2°C | 0.1% | -1.0hPa | 2.7V | 00:00:00 | 00:00:00 | 00:00:00 | |
| IW2NTF | 2026-09-03 12:45:46 | 46.36729 | 7.56501 | 308° | 22km/h | 34021m | 6.2m/s | -36.5°C | 1.7% | 0hPa | 2.7V | 08:30:00 | 02:12:48 | 00:00:00 | |
| BIOWL1-15 | 2026-09-03 12:45:46 | 46.36733 | 7.56494 | 306° | 27km/h | 34027m | 4.8m/s | -36.4°C | 0% | 0hPa | 2.7V | 18:12:15 | 02:12:49 | 00:00:00 | |
| DO3MHA-11 | 2026-09-03 12:45:45 | 46.36737 | 7.56485 | 304° | 15km/h | 34032m | 4.9m/s | -36.2°C | 1.6% | 0hPa | 2.7V | 00:00:00 | 02:12:50 | 00:00:00 | |
| IW2NTF | 2026-09-03 12:45:36 | 46.36701 | 7.56521 | 318° | 18km/h | 33961m | 6.8m/s | -36.7°C | 1.7% | 0hPa | 2.7V | 08:30:00 | 02:12:38 | 00:00:00 | |
| BIOWL1-15 | 2026-09-03 12:45:33 | 46.36696 | 7.56529 | 311° | 13km/h | 33948m | 6.2m/s | -36.9°C | 0% | 0hPa | 2.7V | 18:12:15 | 02:12:36 | 00:00:00 | |
| BIOWL9-15 | 2026-09-03 12:45:33 | 46.36696 | 7.56529 | 310° | 11km/h | 33948m | 6.2m/s | -36.9°C | 0.1% | -1.0hPa | 2.7V | 00:00:00 | 00:00:00 | 00:00:00 | |
| DF7PN | 2026-09-03 12:45:31 | 46.36694 | 7.56532 | 310° | 13km/h | 33942m | 5.4m/s | -36.9°C | 0.2% | -1.0hPa | 2.7V | 00:00:00 | 00:00:00 | 00:00:00 | |
| IW2NTF | 2026-09-03 12:45:26 | 46.36671 | 7.56546 | 44° | 11km/h | 33898m | 6.3m/s | -37°C | 1.7% | 0hPa | 2.7V | 08:30:00 | 02:12:28 | 00:00:00 | |
| BIOWL1-15 | 2026-09-03 12:45:23 | 46.36671 | 7.56546 | 44° | 11km/h | 33898m | 6.4m/s | -37°C | 0% | 0hPa | 2.7V | 18:12:15 | 02:12:28 | 00:00:00 | |
| IW2NTF | 2026-09-03 12:45:18 | 46.36649 | 7.56580 | 318° | 5km/h | 33839m | 5.7m/s | -36.9°C | 1.7% | 0hPa | 2.7V | 08:30:00 | 02:12:18 | 00:00:00 | |
| BIOWL1-15 | 2026-09-03 12:45:13 | 46.36649 | 7.56580 | 319° | 5km/h | 33839m | 5.7m/s | -36.9°C | 0% | 0hPa | 2.7V | 18:12:15 | 02:12:18 | 00:00:00 | |
| DM0DOS-11 | 2026-09-03 12:45:11 | 46.36643 | 7.56584 | 332° | 15km/h | 33822m | 6.8m/s | -36.9°C | 1.7% | 0hPa | 2.6V | 08:30:00 | 02:12:15 | 00:00:00 | |
| DO3MHA-11 | 2026-09-03 12:45:05 | 46.36627 | 7.56617 | 280° | 20km/h | 33791m | 7.0m/s | -36.7°C | 1.7% | 0hPa | 2.6V | 00:00:00 | 02:12:10 | 00:00:00 | |
| IW2NTF | 2026-09-03 12:45:04 | 46.36627 | 7.56631 | 272° | 18km/h | 33778m | 4.8m/s | -36.8°C | 1.7% | 0hPa | 2.6V | 08:30:00 | 02:12:08 | 00:00:00 | |
| BIOWL1-15 | 2026-09-03 12:45:03 | 46.36619 | 7.56657 | 316° | 24km/h | 33754m | 5.5m/s | -36.9°C | 0% | 0hPa | 2.6V | 18:12:15 | 02:12:04 | 00:00:00 | |
| BIOWL9-15 | 2026-09-03 12:45:01 | 46.36622 | 7.56651 | 305° | 22km/h | 33761m | 6.6m/s | -36.8°C | 0.2% | -1.0hPa | 2.6V | 00:00:00 | 00:00:00 | 00:00:00 | |
| IW2NTF | 2026-09-03 12:44:58 | 46.36604 | 7.56680 | 265° | 15km/h | 33719m | 4.8m/s | -36.9°C | 1.7% | 0hPa | 2.6V | 08:30:00 | 02:11:58 | 00:00:00 | |
| DO3MHA-11 | 2026-09-03 12:44:55 | 46.36605 | 7.56672 | 309° | 24km/h | 33730m | 6.2m/s | -36.8°C | 1.7% | 0hPa | 2.7V | 00:00:00 | 02:12:00 | 00:00:00 | |
| DM0DOS-11 | 2026-09-03 12:44:51 | 46.36593 | 7.56742 | 297° | 26km/h | 33686m | 4.2m/s | -36.7°C | 1.7% | 0hPa | 2.7V | 08:30:00 | 02:11:52 | 00:00:00 | |
| BIOWL1-15 | 2026-09-03 12:44:49 | 46.36599 | 7.56720 | 290° | 38km/h | 33695m | 5.2m/s | -36.8°C | 0% | 0hPa | 2.6V | 18:12:15 | 02:11:54 | 00:00:00 | |
| IW2NTF | 2026-09-03 12:44:48 | 46.36591 | 7.56750 | 147° | 11km/h | 33659m | 4.8m/s | -36.6°C | 1.7% | 0hPa | 2.7V | 08:30:00 | 02:11:48 | 00:00:00 | |
| DL6DJ-15 | 2026-09-03 12:44:46 | 46.36589 | 7.56751 | 300° | 4km/h | 33673m | 8.4m/s | -36.5°C | 0.2% | -1.0hPa | 2.6V | 00:00:00 | 00:00:00 | 00:00:00 | |
| BIOWL1-15 | 2026-09-03 12:44:38 | 46.36589 | 7.56842 | 269° | 27km/h | 33609m | 5.9m/s | -37°C | 0% | 0hPa | 2.6V | 18:12:15 | 02:11:39 | 00:00:00 | |
| IW2NTF | 2026-09-03 12:44:38 | 46.36591 | 7.56850 | 241° | 20km/h | 33603m | 6.6m/s | -37.1°C | 1.7% | 0hPa | 2.6V | 08:30:00 | 02:11:38 | 00:00:00 | |
| DM0DOS-11 | 2026-09-03 12:44:37 | 46.36592 | 7.56815 | 283° | 47km/h | 33619m | 4.5m/s | -36.9°C | 1.7% | 0hPa | 2.7V | 08:30:00 | 02:11:41 | 00:00:00 | |
| DK5PH-5 | 2026-09-03 12:44:34 | 46.36589 | 7.56842 | 270° | 22km/h | 33610m | 5.9m/s | -37.0°C | 1.7% | 0hPa | 2.6V | 00:00:00 | 02:11:39 | 00:00:00 | |
| DM0DOS-11 | 2026-09-03 12:44:32 | 46.36628 | 7.56883 | 258° | 24km/h | 33559m | 6m/s | -36.8°C | 1.8% | 0hPa | 2.6V | 08:30:00 | 02:11:31 | 00:00:00 | |
| BIOWL9-15 | 2026-09-03 12:44:30 | 46.36614 | 7.56864 | 200° | 29km/h | 33576m | 5.9m/s | -37.0°C | 0.1% | -1.0hPa | 2.7V | 00:00:00 | 00:00:00 | 00:00:00 | |
| IW2NTF | 2026-09-03 12:44:28 | 46.36623 | 7.56907 | 306° | 22km/h | 33540m | 6.6m/s | -36.9°C | 1.7% | 0hPa | 2.7V | 08:30:00 | 02:11:28 | 00:00:00 | |
| BIOWL1-15 | 2026-09-03 12:44:26 | 46.36626 | 7.56900 | 296° | 24km/h | 33546m | 6.6m/s | -36.9°C | 0% | 0hPa | 2.7V | 18:12:15 | 02:11:29 | 00:00:00 | |
| HASLITAL | 2026-09-03 12:44:24 | 46.36628 | 7.56892 | 281° | 24km/h | 33553m | 6.4m/s | -36.9°C | 0.2% | 0hPa | 2.7V | 00:00:00 | 00:00:00 | 00:00:00 | |
| IW2NTF | 2026-09-03 12:44:18 | 46.36640 | 7.56968 | 212° | 9km/h | 33478m | 7.2m/s | -37.2°C | 1.7% | 0hPa | 2.7V | 08:30:00 | 02:11:18 | 00:00:00 | |
| BIOWL1-15 | 2026-09-03 12:44:13 | 46.36640 | 7.56968 | 213° | 9km/h | 33478m | 7.2m/s | -37.2°C | 0% | 0hPa | 2.7V | 18:12:15 | 02:11:18 | 00:00:00 | |
| DM0DOS-11 | 2026-09-03 12:44:10 | 46.36615 | 7.56992 | 297° | 27km/h | 33435m | 4.3m/s | -37.6°C | 1.8% | 0hPa | 2.7V | 08:30:00 | 02:11:11 | 00:00:00 | |
| IW2NTF | 2026-09-03 12:44:08 | 46.36613 | 7.57010 | 221° | 9km/h | 33417m | 8.2m/s | -37.7°C | 1.8% | 0hPa | 2.6V | 08:30:00 | 02:11:08 | 00:00:00 | |
| BIOWL1-15 | 2026-09-03 12:44:03 | 46.36622 | 7.57007 | 154° | 13km/h | 33397m | 5.1m/s | -37.8°C | 0% | 0hPa | 2.6V | 18:12:15 | 02:11:05 | 00:00:00 | |
| BIOWL9-15 | 2026-09-03 12:44:00 | 46.36626 | 7.57006 | 233° | 4km/h | 33385m | 6.5m/s | -38.0°C | 0.2% | -1.0hPa | 2.7V | 00:00:00 | 00:00:00 | 00:00:00 | |
| IW2NTF | 2026-09-03 12:43:58 | 46.36610 | 7.57023 | 349° | 20km/h | 33352m | 6.4m/s | -38.1°C | 1.8% | 0hPa | 2.7V | 08:30:00 | 02:10:58 | 00:00:00 | |
| BIOWL1-15 | 2026-09-03 12:43:54 | 46.36606 | 7.57024 | 357° | 15km/h | 33347m | 5.6m/s | 0°C | 0% | 0hPa | 2.6V | 18:12:15 | 02:10:57 | 00:00:00 | |
| IW2NTF | 2026-09-03 12:43:48 | 46.36623 | 7.57031 | 62° | 11km/h | 33291m | 5.8m/s | -38.1°C | 1.8% | 0hPa | 2.6V | 08:30:00 | 02:10:48 | 00:00:00 | |
| HASLITAL | 2026-09-03 12:43:42 | 46.36623 | 7.57031 | 64° | 11km/h | 33291m | 5.8m/s | -38.1°C | 0.2% | 0hPa | 2.7V | 00:00:00 | 00:00:00 | 00:00:00 | |
| IW2NTF | 2026-09-03 12:43:38 | 46.36597 | 7.57045 | 158° | 20km/h | 33227m | 6.7m/s | -37.7°C | 1.8% | 0hPa | 2.7V | 08:30:00 | 02:10:38 | 00:00:00 | |
| DB0UT-7 | 2026-09-03 12:43:34 | 46.36593 | 7.57047 | 164° | 20km/h | 33234m | 7.8m/s | -37.8°C | 1.8% | 0hPa | 2.6V | 00:00:00 | 02:10:39 | 00:00:00 | |
| IW2NTF | 2026-09-03 12:43:29 | 46.36589 | 7.57062 | 324° | 16km/h | 33167m | 4.5m/s | -37.6°C | 1.8% | 0hPa | 2.6V | 08:30:00 | 02:10:28 | 00:00:00 | |
| BIOWL9-15 | 2026-09-03 12:43:28 | 46.36608 | 7.57051 | 326° | 16km/h | 33192m | 6.9m/s | -37.8°C | 0.2% | -1.0hPa | 2.6V | 00:00:00 | 00:00:00 | 00:00:00 | |
| DF7PN | 2026-09-03 12:43:26 | 46.36598 | 7.57056 | 343° | 22km/h | 33177m | 6.4m/s | -37.8°C | 0.2% | -1.0hPa | 2.6V | 00:00:00 | 00:00:00 | 00:00:00 | |
| HASLITAL | 2026-09-03 12:43:22 | 46.36589 | 7.57062 | 325° | 16km/h | 33167m | 4.5m/s | -37.7°C | 0.2% | 0hPa | 2.6V | 00:00:00 | 00:00:00 | 00:00:00 | |
| IW2NTF | 2026-09-03 12:43:18 | 46.36602 | 7.57113 | 357° | 13km/h | 33105m | 5.1m/s | -37.2°C | 1.8% | 0hPa | 2.6V | 08:30:00 | 02:10:18 | 00:00:00 | |
| DL6DJ-15 | 2026-09-03 12:43:13 | 46.36598 | 7.57155 | 241° | 31km/h | 33070m | 6.2m/s | -37.2°C | 0.2% | -1.0hPa | 2.7V | 00:00:00 | 00:00:00 | 00:00:00 | |
| IW2NTF | 2026-09-03 12:43:08 | 46.36614 | 7.57183 | 226° | 16km/h | 33045m | 5.6m/s | -37.2°C | 1.8% | 0hPa | 2.7V | 08:30:00 | 02:10:08 | 00:00:00 | |
| DL2OL | 2026-09-03 12:43:07 | 46.36594 | 7.57145 | 252° | 31km/h | 33076m | 5.8m/s | -37.2°C | 0.2% | 0hPa | 2.7V | 00:00:00 | 00:00:00 | 00:00:00 | |
| DB0UT-7 | 2026-09-03 12:43:04 | 46.36610 | 7.57178 | 224° | 24km/h | 33052m | 6.0m/s | -37.1°C | 1.7% | 0hPa | 2.7V | 00:00:00 | 00:00:00 | 00:00:00 | |
| HASLITAL | 2026-09-03 12:43:02 | 46.36614 | 7.57183 | 228° | 16km/h | 33046m | 5.6m/s | -37.2°C | 0.2% | 0hPa | 2.6V | 00:00:00 | 00:00:00 | 00:00:00 | |
| IW2NTF | 2026-09-03 12:42:58 | 46.36633 | 7.57251 | 204° | 22km/h | 32984m | 5.3m/s | -37.1°C | 1.8% | 0hPa | 2.6V | 08:30:00 | 02:09:58 | 00:00:00 | |
| DF7PN | 2026-09-03 12:42:55 | 46.36627 | 7.57244 | 240° | 15km/h | 32996m | 6.7m/s | -37.2°C | 0.2% | -1.0hPa | 2.6V | 00:00:00 | 00:00:00 | 00:00:00 | |
| DH7VM-15 | 2026-09-03 12:42:48 | 46.36663 | 7.57273 | 211° | 38km/h | 32959m | 4.8m/s | -37.1°C | 0.2% | 0hPa | 2.6V | 00:00:00 | 00:00:00 | 00:00:00 | |
| IW2NTF | 2026-09-03 12:42:46 | 46.36692 | 7.57300 | 244° | 13km/h | 32922m | 6.3m/s | -37.2°C | 1.8% | 0hPa | 2.6V | 08:30:00 | 02:09:48 | 00:00:00 | |
| DM0DOS-11 | 2026-09-03 12:42:42 | 46.36699 | 7.57320 | 235° | 27km/h | 32904m | 4.7m/s | -37.2°C | 1.7% | 0hPa | 2.7V | 08:30:00 | 02:09:45 | 00:00:00 | |
| HASLITAL | 2026-09-03 12:42:41 | 46.36693 | 7.57305 | 249° | 18km/h | 32916m | 6.9m/s | -37.3°C | 0.2% | 0hPa | 2.7V | 00:00:00 | 00:00:00 | 00:00:00 | |
| IW2NTF | 2026-09-03 12:42:38 | 46.36745 | 7.57344 | 195° | 33km/h | 32863m | 6.2m/s | -37.5°C | 1.8% | 0hPa | 2.7V | 08:30:00 | 02:09:38 | 00:00:00 | |
| DB0UT-7 | 2026-09-03 12:42:34 | 46.36737 | 7.57341 | 188° | 29km/h | 32869m | 5.2m/s | -37.5°C | 1.8% | 0hPa | 2.6V | 00:00:00 | 02:09:39 | 00:00:00 | |
| IW2NTF | 2026-09-03 12:42:26 | 46.36814 | 7.57379 | 181° | 33km/h | 32802m | 6.6m/s | -37.8°C | 1.8% | 0hPa | 2.6V | 08:30:00 | 02:09:28 | 00:00:00 | |
| DF7PN | 2026-09-03 12:42:24 | 46.36806 | 7.57379 | 174° | 29km/h | 32808m | 5.5m/s | -37.7°C | 0.2% | -1.0hPa | 2.6V | 00:00:00 | 00:00:00 | 00:00:00 | |
| DM0DOS-11 | 2026-09-03 12:42:22 | 46.36848 | 7.57388 | 189° | 31km/h | 32778m | 5.8m/s | -37.8°C | 1.9% | 0hPa | 2.6V | 08:30:00 | 02:09:24 | 00:00:00 | |
| HASLITAL | 2026-09-03 12:42:21 | 46.36823 | 7.57380 | 190° | 35km/h | 32796m | 6.4m/s | -37.8°C | 0.2% | 0hPa | 2.6V | 00:00:00 | 00:00:00 | 00:00:00 | |
| IW2NTF | 2026-09-03 12:42:16 | 46.36889 | 7.57385 | 188° | 29km/h | 32742m | 6.8m/s | -37.6°C | 1.8% | 0hPa | 2.6V | 08:30:00 | 02:09:18 | 00:00:00 | |
| DL2OL | 2026-09-03 12:42:14 | 46.36875 | 7.57385 | 172° | 26km/h | 32755m | 5.1m/s | -37.8°C | 0.2% | 0hPa | 2.6V | 00:00:00 | 00:00:00 | 00:00:00 | |
| DM0DOS-11 | 2026-09-03 12:42:10 | 46.36933 | 7.57389 | 152° | 26km/h | 32706m | 6.5m/s | -37.6°C | 1.8% | 0hPa | 2.6V | 08:30:00 | 02:09:12 | 00:00:00 | |
| IW2NTF | 2026-09-03 12:42:06 | 46.36953 | 7.57380 | 190° | 18km/h | 32681m | 6.2m/s | -37.6°C | 1.8% | 0hPa | 2.7V | 08:30:00 | 02:09:08 | 00:00:00 | |
| DB0UT-7 | 2026-09-03 12:42:04 | 46.36948 | 7.57379 | 175° | 15km/h | 32688m | 7.0m/s | -37.5°C | 1.8% | 0hPa | 2.7V | 00:00:00 | 00:00:00 | 00:00:00 | |
| HASLITAL | 2026-09-03 12:42:00 | 46.36961 | 7.57384 | 203° | 16km/h | 32669m | 6.9m/s | -37.5°C | 0.2% | 0hPa | 2.7V | 00:00:00 | 00:00:00 | 00:00:00 | |
| DK5PH-5 | 2026-09-03 12:41:58 | 46.36971 | 7.57389 | 203° | 15km/h | 32650m | 5.1m/s | -37.6°C | 1.8% | 0hPa | 2.7V | 00:00:00 | 02:09:03 | 00:00:00 | |
| DM0DOS-11 | 2026-09-03 12:41:57 | 46.36977 | 7.57393 | 205° | 16km/h | 32637m | 6.4m/s | -37.6°C | 1.8% | 0hPa | 2.7V | 08:30:00 | 02:09:01 | 00:00:00 | |
| IW2NTF | 2026-09-03 12:41:56 | 46.36988 | 7.57394 | 149° | 16km/h | 32620m | 6.6m/s | -37.7°C | 1.8% | 0hPa | 2.6V | 08:30:00 | 02:08:58 | 00:00:00 | |
| DF7PN | 2026-09-03 12:41:53 | 46.36988 | 7.57394 | 149° | 15km/h | 32620m | 6.6m/s | -37.7°C | 0.2% | -1.0hPa | 2.6V | 00:00:00 | 00:00:00 | 00:00:00 | |
| IW2NTF | 2026-09-03 12:41:48 | 46.37023 | 7.57377 | 269° | 7km/h | 32556m | 7.4m/s | -37.8°C | 1.8% | 0hPa | 2.6V | 08:30:00 | 02:08:48 | 00:00:00 | |
| HASLITAL | 2026-09-03 12:41:39 | 46.37021 | 7.57378 | 96° | 5km/h | 32538m | 5.9m/s | -37.8°C | 0.3% | 0hPa | 2.7V | 00:00:00 | 00:00:00 | 00:00:00 | |
| IW2NTF | 2026-09-03 12:41:38 | 46.37041 | 7.57362 | 151° | 7km/h | 32494m | 5.6m/s | -37.6°C | 1.8% | 0hPa | 2.7V | 08:30:00 | 02:08:38 | 00:00:00 | |
| BIOWL1-15 | 2026-09-03 12:41:34 | 46.37039 | 7.57364 | 144° | 13km/h | 32501m | 6.4m/s | -37.7°C | 0% | 0hPa | 2.7V | 18:12:15 | 02:08:39 | 00:00:00 | |
| DB0UT-7 | 2026-09-03 12:41:34 | 46.37039 | 7.57364 | 144° | 13km/h | 32501m | 6.4m/s | -37.6°C | 1.8% | 0hPa | 2.7V | 00:00:00 | 02:08:39 | 00:00:00 | |
| DM0DOS-11 | 2026-09-03 12:41:33 | 46.37043 | 7.57379 | 270° | 24km/h | 32468m | 5.7m/s | -37.7°C | 1.8% | 0hPa | 2.6V | 08:30:00 | 02:08:34 | 00:00:00 | |
| IW2NTF | 2026-09-03 12:41:28 | 46.37041 | 7.57396 | 105° | 7km/h | 32432m | 5.8m/s | -37.7°C | 1.8% | 0hPa | 2.6V | 08:30:00 | 02:08:28 | 00:00:00 | |
| BIOWL1-15 | 2026-09-03 12:41:23 | 46.37044 | 7.57398 | 278° | 11km/h | 32408m | 5.7m/s | -37.8°C | 0% | 0hPa | 2.6V | 18:12:15 | 02:08:24 | 00:00:00 | |
| DF7PN | 2026-09-03 12:41:22 | 46.37042 | 7.57394 | 125° | 5km/h | 32426m | 6.5m/s | -37.8°C | 0.2% | -1.0hPa | 2.6V | 00:00:00 | 00:00:00 | 00:00:00 | |
| DM0DOS-11 | 2026-09-03 12:41:21 | 46.37043 | 7.57398 | 278° | 11km/h | 32408m | 5.7m/s | -37.8°C | 1.8% | 0hPa | 2.6V | 08:30:00 | 02:08:24 | 00:00:00 | |
| IW2NTF | 2026-09-03 12:41:18 | 46.37031 | 7.57432 | 281° | 22km/h | 32372m | 5.7m/s | -38.3°C | 1.9% | 0hPa | 2.6V | 08:30:00 | 02:08:18 | 00:00:00 | |
| DL8DAS-15 | 2026-09-03 12:41:14 | 46.37035 | 7.57419 | 308° | 20km/h | 32383m | 5.7m/s | 0°C | 0% | 0hPa | 2.7V | 00:00:00 | 00:00:00 | 00:00:00 | |
| DM0DOS-11 | 2026-09-03 12:41:13 | 46.37038 | 7.57463 | 219° | 18km/h | 32348m | 5.2m/s | -38.5°C | 1.9% | 0hPa | 2.7V | 08:30:00 | 02:08:14 | 00:00:00 | |
| DH7VM-15 | 2026-09-03 12:41:12 | 46.37031 | 7.57432 | 283° | 22km/h | 32372m | 5.7m/s | -38.3°C | 0.3% | 0hPa | 2.7V | 00:00:00 | 00:00:00 | 00:00:00 | |
| DL2OL | 2026-09-03 12:41:11 | 46.37031 | 7.57440 | 267° | 24km/h | 32365m | 7.4m/s | -38.3°C | 0.2% | 0hPa | 2.7V | 00:00:00 | 00:00:00 | 00:00:00 | |
| DL6DJ-15 | 2026-09-03 12:41:09 | 46.37042 | 7.57466 | 201° | 13km/h | 32342m | 7.4m/s | -38.4°C | 0.2% | -1.0hPa | 2.7V | 00:00:00 | 00:00:00 | 00:00:00 | |
| IW2NTF | 2026-09-03 12:41:07 | 46.37044 | 7.57467 | 306° | 15km/h | 32309m | 6.9m/s | -38.4°C | 1.8% | 0hPa | 2.7V | 08:30:00 | 02:08:08 | 00:00:00 | |
| BIOWL1-15 | 2026-09-03 12:41:07 | 46.37039 | 7.57480 | 293° | 24km/h | 32297m | 5.4m/s | -38.5°C | 0% | 0hPa | 2.6V | 18:12:15 | 02:08:06 | 00:00:00 | |
| DB0UT-7 | 2026-09-03 12:41:04 | 46.37046 | 7.57464 | 330° | 22km/h | 32316m | 6.7m/s | -38.4°C | 1.8% | 0hPa | 2.6V | 00:00:00 | 00:00:00 | 00:00:00 | |
| DM0DOS-11 | 2026-09-03 12:41:00 | 46.37036 | 7.57496 | 269° | 20km/h | 32284m | 6.1m/s | -38.5°C | 1.8% | 0hPa | 2.6V | 08:30:00 | 02:08:04 | 00:00:00 | |
| IW2NTF | 2026-09-03 12:40:58 | 46.37067 | 7.57520 | 179° | 26km/h | 32249m | 4.7m/s | -38.7°C | 1.8% | 0hPa | 2.6V | 08:30:00 | 02:07:58 | 00:00:00 | |
| DK5PH-5 | 2026-09-03 12:40:58 | 46.37037 | 7.57503 | 242° | 24km/h | 32279m | 5.5m/s | -38.5°C | 1.8% | 0hPa | 2.7V | 00:00:00 | 02:08:03 | 00:00:00 | |
| DM0DOS-11 | 2026-09-03 12:40:53 | 46.37079 | 7.57508 | 139° | 0km/h | 32217m | 4.8m/s | -39.1°C | 1.9% | 0hPa | 2.6V | 08:30:00 | 02:07:53 | 00:00:00 | |
| BIOWL1-15 | 2026-09-03 12:40:48 | 46.37079 | 7.57508 | 140° | 2km/h | 32217m | 4.8m/s | -39.1°C | 0% | 0hPa | 2.6V | 18:12:15 | 02:07:53 | 00:00:00 | |
| DM0DOS-11 | 2026-09-03 12:40:41 | 46.37143 | 7.57521 | 147° | 24km/h | 32155m | 6.8m/s | -39.3°C | 2% | 0hPa | 2.7V | 08:30:00 | 02:07:43 | 00:00:00 | |
| BIOWL1-15 | 2026-09-03 12:40:37 | 46.37151 | 7.57513 | 150° | 16km/h | 32142m | 6.2m/s | -39.3°C | 0% | 0hPa | 2.6V | 18:12:15 | 02:07:41 | 00:00:00 | |
| DB0UT-7 | 2026-09-03 12:40:34 | 46.37158 | 7.57507 | 154° | 16km/h | 32131m | 5.9m/s | -39.3°C | 2.0% | 0hPa | 2.7V | 00:00:00 | 02:07:39 | 00:00:00 | |
| DM0DOS-11 | 2026-09-03 12:40:30 | 46.37195 | 7.57494 | 185° | 20km/h | 32091m | 6.4m/s | -39.1°C | 2% | 0hPa | 2.7V | 08:30:00 | 02:07:33 | 00:00:00 | |
| BIOWL1-15 | 2026-09-03 12:40:26 | 46.37203 | 7.57493 | 160° | 13km/h | 32080m | 5.9m/s | 0°C | 0% | 0hPa | 2.7V | 18:12:15 | 02:07:31 | 00:00:00 | |
| IW2NTF | 2026-09-03 12:40:26 | 46.37212 | 7.57467 | 111° | 15km/h | 32047m | 7m/s | -39°C | 1.9% | 0hPa | 2.7V | 08:30:00 | 02:07:26 | 00:00:00 | |
| BIOWL9-15 | 2026-09-03 12:40:21 | 46.37212 | 7.57467 | 111° | 15km/h | 32047m | 7.0m/s | -39.0°C | 0.2% | -1.0hPa | 2.6V | 00:00:00 | 00:00:00 | 00:00:00 | |
| DM0DOS-11 | 2026-09-03 12:40:20 | 46.37219 | 7.57459 | 167° | 15km/h | 32028m | 5.7m/s | -38.9°C | 1.9% | 0hPa | 2.6V | 08:30:00 | 02:07:23 | 00:00:00 | |
| DF7PN | 2026-09-03 12:40:20 | 46.37214 | 7.57463 | 129° | 9km/h | 32041m | 6.7m/s | -39.0°C | 0.3% | -1.0hPa | 2.6V | 00:00:00 | 00:00:00 | 00:00:00 | |
| IW2NTF | 2026-09-03 12:40:16 | 46.37246 | 7.57450 | 244° | 2km/h | 31983m | 6.7m/s | -38.6°C | 1.9% | 0hPa | 2.6V | 08:30:00 | 02:07:16 | 00:00:00 | |
| BIOWL1-15 | 2026-09-03 12:40:15 | 46.37233 | 7.57454 | 163° | 22km/h | 32008m | 5.9m/s | 0°C | 0% | 0hPa | 2.7V | 18:12:15 | 02:07:20 | 00:00:00 | |
| DM0DOS-11 | 2026-09-03 12:40:13 | 46.37243 | 7.57442 | 85° | 15km/h | 31957m | 6.8m/s | -38.6°C | 1.8% | 0hPa | 2.6V | 08:30:00 | 02:07:12 | 00:00:00 | |
| BIOWL1-15 | 2026-09-03 12:40:06 | 46.37246 | 7.57429 | 148° | 11km/h | 31938m | 7.1m/s | 0°C | 0% | 0hPa | 2.7V | 18:12:15 | 02:07:09 | 00:00:00 | |
| DB0UT-7 | 2026-09-03 12:40:04 | 46.37246 | 7.57429 | 148° | 11km/h | 31939m | 7.0m/s | -38.5°C | 1.8% | 0hPa | 2.7V | 00:00:00 | 00:00:00 | 08:30:00 | |
| IW2NTF | 2026-09-03 12:40:01 | 46.37256 | 7.57435 | 210° | 11km/h | 31914m | 5.4m/s | -38.6°C | 1.8% | 0hPa | 2.6V | 08:30:00 | 02:07:05 | 00:00:00 | |
| DK5PH-5 | 2026-09-03 12:39:58 | 46.37261 | 7.57435 | 157° | 13km/h | 31902m | 7.0m/s | -38.7°C | 1.9% | 0hPa | 2.7V | 00:00:00 | 02:07:03 | 00:00:00 | |
| DM0DOS-11 | 2026-09-03 12:39:56 | 46.37277 | 7.57428 | 249° | 13km/h | 31858m | 5.3m/s | -38.9°C | 1.9% | 0hPa | 2.7V | 08:30:00 | 02:06:56 | 00:00:00 | |
| BIOWL1-15 | 2026-09-03 12:39:55 | 46.37273 | 7.57423 | 194° | 9km/h | 31870m | 7.3m/s | 0°C | 0% | 0hPa | 2.6V | 18:12:15 | 02:06:58 | 00:00:00 | |
| IW2NTF | 2026-09-03 12:39:51 | 46.37278 | 7.57432 | 261° | 11km/h | 31852m | 5.7m/s | -38.9°C | 1.9% | 0hPa | 2.7V | 08:30:00 | 02:06:55 | 00:00:00 | |
| BIOWL9-15 | 2026-09-03 12:39:50 | 46.37278 | 7.57432 | 261° | 9km/h | 31853m | 5.7m/s | -38.9°C | 0.2% | -1.0hPa | 2.6V | 00:00:00 | 00:00:00 | 00:00:00 | |
| DF7PN | 2026-09-03 12:39:49 | 46.37278 | 7.57435 | 276° | 5km/h | 31846m | 7.4m/s | -38.9°C | 0.2% | -1.0hPa | 2.6V | 00:00:00 | 00:00:00 | 00:00:00 | |
| DM0DOS-11 | 2026-09-03 12:39:46 | 46.37286 | 7.57442 | 215° | 15km/h | 31796m | 4.2m/s | -39.2°C | 1.9% | 0hPa | 2.6V | 08:30:00 | 02:06:46 | 00:00:00 | |
| BIOWL1-15 | 2026-09-03 12:39:42 | 46.37282 | 7.57439 | 214° | 15km/h | 31801m | 5.3m/s | 0°C | 0% | 0hPa | 2.6V | 18:12:15 | 02:06:47 | 00:00:00 | |
| IW2NTF | 2026-09-03 12:39:41 | 46.37288 | 7.57445 | 219° | 9km/h | 31792m | 4.3m/s | -39.2°C | 1.9% | 0hPa | 2.7V | 08:30:00 | 02:06:45 | 00:00:00 | |
| DL2OL | 2026-09-03 12:39:38 | 46.37288 | 7.57446 | 0° | 0km/h | 31787m | 5.9m/s | -39.3°C | 0.3% | 0hPa | 2.6V | 00:00:00 | 00:00:00 | 00:00:00 | |
| DH7VM-15 | 2026-09-03 12:39:37 | 46.37288 | 7.57446 | 17° | 9km/h | 31780m | 8.2m/s | -39.4°C | 0.3% | 0hPa | 2.6V | 00:00:00 | 00:00:00 | 00:00:00 | |
| DM0DOS-11 | 2026-09-03 12:39:36 | 46.37259 | 7.57451 | 268° | 18km/h | 31733m | 6.1m/s | -39.7°C | 2% | 0hPa | 2.6V | 08:30:00 | 02:06:36 | 00:00:00 | |
| DL6DJ-15 | 2026-09-03 12:39:35 | 46.37273 | 7.57440 | 9° | 24km/h | 31758m | 5.0m/s | -39.7°C | 0.3% | -1.0hPa | 2.6V | 00:00:00 | 00:00:00 | 00:00:00 | |
| DB0UT-7 | 2026-09-03 12:39:34 | 46.37267 | 7.57439 | 356° | 16km/h | 31753m | 4.9m/s | -39.7°C | 2.0% | 0hPa | 2.6V | 00:00:00 | 02:06:39 | 00:00:00 | |
| IW2NTF | 2026-09-03 12:39:31 | 46.37260 | 7.57458 | 259° | 20km/h | 31727m | 5.3m/s | -39.8°C | 2% | 0hPa | 2.6V | 08:30:00 | 02:06:35 | 00:00:00 | |
| DM0DOS-11 | 2026-09-03 12:39:26 | 46.37235 | 7.57487 | 329° | 18km/h | 31669m | 5.5m/s | -39.9°C | 2% | 0hPa | 2.7V | 08:30:00 | 02:06:26 | 00:00:00 | |
| IW2NTF | 2026-09-03 12:39:25 | 46.37231 | 7.57491 | 330° | 18km/h | 31663m | 5.9m/s | -39.8°C | 2% | 0hPa | 2.7V | 08:30:00 | 02:06:25 | 00:00:00 | |
| DK5PH-5 | 2026-09-03 12:39:25 | 46.37251 | 7.57478 | 349° | 16km/h | 31695m | 6.0m/s | -39.8°C | 2.0% | 0hPa | 2.6V | 00:00:00 | 02:06:30 | 00:00:00 | |
| BIOWL9-15 | 2026-09-03 12:39:19 | 46.37227 | 7.57494 | 334° | 16km/h | 31657m | 7.2m/s | -39.9°C | 0.3% | -1.0hPa | 2.6V | 00:00:00 | 00:00:00 | 00:00:00 | |
| DF7PN | 2026-09-03 12:39:18 | 46.37220 | 7.57500 | 318° | 15km/h | 31644m | 5.5m/s | -39.9°C | 0.3% | -1.0hPa | 2.6V | 00:00:00 | 00:00:00 | 00:00:00 | |
| DM0DOS-11 | 2026-09-03 12:39:15 | 46.37220 | 7.57538 | 265° | 13km/h | 31608m | 7m/s | -39.8°C | 2% | 0hPa | 2.6V | 08:30:00 | 02:06:16 | 00:00:00 | |
| IW2NTF | 2026-09-03 12:39:15 | 46.37220 | 7.57541 | 307° | 7km/h | 31601m | 7.6m/s | -39.9°C | 2% | 0hPa | 2.7V | 08:30:00 | 02:06:15 | 00:00:00 | |
| IW2NTF | 2026-09-03 12:39:05 | 46.37212 | 7.57577 | 215° | 15km/h | 31538m | 6.6m/s | -40°C | 2% | 0hPa | 2.6V | 08:30:00 | 02:06:05 | 00:00:00 | |
| DB0UT-7 | 2026-09-03 12:39:04 | 46.37206 | 7.57554 | 272° | 16km/h | 31564m | 5.8m/s | -39.9°C | 2.0% | 0hPa | 2.6V | 00:00:00 | 00:00:00 | 00:00:00 | |
| DM0DOS-11 | 2026-09-03 12:38:57 | 46.37239 | 7.57591 | 203° | 18km/h | 31500m | 5.5m/s | -39.9°C | 2% | 0hPa | 2.6V | 08:30:00 | 02:05:59 | 00:00:00 | |
| IW2NTF | 2026-09-03 12:38:55 | 46.37243 | 7.57598 | 292° | 7km/h | 31475m | 4.5m/s | -40°C | 2% | 0hPa | 2.7V | 08:30:00 | 02:05:55 | 00:00:00 | |
| DF7PN | 2026-09-03 12:38:47 | 46.37246 | 7.57623 | 246° | 27km/h | 31450m | 5.8m/s | -40.2°C | 0.3% | -1.0hPa | 2.6V | 00:00:00 | 00:00:00 | 00:00:00 | |
| IW2NTF | 2026-09-03 12:38:45 | 46.37270 | 7.57649 | 183° | 20km/h | 31412m | 7m/s | -40.4°C | 2% | 0hPa | 2.6V | 08:30:00 | 02:05:45 | 00:00:00 | |
| IW2NTF | 2026-09-03 12:38:35 | 46.37306 | 7.57679 | 201° | 37km/h | 31352m | 7.1m/s | -40.6°C | 2.1% | 0hPa | 2.6V | 08:30:00 | 02:05:35 | 00:00:00 | |
| DB0UT-7 | 2026-09-03 12:38:34 | 46.37289 | 7.57662 | 254° | 27km/h | 31375m | 5.0m/s | -40.4°C | 2.0% | 0hPa | 2.7V | 00:00:00 | 02:05:39 | 00:00:00 | |
| DL6DJ-15 | 2026-09-03 12:38:33 | 46.37291 | 7.57666 | 232° | 13km/h | 31370m | 4.0m/s | -40.5°C | 0.3% | -1.0hPa | 2.6V | 00:00:00 | 00:00:00 | 00:00:00 | |
| IW2NTF | 2026-09-03 12:38:25 | 46.37380 | 7.57687 | 164° | 29km/h | 31291m | 6m/s | -40.9°C | 2.1% | 0hPa | 2.6V | 08:30:00 | 02:05:25 | 00:00:00 | |
| DF7PN | 2026-09-03 12:38:16 | 46.37416 | 7.57690 | 192° | 26km/h | 31260m | 4.4m/s | -41.0°C | 0.3% | -1.0hPa | 2.7V | 00:00:00 | 00:00:00 | 00:00:00 | |
| IW2NTF | 2026-09-03 12:38:15 | 46.37449 | 7.57680 | 139° | 26km/h | 31230m | 5.7m/s | -41.1°C | 2.1% | 0hPa | 2.7V | 08:30:00 | 02:05:15 | 00:00:00 | |
| BIOWL1-15 | 2026-09-03 12:38:07 | 46.37501 | 7.57619 | 157° | 24km/h | 31162m | 6m/s | -41.5°C | 0% | 0hPa | 2.7V | 18:12:15 | 02:05:04 | 00:00:00 | |
| BIOWL1-15 | 2026-09-03 12:37:56 | 46.37518 | 7.57603 | 142° | 33km/h | 31145m | 7.1m/s | -41.5°C | 0% | 0hPa | 2.6V | 18:12:15 | 02:05:01 | 00:00:00 | |
| IW2NTF | 2026-09-03 12:37:53 | 46.37548 | 7.57547 | 104° | 20km/h | 31107m | 7m/s | -41.7°C | 2.2% | 0hPa | 2.7V | 08:30:00 | 02:04:55 | 00:00:00 | |
| BIOWL1-15 | 2026-09-03 12:37:45 | 46.37569 | 7.57503 | 126° | 38km/h | 31071m | 5.9m/s | -41.6°C | 0% | 0hPa | 2.7V | 18:12:15 | 02:04:49 | 00:00:00 | |
| IW2NTF | 2026-09-03 12:37:45 | 46.37585 | 7.57444 | 102° | 47km/h | 31046m | 4.7m/s | -41.6°C | 2.2% | 0hPa | 2.7V | 08:30:00 | 02:04:45 | 00:00:00 | |
| DF7PN | 2026-09-03 12:37:45 | 46.37569 | 7.57503 | 125° | 38km/h | 31071m | 5.9m/s | -41.6°C | 0.3% | -1.0hPa | 2.7V | 00:00:00 | 00:00:00 | 00:00:00 | |
| IW2NTF | 2026-09-03 12:37:34 | 46.37617 | 7.57327 | 112° | 24km/h | 30975m | 7.4m/s | -41.6°C | 2.2% | 0hPa | 2.7V | 08:30:00 | 02:04:33 | 00:00:00 | |
| BIOWL1-15 | 2026-09-03 12:37:33 | 46.37612 | 7.57368 | 120° | 20km/h | 31005m | 7m/s | -41.6°C | 0% | 0hPa | 2.7V | 18:12:15 | 02:04:38 | 00:00:00 | |
| HASLITAL | 2026-09-03 12:37:32 | 46.37612 | 7.57368 | 121° | 20km/h | 31005m | 7.0m/s | -41.6°C | 0.4% | 0hPa | 2.6V | 00:00:00 | 00:00:00 | 00:00:00 | |
| DL6DJ-15 | 2026-09-03 12:37:31 | 46.37614 | 7.57353 | 92° | 22km/h | 30993m | 5.2m/s | -41.6°C | 0.3% | -1.0hPa | 2.6V | 00:00:00 | 00:00:00 | 00:00:00 | |
| DO3MHA-11 | 2026-09-03 12:37:24 | 46.37631 | 7.57296 | 119° | 20km/h | 30950m | 7.2m/s | -41.5°C | 2.2% | 0hPa | 2.6V | 00:00:00 | 02:04:29 | 00:00:00 | |
| IW2NTF | 2026-09-03 12:37:23 | 46.37643 | 7.57248 | 123° | 13km/h | 30912m | 6.1m/s | -41.6°C | 2.2% | 0hPa | 2.6V | 08:30:00 | 02:04:23 | 00:00:00 | |
| BIOWL1-15 | 2026-09-03 12:37:20 | 46.37643 | 7.57248 | 123° | 13km/h | 30912m | 6.1m/s | -41.6°C | 0% | 0hPa | 2.6V | 18:12:15 | 02:04:23 | 00:00:00 | |
| DK5PH-5 | 2026-09-03 12:37:18 | 46.37643 | 7.57248 | 124° | 18km/h | 30913m | 6.0m/s | -41.5°C | 2.2% | 0hPa | 2.6V | 00:00:00 | 02:04:23 | 08:30:00 | |
| BIOWL9-15 | 2026-09-03 12:37:15 | 46.37646 | 7.57235 | 92° | 15km/h | 30894m | 6.9m/s | -41.7°C | 0.3% | -1.0hPa | 2.7V | 00:00:00 | 00:00:00 | 00:00:00 | |
| DO3MHA-11 | 2026-09-03 12:37:14 | 46.37646 | 7.57229 | 91° | 20km/h | 30888m | 5.3m/s | -41.6°C | 2.1% | 0hPa | 2.7V | 00:00:00 | 02:04:19 | 00:00:00 | |
| DF7PN | 2026-09-03 12:37:13 | 46.37647 | 7.57222 | 97° | 18km/h | 30883m | 4.9m/s | -41.7°C | 0.3% | -1.0hPa | 2.7V | 00:00:00 | 00:00:00 | 00:00:00 | |
| HASLITAL | 2026-09-03 12:37:11 | 46.37647 | 7.57215 | 109° | 20km/h | 30877m | 6.7m/s | -41.8°C | 0.4% | 0hPa | 2.7V | 00:00:00 | 00:00:00 | 00:00:00 | |
| IW2NTF | 2026-09-03 12:37:09 | 46.37659 | 7.57190 | 121° | 24km/h | 30851m | 6.3m/s | -41.8°C | 2.2% | 0hPa | 2.7V | 08:30:00 | 02:04:13 | 00:00:00 | |
| DO3MHA-11 | 2026-09-03 12:37:04 | 46.37664 | 7.57162 | 89° | 15km/h | 30827m | 6.9m/s | -41.9°C | 2.2% | 0hPa | 2.6V | 00:00:00 | 02:04:09 | 00:00:00 | |
| IW2NTF | 2026-09-03 12:37:03 | 46.37660 | 7.57136 | 78° | 20km/h | 30789m | 5.5m/s | -42.2°C | 2.2% | 0hPa | 2.6V | 08:30:00 | 02:04:03 | 00:00:00 | |
| BIOWL1-15 | 2026-09-03 12:36:52 | 46.37675 | 7.57076 | 57° | 9km/h | 30728m | 7.2m/s | -42.3°C | 0% | 0hPa | 2.6V | 18:12:15 | 02:03:53 | 00:00:00 | |
| HASLITAL | 2026-09-03 12:36:51 | 46.37673 | 7.57097 | 127° | 20km/h | 30752m | 6.5m/s | 0°C | 0% | 0hPa | 2.6V | 00:00:00 | 00:00:00 | 00:00:00 | |
| IW2NTF | 2026-09-03 12:36:49 | 46.37675 | 7.57076 | 57° | 9km/h | 30728m | 7.2m/s | -42.3°C | 2.2% | 0hPa | 2.6V | 08:30:00 | 02:03:53 | 00:00:00 | |
| BIOWL1-15 | 2026-09-03 12:36:37 | 46.37677 | 7.57042 | 152° | 11km/h | 30654m | 6.3m/s | -42.7°C | 0% | 0hPa | 2.6V | 18:12:15 | 02:03:41 | 00:00:00 | |
| DB0UT-7 | 2026-09-03 12:36:34 | 46.37679 | 7.57037 | 71° | 15km/h | 30642m | 5.7m/s | -42.6°C | 2.3% | 0hPa | 2.7V | 00:00:00 | 02:03:39 | 00:00:00 | |
| DO3MHA-11 | 2026-09-03 12:36:32 | 46.37675 | 7.57032 | 20° | 11km/h | 30631m | 6.3m/s | -42.8°C | 2.3% | 0hPa | 2.7V | 00:00:00 | 02:03:37 | 00:00:00 | |
| HASLITAL | 2026-09-03 12:36:31 | 46.37675 | 7.57032 | 21° | 11km/h | 30631m | 6.3m/s | 0°C | 0% | 0hPa | 2.7V | 00:00:00 | 00:00:00 | 00:00:00 | |
| IW2NTF | 2026-09-03 12:36:29 | 46.37665 | 7.57037 | 333° | 9km/h | 30605m | 5.8m/s | -42.8°C | 2.3% | 0hPa | 2.7V | 08:30:00 | 02:03:33 | 00:00:00 | |
| BIOWL1-15 | 2026-09-03 12:36:25 | 46.37674 | 7.57024 | 155° | 24km/h | 30567m | 5.9m/s | -42.6°C | 0% | 0hPa | 2.7V | 18:12:15 | 02:03:27 | 00:00:00 | |
| DL2OL | 2026-09-03 12:36:23 | 46.37666 | 7.57030 | 144° | 16km/h | 30581m | 7.2m/s | -42.7°C | 0.4% | 0hPa | 2.7V | 00:00:00 | 00:00:00 | 00:00:00 | |
| BIOWL1-15 | 2026-09-03 12:36:12 | 46.37689 | 7.56954 | 107° | 24km/h | 30472m | 6.3m/s | -42.9°C | 0% | 0hPa | 2.7V | 18:12:15 | 02:03:11 | 00:00:00 | |
| DO3MHA-11 | 2026-09-03 12:36:12 | 46.37681 | 7.56992 | 175° | 18km/h | 30508m | 4.7m/s | -42.8°C | 2.3% | 0hPa | 2.6V | 00:00:00 | 02:03:17 | 00:00:00 | |
| DF7PN | 2026-09-03 12:36:11 | 46.37682 | 7.56990 | 136° | 9km/h | 30502m | 5.6m/s | -42.9°C | 0.4% | -1.0hPa | 2.6V | 00:00:00 | 00:00:00 | 00:00:00 | |
| HASLITAL | 2026-09-03 12:36:10 | 46.37682 | 7.56990 | 138° | 9km/h | 30503m | 5.6m/s | 0°C | 0% | 0hPa | 2.6V | 00:00:00 | 00:00:00 | 00:00:00 | |
| IW2NTF | 2026-09-03 12:36:09 | 46.37687 | 7.56972 | 99° | 26km/h | 30483m | 5.4m/s | -42.9°C | 2.3% | 0hPa | 2.6V | 08:30:00 | 02:03:13 | 00:00:00 | |
| DB0UT-7 | 2026-09-03 12:36:04 | 46.37694 | 7.56940 | 131° | 9km/h | 30459m | 6.2m/s | -42.8°C | 2.3% | 0hPa | 2.6V | 00:00:00 | 00:00:00 | 00:00:00 | |
| IW2NTF | 2026-09-03 12:36:03 | 46.37701 | 7.56914 | 97° | 16km/h | 30423m | 5.1m/s | -42.8°C | 2.3% | 0hPa | 2.6V | 08:30:00 | 02:03:03 | 00:00:00 | |
| BIOWL1-15 | 2026-09-03 12:36:02 | 46.37699 | 7.56933 | 130° | 11km/h | 30447m | 6.1m/s | -42.8°C | 0% | 0hPa | 2.7V | 18:12:15 | 02:03:07 | 00:00:00 | |
| DO3MHA-11 | 2026-09-03 12:36:02 | 46.37699 | 7.56933 | 130° | 15km/h | 30447m | 6.0m/s | -42.8°C | 2.3% | 0hPa | 2.6V | 00:00:00 | 02:03:07 | 00:00:00 | |
| DL6DJ-15 | 2026-09-03 12:35:58 | 46.37702 | 7.56909 | 107° | 15km/h | 30417m | 6.7m/s | -42.8°C | 0.3% | -1.0hPa | 2.6V | 00:00:00 | 00:00:00 | 00:00:00 | |
| DO3MHA-11 | 2026-09-03 12:35:52 | 46.37711 | 7.56883 | 92° | 9km/h | 30386m | 7.0m/s | -42.9°C | 2.3% | 0hPa | 2.6V | 00:00:00 | 02:02:57 | 00:00:00 | |
| BIOWL1-15 | 2026-09-03 12:35:52 | 46.37709 | 7.56872 | 61° | 15km/h | 30373m | 5.1m/s | -43°C | 0% | 0hPa | 2.7V | 18:12:15 | 02:02:55 | 00:00:00 | |
| IW2NTF | 2026-09-03 12:35:51 | 46.37706 | 7.56866 | 39° | 5km/h | 30361m | 7.6m/s | -43.1°C | 2.3% | 0hPa | 2.6V | 08:30:00 | 02:02:53 | 00:00:00 | |
| BIOWL1-15 | 2026-09-03 12:35:42 | 46.37707 | 7.56852 | 82° | 2km/h | 30306m | 6.5m/s | -43.5°C | 0% | 0hPa | 2.7V | 18:12:15 | 02:02:44 | 00:00:00 | |
| DO3MHA-11 | 2026-09-03 12:35:42 | 46.37708 | 7.56859 | 89° | 5km/h | 30325m | 4.9m/s | -43.2°C | 2.3% | 0hPa | 2.7V | 00:00:00 | 02:02:47 | 00:00:00 | |
| DF7PN | 2026-09-03 12:35:40 | 46.37708 | 7.56853 | 82° | 5km/h | 30313m | 6.5m/s | -43.5°C | 0.4% | -1.0hPa | 2.7V | 00:00:00 | 00:00:00 | 00:00:00 | |
| IW2NTF | 2026-09-03 12:35:39 | 46.37708 | 7.56851 | 245° | 0km/h | 30300m | 6.5m/s | -43.5°C | 2.3% | 0hPa | 2.7V | 08:30:00 | 02:02:43 | 00:00:00 | |
| DL2OL | 2026-09-03 12:35:38 | 46.37708 | 7.56852 | 83° | 2km/h | 30307m | 6.5m/s | -43.5°C | 0.4% | 0hPa | 2.7V | 00:00:00 | 00:00:00 | 00:00:00 | |
| DB0UT-7 | 2026-09-03 12:35:34 | 46.37706 | 7.56847 | 83° | 13km/h | 30274m | 5.8m/s | -43.8°C | 2.4% | 0hPa | 2.7V | 00:00:00 | 02:02:39 | 08:30:00 | |
| IW2NTF | 2026-09-03 12:35:33 | 46.37718 | 7.56843 | 217° | 11km/h | 30238m | 5.3m/s | -43.8°C | 2.4% | 0hPa | 2.7V | 08:30:00 | 02:02:33 | 00:00:00 | |
| BIOWL1-15 | 2026-09-03 12:35:31 | 46.37709 | 7.56838 | 165° | 9km/h | 30257m | 7.5m/s | -44°C | 0% | 0hPa | 2.6V | 18:12:15 | 02:02:36 | 00:00:00 | |
| BIOWL1-15 | 2026-09-03 12:35:21 | 46.37720 | 7.56845 | 192° | 7km/h | 30195m | 6m/s | -43.8°C | 0% | 0hPa | 2.6V | 18:12:15 | 02:02:26 | 00:00:00 | |
| IW2NTF | 2026-09-03 12:35:19 | 46.37727 | 7.56844 | 157° | 11km/h | 30178m | 6.8m/s | -44.1°C | 2.4% | 0hPa | 2.7V | 08:30:00 | 02:02:23 | 00:00:00 | |
| BIOWL1-15 | 2026-09-03 12:35:12 | 46.37748 | 7.56823 | 111° | 18km/h | 30128m | 7.2m/s | -44.5°C | 0% | 0hPa | 2.6V | 18:12:15 | 02:02:15 | 00:00:00 | |
| BIOWL9-15 | 2026-09-03 12:35:11 | 46.37748 | 7.56823 | 110° | 18km/h | 30128m | 7.2m/s | -44.5°C | 0.4% | -1.0hPa | 2.7V | 00:00:00 | 00:00:00 | 00:00:00 | |
| IW2NTF | 2026-09-03 12:35:09 | 46.37751 | 7.56808 | 110° | 24km/h | 30116m | 5.4m/s | -44.4°C | 2.5% | 0hPa | 2.7V | 08:30:00 | 02:02:13 | 00:00:00 | |
| BIOWL1-15 | 2026-09-03 12:35:00 | 46.37791 | 7.56755 | 126° | 13km/h | 30051m | 7m/s | -44.7°C | 0% | 0hPa | 2.6V | 18:12:15 | 02:02:03 | 00:00:00 | |
| IW2NTF | 2026-09-03 12:34:59 | 46.37791 | 7.56755 | 126° | 13km/h | 30051m | 7m/s | -44.7°C | 2.5% | 0hPa | 2.6V | 08:30:00 | 02:02:03 | 00:00:00 | |
| DL6DJ-15 | 2026-09-03 12:34:56 | 46.37790 | 7.56728 | 100° | 13km/h | 30015m | 5.5m/s | -44.8°C | 0.4% | -1.0hPa | 2.6V | 00:00:00 | 00:00:00 | 00:00:00 | |
| OE5DXL-15 | 2026-09-03 12:34:54 | 46.37790 | 7.56733 | 79° | 18km/h | 30020m | 5.0m/s | 0°C | 0% | 0hPa | 2.6V | 00:00:00 | 00:00:00 | 00:00:00 | |
| IW2NTF | 2026-09-03 12:34:53 | 46.37805 | 7.56714 | 163° | 24km/h | 29988m | 5.6m/s | -44.7°C | 2.6% | 0hPa | 2.6V | 08:30:00 | 02:01:53 | 00:00:00 | |
| DM0DOS-11 | 2026-09-03 12:34:53 | 46.37799 | 7.56717 | 162° | 24km/h | 29994m | 5.9m/s | -44.6°C | 2.6% | 0hPa | 2.7V | 08:30:00 | 02:01:54 | 00:00:00 | |
| DK5PH-5 | 2026-09-03 12:34:48 | 46.37805 | 7.56714 | 164° | 18km/h | 29988m | 5.6m/s | -44.6°C | 2.6% | 0hPa | 2.6V | 00:00:00 | 02:01:53 | 00:00:00 | |
| DO3MHA-11 | 2026-09-03 12:34:47 | 46.37810 | 7.56712 | 159° | 13km/h | 29982m | 6.8m/s | -44.7°C | 2.6% | 0hPa | 2.6V | 00:00:00 | 02:01:52 | 00:00:00 | |
| IW2NTF | 2026-09-03 12:34:39 | 46.37827 | 7.56681 | 117° | 16km/h | 29924m | 4.8m/s | -44.6°C | 2.6% | 0hPa | 2.6V | 08:30:00 | 02:01:43 | 00:00:00 | |
| DF7PN | 2026-09-03 12:34:38 | 46.37827 | 7.56681 | 117° | 16km/h | 29924m | 4.8m/s | -44.6°C | 0.4% | -1.0hPa | 2.6V | 00:00:00 | 00:00:00 | 00:00:00 | |
| DM0DOS-11 | 2026-09-03 12:34:37 | 46.37854 | 7.56664 | 181° | 31km/h | 29894m | 4.9m/s | -44.6°C | 2.6% | 0hPa | 2.6V | 08:30:00 | 02:01:38 | 00:00:00 | |
| DO3MHA-11 | 2026-09-03 12:34:37 | 46.37829 | 7.56675 | 134° | 22km/h | 29920m | 4.4m/s | -44.6°C | 2.6% | 0hPa | 2.7V | 00:00:00 | 02:01:42 | 00:00:00 | |
| DB0UT-7 | 2026-09-03 12:34:34 | 46.37847 | 7.56664 | 174° | 18km/h | 29900m | 6.9m/s | -44.6°C | 2.6% | 0hPa | 2.7V | 00:00:00 | 02:01:39 | 00:00:00 | |
| IW2NTF | 2026-09-03 12:34:33 | 46.37871 | 7.56655 | 81° | 20km/h | 29865m | 6.1m/s | -44.7°C | 2.6% | 0hPa | 2.7V | 08:30:00 | 02:01:33 | 00:00:00 | |
| DO3MHA-11 | 2026-09-03 12:34:27 | 46.37870 | 7.56647 | 85° | 20km/h | 29859m | 5.3m/s | -44.5°C | 2.5% | 0hPa | 2.6V | 00:00:00 | 02:01:32 | 00:00:00 | |
| DL6DJ-15 | 2026-09-03 12:34:25 | 46.37877 | 7.56621 | 155° | 16km/h | 29836m | 6.1m/s | -44.7°C | 0.4% | -1.0hPa | 2.6V | 00:00:00 | 00:00:00 | 00:00:00 | |
| IW2NTF | 2026-09-03 12:34:19 | 46.37902 | 7.56612 | 150° | 27km/h | 29806m | 6.7m/s | -44.8°C | 2.6% | 0hPa | 2.6V | 08:30:00 | 02:01:23 | 00:00:00 | |
| BIOWL1-15 | 2026-09-03 12:34:18 | 46.37902 | 7.56612 | 150° | 27km/h | 29806m | 6.7m/s | -44.8°C | 0% | 0hPa | 2.6V | 18:12:15 | 02:01:23 | 00:00:00 | |
| DK5PH-5 | 2026-09-03 12:34:18 | 46.37902 | 7.56612 | 151° | 16km/h | 29806m | 6.6m/s | -44.7°C | 2.6% | 0hPa | 2.6V | 00:00:00 | 02:01:23 | 00:00:00 | |
| DO3MHA-11 | 2026-09-03 12:34:17 | 46.37908 | 7.56606 | 142° | 18km/h | 29800m | 6.4m/s | -44.7°C | 2.6% | 0hPa | 2.6V | 00:00:00 | 02:01:22 | 00:00:00 | |
| DL2OL | 2026-09-03 12:34:13 | 46.37921 | 7.56584 | 123° | 20km/h | 29782m | 7.4m/s | -44.8°C | 0.5% | 0hPa | 2.7V | 00:00:00 | 00:00:00 | 00:00:00 | |
| IW2NTF | 2026-09-03 12:34:11 | 46.37928 | 7.56559 | 128° | 11km/h | 29744m | 5.5m/s | -45°C | 2.5% | 0hPa | 2.7V | 08:30:00 | 02:01:13 | 00:00:00 | |
| BIOWL1-15 | 2026-09-03 12:34:06 | 46.37932 | 7.56553 | 137° | 9km/h | 29730m | 7.1m/s | -45.2°C | 0% | 0hPa | 2.6V | 18:12:15 | 02:01:11 | 00:00:00 | |
| DB0UT-7 | 2026-09-03 12:34:04 | 46.37935 | 7.56546 | 120° | 13km/h | 29719m | 5.7m/s | -45.2°C | 2.5% | 0hPa | 2.6V | 00:00:00 | 00:00:00 | 00:00:00 | |
| IW2NTF | 2026-09-03 12:33:59 | 46.37941 | 7.56489 | 71° | 20km/h | 29683m | 6.9m/s | -45.6°C | 2.7% | 0hPa | 2.7V | 08:30:00 | 02:01:03 | 00:00:00 | |
| DL6DJ-15 | 2026-09-03 12:33:53 | 46.37946 | 7.56478 | 147° | 18km/h | 29646m | 5.6m/s | -45.7°C | 0.5% | -1.0hPa | 2.7V | 00:00:00 | 00:00:00 | 00:00:00 | |
| IW2NTF | 2026-09-03 12:33:51 | 46.37955 | 7.56460 | 88° | 11km/h | 29623m | 6.6m/s | -45.6°C | 2.6% | 0hPa | 2.7V | 08:30:00 | 02:00:53 | 00:00:00 | |
| DK5PH-5 | 2026-09-03 12:33:48 | 46.37955 | 7.56460 | 89° | 7km/h | 29624m | 6.5m/s | -45.5°C | 2.6% | 0hPa | 2.7V | 00:00:00 | 02:00:53 | 00:00:00 | |
| DO3MHA-11 | 2026-09-03 12:33:47 | 46.37955 | 7.56457 | 58° | 7km/h | 29617m | 5.8m/s | -45.5°C | 2.6% | 0hPa | 2.7V | 00:00:00 | 02:00:52 | 08:30:00 | |
| DM0DOS-11 | 2026-09-03 12:33:41 | 46.37951 | 7.56438 | 17° | 9km/h | 29556m | 5.5m/s | -45.7°C | 2.6% | 0hPa | 2.7V | 08:30:00 | 02:00:42 | 00:00:00 | |
| IW2NTF | 2026-09-03 12:33:39 | 46.37954 | 7.56439 | 23° | 11km/h | 29562m | 6.3m/s | -45.6°C | 2.6% | 0hPa | 2.7V | 08:30:00 | 02:00:43 | 00:00:00 | |
| BIOWL1-15 | 2026-09-03 12:33:33 | 46.37949 | 7.56436 | 205° | 5km/h | 29532m | 5.1m/s | -45.5°C | 0% | 0hPa | 2.7V | 18:12:15 | 02:00:38 | 00:00:00 | |
| IW2NTF | 2026-09-03 12:33:33 | 46.37949 | 7.56445 | 292° | 2km/h | 29502m | 5.4m/s | -45.5°C | 2.5% | 0hPa | 2.6V | 08:30:00 | 02:00:33 | 00:00:00 | |
| DM0DOS-11 | 2026-09-03 12:33:31 | 46.37951 | 7.56444 | 123° | 7km/h | 29490m | 6m/s | -45.6°C | 2.6% | 0hPa | 2.7V | 08:30:00 | 02:00:31 | 00:00:00 | |
| DO3MHA-11 | 2026-09-03 12:33:27 | 46.37949 | 7.56445 | 139° | 13km/h | 29496m | 6.9m/s | -45.5°C | 2.5% | 0hPa | 2.6V | 00:00:00 | 02:00:32 | 00:00:00 | |
| IW2NTF | 2026-09-03 12:33:23 | 46.37944 | 7.56409 | 115° | 11km/h | 29443m | 7m/s | -45.4°C | 2.6% | 0hPa | 2.6V | 08:30:00 | 02:00:23 | 00:00:00 | |
| DL6DJ-15 | 2026-09-03 12:33:22 | 46.37949 | 7.56427 | 56° | 16km/h | 29466m | 6.4m/s | -45.7°C | 0.4% | -1.0hPa | 2.6V | 00:00:00 | 00:00:00 | 00:00:00 | |
| DK5PH-5 | 2026-09-03 12:33:18 | 46.37944 | 7.56409 | 116° | 11km/h | 29444m | 6.9m/s | -45.4°C | 2.6% | 0hPa | 2.6V | 00:00:00 | 02:00:23 | 00:00:00 | |
| IW2NTF | 2026-09-03 12:33:13 | 46.37948 | 7.56410 | 65° | 11km/h | 29384m | 5.4m/s | -45.2°C | 2.6% | 0hPa | 2.6V | 08:30:00 | 02:00:13 | 00:00:00 | |
| DM0DOS-11 | 2026-09-03 12:33:11 | 46.37947 | 7.56405 | 70° | 15km/h | 29379m | 5.8m/s | -45.2°C | 2.6% | 0hPa | 2.6V | 08:30:00 | 02:00:12 | 00:00:00 | |
| BIOWL1-15 | 2026-09-03 12:33:07 | 46.37944 | 7.56389 | 90° | 15km/h | 29360m | 5.5m/s | -45.2°C | 0% | 0hPa | 2.7V | 18:12:15 | 02:00:09 | 00:00:00 | |
| BIOWL9-15 | 2026-09-03 12:33:06 | 46.37945 | 7.56400 | 70° | 15km/h | 29372m | 7.2m/s | -45.2°C | 0.5% | -1.0hPa | 2.6V | 00:00:00 | 00:00:00 | 00:00:00 | |
| DO3MHA-11 | 2026-09-03 12:33:05 | 46.37944 | 7.56395 | 75° | 11km/h | 29366m | 6.1m/s | -45.2°C | 2.5% | 0hPa | 2.6V | 00:00:00 | 02:00:10 | 00:00:00 | |
| DB0UT-7 | 2026-09-03 12:33:04 | 46.37943 | 7.56389 | 91° | 11km/h | 29360m | 5.4m/s | -45.2°C | 2.6% | 0hPa | 2.6V | 00:00:00 | 00:00:00 | 00:00:00 | |
| IW2NTF | 2026-09-03 12:33:03 | 46.37953 | 7.56372 | 34° | 4km/h | 29324m | 6.9m/s | -45.4°C | 2.5% | 0hPa | 2.6V | 08:30:00 | 02:00:03 | 00:00:00 | |
| DM0DOS-11 | 2026-09-03 12:32:56 | 46.37946 | 7.56352 | 127° | 15km/h | 29285m | 4.7m/s | -45.3°C | 2.6% | 0hPa | 2.7V | 08:30:00 | 01:59:56 | 00:00:00 | |
| DO3MHA-11 | 2026-09-03 12:32:55 | 46.37946 | 7.56367 | 35° | 9km/h | 29309m | 5.6m/s | -45.3°C | 2.6% | 0hPa | 2.6V | 00:00:00 | 02:00:00 | 00:00:00 | |
| IW2NTF | 2026-09-03 12:32:53 | 46.37951 | 7.56342 | 122° | 5km/h | 29268m | 6.3m/s | -45.4°C | 2.6% | 0hPa | 2.6V | 08:30:00 | 01:59:53 | 00:00:00 | |
| BIOWL1-15 | 2026-09-03 12:32:47 | 46.37952 | 7.56341 | 204° | 2km/h | 29262m | 5.5m/s | -45.5°C | 0% | 0hPa | 2.6V | 18:12:15 | 01:59:52 | 00:00:00 | |
| DO3MHA-11 | 2026-09-03 12:32:45 | 46.37954 | 7.56344 | 230° | 9km/h | 29251m | 6.6m/s | -45.5°C | 2.7% | 0hPa | 2.7V | 00:00:00 | 01:59:50 | 00:00:00 | |
| IW2NTF | 2026-09-03 12:32:41 | 46.37963 | 7.56359 | 69° | 4km/h | 29210m | 5m/s | -45.5°C | 2.6% | 0hPa | 2.7V | 08:30:00 | 01:59:43 | 00:00:00 | |
| BIOWL1-15 | 2026-09-03 12:32:38 | 46.37964 | 7.56355 | 151° | 11km/h | 29199m | 6.6m/s | -45.6°C | 0% | 0hPa | 2.6V | 18:12:15 | 01:59:41 | 00:00:00 | |
| DO3MHA-11 | 2026-09-03 12:32:35 | 46.37968 | 7.56354 | 171° | 16km/h | 29193m | 5.6m/s | -45.6°C | 2.7% | 0hPa | 2.7V | 00:00:00 | 01:59:40 | 00:00:00 | |
| DF7PN | 2026-09-03 12:32:34 | 46.37976 | 7.56355 | 198° | 16km/h | 29182m | 6.0m/s | -45.5°C | 0.5% | -1.0hPa | 2.7V | 00:00:00 | 00:00:00 | 00:00:00 | |
| IW2NTF | 2026-09-03 12:32:33 | 46.37990 | 7.56374 | 213° | 13km/h | 29152m | 6.6m/s | -45.3°C | 2.7% | 0hPa | 2.7V | 08:30:00 | 01:59:33 | 00:00:00 | |
| BIOWL1-15 | 2026-09-03 12:32:23 | 46.38031 | 7.56378 | 200° | 24km/h | 29089m | 5.9m/s | -45.5°C | 0% | 0hPa | 2.7V | 18:12:15 | 01:59:22 | 00:00:00 | |
| IW2NTF | 2026-09-03 12:32:21 | 46.38025 | 7.56376 | 195° | 27km/h | 29094m | 4.9m/s | -45.4°C | 2.6% | 0hPa | 2.7V | 08:30:00 | 01:59:23 | 00:00:00 | |
| DL6DJ-15 | 2026-09-03 12:32:20 | 46.38012 | 7.56372 | 187° | 20km/h | 29106m | 7.0m/s | -45.4°C | 0.4% | -1.0hPa | 2.6V | 00:00:00 | 00:00:00 | 00:00:00 | |
| DK5PH-5 | 2026-09-03 12:32:18 | 46.38025 | 7.56376 | 196° | 16km/h | 29094m | 4.9m/s | -45.4°C | 2.6% | 0hPa | 2.6V | 00:00:00 | 01:59:23 | 00:00:00 | |
| DO3MHA-11 | 2026-09-03 12:32:15 | 46.38039 | 7.56383 | 203° | 13km/h | 29077m | 5.2m/s | -45.5°C | 2.6% | 0hPa | 2.6V | 00:00:00 | 01:59:20 | 08:30:00 | |
| IW2NTF | 2026-09-03 12:32:13 | 46.38056 | 7.56366 | 140° | 11km/h | 29037m | 6.3m/s | -45.6°C | 2.6% | 0hPa | 2.6V | 08:30:00 | 01:59:13 | 00:00:00 | |
| BIOWL1-15 | 2026-09-03 12:32:06 | 46.38061 | 7.56364 | 177° | 13km/h | 29026m | 5.6m/s | -45.7°C | 0% | 0hPa | 2.7V | 18:12:15 | 01:59:11 | 00:00:00 | |
| BIOWL9-15 | 2026-09-03 12:32:05 | 46.38069 | 7.56363 | 174° | 18km/h | 29014m | 4.8m/s | -45.5°C | 0.5% | -1.0hPa | 2.7V | 00:00:00 | 00:00:00 | 00:00:00 | |
| DB0UT-7 | 2026-09-03 12:32:04 | 46.38069 | 7.56363 | 175° | 18km/h | 29014m | 4.8m/s | -45.4°C | 2.6% | 0hPa | 2.7V | 00:00:00 | 00:00:00 | 00:00:00 | |
| DF7PN | 2026-09-03 12:32:03 | 46.38078 | 7.56361 | 157° | 13km/h | 29005m | 5.3m/s | -45.5°C | 0.5% | -1.0hPa | 2.7V | 00:00:00 | 00:00:00 | 00:00:00 | |
| IW2NTF | 2026-09-03 12:32:01 | 46.38080 | 7.56345 | 82° | 16km/h | 28981m | 5.2m/s | -45.5°C | 2.6% | 0hPa | 2.7V | 08:30:00 | 01:59:03 | 00:00:00 | |
| IW2NTF | 2026-09-03 12:31:53 | 46.38097 | 7.56288 | 110° | 18km/h | 28922m | 5.3m/s | -45.8°C | 2.6% | 0hPa | 2.7V | 08:30:00 | 01:58:53 | 00:00:00 | |
| BIOWL1-15 | 2026-09-03 12:31:50 | 46.38099 | 7.56273 | 92° | 24km/h | 28912m | 5.3m/s | -45.9°C | 0% | 0hPa | 2.6V | 18:12:15 | 01:58:51 | 00:00:00 | |
| DL6DJ-15 | 2026-09-03 12:31:49 | 46.38095 | 7.56293 | 113° | 15km/h | 28928m | 6.7m/s | -45.8°C | 0.5% | -1.0hPa | 2.7V | 00:00:00 | 00:00:00 | 00:00:00 | |
| DK5PH-5 | 2026-09-03 12:31:48 | 46.38097 | 7.56288 | 111° | 18km/h | 28922m | 5.3m/s | -45.7°C | 2.6% | 0hPa | 2.7V | 00:00:00 | 01:58:53 | 00:00:00 | |
| DO3MHA-11 | 2026-09-03 12:31:43 | 46.38095 | 7.56245 | 73° | 18km/h | 28894m | 4.9m/s | -45.8°C | 2.6% | 0hPa | 2.7V | 00:00:00 | 01:58:48 | 00:00:00 | |
| IW2NTF | 2026-09-03 12:31:42 | 46.38099 | 7.56206 | 132° | 16km/h | 28866m | 5.7m/s | -46.1°C | 2.7% | 0hPa | 2.7V | 08:30:00 | 01:58:43 | 00:00:00 | |
| BIOWL1-15 | 2026-09-03 12:31:41 | 46.38099 | 7.56206 | 132° | 16km/h | 28866m | 5.7m/s | -46.1°C | 0% | 0hPa | 2.7V | 18:12:15 | 01:58:43 | 00:00:00 | |
| DB0UT-7 | 2026-09-03 12:31:34 | 46.38103 | 7.56193 | 85° | 18km/h | 28845m | 5.7m/s | -46.2°C | 2.7% | 0hPa | 2.6V | 00:00:00 | 01:58:39 | 00:00:00 | |
| DO3MHA-11 | 2026-09-03 12:31:33 | 46.38103 | 7.56187 | 89° | 16km/h | 28839m | 6.2m/s | -46.2°C | 2.7% | 0hPa | 2.6V | 00:00:00 | 01:58:38 | 00:00:00 | |
| DF7PN | 2026-09-03 12:31:32 | 46.38103 | 7.56173 | 95° | 20km/h | 28828m | 4.5m/s | -46.4°C | 0.5% | -1.0hPa | 2.6V | 00:00:00 | 00:00:00 | 00:00:00 | |
| IW2NTF | 2026-09-03 12:31:31 | 46.38103 | 7.56156 | 68° | 11km/h | 28811m | 5.8m/s | -46.4°C | 2.7% | 0hPa | 2.6V | 08:30:00 | 01:58:33 | 00:00:00 | |
| BIOWL1-15 | 2026-09-03 12:31:27 | 46.38100 | 7.56100 | 51° | 16km/h | 28758m | 5.3m/s | -46.6°C | 0% | 0hPa | 2.7V | 18:12:15 | 01:58:23 | 00:00:00 | |
| DL2OL | 2026-09-03 12:31:23 | 46.38098 | 7.56128 | 99° | 22km/h | 28784m | 5.4m/s | -46.5°C | 0.6% | 0hPa | 2.7V | 00:00:00 | 00:00:00 | 00:00:00 | |
| IW2NTF | 2026-09-03 12:31:21 | 46.38100 | 7.56100 | 51° | 16km/h | 28758m | 5.3m/s | -46.6°C | 2.8% | 0hPa | 2.7V | 08:30:00 | 01:58:23 | 00:00:00 | |
| BIOWL1-15 | 2026-09-03 12:31:17 | 46.38097 | 7.56095 | 45° | 22km/h | 28752m | 6.4m/s | -46.5°C | 0% | 0hPa | 2.6V | 18:12:15 | 01:58:22 | 00:00:00 | |
| DO3MHA-11 | 2026-09-03 12:31:13 | 46.38080 | 7.56060 | 71° | 20km/h | 28731m | 5.5m/s | -46.5°C | 2.8% | 0hPa | 2.7V | 00:00:00 | 01:58:18 | 00:00:00 | |
| IW2NTF | 2026-09-03 12:31:11 | 46.38081 | 7.56034 | 76° | 11km/h | 28703m | 5.5m/s | -46.5°C | 2.8% | 0hPa | 2.6V | 08:30:00 | 01:58:13 | 00:00:00 | |
| BIOWL1-15 | 2026-09-03 12:31:07 | 46.38077 | 7.56022 | 63° | 26km/h | 28692m | 5.2m/s | -46.6°C | 0% | 0hPa | 2.6V | 18:12:15 | 01:58:11 | 00:00:00 | |
| DB0UT-7 | 2026-09-03 12:31:04 | 46.38071 | 7.56001 | 73° | 20km/h | 28681m | 6.0m/s | -46.5°C | 2.7% | 0hPa | 2.7V | 00:00:00 | 00:00:00 | 08:30:00 | |
| DO3MHA-11 | 2026-09-03 12:31:03 | 46.38069 | 7.55990 | 79° | 22km/h | 28676m | 5.7m/s | -46.6°C | 2.8% | 0hPa | 2.7V | 00:00:00 | 01:58:08 | 00:00:00 | |
| BIOWL9-15 | 2026-09-03 12:31:02 | 46.38068 | 7.55978 | 83° | 29km/h | 28670m | 4.8m/s | -46.5°C | 0.5% | -1.0hPa | 2.7V | 00:00:00 | 00:00:00 | 00:00:00 | |
| IW2NTF | 2026-09-03 12:31:01 | 46.38060 | 7.55950 | 40° | 16km/h | 28647m | 5.6m/s | -46.5°C | 2.8% | 0hPa | 2.7V | 08:30:00 | 01:58:03 | 00:00:00 | |
| BIOWL1-15 | 2026-09-03 12:30:55 | 46.38051 | 7.55934 | 67° | 22km/h | 28632m | 6.2m/s | -46.5°C | 0% | 0hPa | 2.6V | 18:12:15 | 01:58:00 | 00:00:00 | |
| DO3MHA-11 | 2026-09-03 12:30:53 | 46.38049 | 7.55917 | 91° | 24km/h | 28621m | 5.4m/s | -46.4°C | 2.7% | 0hPa | 2.6V | 00:00:00 | 01:57:58 | 00:00:00 | |
| IW2NTF | 2026-09-03 12:30:51 | 46.38046 | 7.55878 | 62° | 22km/h | 28591m | 6.2m/s | -46.3°C | 2.7% | 0hPa | 2.6V | 08:30:00 | 01:57:53 | 00:00:00 | |
| BIOWL1-15 | 2026-09-03 12:30:44 | 46.38033 | 7.55847 | 53° | 20km/h | 28569m | 5.2m/s | -46.3°C | 0% | 0hPa | 2.7V | 18:12:15 | 01:57:49 | 00:00:00 | |
| DO3MHA-11 | 2026-09-03 12:30:43 | 46.38030 | 7.55842 | 47° | 13km/h | 28563m | 7.0m/s | -46.2°C | 2.7% | 0hPa | 2.6V | 00:00:00 | 01:57:48 | 08:30:00 | |
| IW2NTF | 2026-09-03 12:30:41 | 46.38024 | 7.55819 | 86° | 20km/h | 28527m | 4m/s | -46.4°C | 2.7% | 0hPa | 2.6V | 08:30:00 | 01:57:42 | 00:00:00 | |
| BIOWL1-15 | 2026-09-03 12:30:33 | 46.38026 | 7.55778 | 82° | 13km/h | 28482m | 4.7m/s | -46.6°C | 0% | 0hPa | 2.7V | 18:12:15 | 01:57:34 | 00:00:00 | |
| DO3MHA-11 | 2026-09-03 12:30:33 | 46.38024 | 7.55795 | 101° | 11km/h | 28506m | 5.8m/s | -46.4°C | 2.7% | 0hPa | 2.7V | 00:00:00 | 01:57:38 | 00:00:00 | |
| IW2NTF | 2026-09-03 12:30:32 | 46.38023 | 7.55771 | 31° | 11km/h | 28470m | 7.4m/s | -46.6°C | 2.7% | 0hPa | 2.7V | 08:30:00 | 01:57:32 | 00:00:00 | |
| DF7PN | 2026-09-03 12:30:29 | 46.38026 | 7.55778 | 82° | 13km/h | 28482m | 4.7m/s | -46.6°C | 0.5% | -1.0hPa | 2.6V | 00:00:00 | 00:00:00 | 00:00:00 | |
| BIOWL1-15 | 2026-09-03 12:30:22 | 46.38008 | 7.55688 | 79° | 15km/h | 28352m | 6.8m/s | -46.8°C | 0% | 0hPa | 2.6V | 18:12:15 | 01:57:12 | 00:00:00 | |
| IW2NTF | 2026-09-03 12:30:21 | 46.38015 | 7.55729 | 96° | 13km/h | 28411m | 5.2m/s | -46.8°C | 2.8% | 0hPa | 2.7V | 08:30:00 | 01:57:22 | 00:00:00 | |
| BIOWL1-15 | 2026-09-03 12:30:12 | 46.38008 | 7.55681 | 85° | 22km/h | 28346m | 6.2m/s | -46.8°C | 0% | 0hPa | 2.6V | 18:12:15 | 01:57:11 | 00:00:00 | |
| IW2NTF | 2026-09-03 12:30:12 | 46.38008 | 7.55688 | 78° | 15km/h | 28352m | 6.8m/s | -46.8°C | 2.7% | 0hPa | 2.6V | 08:30:00 | 01:57:12 | 00:00:00 | |
| DB0UT-7 | 2026-09-03 12:30:04 | 46.38006 | 7.55664 | 83° | 24km/h | 28335m | 6.4m/s | -46.8°C | 2.7% | 0hPa | 2.7V | 00:00:00 | 00:00:00 | 00:00:00 | |
| IW2NTF | 2026-09-03 12:30:01 | 46.37996 | 7.55613 | 71° | 16km/h | 28292m | 5.2m/s | -47°C | 2.8% | 0hPa | 2.7V | 08:30:00 | 01:57:02 | 00:00:00 | |
| BIOWL9-15 | 2026-09-03 12:30:00 | 46.37996 | 7.55613 | 71° | 15km/h | 28292m | 5.2m/s | -47.0°C | 0.5% | -1.0hPa | 2.6V | 00:00:00 | 00:00:00 | 00:00:00 | |
| DM0DOS-11 | 2026-09-03 12:29:58 | 46.37994 | 7.55608 | 62° | 13km/h | 28285m | 7.3m/s | -47°C | 2.8% | 0hPa | 2.6V | 08:30:00 | 01:57:01 | 00:00:00 | |
| BIOWL1-15 | 2026-09-03 12:29:57 | 46.37996 | 7.55613 | 72° | 16km/h | 28292m | 5.2m/s | -47°C | 0% | 0hPa | 2.7V | 18:12:15 | 01:57:02 | 00:00:00 | |
| DO3MHA-11 | 2026-09-03 12:29:53 | 46.37987 | 7.55597 | 56° | 22km/h | 28268m | 5.1m/s | -47.0°C | 2.8% | 0hPa | 2.7V | 00:00:00 | 01:56:58 | 00:00:00 | |
| IW2NTF | 2026-09-03 12:29:51 | 46.37975 | 7.55545 | 57° | 24km/h | 28232m | 6.2m/s | -47°C | 2.8% | 0hPa | 2.7V | 08:30:00 | 01:56:52 | 00:00:00 | |
| DM0DOS-11 | 2026-09-03 12:29:47 | 46.37971 | 7.55539 | 43° | 20km/h | 28226m | 6.4m/s | -46.9°C | 2.8% | 0hPa | 2.7V | 08:30:00 | 01:56:51 | 00:00:00 | |
| BIOWL1-15 | 2026-09-03 12:29:46 | 46.37971 | 7.55539 | 44° | 20km/h | 28226m | 6.4m/s | -46.9°C | 0% | 0hPa | 2.7V | 18:12:15 | 01:56:51 | 00:00:00 | |
| DL6DJ-15 | 2026-09-03 12:29:45 | 46.37968 | 7.55535 | 33° | 16km/h | 28220m | 6.1m/s | -46.8°C | 0.5% | -1.0hPa | 2.6V | 00:00:00 | 00:00:00 | 00:00:00 | |
| DO3MHA-11 | 2026-09-03 12:29:43 | 46.37960 | 7.55527 | 40° | 27km/h | 28208m | 5.7m/s | -46.8°C | 2.7% | 0hPa | 2.6V | 00:00:00 | 01:56:48 | 00:00:00 | |
| IW2NTF | 2026-09-03 12:29:42 | 46.37924 | 7.55490 | 40° | 31km/h | 28173m | 5.6m/s | -47°C | 2.7% | 0hPa | 2.6V | 08:30:00 | 01:56:42 | 00:00:00 | |
| DM0DOS-11 | 2026-09-03 12:29:37 | 46.37919 | 7.55483 | 52° | 27km/h | 28167m | 6.8m/s | -46.9°C | 2.7% | 0hPa | 2.6V | 08:30:00 | 01:56:41 | 00:00:00 | |
| BIOWL1-15 | 2026-09-03 12:29:35 | 46.37916 | 7.55475 | 67° | 24km/h | 28160m | 6.4m/s | -47°C | 0% | 0hPa | 2.7V | 18:12:15 | 01:56:40 | 00:00:00 | |
| DB0UT-7 | 2026-09-03 12:29:34 | 46.37914 | 7.55467 | 78° | 22km/h | 28155m | 5.6m/s | -46.9°C | 2.8% | 0hPa | 2.7V | 00:00:00 | 01:56:39 | 00:00:00 | |
| DO3MHA-11 | 2026-09-03 12:29:33 | 46.37913 | 7.55460 | 78° | 18km/h | 28149m | 6.4m/s | -46.9°C | 2.8% | 0hPa | 2.6V | 00:00:00 | 01:56:38 | 00:00:00 | |
| DM0DOS-11 | 2026-09-03 12:29:32 | 46.37895 | 7.55427 | 46° | 24km/h | 28105m | 5.8m/s | -47°C | 2.8% | 0hPa | 2.6V | 08:30:00 | 01:56:31 | 00:00:00 | |
| IW2NTF | 2026-09-03 12:29:31 | 46.37899 | 7.55433 | 51° | 22km/h | 28111m | 5.5m/s | -47°C | 2.8% | 0hPa | 2.7V | 08:30:00 | 01:56:32 | 00:00:00 | |
| BIOWL9-15 | 2026-09-03 12:29:29 | 46.37902 | 7.55439 | 51° | 18km/h | 28117m | 6.7m/s | -47.0°C | 0.5% | -1.0hPa | 2.7V | 00:00:00 | 00:00:00 | 00:00:00 | |
| DF7PN | 2026-09-03 12:29:27 | 46.37899 | 7.55433 | 51° | 20km/h | 28111m | 5.5m/s | -47.0°C | 0.5% | -1.0hPa | 2.7V | 00:00:00 | 00:00:00 | 00:00:00 | |
| DO3MHA-11 | 2026-09-03 12:29:23 | 46.37880 | 7.55408 | 41° | 24km/h | 28087m | 4.6m/s | -47.0°C | 2.7% | 0hPa | 2.7V | 00:00:00 | 01:56:28 | 00:00:00 | |
| IW2NTF | 2026-09-03 12:29:21 | 46.37859 | 7.55364 | 38° | 22km/h | 28050m | 6.8m/s | -47.2°C | 2.8% | 0hPa | 2.7V | 08:30:00 | 01:56:22 | 00:00:00 | |
| DM0DOS-11 | 2026-09-03 12:29:21 | 46.37854 | 7.55360 | 25° | 22km/h | 28043m | 6m/s | -47.2°C | 2.8% | 0hPa | 2.7V | 08:30:00 | 01:56:21 | 00:00:00 | |
| DO3MHA-12 | 2026-09-03 12:29:19 | 46.37865 | 7.55377 | 65° | 22km/h | 28063m | 5.3m/s | -47.2°C | 2.8% | 0hPa | 2.6V | 00:00:00 | 01:56:24 | 00:00:00 | |
| DH7VM-15 | 2026-09-03 12:29:18 | 46.37862 | 7.55370 | 56° | 22km/h | 28057m | 6.5m/s | -47.3°C | 0.6% | 0hPa | 2.6V | 00:00:00 | 00:00:00 | 00:00:00 | |
| DL6DJ-15 | 2026-09-03 12:29:15 | 46.37844 | 7.55354 | 22° | 20km/h | 28032m | 6.7m/s | -47.3°C | 0.5% | -1.0hPa | 2.6V | 00:00:00 | 00:00:00 | 00:00:00 | |
| DO3MHA-11 | 2026-09-03 12:29:13 | 46.37839 | 7.55350 | 30° | 20km/h | 28026m | 6.0m/s | -47.3°C | 2.8% | 0hPa | 2.6V | 00:00:00 | 01:56:18 | 08:30:00 | |
| DM0DOS-11 | 2026-09-03 12:29:09 | 46.37806 | 7.55323 | 48° | 18km/h | 27983m | 6.8m/s | -47.6°C | 2.9% | 0hPa | 2.6V | 08:30:00 | 01:56:11 | 00:00:00 | |
| DO3MHA-12 | 2026-09-03 12:29:09 | 46.37819 | 7.55335 | 23° | 20km/h | 28001m | 6.0m/s | -47.4°C | 2.8% | 0hPa | 2.7V | 00:00:00 | 01:56:14 | 00:00:00 | |
| DB0UT-7 | 2026-09-03 12:29:04 | 46.37801 | 7.55313 | 50° | 16km/h | 27972m | 5.3m/s | -47.5°C | 2.9% | 0hPa | 2.7V | 00:00:00 | 00:00:00 | 00:00:00 | |
| DO3MHA-11 | 2026-09-03 12:29:03 | 46.37798 | 7.55310 | 31° | 18km/h | 27966m | 6.6m/s | -47.6°C | 2.9% | 0hPa | 2.7V | 00:00:00 | 01:56:08 | 00:00:00 | |
| IW2NTF | 2026-09-03 12:29:01 | 46.37770 | 7.55307 | 21° | 16km/h | 27929m | 5.5m/s | -47.7°C | 2.9% | 0hPa | 2.7V | 08:30:00 | 01:56:02 | 00:00:00 | |
| DF7PN | 2026-09-03 12:28:56 | 46.37766 | 7.55305 | 24° | 15km/h | 27924m | 5.2m/s | -47.7°C | 0.5% | -1.0hPa | 2.7V | 00:00:00 | 00:00:00 | 00:00:00 | |
| DO3MHA-11 | 2026-09-03 12:28:53 | 46.37755 | 7.55299 | 15° | 15km/h | 27904m | 5.7m/s | -47.7°C | 2.9% | 0hPa | 2.7V | 00:00:00 | 01:55:58 | 00:00:00 | |
| IW2NTF | 2026-09-03 12:28:51 | 46.37737 | 7.55291 | 347° | 16km/h | 27868m | 6.9m/s | -47.5°C | 2.9% | 0hPa | 2.7V | 08:30:00 | 01:55:52 | 00:00:00 | |
| BIOWL1-15 | 2026-09-03 12:28:51 | 46.37749 | 7.55296 | 31° | 13km/h | 27892m | 6.8m/s | -47.7°C | 0% | 0hPa | 2.6V | 18:12:15 | 01:55:56 | 00:00:00 | |
| DM0DOS-11 | 2026-09-03 12:28:47 | 46.37718 | 7.55295 | 31° | 13km/h | 27838m | 5.4m/s | -47.5°C | 2.9% | 0hPa | 2.7V | 08:30:00 | 01:55:47 | 00:00:00 | |
| DO3MHA-12 | 2026-09-03 12:28:45 | 46.37729 | 7.55295 | 343° | 15km/h | 27856m | 5.1m/s | -47.5°C | 2.9% | 0hPa | 2.6V | 00:00:00 | 01:55:50 | 00:00:00 | |
| DO3MHA-11 | 2026-09-03 12:28:43 | 46.37721 | 7.55296 | 13° | 15km/h | 27844m | 6.6m/s | -47.4°C | 2.9% | 0hPa | 2.6V | 00:00:00 | 01:55:48 | 00:00:00 | |
| IW2NTF | 2026-09-03 12:28:41 | 46.37699 | 7.55284 | 11° | 16km/h | 27807m | 5.8m/s | -47.5°C | 2.9% | 0hPa | 2.6V | 08:30:00 | 01:55:42 | 00:00:00 | |
| BIOWL1-15 | 2026-09-03 12:28:39 | 46.37687 | 7.55280 | 352° | 11km/h | 27783m | 6.1m/s | -47.4°C | 0% | 0hPa | 2.7V | 18:12:15 | 01:55:38 | 00:00:00 | |
| DM0DOS-11 | 2026-09-03 12:28:34 | 46.37684 | 7.55281 | 339° | 13km/h | 27776m | 7.2m/s | -47.4°C | 2.9% | 0hPa | 2.6V | 08:30:00 | 01:55:37 | 00:00:00 | |
| DB0UT-7 | 2026-09-03 12:28:34 | 46.37690 | 7.55280 | 10° | 11km/h | 27789m | 5.1m/s | -47.4°C | 2.9% | 0hPa | 2.7V | 00:00:00 | 01:55:39 | 00:00:00 | |
| DO3MHA-11 | 2026-09-03 12:28:33 | 46.37687 | 7.55280 | 353° | 11km/h | 27783m | 6.0m/s | -47.4°C | 2.9% | 0hPa | 2.7V | 00:00:00 | 01:55:38 | 00:00:00 | |
| IW2NTF | 2026-09-03 12:28:31 | 46.37671 | 7.55285 | 48° | 9km/h | 27746m | 6.2m/s | -47.3°C | 2.9% | 0hPa | 2.7V | 08:30:00 | 01:55:32 | 00:00:00 | |
| BIOWL1-15 | 2026-09-03 12:28:27 | 46.37671 | 7.55285 | 48° | 9km/h | 27746m | 6.2m/s | -47.3°C | 0% | 0hPa | 2.7V | 18:12:15 | 01:55:32 | 00:00:00 | |
| DF7PN | 2026-09-03 12:28:25 | 46.37667 | 7.55280 | 39° | 11km/h | 27734m | 6.6m/s | -47.3°C | 0.6% | -1.0hPa | 2.7V | 00:00:00 | 00:00:00 | 00:00:00 | |
| DO3MHA-11 | 2026-09-03 12:28:23 | 46.37661 | 7.55276 | 11° | 13km/h | 27722m | 4.9m/s | -47.2°C | 2.8% | 0hPa | 2.7V | 00:00:00 | 01:55:28 | 00:00:00 | |
| IW2NTF | 2026-09-03 12:28:21 | 46.37643 | 7.55270 | 4° | 13km/h | 27688m | 7.2m/s | -47.2°C | 2.8% | 0hPa | 2.7V | 08:30:00 | 01:55:22 | 00:00:00 | |
| BIOWL1-15 | 2026-09-03 12:28:17 | 46.37643 | 7.55270 | 4° | 13km/h | 27688m | 7.2m/s | -47.2°C | 0% | 0hPa | 2.7V | 18:12:15 | 01:55:22 | 00:00:00 | |
| DM0DOS-11 | 2026-09-03 12:28:14 | 46.37631 | 7.55269 | 87° | 4km/h | 27658m | 5.8m/s | -47°C | 2.8% | 0hPa | 2.7V | 08:30:00 | 01:55:17 | 00:00:00 | |
| DO3MHA-11 | 2026-09-03 12:28:13 | 46.37632 | 7.55270 | 24° | 7km/h | 27665m | 7.0m/s | -47.0°C | 2.8% | 0hPa | 2.6V | 00:00:00 | 01:55:18 | 00:00:00 | |
| IW2NTF | 2026-09-03 12:28:12 | 46.37627 | 7.55262 | 9° | 11km/h | 27629m | 5.2m/s | -46.9°C | 2.7% | 0hPa | 2.6V | 08:30:00 | 01:55:12 | 00:00:00 | |
| BIOWL1-15 | 2026-09-03 12:28:10 | 46.37624 | 7.55261 | 12° | 11km/h | 27624m | 5m/s | -47°C | 0% | 0hPa | 2.6V | 18:12:15 | 01:55:11 | 00:00:00 | |
| DO3MHA-12 | 2026-09-03 12:28:10 | 46.37632 | 7.55265 | 91° | 7km/h | 27648m | 5.2m/s | -47.0°C | 2.8% | 0hPa | 2.6V | 00:00:00 | 01:55:15 | 00:00:00 | |
| DM0DOS-11 | 2026-09-03 12:28:07 | 46.37617 | 7.55255 | 24° | 5km/h | 27595m | 7.2m/s | -47.2°C | 2.8% | 0hPa | 2.6V | 08:30:00 | 01:55:06 | 00:00:00 | |
| DB0UT-7 | 2026-09-03 12:28:04 | 46.37620 | 7.55258 | 40° | 5km/h | 27612m | 6.3m/s | -47.1°C | 2.8% | 0hPa | 2.7V | 00:00:00 | 00:00:00 | 00:00:00 | |
| DO3MHA-11 | 2026-09-03 12:28:03 | 46.37619 | 7.55257 | 55° | 4km/h | 27607m | 5.0m/s | -47.2°C | 2.8% | 0hPa | 2.7V | 00:00:00 | 01:55:08 | 00:00:00 | |
| IW2NTF | 2026-09-03 12:28:02 | 46.37613 | 7.55253 | 79° | 2km/h | 27570m | 6.5m/s | -47.1°C | 2.8% | 0hPa | 2.7V | 08:30:00 | 01:55:02 | 00:00:00 | |
| BIOWL1-15 | 2026-09-03 12:27:55 | 46.37612 | 7.55250 | 34° | 7km/h | 27553m | 6.9m/s | -47.3°C | 0% | 0hPa | 2.6V | 18:12:15 | 01:54:59 | 00:00:00 | |
| DM0DOS-11 | 2026-09-03 12:27:54 | 46.37608 | 7.55247 | 20° | 11km/h | 27541m | 5.2m/s | -47.5°C | 2.8% | 0hPa | 2.7V | 08:30:00 | 01:54:57 | 00:00:00 | |
| DO3MHA-11 | 2026-09-03 12:27:53 | 46.37610 | 7.55248 | 23° | 7km/h | 27547m | 6.3m/s | -47.3°C | 2.8% | 0hPa | 2.6V | 00:00:00 | 01:54:58 | 00:00:00 | |
| IW2NTF | 2026-09-03 12:27:51 | 46.37606 | 7.55239 | 129° | 7km/h | 27513m | 5.5m/s | -47.6°C | 2.8% | 0hPa | 2.6V | 08:30:00 | 01:54:52 | 00:00:00 | |
| DO3MHA-12 | 2026-09-03 12:27:50 | 46.37604 | 7.55244 | 48° | 7km/h | 27530m | 6.5m/s | -47.5°C | 2.9% | 0hPa | 2.7V | 00:00:00 | 01:54:55 | 08:30:00 | |
| DM0DOS-11 | 2026-09-03 12:27:47 | 46.37607 | 7.55224 | 108° | 7km/h | 27484m | 6.6m/s | -47.3°C | 2.9% | 0hPa | 2.6V | 08:30:00 | 01:54:47 | 00:00:00 | |
| BIOWL1-15 | 2026-09-03 12:27:44 | 46.37607 | 7.55230 | 84° | 9km/h | 27495m | 4.9m/s | 0°C | 0% | 0hPa | 2.7V | 18:12:15 | 01:54:49 | 00:00:00 | |
| DO3MHA-11 | 2026-09-03 12:27:43 | 46.37606 | 7.55227 | 92° | 4km/h | 27490m | 5.6m/s | -47.3°C | 2.9% | 0hPa | 2.6V | 00:00:00 | 01:54:48 | 08:30:00 | |
| IW2NTF | 2026-09-03 12:27:41 | 46.37608 | 7.55219 | 0° | 4km/h | 27454m | 5.2m/s | -47.4°C | 2.8% | 0hPa | 2.7V | 08:30:00 | 01:54:42 | 00:00:00 | |
| BIOWL1-15 | 2026-09-03 12:27:35 | 46.37609 | 7.55219 | 159° | 4km/h | 27431m | 4.9m/s | 0°C | 0% | 0hPa | 2.7V | 18:12:15 | 01:54:38 | 00:00:00 | |
| DB0UT-7 | 2026-09-03 12:27:34 | 46.37608 | 7.55219 | 174° | 11km/h | 27437m | 5.4m/s | -47.6°C | 2.9% | 0hPa | 2.6V | 00:00:00 | 01:54:39 | 00:00:00 | |
| DO3MHA-11 | 2026-09-03 12:27:33 | 46.37609 | 7.55219 | 159° | 7km/h | 27431m | 4.9m/s | -47.6°C | 2.9% | 0hPa | 2.6V | 00:00:00 | 01:54:38 | 00:00:00 | |
| IW2NTF | 2026-09-03 12:27:31 | 46.37606 | 7.55205 | 88° | 11km/h | 27395m | 5.7m/s | -47.5°C | 2.8% | 0hPa | 2.6V | 08:30:00 | 01:54:32 | 00:00:00 | |
| BIOWL1-15 | 2026-09-03 12:27:24 | 46.37599 | 7.55191 | 9° | 11km/h | 27367m | 5.2m/s | 0°C | 0% | 0hPa | 2.6V | 18:12:15 | 01:54:27 | 00:00:00 | |
| DO3MHA-11 | 2026-09-03 12:27:23 | 46.37602 | 7.55192 | 24° | 9km/h | 27373m | 6.6m/s | 0°C | 0% | 0hPa | 2.7V | 00:00:00 | 01:54:28 | 00:00:00 | |
| DO3MHA-12 | 2026-09-03 12:27:20 | 46.37595 | 7.55191 | 352° | 11km/h | 27356m | 6.6m/s | -47.2°C | 2.8% | 0hPa | 2.7V | 00:00:00 | 01:54:25 | 00:00:00 | |
| IW2NTF | 2026-09-03 12:27:19 | 46.37596 | 7.55188 | 99° | 5km/h | 27339m | 6.5m/s | -47.1°C | 2.8% | 0hPa | 2.6V | 08:30:00 | 01:54:22 | 00:00:00 | |
| DO3MHA-11 | 2026-09-03 12:27:13 | 46.37593 | 7.55169 | 81° | 16km/h | 27315m | 6.4m/s | -47.2°C | 2.8% | 0hPa | 2.7V | 00:00:00 | 01:54:18 | 00:00:00 | |
| IW2NTF | 2026-09-03 12:27:12 | 46.37574 | 7.55135 | 21° | 18km/h | 27282m | 4.2m/s | -47.2°C | 2.8% | 0hPa | 2.7V | 08:30:00 | 01:54:12 | 00:00:00 | |
| BIOWL1-15 | 2026-09-03 12:27:12 | 46.37592 | 7.55162 | 75° | 20km/h | 27309m | 4.6m/s | 0°C | 0% | 0hPa | 2.6V | 18:12:15 | 01:54:17 | 00:00:00 | |
| DO3MHA-12 | 2026-09-03 12:27:10 | 46.37588 | 7.55148 | 53° | 13km/h | 27299m | 6.6m/s | -47.2°C | 2.8% | 0hPa | 2.6V | 00:00:00 | 01:54:15 | 00:00:00 | |
| DM0DOS-11 | 2026-09-03 12:27:04 | 46.37558 | 7.55089 | 70° | 26km/h | 27227m | 6m/s | -47.7°C | 2.8% | 0hPa | 2.6V | 08:30:00 | 01:54:02 | 00:00:00 | |
| DB0UT-7 | 2026-09-03 12:27:04 | 46.37568 | 7.55131 | 90° | 16km/h | 27265m | 4.8m/s | -47.1°C | 2.7% | 0hPa | 2.6V | 00:00:00 | 00:00:00 | 00:00:00 | |
| DO3MHA-11 | 2026-09-03 12:27:03 | 46.37568 | 7.55129 | 103° | 18km/h | 27260m | 4.1m/s | -47.1°C | 2.7% | 0hPa | 2.6V | 00:00:00 | 01:54:08 | 00:00:00 | |
| IW2NTF | 2026-09-03 12:27:01 | 46.37558 | 7.55089 | 70° | 26km/h | 27227m | 6m/s | -47.7°C | 2.8% | 0hPa | 2.6V | 08:30:00 | 01:54:02 | 00:00:00 | |
| BIOWL9-15 | 2026-09-03 12:26:54 | 46.37551 | 7.55069 | 26° | 9km/h | 27205m | 6.7m/s | 0°C | -1.0% | -1.0hPa | 2.7V | 00:00:00 | 00:00:00 | 00:00:00 | |
| DF7PN | 2026-09-03 12:26:52 | 46.37549 | 7.55068 | 359° | 9km/h | 27199m | 6.2m/s | -47.8°C | 0.6% | -1.0hPa | 2.7V | 00:00:00 | 00:00:00 | 00:00:00 | |
| IW2NTF | 2026-09-03 12:26:49 | 46.37543 | 7.55068 | 91° | 9km/h | 27171m | 4.5m/s | -47.9°C | 2.9% | 0hPa | 2.7V | 08:30:00 | 01:53:52 | 00:00:00 | |
| DO3MHA-12 | 2026-09-03 12:26:49 | 46.37543 | 7.55070 | 321° | 15km/h | 27182m | 6.4m/s | -47.8°C | 2.9% | 0hPa | 2.6V | 00:00:00 | 01:53:54 | 00:00:00 | |
| DO3MHA-11 | 2026-09-03 12:26:43 | 46.37531 | 7.55041 | 47° | 20km/h | 27149m | 4.7m/s | -48.3°C | 2.9% | 0hPa | 2.7V | 00:00:00 | 01:53:48 | 00:00:00 | |
| DM0DOS-11 | 2026-09-03 12:26:41 | 46.37504 | 7.55005 | 16° | 13km/h | 27115m | 6.1m/s | -48.5°C | 2.9% | 0hPa | 2.7V | 08:30:00 | 01:53:42 | 00:00:00 | |
| DK5PH-5 | 2026-09-03 12:26:41 | 46.37519 | 7.55023 | 45° | 18km/h | 27138m | 5.9m/s | -48.2°C | 2.9% | 0hPa | 2.6V | 00:00:00 | 01:53:46 | 00:00:00 | |
| DL6DJ-15 | 2026-09-03 12:26:39 | 46.37507 | 7.55007 | 30° | 15km/h | 27121m | 5.7m/s | -48.4°C | 0.6% | -1.0hPa | 2.6V | 00:00:00 | 00:00:00 | 00:00:00 | |
| DB0UT-7 | 2026-09-03 12:26:34 | 46.37495 | 7.54999 | 57° | 16km/h | 27100m | 6.0m/s | -48.4°C | 3.0% | 0hPa | 2.6V | 00:00:00 | 01:53:39 | 08:30:00 | |
| DO3MHA-11 | 2026-09-03 12:26:33 | 46.37494 | 7.54994 | 76° | 20km/h | 27093m | 7.0m/s | -48.4°C | 3.0% | 0hPa | 2.7V | 00:00:00 | 01:53:38 | 00:00:00 | |
| DM0DOS-11 | 2026-09-03 12:26:31 | 46.37474 | 7.54958 | 16° | 24km/h | 27062m | 5m/s | -48.5°C | 3% | 0hPa | 2.7V | 08:30:00 | 01:53:32 | 00:00:00 | |
| DO3MHA-12 | 2026-09-03 12:26:29 | 46.37485 | 7.54966 | 41° | 20km/h | 27072m | 5.6m/s | -48.5°C | 3.0% | 0hPa | 2.7V | 00:00:00 | 01:53:34 | 00:00:00 | |
| BIOWL9-15 | 2026-09-03 12:26:23 | 46.37453 | 7.54952 | 11° | 15km/h | 27034m | 5.4m/s | 0°C | -1.0% | -1.0hPa | 2.7V | 00:00:00 | 00:00:00 | 00:00:00 | |
| DF7PN | 2026-09-03 12:26:21 | 46.37444 | 7.54949 | 9° | 18km/h | 27022m | 5.3m/s | -48.6°C | 0.6% | -1.0hPa | 2.7V | 00:00:00 | 00:00:00 | 00:00:00 | |
| IW2NTF | 2026-09-03 12:26:19 | 46.37432 | 7.54945 | 14° | 13km/h | 27004m | 6m/s | -48.8°C | 3% | 0hPa | 2.7V | 08:30:00 | 01:53:22 | 00:00:00 | |
| DO3MHA-12 | 2026-09-03 12:26:18 | 46.37435 | 7.54947 | 14° | 15km/h | 27011m | 7.0m/s | -48.7°C | 3.0% | 0hPa | 2.6V | 00:00:00 | 01:53:23 | 08:30:00 | |
| DO3MHA-11 | 2026-09-03 12:26:13 | 46.37417 | 7.54943 | 5° | 13km/h | 26983m | 4.3m/s | -48.7°C | 3.0% | 0hPa | 2.6V | 00:00:00 | 01:53:18 | 08:30:00 | |
| DH7VM-15 | 2026-09-03 12:26:12 | 46.37418 | 7.54943 | 6° | 18km/h | 26983m | 4.4m/s | -48.7°C | 0.7% | 0hPa | 2.7V | 00:00:00 | 00:00:00 | 00:00:00 | |
| DM0DOS-11 | 2026-09-03 12:26:11 | 46.37402 | 7.54942 | 348° | 9km/h | 26952m | 4.9m/s | -48.7°C | 2.9% | 0hPa | 2.7V | 08:30:00 | 01:53:12 | 00:00:00 | |
| DK5PH-5 | 2026-09-03 12:26:11 | 46.37409 | 7.54942 | 5° | 13km/h | 26974m | 6.2m/s | -48.7°C | 3.0% | 0hPa | 2.7V | 00:00:00 | 01:53:16 | 00:00:00 | |
| DL6DJ-15 | 2026-09-03 12:26:08 | 46.37402 | 7.54942 | 348° | 7km/h | 26952m | 4.9m/s | -48.7°C | -1.0% | -1.0hPa | 2.6V | 00:00:00 | 00:00:00 | 00:00:00 | |
| DB0UT-7 | 2026-09-03 12:26:04 | 46.37390 | 7.54946 | 344° | 11km/h | 26935m | 4.9m/s | -48.7°C | 2.9% | 0hPa | 2.6V | 00:00:00 | 00:00:00 | 00:00:00 | |
| DM0DOS-11 | 2026-09-03 12:26:01 | 46.37366 | 7.54954 | 35° | 15km/h | 26896m | 5.5m/s | -49°C | 3% | 0hPa | 2.6V | 08:30:00 | 01:53:02 | 00:00:00 | |
| DO3MHA-11 | 2026-09-03 12:25:53 | 46.37358 | 7.54947 | 338° | 11km/h | 26873m | 4.9m/s | -48.9°C | 3.1% | 0hPa | 2.6V | 00:00:00 | 01:52:58 | 00:00:00 | |
| IW2NTF | 2026-09-03 12:25:50 | 46.37343 | 7.54963 | 294° | 15km/h | 26840m | 6.5m/s | -49°C | 3.1% | 0hPa | 2.6V | 08:30:00 | 01:52:52 | 00:00:00 | |
| DF7PN | 2026-09-03 12:25:50 | 46.37347 | 7.54955 | 321° | 13km/h | 26852m | 4.5m/s | -49.0°C | 0.7% | -1.0hPa | 2.6V | 00:00:00 | 00:00:00 | 00:00:00 | |
| DO3MHA-11 | 2026-09-03 12:25:43 | 46.37339 | 7.54976 | 352° | 7km/h | 26818m | 5.9m/s | -49.0°C | 3.1% | 0hPa | 2.6V | 00:00:00 | 01:52:48 | 00:00:00 | |
| DK5PH-5 | 2026-09-03 12:25:41 | 46.37336 | 7.54975 | 29° | 11km/h | 26809m | 3.9m/s | -49.0°C | 3.1% | 0hPa | 2.6V | 00:00:00 | 01:52:46 | 00:00:00 | |
| IW2NTF | 2026-09-03 12:25:39 | 46.37338 | 7.54981 | 250° | 13km/h | 26786m | 5.1m/s | -49.1°C | 3.1% | 0hPa | 2.6V | 08:30:00 | 01:52:42 | 00:00:00 | |
| DB0UT-7 | 2026-09-03 12:25:34 | 46.37339 | 7.54996 | 268° | 9km/h | 26769m | 4.9m/s | -49.0°C | 3.1% | 0hPa | 2.6V | 00:00:00 | 01:52:39 | 00:00:00 | |
| DO3MHA-11 | 2026-09-03 12:25:33 | 46.37340 | 7.55002 | 260° | 15km/h | 26764m | 6.1m/s | -49.0°C | 3.2% | 0hPa | 2.6V | 00:00:00 | 01:52:38 | 00:00:00 | |
| DM0DOS-11 | 2026-09-03 12:25:31 | 46.37350 | 7.55017 | 177° | 5km/h | 26730m | 4.4m/s | -48.8°C | 3% | 0hPa | 2.6V | 08:30:00 | 01:52:32 | 00:00:00 | |
| DL2OL | 2026-09-03 12:25:30 | 46.37343 | 7.55011 | 229° | 15km/h | 26751m | 5.3m/s | -49.0°C | 0.7% | 0hPa | 2.6V | 00:00:00 | 00:00:00 | 00:00:00 | |
| DO3MHA-11 | 2026-09-03 12:25:23 | 46.37360 | 7.55024 | 225° | 13km/h | 26708m | 5.2m/s | -48.8°C | 3.1% | 0hPa | 2.6V | 00:00:00 | 01:52:28 | 00:00:00 | |
| DM0DOS-11 | 2026-09-03 12:25:20 | 46.37373 | 7.55044 | 192° | 13km/h | 26673m | 5.9m/s | -48.6°C | 3% | 0hPa | 2.6V | 08:30:00 | 01:52:22 | 00:00:00 | |
| DF7PN | 2026-09-03 12:25:19 | 46.37370 | 7.55042 | 208° | 11km/h | 26680m | 6.5m/s | -48.7°C | 0.6% | -1.0hPa | 2.7V | 00:00:00 | 00:00:00 | 00:00:00 | |
| DO3MHA-11 | 2026-09-03 12:25:13 | 46.37381 | 7.55044 | 183° | 5km/h | 26651m | 5.8m/s | -48.4°C | 3.0% | 0hPa | 2.7V | 00:00:00 | 01:52:18 | 00:00:00 | |
| DK5PH-5 | 2026-09-03 12:25:11 | 46.37382 | 7.55045 | 244° | 9km/h | 26640m | 6.4m/s | -48.4°C | 3.1% | 0hPa | 2.7V | 00:00:00 | 01:52:16 | 00:00:00 | |
| IW2NTF | 2026-09-03 12:25:09 | 46.37386 | 7.55052 | 226° | 4km/h | 26618m | 6.5m/s | -48.3°C | 3% | 0hPa | 2.7V | 08:30:00 | 01:52:12 | 00:00:00 | |
| DB0UT-7 | 2026-09-03 12:25:04 | 46.37389 | 7.55051 | 146° | 11km/h | 26601m | 6.4m/s | -48.3°C | 3.0% | 0hPa | 2.6V | 00:00:00 | 00:00:00 | 00:00:00 | |
| DO3MHA-11 | 2026-09-03 12:25:02 | 46.37395 | 7.55045 | 143° | 9km/h | 26589m | 4.6m/s | -48.2°C | 3.0% | 0hPa | 2.7V | 00:00:00 | 01:52:07 | 00:00:00 | |
| DM0DOS-11 | 2026-09-03 12:25:01 | 46.37400 | 7.55027 | 73° | 5km/h | 26561m | 6.1m/s | -48.1°C | 2.9% | 0hPa | 2.7V | 08:30:00 | 01:52:02 | 00:00:00 | |
| DO3MHA-11 | 2026-09-03 12:24:52 | 46.37399 | 7.55025 | 47° | 13km/h | 26533m | 5.8m/s | -48.0°C | 2.9% | 0hPa | 2.7V | 00:00:00 | 01:51:57 | 00:00:00 | |
| DM0DOS-11 | 2026-09-03 12:24:48 | 46.37405 | 7.55007 | 131° | 18km/h | 26504m | 5.1m/s | -48°C | 2.9% | 0hPa | 2.7V | 08:30:00 | 01:51:52 | 00:00:00 | |
| DF7PN | 2026-09-03 12:24:48 | 46.37405 | 7.55007 | 131° | 18km/h | 26505m | 5.1m/s | -48.0°C | 0.6% | -1.0hPa | 2.7V | 00:00:00 | 00:00:00 | 00:00:00 | |
| DO3MHA-12 | 2026-09-03 12:24:43 | 46.37408 | 7.54985 | 70° | 16km/h | 26484m | 3.9m/s | -47.9°C | 2.9% | 0hPa | 2.7V | 00:00:00 | 01:51:48 | 00:00:00 | |
| DO3MHA-11 | 2026-09-03 12:24:42 | 46.37407 | 7.54980 | 65° | 13km/h | 26479m | 5.0m/s | -47.9°C | 2.9% | 0hPa | 2.7V | 00:00:00 | 01:51:47 | 08:30:00 | |
| DK5PH-5 | 2026-09-03 12:24:41 | 46.37406 | 7.54977 | 69° | 16km/h | 26473m | 6.3m/s | -47.9°C | 2.9% | 0hPa | 2.7V | 00:00:00 | 01:51:46 | 00:00:00 | |
| IW2NTF | 2026-09-03 12:24:38 | 46.37406 | 7.54966 | 82° | 7km/h | 26451m | 6.5m/s | -48°C | 2.9% | 0hPa | 2.7V | 08:30:00 | 01:51:42 | 00:00:00 | |
| DB0UT-7 | 2026-09-03 12:24:34 | 46.37404 | 7.54951 | 92° | 16km/h | 26434m | 5.8m/s | -48.0°C | 2.9% | 0hPa | 2.6V | 00:00:00 | 01:51:39 | 00:00:00 | |
| DO3MHA-11 | 2026-09-03 12:24:32 | 46.37406 | 7.54936 | 100° | 16km/h | 26423m | 4.6m/s | -48.0°C | 2.9% | 0hPa | 2.6V | 00:00:00 | 01:51:37 | 00:00:00 | |
| DO3MHA-12 | 2026-09-03 12:24:31 | 46.37406 | 7.54928 | 92° | 15km/h | 26418m | 4.5m/s | -48.1°C | 3.0% | 0hPa | 2.6V | 00:00:00 | 01:51:36 | 00:00:00 | |
| DM0DOS-11 | 2026-09-03 12:24:28 | 46.37398 | 7.54903 | 32° | 16km/h | 26394m | 6m/s | -48.2°C | 2.9% | 0hPa | 2.6V | 08:30:00 | 01:51:32 | 00:00:00 | |
| DM0DOS-11 | 2026-09-03 12:24:23 | 46.37375 | 7.54863 | 59° | 15km/h | 26338m | 4.9m/s | -48.6°C | 3% | 0hPa | 2.6V | 08:30:00 | 01:51:22 | 00:00:00 | |
| DO3MHA-11 | 2026-09-03 12:24:22 | 46.37386 | 7.54892 | 50° | 18km/h | 26367m | 6.5m/s | -48.3°C | 2.9% | 0hPa | 2.7V | 00:00:00 | 01:51:27 | 00:00:00 | |
| DF7PN | 2026-09-03 12:24:17 | 46.37373 | 7.54859 | 43° | 15km/h | 26334m | 4.8m/s | -48.6°C | 0.6% | -1.0hPa | 2.7V | 00:00:00 | 00:00:00 | 00:00:00 | |
| DO3MHA-12 | 2026-09-03 12:24:15 | 46.37370 | 7.54856 | 31° | 16km/h | 26328m | 6.3m/s | -48.6°C | 3.0% | 0hPa | 2.7V | 00:00:00 | 01:51:20 | 00:00:00 | |
| DO3MHA-11 | 2026-09-03 12:24:12 | 46.37355 | 7.54849 | 9° | 15km/h | 26312m | 5.3m/s | -48.7°C | 3.0% | 0hPa | 2.6V | 00:00:00 | 01:51:17 | 00:00:00 | |
| DM0DOS-11 | 2026-09-03 12:24:11 | 46.37336 | 7.54843 | 27° | 15km/h | 26282m | 6.2m/s | -48.8°C | 3% | 0hPa | 2.6V | 08:30:00 | 01:51:12 | 00:00:00 | |
| DK5PH-5 | 2026-09-03 12:24:11 | 46.37349 | 7.54848 | 4° | 16km/h | 26306m | 6.7m/s | -48.8°C | 3.0% | 0hPa | 2.7V | 00:00:00 | 01:51:16 | 00:00:00 | |
| DB0UT-7 | 2026-09-03 12:24:04 | 46.37326 | 7.54836 | 21° | 15km/h | 26265m | 6.4m/s | -48.9°C | 3.0% | 0hPa | 2.7V | 00:00:00 | 00:00:00 | 00:00:00 | |
| DO3MHA-11 | 2026-09-03 12:24:02 | 46.37319 | 7.54834 | 355° | 18km/h | 26254m | 4.5m/s | -49.0°C | 3.0% | 0hPa | 2.7V | 00:00:00 | 01:51:07 | 00:00:00 | |
| DM0DOS-11 | 2026-09-03 12:24:00 | 46.37291 | 7.54848 | 318° | 18km/h | 26221m | 5.4m/s | -48.8°C | 3% | 0hPa | 2.7V | 08:30:00 | 01:51:01 | 00:00:00 | |
| DO3MHA-12 | 2026-09-03 12:24:00 | 46.37310 | 7.54836 | 351° | 16km/h | 26243m | 5.3m/s | -48.9°C | 3.0% | 0hPa | 2.7V | 00:00:00 | 01:51:05 | 00:00:00 | |
| IW2NTF | 2026-09-03 12:23:58 | 46.37295 | 7.54844 | 326° | 20km/h | 26227m | 6.6m/s | -48.9°C | 3% | 0hPa | 2.7V | 08:30:00 | 01:51:02 | 00:00:00 | |
| IW2NTF | 2026-09-03 12:23:52 | 46.37262 | 7.54875 | 320° | 16km/h | 26170m | 5.9m/s | -49.2°C | 3.1% | 0hPa | 2.6V | 08:30:00 | 01:50:52 | 00:00:00 | |
| DO3MHA-11 | 2026-09-03 12:23:52 | 46.37277 | 7.54860 | 347° | 16km/h | 26199m | 5.1m/s | -48.9°C | 3.1% | 0hPa | 2.6V | 00:00:00 | 01:50:57 | 00:00:00 | |
| DM0DOS-11 | 2026-09-03 12:23:47 | 46.37259 | 7.54878 | 328° | 16km/h | 26164m | 5.9m/s | -49.2°C | 3% | 0hPa | 2.6V | 08:30:00 | 01:50:51 | 00:00:00 | |
| DF7PN | 2026-09-03 12:23:46 | 46.37255 | 7.54881 | 329° | 16km/h | 26159m | 4.8m/s | -49.3°C | 0.6% | -1.0hPa | 2.6V | 00:00:00 | 00:00:00 | 00:00:00 | |
| DO3MHA-12 | 2026-09-03 12:23:45 | 46.37255 | 7.54881 | 330° | 9km/h | 26159m | 4.8m/s | -49.2°C | 3.0% | 0hPa | 2.6V | 00:00:00 | 01:50:50 | 00:00:00 | |
| DO3MHA-11 | 2026-09-03 12:23:42 | 46.37246 | 7.54894 | 302° | 11km/h | 26142m | 5.6m/s | -49.1°C | 3.1% | 0hPa | 2.6V | 00:00:00 | 01:50:47 | 00:00:00 | |
| DM0DOS-11 | 2026-09-03 12:23:41 | 46.37238 | 7.54915 | 280° | 9km/h | 26109m | 6.5m/s | -49.2°C | 3.1% | 0hPa | 2.7V | 08:30:00 | 01:50:41 | 00:00:00 | |
| DK5PH-5 | 2026-09-03 12:23:41 | 46.37244 | 7.54899 | 296° | 9km/h | 26137m | 4.6m/s | -49.1°C | 3.1% | 0hPa | 2.6V | 00:00:00 | 01:50:46 | 00:00:00 | |
| DB0UT-7 | 2026-09-03 12:23:34 | 46.37238 | 7.54923 | 267° | 7km/h | 26098m | 4.7m/s | -49.2°C | 3.1% | 0hPa | 2.6V | 00:00:00 | 01:50:39 | 00:00:00 | |
| DL2OL | 2026-09-03 12:23:33 | 46.37238 | 7.54927 | 268° | 9km/h | 26093m | 5.3m/s | -49.3°C | 0.7% | 0hPa | 2.6V | 00:00:00 | 00:00:00 | 00:00:00 | |
| DO3MHA-11 | 2026-09-03 12:23:32 | 46.37238 | 7.54930 | 276° | 5km/h | 26087m | 6.4m/s | -49.3°C | 3.1% | 0hPa | 2.6V | 00:00:00 | 01:50:37 | 00:00:00 | |
| DM0DOS-11 | 2026-09-03 12:23:30 | 46.37243 | 7.54940 | 207° | 9km/h | 26052m | 5.8m/s | -49.4°C | 3.1% | 0hPa | 2.6V | 08:30:00 | 01:50:31 | 00:00:00 | |
| IW2NTF | 2026-09-03 12:23:28 | 46.37244 | 7.54941 | 188° | 7km/h | 26045m | 6.4m/s | -49.4°C | 3.1% | 0hPa | 2.6V | 08:30:00 | 01:50:30 | 00:00:00 | |
| DO3MHA-12 | 2026-09-03 12:23:28 | 46.37239 | 7.54936 | 228° | 9km/h | 26063m | 6.3m/s | -49.3°C | 3.1% | 0hPa | 2.7V | 00:00:00 | 01:50:33 | 00:00:00 | |
| DO3MHA-11 | 2026-09-03 12:23:22 | 46.37250 | 7.54941 | 184° | 11km/h | 26029m | 6.7m/s | -49.1°C | 3.1% | 0hPa | 2.7V | 00:00:00 | 01:50:27 | 00:00:00 | |
| DO3MHA-12 | 2026-09-03 12:23:18 | 46.37260 | 7.54942 | 162° | 9km/h | 26007m | 6.4m/s | -49.2°C | 3.1% | 0hPa | 2.7V | 00:00:00 | 01:50:23 | 00:00:00 | |
| DM0DOS-11 | 2026-09-03 12:23:17 | 46.37263 | 7.54939 | 149° | 9km/h | 25995m | 5m/s | -49.2°C | 3% | 0hPa | 2.7V | 08:30:00 | 01:50:21 | 00:00:00 | |
| IW2NTF | 2026-09-03 12:23:17 | 46.37266 | 7.54938 | 163° | 9km/h | 25990m | 6.4m/s | -49.2°C | 3% | 0hPa | 2.6V | 08:30:00 | 01:50:20 | 00:00:00 | |
| DF7PN | 2026-09-03 12:23:14 | 46.37269 | 7.54937 | 179° | 11km/h | 25984m | 5.9m/s | -49.3°C | 0.6% | -1.0hPa | 2.7V | 00:00:00 | 00:00:00 | 00:00:00 | |
| DH7VM-15 | 2026-09-03 12:23:13 | 46.37268 | 7.54937 | 181° | 11km/h | 25984m | 5.9m/s | -49.3°C | 0.7% | 0hPa | 2.7V | 00:00:00 | 00:00:00 | 00:00:00 | |
| DM0DOS-11 | 2026-09-03 12:23:11 | 46.37282 | 7.54936 | 146° | 5km/h | 25936m | 5.3m/s | -49.8°C | 3.2% | 0hPa | 2.7V | 08:30:00 | 01:50:10 | 00:00:00 | |
| IW2NTF | 2026-09-03 12:23:10 | 46.37282 | 7.54936 | 146° | 5km/h | 25936m | 5.3m/s | -49.8°C | 3.2% | 0hPa | 2.7V | 08:30:00 | 01:50:10 | 00:00:00 | |
| DO3MHA-12 | 2026-09-03 12:23:08 | 46.37279 | 7.54936 | 166° | 11km/h | 25952m | 5.5m/s | -49.5°C | 3.1% | 0hPa | 2.7V | 00:00:00 | 01:50:13 | 00:00:00 | |
| DB0UT-7 | 2026-09-03 12:23:04 | 46.37283 | 7.54934 | 121° | 13km/h | 25930m | 6.5m/s | -49.7°C | 3.2% | 0hPa | 2.7V | 00:00:00 | 00:00:00 | 00:00:00 | |
| DO3MHA-11 | 2026-09-03 12:23:02 | 46.37286 | 7.54927 | 128° | 20km/h | 25919m | 4.7m/s | -49.7°C | 3.2% | 0hPa | 2.7V | 00:00:00 | 01:50:07 | 00:00:00 | |
| IW2NTF | 2026-09-03 12:23:00 | 46.37311 | 7.54892 | 105° | 20km/h | 25880m | 5.3m/s | -49.8°C | 3.1% | 0hPa | 2.7V | 08:30:00 | 01:50:00 | 00:00:00 | |
| DM0DOS-11 | 2026-09-03 12:23:00 | 46.37309 | 7.54899 | 116° | 20km/h | 25886m | 6.2m/s | -49.8°C | 3.1% | 0hPa | 2.6V | 08:30:00 | 01:50:01 | 00:00:00 | |
| DO3MHA-12 | 2026-09-03 12:22:58 | 46.37302 | 7.54910 | 143° | 11km/h | 25898m | 4.5m/s | -49.8°C | 3.1% | 0hPa | 2.6V | 00:00:00 | 01:50:03 | 08:30:00 | |
| DO3MHA-11 | 2026-09-03 12:22:52 | 46.37314 | 7.54875 | 117° | 7km/h | 25864m | 4.8m/s | -49.9°C | 3.2% | 0hPa | 2.6V | 00:00:00 | 01:49:57 | 00:00:00 | |
| DM0DOS-11 | 2026-09-03 12:22:49 | 46.37318 | 7.54865 | 155° | 7km/h | 25830m | 6.3m/s | -50°C | 0% | 0hPa | 2.6V | 08:30:00 | 01:49:51 | 00:00:00 | |
| IW2NTF | 2026-09-03 12:22:48 | 46.37320 | 7.54864 | 149° | 11km/h | 25824m | 4.9m/s | -49.9°C | 3.2% | 0hPa | 2.6V | 08:30:00 | 01:49:50 | 00:00:00 | |
| DO3MHA-12 | 2026-09-03 12:22:46 | 46.37318 | 7.54865 | 156° | 9km/h | 25830m | 6.2m/s | -49.9°C | 3.3% | 0hPa | 2.6V | 00:00:00 | 01:49:51 | 00:00:00 | |
| DL2OL | 2026-09-03 12:22:45 | 46.37318 | 7.54865 | 156° | 7km/h | 25830m | 6.3m/s | -50.0°C | 0.8% | 0hPa | 2.6V | 00:00:00 | 00:00:00 | 00:00:00 | |
| DF7PN | 2026-09-03 12:22:43 | 46.37325 | 7.54858 | 129° | 11km/h | 25815m | 5.8m/s | -50.0°C | 0.7% | -1.0hPa | 2.6V | 00:00:00 | 00:00:00 | 00:00:00 | |
| DO3MHA-11 | 2026-09-03 12:22:42 | 46.37326 | 7.54855 | 109° | 11km/h | 25809m | 5.6m/s | -49.9°C | 3.3% | 0hPa | 2.6V | 00:00:00 | 01:49:47 | 00:00:00 | |
| DK5PH-5 | 2026-09-03 12:22:41 | 46.37327 | 7.54852 | 90° | 11km/h | 25804m | 4.7m/s | -49.9°C | 3.2% | 0hPa | 2.6V | 00:00:00 | 01:49:46 | 00:00:00 | |
| DM0DOS-11 | 2026-09-03 12:22:38 | 46.37332 | 7.54841 | 129° | 15km/h | 25778m | 5.2m/s | 0°C | 0% | 0hPa | 2.6V | 08:30:00 | 01:49:41 | 00:00:00 | |
| IW2NTF | 2026-09-03 12:22:36 | 46.37337 | 7.54823 | 98° | 18km/h | 25761m | 4.3m/s | -49.8°C | 3.2% | 0hPa | 2.7V | 08:30:00 | 01:49:38 | 00:00:00 | |
| DO3MHA-12 | 2026-09-03 12:22:34 | 46.37336 | 7.54830 | 105° | 15km/h | 25766m | 5.8m/s | -49.8°C | 3.2% | 0hPa | 2.7V | 00:00:00 | 01:49:39 | 00:00:00 | |
| DO3MHA-11 | 2026-09-03 12:22:32 | 46.37337 | 7.54817 | 97° | 5km/h | 25757m | 4.5m/s | -49.8°C | 3.2% | 0hPa | 2.7V | 00:00:00 | 01:49:37 | 00:00:00 | |
| DM0DOS-11 | 2026-09-03 12:22:27 | 46.37337 | 7.54811 | 16° | 5km/h | 25723m | 5.4m/s | 0°C | 0% | 0hPa | 2.7V | 00:00:00 | 01:49:31 | 00:00:00 | |
| IW2NTF | 2026-09-03 12:22:24 | 46.37334 | 7.54806 | 79° | 5km/h | 25707m | 5.4m/s | -49.7°C | 3.1% | 0hPa | 2.6V | 08:30:00 | 01:49:28 | 00:00:00 | |
| DO3MHA-11 | 2026-09-03 12:22:22 | 46.37334 | 7.54803 | 77° | 13km/h | 25702m | 4.7m/s | -49.7°C | 3.1% | 0hPa | 2.6V | 00:00:00 | 01:49:27 | 00:00:00 | |
| DO3MHA-12 | 2026-09-03 12:22:19 | 46.37329 | 7.54792 | 48° | 16km/h | 25685m | 4.7m/s | -49.9°C | 3.2% | 0hPa | 2.6V | 00:00:00 | 01:49:24 | 00:00:00 | |
| IW2NTF | 2026-09-03 12:22:18 | 46.37314 | 7.54796 | 326° | 18km/h | 25652m | 6.4m/s | -50°C | 3.2% | 0hPa | 2.6V | 08:30:00 | 01:49:18 | 00:00:00 | |
| DM0DOS-11 | 2026-09-03 12:22:17 | 46.37322 | 7.54786 | 333° | 7km/h | 25668m | 5.2m/s | 0°C | 0% | 0hPa | 2.7V | 00:00:00 | 01:49:21 | 00:00:00 | |
| DO3MHA-11 | 2026-09-03 12:22:12 | 46.37310 | 7.54799 | 339° | 11km/h | 25647m | 5.4m/s | -50.0°C | 3.1% | 0hPa | 2.6V | 00:00:00 | 01:49:17 | 00:00:00 | |
| DK5PH-5 | 2026-09-03 12:22:11 | 46.37306 | 7.54800 | 351° | 11km/h | 25642m | 4.6m/s | -50.1°C | 3.2% | 0hPa | 2.6V | 00:00:00 | 01:49:16 | 00:00:00 | |
| DM0DOS-11 | 2026-09-03 12:22:11 | 46.37293 | 7.54799 | 20° | 5km/h | 25616m | 4.2m/s | 0°C | 0% | 0hPa | 2.7V | 00:00:00 | 01:49:11 | 00:00:00 | |
| IW2NTF | 2026-09-03 12:22:08 | 46.37286 | 7.54796 | 7° | 15km/h | 25600m | 4.7m/s | -50.1°C | 3.2% | 0hPa | 2.6V | 08:30:00 | 01:49:08 | 00:00:00 | |
| DO3MHA-12 | 2026-09-03 12:22:08 | 46.37296 | 7.54800 | 15° | 11km/h | 25626m | 5.4m/s | -50.1°C | 3.3% | 0hPa | 2.7V | 00:00:00 | 01:49:13 | 00:00:00 | |
| DB0UT-7 | 2026-09-03 12:22:04 | 46.37289 | 7.54797 | 15° | 11km/h | 25605m | 6.1m/s | -50.1°C | 3.2% | 0hPa | 2.7V | 00:00:00 | 00:00:00 | 08:30:00 | |
| DO3MHA-11 | 2026-09-03 12:22:02 | 46.37282 | 7.54795 | 358° | 9km/h | 25595m | 4.2m/s | -50.1°C | 3.2% | 0hPa | 2.7V | 00:00:00 | 01:49:07 | 00:00:00 | |
| IW2NTF | 2026-09-03 12:21:58 | 46.37265 | 7.54797 | 81° | 9km/h | 25547m | 6.3m/s | -50.2°C | 3.2% | 0hPa | 2.7V | 08:30:00 | 01:48:58 | 00:00:00 | |
| DO3MHA-12 | 2026-09-03 12:21:58 | 46.37272 | 7.54802 | 315° | 9km/h | 25574m | 4.6m/s | -50.1°C | 3.2% | 0hPa | 2.6V | 00:00:00 | 01:49:03 | 00:00:00 | |
| DM0DOS-11 | 2026-09-03 12:21:52 | 46.37265 | 7.54783 | 76° | 15km/h | 25530m | 6.4m/s | 0°C | 0% | 0hPa | 2.6V | 00:00:00 | 01:48:55 | 00:00:00 | |
| DO3MHA-11 | 2026-09-03 12:21:52 | 46.37265 | 7.54793 | 95° | 13km/h | 25542m | 5.0m/s | -50.1°C | 3.2% | 0hPa | 2.7V | 00:00:00 | 01:48:57 | 00:00:00 | |
| IW2NTF | 2026-09-03 12:21:48 | 46.37252 | 7.54784 | 299° | 15km/h | 25493m | 4.7m/s | -50.6°C | 3.4% | 0hPa | 2.7V | 08:30:00 | 01:48:48 | 00:00:00 | |
| DO3MHA-12 | 2026-09-03 12:21:48 | 46.37262 | 7.54775 | 41° | 15km/h | 25520m | 4.3m/s | -50.3°C | 3.2% | 0hPa | 2.7V | 00:00:00 | 01:48:53 | 00:00:00 | |
| DH7VM-15 | 2026-09-03 12:21:43 | 46.37251 | 7.54784 | 301° | 15km/h | 25494m | 4.7m/s | -50.6°C | 0.8% | 0hPa | 2.7V | 00:00:00 | 00:00:00 | 00:00:00 | |
| DO3MHA-11 | 2026-09-03 12:21:42 | 46.37249 | 7.54789 | 314° | 13km/h | 25488m | 5.7m/s | -50.5°C | 3.4% | 0hPa | 2.7V | 00:00:00 | 01:48:47 | 08:30:00 | |
| DK5PH-5 | 2026-09-03 12:21:41 | 46.37247 | 7.54792 | 337° | 11km/h | 25483m | 5.0m/s | -50.5°C | 3.3% | 0hPa | 2.6V | 00:00:00 | 01:48:46 | 00:00:00 | |
| DL2OL | 2026-09-03 12:21:38 | 46.37238 | 7.54790 | 43° | 9km/h | 25467m | 6.3m/s | -50.5°C | 0.8% | 0hPa | 2.7V | 00:00:00 | 00:00:00 | 00:00:00 | |
| IW2NTF | 2026-09-03 12:21:36 | 46.37234 | 7.54768 | 78° | 11km/h | 25439m | 3.8m/s | -50.5°C | 3.3% | 0hPa | 2.7V | 08:30:00 | 01:48:38 | 00:00:00 | |
| DB0UT-7 | 2026-09-03 12:21:34 | 46.37235 | 7.54773 | 78° | 11km/h | 25444m | 4.9m/s | -50.4°C | 3.3% | 0hPa | 2.6V | 00:00:00 | 01:48:39 | 00:00:00 | |
| DO3MHA-11 | 2026-09-03 12:21:32 | 46.37234 | 7.54764 | 77° | 11km/h | 25434m | 5.9m/s | -50.4°C | 3.3% | 0hPa | 2.6V | 00:00:00 | 01:48:37 | 00:00:00 | |
| DO3MHA-12 | 2026-09-03 12:21:28 | 46.37229 | 7.54766 | 346° | 11km/h | 25412m | 6.4m/s | -50.3°C | 3.3% | 0hPa | 2.6V | 00:00:00 | 01:48:33 | 00:00:00 | |
| IW2NTF | 2026-09-03 12:21:26 | 46.37214 | 7.54758 | 77° | 9km/h | 25386m | 5.2m/s | -50.4°C | 3.4% | 0hPa | 2.6V | 08:30:00 | 01:48:28 | 00:00:00 | |
| DO3MHA-11 | 2026-09-03 12:21:22 | 46.37214 | 7.54754 | 102° | 7km/h | 25382m | 4.6m/s | -50.2°C | 3.3% | 0hPa | 2.6V | 00:00:00 | 01:48:27 | 00:00:00 | |
| OE5DXL-15 | 2026-09-03 12:21:21 | 46.37214 | 7.54747 | 93° | 15km/h | 25371m | 6.1m/s | 0°C | 0% | 0hPa | 2.6V | 00:00:00 | 01:48:25 | 00:00:00 | |
| DO3MHA-12 | 2026-09-03 12:21:18 | 46.37213 | 7.54741 | 57° | 9km/h | 25360m | 5.3m/s | -50.1°C | 3.3% | 0hPa | 2.6V | 00:00:00 | 01:48:23 | 08:30:00 | |
| IW2NTF | 2026-09-03 12:21:16 | 46.37206 | 7.54737 | 8° | 11km/h | 25334m | 6m/s | -50.1°C | 3.2% | 0hPa | 2.6V | 08:30:00 | 01:48:18 | 00:00:00 | |
| DL2OL | 2026-09-03 12:21:13 | 46.37206 | 7.54737 | 10° | 11km/h | 25335m | 6.0m/s | -50.1°C | 0.8% | 0hPa | 2.6V | 00:00:00 | 00:00:00 | 00:00:00 | |
| DO3MHA-11 | 2026-09-03 12:21:12 | 46.37203 | 7.54736 | 21° | 15km/h | 25329m | 5.4m/s | -50.0°C | 3.1% | 0hPa | 2.6V | 00:00:00 | 01:48:17 | 00:00:00 | |
| DK5PH-5 | 2026-09-03 12:21:11 | 46.37200 | 7.54734 | 32° | 16km/h | 25324m | 4.5m/s | -50.0°C | 3.2% | 0hPa | 2.6V | 00:00:00 | 01:48:16 | 00:00:00 | |
| DF7PN | 2026-09-03 12:21:10 | 46.37198 | 7.54731 | 44° | 11km/h | 25319m | 5.2m/s | -50.2°C | 0.7% | -1.0hPa | 2.6V | 00:00:00 | 00:00:00 | 00:00:00 | |
| DO3MHA-12 | 2026-09-03 12:21:08 | 46.37196 | 7.54724 | 107° | 15km/h | 25308m | 5.3m/s | -50.0°C | 3.2% | 0hPa | 2.6V | 00:00:00 | 01:48:13 | 00:00:00 | |
| IW2NTF | 2026-09-03 12:21:06 | 46.37201 | 7.54697 | 78° | 18km/h | 25282m | 5m/s | -50°C | 3.2% | 0hPa | 2.6V | 08:30:00 | 01:48:08 | 00:00:00 | |
| DB0UT-7 | 2026-09-03 12:21:04 | 46.37201 | 7.54703 | 92° | 18km/h | 25288m | 5.9m/s | -50.0°C | 3.2% | 0hPa | 2.7V | 00:00:00 | 00:00:00 | 00:00:00 | |
| DO3MHA-11 | 2026-09-03 12:21:02 | 46.37200 | 7.54691 | 72° | 15km/h | 25277m | 4.6m/s | -50.0°C | 3.2% | 0hPa | 2.7V | 00:00:00 | 01:48:07 | 00:00:00 | |
| DO3MHA-12 | 2026-09-03 12:20:58 | 46.37197 | 7.54676 | 73° | 16km/h | 25256m | 5.7m/s | -50.2°C | 3.3% | 0hPa | 2.7V | 00:00:00 | 01:48:03 | 00:00:00 | |
| IW2NTF | 2026-09-03 12:20:56 | 46.37193 | 7.54647 | 90° | 15km/h | 25229m | 4.4m/s | -50.4°C | 3.3% | 0hPa | 2.7V | 08:30:00 | 01:47:58 | 00:00:00 | |
| DO3MHA-11 | 2026-09-03 12:20:52 | 46.37193 | 7.54641 | 81° | 18km/h | 25225m | 4.1m/s | -50.4°C | 3.4% | 0hPa | 2.7V | 00:00:00 | 01:47:57 | 00:00:00 | |
| DO3MHA-12 | 2026-09-03 12:20:48 | 46.37183 | 7.54625 | 36° | 22km/h | 25202m | 5.6m/s | -50.5°C | 3.4% | 0hPa | 2.7V | 00:00:00 | 01:47:53 | 00:00:00 | |
| IW2NTF | 2026-09-03 12:20:46 | 46.37169 | 7.54599 | 59° | 27km/h | 25174m | 5.5m/s | -50.3°C | 3.4% | 0hPa | 2.7V | 08:30:00 | 01:47:48 | 00:00:00 | |
| DO3MHA-11 | 2026-09-03 12:20:42 | 46.37166 | 7.54590 | 63° | 24km/h | 25170m | 3.8m/s | -50.3°C | 3.3% | 0hPa | 2.7V | 00:00:00 | 01:47:47 | 00:00:00 | |
| DK5PH-5 | 2026-09-03 12:20:41 | 46.37163 | 7.54581 | 67° | 20km/h | 25165m | 5.6m/s | -50.3°C | 3.3% | 0hPa | 2.6V | 00:00:00 | 01:47:46 | 00:00:00 | |
| OE5DXL-15 | 2026-09-03 12:20:40 | 46.37158 | 7.54565 | 63° | 22km/h | 25154m | 4.3m/s | 0°C | 0% | 0hPa | 2.6V | 00:00:00 | 00:00:00 | 00:00:00 | |
| DF7PN | 2026-09-03 12:20:39 | 46.37158 | 7.54565 | 62° | 20km/h | 25154m | 4.3m/s | -50.4°C | 0.7% | -1.0hPa | 2.6V | 00:00:00 | 00:00:00 | 00:00:00 | |
| DO3MHA-12 | 2026-09-03 12:20:38 | 46.37155 | 7.54560 | 50° | 20km/h | 25150m | 4.9m/s | -50.3°C | 3.3% | 0hPa | 2.6V | 00:00:00 | 01:47:43 | 00:00:00 | |
| IW2NTF | 2026-09-03 12:20:36 | 46.37130 | 7.54545 | 9° | 20km/h | 25121m | 5.7m/s | -50.1°C | 3.3% | 0hPa | 2.6V | 08:30:00 | 01:47:38 | 00:00:00 | |
| DB0UT-7 | 2026-09-03 12:20:34 | 46.37135 | 7.54546 | 10° | 18km/h | 25127m | 5.6m/s | -50.2°C | 3.3% | 0hPa | 2.6V | 00:00:00 | 01:47:39 | 00:00:00 | |
| DO3MHA-11 | 2026-09-03 12:20:32 | 46.37125 | 7.54543 | 17° | 16km/h | 25116m | 4.4m/s | -50.0°C | 3.2% | 0hPa | 2.6V | 00:00:00 | 01:47:37 | 00:00:00 | |
| DO3MHA-12 | 2026-09-03 12:20:28 | 46.37111 | 7.54527 | 60° | 18km/h | 25095m | 4.6m/s | -50.1°C | 3.2% | 0hPa | 2.6V | 00:00:00 | 01:47:33 | 00:00:00 | |
| IW2NTF | 2026-09-03 12:20:26 | 46.37098 | 7.54498 | 27° | 20km/h | 25063m | 5m/s | -50°C | 3.2% | 0hPa | 2.6V | 08:30:00 | 01:47:27 | 00:00:00 | |
| DO3MHA-11 | 2026-09-03 12:20:22 | 46.37098 | 7.54497 | 28° | 18km/h | 25063m | 4.9m/s | -49.9°C | 3.2% | 0hPa | 2.6V | 00:00:00 | 01:47:27 | 00:00:00 | |
| DO3MHA-12 | 2026-09-03 12:20:18 | 46.37079 | 7.54492 | 1° | 16km/h | 25042m | 4.1m/s | -50.0°C | 3.2% | 0hPa | 2.6V | 00:00:00 | 01:47:23 | 00:00:00 | |
| IW2NTF | 2026-09-03 12:20:16 | 46.37057 | 7.54471 | 51° | 15km/h | 25008m | 5.4m/s | -50.3°C | 3.3% | 0hPa | 2.6V | 08:30:00 | 01:47:17 | 00:00:00 | |
| DK5PH-5 | 2026-09-03 12:20:11 | 46.37054 | 7.54468 | 43° | 22km/h | 25004m | 4.2m/s | -50.2°C | 3.3% | 0hPa | 2.6V | 00:00:00 | 01:47:16 | 00:00:00 | |
| DO3MHA-12 | 2026-09-03 12:20:09 | 46.37044 | 7.54459 | 18° | 20km/h | 24988m | 5.3m/s | -50.3°C | 3.3% | 0hPa | 2.6V | 00:00:00 | 01:47:13 | 00:00:00 | |
| IW2NTF | 2026-09-03 12:20:06 | 46.37014 | 7.54466 | 355° | 22km/h | 24954m | 6.1m/s | -50.4°C | 3.3% | 0hPa | 2.6V | 08:30:00 | 01:47:07 | 00:00:00 | |
| DB0UT-7 | 2026-09-03 12:20:04 | 46.37024 | 7.54462 | 341° | 22km/h | 24966m | 4.5m/s | -50.4°C | 3.3% | 0hPa | 2.7V | 00:00:00 | 00:00:00 | 00:00:00 | |
| DH7VM-15 | 2026-09-03 12:20:03 | 46.37024 | 7.54462 | 341° | 22km/h | 24966m | 4.6m/s | 0°C | 0% | 0hPa | 2.7V | 00:00:00 | 00:00:00 | 00:00:00 | |
| DO3MHA-11 | 2026-09-03 12:20:02 | 46.37014 | 7.54466 | 356° | 18km/h | 24954m | 6.1m/s | -50.3°C | 3.3% | 0hPa | 2.7V | 00:00:00 | 01:47:07 | 00:00:00 | |
| DO3MHA-12 | 2026-09-03 12:19:58 | 46.36995 | 7.54462 | 20° | 20km/h | 24932m | 4.4m/s | -50.3°C | 3.3% | 0hPa | 2.7V | 00:00:00 | 01:47:03 | 00:00:00 | |
| IW2NTF | 2026-09-03 12:19:56 | 46.36969 | 7.54452 | 337° | 20km/h | 24899m | 5.8m/s | -50.3°C | 3.3% | 0hPa | 2.7V | 08:30:00 | 01:46:57 | 00:00:00 | |
| DO3MHA-11 | 2026-09-03 12:19:52 | 46.36969 | 7.54452 | 338° | 26km/h | 24899m | 5.8m/s | -50.3°C | 3.3% | 0hPa | 2.7V | 00:00:00 | 01:46:57 | 00:00:00 | |
| DO3MHA-12 | 2026-09-03 12:19:48 | 46.36945 | 7.54467 | 349° | 24km/h | 24878m | 6.2m/s | -50.3°C | 3.2% | 0hPa | 2.7V | 00:00:00 | 01:46:53 | 08:30:00 | |
| IW2NTF | 2026-09-03 12:19:45 | 46.36897 | 7.54464 | 357° | 22km/h | 24834m | 6.2m/s | -50.4°C | 3.3% | 0hPa | 2.6V | 08:30:00 | 01:46:45 | 00:00:00 | |
| DO3MHA-11 | 2026-09-03 12:19:42 | 46.36907 | 7.54464 | 1° | 26km/h | 24847m | 5.0m/s | -50.3°C | 3.3% | 0hPa | 2.7V | 00:00:00 | 01:46:47 | 00:00:00 | |
| DK5PH-5 | 2026-09-03 12:19:41 | 46.36902 | 7.54464 | 360° | 24km/h | 24841m | 6.2m/s | -50.3°C | 3.3% | 0hPa | 2.7V | 00:00:00 | 01:46:46 | 00:00:00 | |
| DO3MHA-12 | 2026-09-03 12:19:38 | 46.36884 | 7.54467 | 343° | 26km/h | 24824m | 6.0m/s | -50.3°C | 3.3% | 0hPa | 2.7V | 00:00:00 | 01:46:43 | 00:00:00 | |
| DF7PN | 2026-09-03 12:19:37 | 46.36872 | 7.54475 | 333° | 27km/h | 24813m | 4.2m/s | -50.5°C | 0.7% | -1.0hPa | 2.7V | 00:00:00 | 00:00:00 | 00:00:00 | |
| DB0UT-7 | 2026-09-03 12:19:34 | 46.36858 | 7.54483 | 344° | 24km/h | 24802m | 6.5m/s | -50.4°C | 3.3% | 0hPa | 2.7V | 00:00:00 | 01:46:39 | 00:00:00 | |
| DO3MHA-11 | 2026-09-03 12:19:32 | 46.36844 | 7.54487 | 354° | 24km/h | 24791m | 4.8m/s | -50.6°C | 3.3% | 0hPa | 2.7V | 00:00:00 | 01:46:37 | 00:00:00 | |
| IW2NTF | 2026-09-03 12:19:31 | 46.36831 | 7.54489 | 357° | 20km/h | 24779m | 5m/s | -50.5°C | 3.3% | 0hPa | 2.7V | 08:30:00 | 01:46:35 | 00:00:00 | |
| DO3MHA-12 | 2026-09-03 12:19:28 | 46.36821 | 7.54488 | 6° | 26km/h | 24770m | 5.6m/s | -50.5°C | 3.3% | 0hPa | 2.6V | 00:00:00 | 01:46:33 | 00:00:00 | |
| IW2NTF | 2026-09-03 12:19:25 | 46.36774 | 7.54519 | 319° | 29km/h | 24727m | 6m/s | -50.9°C | 3.4% | 0hPa | 2.6V | 08:30:00 | 01:46:25 | 00:00:00 | |
| DO3MHA-11 | 2026-09-03 12:19:22 | 46.36785 | 7.54503 | 315° | 22km/h | 24737m | 4.3m/s | -50.7°C | 3.4% | 0hPa | 2.6V | 00:00:00 | 01:46:27 | 00:00:00 | |
| DL2OL | 2026-09-03 12:19:17 | 46.36762 | 7.54529 | 342° | 24km/h | 24716m | 5.0m/s | -50.9°C | 0.9% | 0hPa | 2.6V | 00:00:00 | 00:00:00 | 00:00:00 | |
| DO3MHA-12 | 2026-09-03 12:19:16 | 46.36753 | 7.54531 | 360° | 24km/h | 24705m | 6.6m/s | -51.0°C | 3.5% | 0hPa | 2.6V | 00:00:00 | 01:46:21 | 00:00:00 | |
| DO3MHA-11 | 2026-09-03 12:19:12 | 46.36740 | 7.54529 | 356° | 22km/h | 24683m | 5.3m/s | -50.9°C | 3.4% | 0hPa | 2.7V | 00:00:00 | 01:46:17 | 00:00:00 | |
| IW2NTF | 2026-09-03 12:19:11 | 46.36731 | 7.54535 | 324° | 22km/h | 24673m | 4.8m/s | -50.9°C | 3.4% | 0hPa | 2.6V | 08:30:00 | 01:46:15 | 00:00:00 | |
| DK5PH-5 | 2026-09-03 12:19:11 | 46.36736 | 7.54531 | 339° | 18km/h | 24678m | 3.9m/s | -50.8°C | 3.4% | 0hPa | 2.6V | 00:00:00 | 01:46:16 | 00:00:00 | |
| DF7PN | 2026-09-03 12:19:06 | 46.36711 | 7.54571 | 318° | 24km/h | 24646m | 6.2m/s | -50.9°C | 0.8% | -1.0hPa | 2.6V | 00:00:00 | 00:00:00 | 00:00:00 | |
| IW2NTF | 2026-09-03 12:19:05 | 46.36692 | 7.54581 | 342° | 11km/h | 24619m | 4.2m/s | -50.8°C | 3.4% | 0hPa | 2.6V | 08:30:00 | 01:46:05 | 00:00:00 | |
| DO3MHA-12 | 2026-09-03 12:19:04 | 46.36706 | 7.54575 | 332° | 16km/h | 24640m | 5.0m/s | -50.9°C | 3.4% | 0hPa | 2.7V | 00:00:00 | 01:46:09 | 00:00:00 | |
| DO3MHA-11 | 2026-09-03 12:19:02 | 46.36697 | 7.54580 | 350° | 15km/h | 24630m | 6.0m/s | -50.8°C | 3.4% | 0hPa | 2.7V | 00:00:00 | 01:46:07 | 00:00:00 | |
| DO3MHA-12 | 2026-09-03 12:18:53 | 46.36671 | 7.54607 | 289° | 18km/h | 24582m | 5.6m/s | -50.8°C | 3.4% | 0hPa | 2.7V | 00:00:00 | 01:45:58 | 00:00:00 | |
| DO3MHA-11 | 2026-09-03 12:18:52 | 46.36670 | 7.54613 | 290° | 18km/h | 24576m | 5.7m/s | -50.8°C | 3.4% | 0hPa | 2.7V | 00:00:00 | 01:45:57 | 00:00:00 | |
| IW2NTF | 2026-09-03 12:18:51 | 46.36666 | 7.54626 | 295° | 20km/h | 24565m | 4.8m/s | -50.8°C | 3.4% | 0hPa | 2.7V | 08:30:00 | 01:45:55 | 00:00:00 | |
| DL2OL | 2026-09-03 12:18:48 | 46.36664 | 7.54632 | 294° | 18km/h | 24560m | 4.7m/s | -50.9°C | 0.9% | 0hPa | 2.6V | 00:00:00 | 00:00:00 | 00:00:00 | |
| IW2NTF | 2026-09-03 12:18:44 | 46.36641 | 7.54681 | 301° | 18km/h | 24511m | 4.2m/s | -50.8°C | 3.4% | 0hPa | 2.6V | 08:30:00 | 01:45:45 | 00:00:00 | |
| DO3MHA-12 | 2026-09-03 12:18:43 | 46.36650 | 7.54665 | 316° | 20km/h | 24528m | 4.8m/s | -50.8°C | 3.4% | 0hPa | 2.7V | 00:00:00 | 01:45:48 | 00:00:00 | |
| DO3MHA-11 | 2026-09-03 12:18:42 | 46.36646 | 7.54671 | 313° | 18km/h | 24522m | 5.8m/s | -50.9°C | 3.4% | 0hPa | 2.6V | 00:00:00 | 01:45:47 | 08:30:00 | |
| DK5PH-5 | 2026-09-03 12:18:41 | 46.36643 | 7.54676 | 306° | 16km/h | 24517m | 5.5m/s | -50.8°C | 3.4% | 0hPa | 2.6V | 00:00:00 | 01:45:46 | 08:30:00 | |
| DF7PN | 2026-09-03 12:18:35 | 46.36621 | 7.54715 | 310° | 15km/h | 24482m | 5.8m/s | -50.8°C | 0.8% | -1.0hPa | 2.7V | 00:00:00 | 00:00:00 | 00:00:00 | |
| DB0UT-7 | 2026-09-03 12:18:34 | 46.36621 | 7.54715 | 311° | 16km/h | 24482m | 5.7m/s | -50.8°C | 3.4% | 0hPa | 2.7V | 00:00:00 | 01:45:39 | 00:00:00 | |
| DO3MHA-12 | 2026-09-03 12:18:33 | 46.36619 | 7.54719 | 307° | 13km/h | 24476m | 5.9m/s | -50.8°C | 3.4% | 0hPa | 2.7V | 00:00:00 | 01:45:38 | 00:00:00 | |
| DO3MHA-11 | 2026-09-03 12:18:32 | 46.36618 | 7.54722 | 298° | 15km/h | 24471m | 5.3m/s | -50.7°C | 3.4% | 0hPa | 2.7V | 00:00:00 | 01:45:37 | 00:00:00 | |
| IW2NTF | 2026-09-03 12:18:31 | 46.36616 | 7.54727 | 307° | 11km/h | 24459m | 6m/s | -50.7°C | 3.5% | 0hPa | 2.7V | 08:30:00 | 01:45:35 | 00:00:00 | |
| IW2NTF | 2026-09-03 12:18:24 | 46.36579 | 7.54772 | 324° | 18km/h | 24407m | 6m/s | -50.7°C | 3.3% | 0hPa | 2.6V | 08:30:00 | 01:45:25 | 00:00:00 | |
| DO3MHA-11 | 2026-09-03 12:18:22 | 46.36589 | 7.54762 | 325° | 15km/h | 24416m | 4.3m/s | -50.7°C | 3.4% | 0hPa | 2.7V | 00:00:00 | 01:45:27 | 00:00:00 | |
| DO3MHA-11 | 2026-09-03 12:18:12 | 46.36566 | 7.54800 | 288° | 22km/h | 24364m | 5.8m/s | -50.5°C | 3.4% | 0hPa | 2.7V | 00:00:00 | 01:45:17 | 00:00:00 | |
| IW2NTF | 2026-09-03 12:18:11 | 46.36559 | 7.54817 | 308° | 22km/h | 24349m | 5.5m/s | -50.6°C | 3.4% | 0hPa | 2.6V | 08:30:00 | 01:45:14 | 00:00:00 | |
| DK5PH-5 | 2026-09-03 12:18:10 | 46.36562 | 7.54811 | 301° | 16km/h | 24354m | 4.0m/s | -50.5°C | 3.4% | 0hPa | 2.6V | 00:00:00 | 01:45:15 | 00:00:00 | |
| DL2OL | 2026-09-03 12:18:06 | 46.36551 | 7.54832 | 312° | 31km/h | 24339m | 4.2m/s | -50.6°C | 0.8% | 0hPa | 2.6V | 00:00:00 | 00:00:00 | 00:00:00 | |
| DF7PN | 2026-09-03 12:18:04 | 46.36541 | 7.54868 | 257° | 20km/h | 24319m | 4.8m/s | -50.5°C | 0.8% | -1.0hPa | 2.6V | 00:00:00 | 00:00:00 | 00:00:00 | |
| IW2NTF | 2026-09-03 12:18:04 | 46.36546 | 7.54881 | 254° | 2km/h | 24298m | 4.8m/s | -50.5°C | 3.3% | 0hPa | 2.7V | 08:30:00 | 01:45:04 | 00:00:00 | |
| DO3MHA-11 | 2026-09-03 12:18:02 | 46.36542 | 7.54874 | 242° | 11km/h | 24315m | 4.7m/s | -50.5°C | 3.3% | 0hPa | 2.6V | 00:00:00 | 01:45:07 | 00:00:00 | |
| DO3MHA-11 | 2026-09-03 12:17:52 | 46.36538 | 7.54902 | 315° | 18km/h | 24262m | 5.5m/s | -50.4°C | 3.3% | 0hPa | 2.6V | 00:00:00 | 01:44:57 | 00:00:00 | |
| IW2NTF | 2026-09-03 12:17:51 | 46.36528 | 7.54921 | 293° | 24km/h | 24245m | 5.9m/s | -50.6°C | 3.4% | 0hPa | 2.6V | 08:30:00 | 01:44:54 | 00:00:00 | |
| IW2NTF | 2026-09-03 12:17:43 | 46.36514 | 7.54975 | 296° | 13km/h | 24184m | 4.9m/s | -50.5°C | 3.3% | 0hPa | 2.7V | 08:30:00 | 01:44:42 | 00:00:00 | |
| DO3MHA-11 | 2026-09-03 12:17:42 | 46.36521 | 7.54954 | 299° | 15km/h | 24211m | 5.9m/s | -50.5°C | 3.4% | 0hPa | 2.7V | 00:00:00 | 01:44:47 | 00:00:00 | |
| DK5PH-5 | 2026-09-03 12:17:40 | 46.36519 | 7.54962 | 296° | 15km/h | 24201m | 4.4m/s | -50.5°C | 3.4% | 0hPa | 2.6V | 00:00:00 | 01:44:45 | 00:00:00 | |
| DB0UT-7 | 2026-09-03 12:17:34 | 46.36512 | 7.54992 | 268° | 18km/h | 24169m | 4.3m/s | -50.5°C | 3.4% | 0hPa | 2.6V | 00:00:00 | 01:44:39 | 08:30:00 | |
| DF7PN | 2026-09-03 12:17:33 | 46.36512 | 7.55005 | 265° | 15km/h | 24159m | 6.6m/s | -50.6°C | 0.8% | -1.0hPa | 2.6V | 00:00:00 | 00:00:00 | 00:00:00 | |
| IW2NTF | 2026-09-03 12:17:32 | 46.36516 | 7.55029 | 254° | 16km/h | 24131m | 4.8m/s | -50.5°C | 3.4% | 0hPa | 2.6V | 08:30:00 | 01:44:32 | 00:00:00 | |
| IW2NTF | 2026-09-03 12:17:22 | 46.36533 | 7.55085 | 242° | 18km/h | 24076m | 4.6m/s | -50.6°C | 3.5% | 0hPa | 2.6V | 08:30:00 | 01:44:22 | 00:00:00 | |
| DO3MHA-11 | 2026-09-03 12:17:21 | 46.36523 | 7.55060 | 246° | 20km/h | 24099m | 5.1m/s | -50.5°C | 3.4% | 0hPa | 2.7V | 00:00:00 | 01:44:26 | 00:00:00 | |
| IW2NTF | 2026-09-03 12:17:12 | 46.36548 | 7.55157 | 249° | 26km/h | 24023m | 4.9m/s | -50.3°C | 3.4% | 0hPa | 2.7V | 08:30:00 | 01:44:12 | 00:00:00 | |
| DO3MHA-11 | 2026-09-03 12:17:11 | 46.36542 | 7.55124 | 261° | 22km/h | 24044m | 4.6m/s | -50.3°C | 3.4% | 0hPa | 2.6V | 00:00:00 | 01:44:16 | 08:30:00 | |
| DB0UT-7 | 2026-09-03 12:17:04 | 46.36556 | 7.55178 | 231° | 13km/h | 24008m | 4.8m/s | -50.2°C | 3.3% | 0hPa | 2.6V | 00:00:00 | 00:00:00 | 00:00:00 | |
| IW2NTF | 2026-09-03 12:17:02 | 46.36574 | 7.55209 | 246° | 15km/h | 23969m | 6m/s | -50.2°C | 3.3% | 0hPa | 2.6V | 08:30:00 | 01:44:02 | 00:00:00 | |
| DO3MHA-11 | 2026-09-03 12:17:01 | 46.36565 | 7.55194 | 228° | 16km/h | 23991m | 4.9m/s | -50.2°C | 3.4% | 0hPa | 2.6V | 00:00:00 | 01:44:06 | 00:00:00 | |
| DL2OL | 2026-09-03 12:16:58 | 46.36572 | 7.55205 | 237° | 11km/h | 23974m | 4.2m/s | -50.2°C | 0.9% | 0hPa | 2.6V | 00:00:00 | 00:00:00 | 00:00:00 | |
| IW2NTF | 2026-09-03 12:16:52 | 46.36595 | 7.55249 | 217° | 13km/h | 23919m | 4.3m/s | -50.1°C | 3.3% | 0hPa | 2.6V | 08:30:00 | 01:43:52 | 00:00:00 | |
| DO3MHA-11 | 2026-09-03 12:16:51 | 46.36585 | 7.55240 | 210° | 11km/h | 23939m | 4.9m/s | -50.1°C | 3.3% | 0hPa | 2.6V | 00:00:00 | 01:43:56 | 00:00:00 | |
| DK5PH-5 | 2026-09-03 12:16:48 | 46.36592 | 7.55246 | 220° | 11km/h | 23924m | 4.8m/s | -50.1°C | 3.3% | 0hPa | 2.6V | 00:00:00 | 01:43:53 | 00:00:00 | |
| IW2NTF | 2026-09-03 12:16:41 | 46.36611 | 7.55268 | 130° | 2km/h | 23866m | 4.5m/s | -50.2°C | 3.4% | 0hPa | 2.6V | 08:30:00 | 01:43:42 | 00:00:00 | |
| DO3MHA-11 | 2026-09-03 12:16:41 | 46.36608 | 7.55261 | 241° | 5km/h | 23887m | 4.3m/s | -50.1°C | 3.3% | 0hPa | 2.6V | 00:00:00 | 01:43:46 | 00:00:00 | |
| DB0UT-7 | 2026-09-03 12:16:34 | 46.36613 | 7.55267 | 203° | 9km/h | 23851m | 4.1m/s | -50.2°C | 3.4% | 0hPa | 2.7V | 00:00:00 | 01:43:39 | 00:00:00 | |
| IW2NTF | 2026-09-03 12:16:32 | 46.36623 | 7.55268 | 224° | 7km/h | 23815m | 4.4m/s | -50°C | 3.3% | 0hPa | 2.7V | 08:30:00 | 01:43:32 | 00:00:00 | |
| DO3MHA-11 | 2026-09-03 12:16:31 | 46.36617 | 7.55267 | 153° | 5km/h | 23835m | 5.3m/s | -50.2°C | 3.3% | 0hPa | 2.6V | 00:00:00 | 01:43:36 | 00:00:00 | |
| DF7PN | 2026-09-03 12:16:30 | 46.36619 | 7.55266 | 165° | 5km/h | 23830m | 4.3m/s | -50.1°C | 0.8% | -1.0hPa | 2.6V | 00:00:00 | 00:00:00 | 00:00:00 | |
| IW2NTF | 2026-09-03 12:16:21 | 46.36639 | 7.55270 | 154° | 9km/h | 23763m | 4.7m/s | -50.2°C | 3.3% | 0hPa | 2.6V | 08:30:00 | 01:43:22 | 00:00:00 | |
| DO3MHA-11 | 2026-09-03 12:16:21 | 46.36631 | 7.55271 | 209° | 9km/h | 23784m | 4.7m/s | -50.1°C | 3.3% | 0hPa | 2.6V | 00:00:00 | 01:43:26 | 00:00:00 | |
| IW2NTF | 2026-09-03 12:16:12 | 46.36670 | 7.55287 | 221° | 18km/h | 23712m | 4.4m/s | -50.6°C | 3.4% | 0hPa | 2.6V | 08:30:00 | 01:43:12 | 00:00:00 | |
| DO3MHA-11 | 2026-09-03 12:16:11 | 46.36655 | 7.55274 | 197° | 13km/h | 23732m | 4.3m/s | -50.4°C | 3.3% | 0hPa | 2.6V | 00:00:00 | 01:43:16 | 00:00:00 | |
| DK5PH-5 | 2026-09-03 12:16:09 | 46.36662 | 7.55279 | 212° | 15km/h | 23723m | 5.4m/s | -50.5°C | 3.4% | 0hPa | 2.7V | 00:00:00 | 01:43:14 | 00:00:00 | |
| DL2OL | 2026-09-03 12:16:08 | 46.36663 | 7.55279 | 213° | 18km/h | 23723m | 5.4m/s | -50.5°C | 0.9% | 0hPa | 2.7V | 00:00:00 | 00:00:00 | 00:00:00 | |
| DO3MHA-12 | 2026-09-03 12:16:07 | 46.36670 | 7.55287 | 222° | 11km/h | 23713m | 4.3m/s | -50.5°C | 3.4% | 0hPa | 2.7V | 00:00:00 | 01:43:12 | 00:00:00 | |
| DB0UT-7 | 2026-09-03 12:16:04 | 46.36679 | 7.55295 | 185° | 11km/h | 23697m | 4.7m/s | -50.5°C | 3.4% | 0hPa | 2.7V | 00:00:00 | 00:00:00 | 00:00:00 | |
| IW2NTF | 2026-09-03 12:16:01 | 46.36675 | 7.55303 | 286° | 9km/h | 23658m | 4.6m/s | -50.4°C | 3.3% | 0hPa | 2.7V | 08:30:00 | 01:43:02 | 00:00:00 | |
| DF7PN | 2026-09-03 12:15:59 | 46.36677 | 7.55298 | 325° | 7km/h | 23670m | 6.4m/s | -50.5°C | 0.8% | -1.0hPa | 2.6V | 00:00:00 | 00:00:00 | 00:00:00 | |
| DO3MHA-12 | 2026-09-03 12:15:54 | 46.36673 | 7.55317 | 277° | 16km/h | 23643m | 4.6m/s | -50.4°C | 3.4% | 0hPa | 2.6V | 00:00:00 | 01:42:59 | 08:30:00 | |
| DO3MHA-11 | 2026-09-03 12:15:51 | 46.36674 | 7.55331 | 247° | 11km/h | 23628m | 5.8m/s | -50.3°C | 3.3% | 0hPa | 2.6V | 00:00:00 | 01:42:56 | 00:00:00 | |
| IW2NTF | 2026-09-03 12:15:51 | 46.36669 | 7.55332 | 354° | 13km/h | 23607m | 4.4m/s | -50.4°C | 3.3% | 0hPa | 2.7V | 08:30:00 | 01:42:52 | 00:00:00 | |
| DO3MHA-11 | 2026-09-03 12:15:42 | 46.36654 | 7.55354 | 294° | 13km/h | 23575m | 3.9m/s | -50.5°C | 3.3% | 0hPa | 2.6V | 00:00:00 | 01:42:46 | 08:30:00 | |
| IW2NTF | 2026-09-03 12:15:41 | 46.36653 | 7.55371 | 155° | 5km/h | 23556m | 5.1m/s | -50.7°C | 3.4% | 0hPa | 2.6V | 08:30:00 | 01:42:42 | 00:00:00 | |
| DO3MHA-12 | 2026-09-03 12:15:39 | 46.36651 | 7.55366 | 274° | 9km/h | 23567m | 4.8m/s | -50.6°C | 3.3% | 0hPa | 2.7V | 00:00:00 | 01:42:44 | 00:00:00 | |
| DB0UT-7 | 2026-09-03 12:15:34 | 46.36652 | 7.55361 | 46° | 13km/h | 23541m | 4.4m/s | -50.8°C | 3.3% | 0hPa | 2.7V | 00:00:00 | 01:42:39 | 00:00:00 | |
| IW2NTF | 2026-09-03 12:15:31 | 46.36637 | 7.55392 | 279° | 20km/h | 23506m | 5.5m/s | -51.3°C | 3.5% | 0hPa | 2.7V | 08:30:00 | 01:42:32 | 00:00:00 | |
| DO3MHA-11 | 2026-09-03 12:15:31 | 46.36643 | 7.55362 | 314° | 9km/h | 23528m | 5.6m/s | -51.0°C | 3.3% | 0hPa | 2.6V | 00:00:00 | 01:42:36 | 00:00:00 | |
| DF7PN | 2026-09-03 12:15:28 | 46.36638 | 7.55384 | 278° | 24km/h | 23511m | 5.2m/s | -51.3°C | 0.9% | -1.0hPa | 2.6V | 00:00:00 | 00:00:00 | 00:00:00 | |
| IW2NTF | 2026-09-03 12:15:21 | 46.36641 | 7.55418 | 278° | 13km/h | 23454m | 4.5m/s | -51.5°C | 3.5% | 0hPa | 2.6V | 08:30:00 | 01:42:22 | 00:00:00 | |
| DO3MHA-12 | 2026-09-03 12:15:21 | 46.36639 | 7.55408 | 197° | 11km/h | 23474m | 4.7m/s | -51.5°C | 3.6% | 0hPa | 2.6V | 00:00:00 | 01:42:26 | 00:00:00 | |
| DH7VM-15 | 2026-09-03 12:15:20 | 46.36640 | 7.55409 | 223° | 5km/h | 23469m | 4.9m/s | 0°C | 0% | 0hPa | 2.6V | 00:00:00 | 00:00:00 | 00:00:00 | |
| DO3MHA-11 | 2026-09-03 12:15:17 | 46.36640 | 7.55418 | 279° | 13km/h | 23454m | 4.5m/s | -51.5°C | 3.5% | 0hPa | 2.6V | 00:00:00 | 01:42:22 | 00:00:00 | |
| IW2NTF | 2026-09-03 12:15:11 | 46.36655 | 7.55454 | 182° | 9km/h | 23394m | 5.8m/s | -51.7°C | 3.5% | 0hPa | 2.6V | 08:30:00 | 01:42:11 | 00:00:00 | |
| DO3MHA-12 | 2026-09-03 12:15:11 | 46.36644 | 7.55447 | 249° | 11km/h | 23421m | 4.7m/s | -51.6°C | 3.6% | 0hPa | 2.7V | 00:00:00 | 01:42:16 | 00:00:00 | |
| DO3MHA-11 | 2026-09-03 12:15:07 | 46.36653 | 7.55454 | 187° | 9km/h | 23400m | 4.7m/s | -51.6°C | 3.6% | 0hPa | 2.6V | 00:00:00 | 01:42:12 | 00:00:00 | |
| IW2NTF | 2026-09-03 12:15:01 | 46.36678 | 7.55460 | 159° | 11km/h | 23343m | 5.8m/s | -51.8°C | 3.6% | 0hPa | 2.6V | 08:30:00 | 01:42:01 | 00:00:00 | |
| DO3MHA-12 | 2026-09-03 12:14:59 | 46.36673 | 7.55462 | 200° | 13km/h | 23358m | 4.7m/s | -51.6°C | 3.6% | 0hPa | 2.7V | 00:00:00 | 01:42:04 | 00:00:00 | |
| DO3MHA-11 | 2026-09-03 12:14:57 | 46.36675 | 7.55461 | 159° | 16km/h | 23349m | 5.1m/s | -51.6°C | 3.5% | 0hPa | 2.7V | 00:00:00 | 01:42:02 | 00:00:00 | |
| DL2OL | 2026-09-03 12:14:56 | 46.36675 | 7.55461 | 159° | 7km/h | 23349m | 5.1m/s | -51.7°C | 1.0% | 0hPa | 2.7V | 00:00:00 | 00:00:00 | 00:00:00 | |
| IW2NTF | 2026-09-03 12:14:51 | 46.36718 | 7.55438 | 136° | 18km/h | 23289m | 5.1m/s | -51.9°C | 3.5% | 0hPa | 2.7V | 08:30:00 | 01:41:51 | 00:00:00 | |
| DO3MHA-12 | 2026-09-03 12:14:49 | 46.36704 | 7.55447 | 163° | 20km/h | 23306m | 5.7m/s | -51.8°C | 3.6% | 0hPa | 2.6V | 00:00:00 | 01:41:54 | 00:00:00 | |
| DO3MHA-11 | 2026-09-03 12:14:47 | 46.36714 | 7.55442 | 150° | 20km/h | 23295m | 6.2m/s | -51.8°C | 3.6% | 0hPa | 2.6V | 00:00:00 | 01:41:52 | 00:00:00 | |
| IW2NTF | 2026-09-03 12:14:41 | 46.36756 | 7.55391 | 152° | 20km/h | 23236m | 4.7m/s | -51.9°C | 3.6% | 0hPa | 2.6V | 08:30:00 | 01:41:41 | 00:00:00 | |
| DO3MHA-12 | 2026-09-03 12:14:39 | 46.36743 | 7.55401 | 143° | 18km/h | 23253m | 4.7m/s | -51.8°C | 3.6% | 0hPa | 2.6V | 00:00:00 | 01:41:44 | 00:00:00 | |
| DK5PH-5 | 2026-09-03 12:14:37 | 46.36751 | 7.55394 | 154° | 24km/h | 23242m | 6.0m/s | -51.8°C | 3.7% | 0hPa | 2.7V | 00:00:00 | 01:41:42 | 00:00:00 | |
| DB0UT-7 | 2026-09-03 12:14:34 | 46.36764 | 7.55383 | 138° | 22km/h | 23227m | 6.0m/s | -51.8°C | 3.6% | 0hPa | 2.7V | 00:00:00 | 01:41:39 | 00:00:00 | |
| IW2NTF | 2026-09-03 12:14:31 | 46.36787 | 7.55327 | 114° | 24km/h | 23186m | 4.1m/s | -51.9°C | 3.5% | 0hPa | 2.6V | 08:30:00 | 01:41:31 | 00:00:00 | |
| DO3MHA-12 | 2026-09-03 12:14:29 | 46.36779 | 7.55351 | 122° | 24km/h | 23201m | 4.4m/s | -51.8°C | 3.5% | 0hPa | 2.7V | 00:00:00 | 01:41:34 | 00:00:00 | |
| DO3MHA-11 | 2026-09-03 12:14:27 | 46.36785 | 7.55335 | 113° | 24km/h | 23190m | 4.9m/s | -51.8°C | 3.5% | 0hPa | 2.7V | 00:00:00 | 01:41:32 | 00:00:00 | |
| DF7PN | 2026-09-03 12:14:26 | 46.36787 | 7.55327 | 114° | 24km/h | 23186m | 4.1m/s | -51.9°C | 0.9% | -1.0hPa | 2.7V | 00:00:00 | 00:00:00 | 00:00:00 | |
| IW2NTF | 2026-09-03 12:14:21 | 46.36816 | 7.55255 | 106° | 26km/h | 23135m | 5.2m/s | -52.3°C | 3.6% | 0hPa | 2.7V | 08:30:00 | 01:41:21 | 00:00:00 | |
| DO3MHA-12 | 2026-09-03 12:14:19 | 46.36812 | 7.55278 | 110° | 22km/h | 23150m | 4.3m/s | -52.0°C | 3.6% | 0hPa | 2.7V | 00:00:00 | 01:41:24 | 00:00:00 | |
| DO3MHA-11 | 2026-09-03 12:14:17 | 46.36814 | 7.55263 | 106° | 22km/h | 23141m | 6.1m/s | -52.2°C | 3.6% | 0hPa | 2.7V | 00:00:00 | 01:41:22 | 00:00:00 | |
| IW2NTF | 2026-09-03 12:14:10 | 46.36826 | 7.55169 | 71° | 16km/h | 23074m | 4.4m/s | -52.7°C | 3.8% | 0hPa | 2.7V | 08:30:00 | 01:41:09 | 00:00:00 | |
| DO3MHA-12 | 2026-09-03 12:14:09 | 46.36823 | 7.55198 | 110° | 20km/h | 23099m | 5.6m/s | -52.6°C | 3.7% | 0hPa | 2.6V | 00:00:00 | 01:41:14 | 08:30:00 | |
| DL2OL | 2026-09-03 12:14:08 | 46.36825 | 7.55191 | 112° | 20km/h | 23094m | 4.4m/s | -52.6°C | 1.0% | 0hPa | 2.6V | 00:00:00 | 00:00:00 | 00:00:00 | |
| DK5PH-5 | 2026-09-03 12:14:07 | 46.36827 | 7.55185 | 106° | 11km/h | 23090m | 4.9m/s | -52.6°C | 3.8% | 0hPa | 2.6V | 00:00:00 | 01:41:12 | 00:00:00 | |
| DB0UT-7 | 2026-09-03 12:14:04 | 46.36826 | 7.55169 | 72° | 13km/h | 23075m | 4.4m/s | -52.6°C | 3.8% | 0hPa | 2.6V | 00:00:00 | 00:00:00 | 00:00:00 | |
| IW2NTF | 2026-09-03 12:13:59 | 46.36816 | 7.55096 | 116° | 13km/h | 23022m | 4.4m/s | -52.8°C | 3.8% | 0hPa | 2.6V | 08:30:00 | 01:40:59 | 00:00:00 | |
| DF7PN | 2026-09-03 12:13:55 | 46.36814 | 7.55101 | 104° | 15km/h | 23027m | 5.2m/s | -52.8°C | 0.9% | -1.0hPa | 2.6V | 00:00:00 | 00:00:00 | 00:00:00 | |
| IW2NTF | 2026-09-03 12:13:49 | 46.36806 | 7.55069 | 49° | 13km/h | 22970m | 3.9m/s | -52.8°C | 3.8% | 0hPa | 2.6V | 08:30:00 | 01:40:49 | 00:00:00 | |
| DH7VM-15 | 2026-09-03 12:13:49 | 46.36814 | 7.55086 | 55° | 7km/h | 22997m | 5.9m/s | 0°C | 0% | 0hPa | 2.7V | 00:00:00 | 00:00:00 | 00:00:00 | |
| DO3MHA-11 | 2026-09-03 12:13:47 | 46.36812 | 7.55080 | 63° | 13km/h | 22986m | 4.7m/s | -52.6°C | 3.8% | 0hPa | 2.7V | 00:00:00 | 01:40:52 | 00:00:00 | |
| DO3MHA-12 | 2026-09-03 12:13:39 | 46.36801 | 7.55048 | 70° | 47km/h | 22944m | 5.4m/s | -52.8°C | 3.8% | 0hPa | 2.7V | 00:00:00 | 01:40:44 | 00:00:00 | |
| DO3MHA-11 | 2026-09-03 12:13:37 | 46.36799 | 7.55042 | 72° | 5km/h | 22934m | 5.2m/s | -52.8°C | 3.8% | 0hPa | 2.6V | 00:00:00 | 01:40:42 | 00:00:00 | |
| IW2NTF | 2026-09-03 12:13:36 | 46.36799 | 7.55039 | 356° | 2km/h | 22917m | 4.8m/s | -52.8°C | 3.8% | 0hPa | 2.7V | 08:30:00 | 01:40:39 | 00:00:00 | |
| DB0UT-7 | 2026-09-03 12:13:34 | 46.36799 | 7.55039 | 357° | 9km/h | 22917m | 4.8m/s | -52.8°C | 3.8% | 0hPa | 2.6V | 00:00:00 | 01:40:39 | 00:00:00 | |
| DL2OL | 2026-09-03 12:13:32 | 46.36798 | 7.55040 | 354° | 4km/h | 22912m | 6.0m/s | -52.8°C | 1.1% | 0hPa | 2.6V | 00:00:00 | 00:00:00 | 00:00:00 | |
| DK5PH-5 | 2026-09-03 12:13:31 | 46.36795 | 7.55039 | 19° | 11km/h | 22902m | 4.7m/s | -52.8°C | 3.8% | 0hPa | 2.6V | 00:00:00 | 01:40:36 | 00:00:00 | |
| IW2NTF | 2026-09-03 12:13:29 | 46.36781 | 7.55028 | 348° | 5km/h | 22865m | 6.3m/s | -52.6°C | 3.7% | 0hPa | 2.6V | 08:30:00 | 01:40:29 | 00:00:00 | |
| DO3MHA-11 | 2026-09-03 12:13:27 | 46.36788 | 7.55031 | 35° | 13km/h | 22880m | 5.8m/s | -52.6°C | 3.7% | 0hPa | 2.6V | 00:00:00 | 01:40:32 | 00:00:00 | |
| DF7PN | 2026-09-03 12:13:24 | 46.36781 | 7.55028 | 348° | 4km/h | 22865m | 6.3m/s | -52.6°C | 0.9% | -1.0hPa | 2.6V | 00:00:00 | 00:00:00 | 00:00:00 | |
| IW2NTF | 2026-09-03 12:13:18 | 46.36767 | 7.55060 | 15° | 11km/h | 22810m | 6.6m/s | -53°C | 3.8% | 0hPa | 2.6V | 08:30:00 | 01:40:19 | 00:00:00 | |
| DO3MHA-11 | 2026-09-03 12:13:17 | 46.36772 | 7.55058 | 304° | 9km/h | 22826m | 5.7m/s | -52.6°C | 3.7% | 0hPa | 2.7V | 00:00:00 | 01:40:22 | 00:00:00 | |
| IW2NTF | 2026-09-03 12:13:08 | 46.36762 | 7.55083 | 249° | 15km/h | 22759m | 5.6m/s | -52.9°C | 3.8% | 0hPa | 2.7V | 08:30:00 | 01:40:09 | 00:00:00 | |
| DO3MHA-11 | 2026-09-03 12:13:07 | 46.36760 | 7.55067 | 256° | 11km/h | 22774m | 6.3m/s | -52.8°C | 3.8% | 0hPa | 2.6V | 00:00:00 | 01:40:12 | 00:00:00 | |
| DB0NH | 2026-09-03 12:13:05 | 46.36761 | 7.55078 | 258° | 9km/h | 22764m | 4.0m/s | 0°C | 0% | 0hPa | 2.7V | 00:00:00 | 01:40:10 | 00:00:00 | |
| DB0UT-7 | 2026-09-03 12:13:04 | 46.36762 | 7.55083 | 250° | 9km/h | 22759m | 5.5m/s | -52.8°C | 3.8% | 0hPa | 2.7V | 00:00:00 | 00:00:00 | 08:30:00 | |
| IW2NTF | 2026-09-03 12:12:58 | 46.36774 | 7.55120 | 243° | 15km/h | 22707m | 5.3m/s | -52.7°C | 3.8% | 0hPa | 2.7V | 08:30:00 | 01:39:59 | 00:00:00 | |
| DF7PN | 2026-09-03 12:12:53 | 46.36775 | 7.55125 | 250° | 13km/h | 22702m | 5.8m/s | -52.7°C | 1.0% | -1.0hPa | 2.6V | 00:00:00 | 00:00:00 | 00:00:00 | |
| IW2NTF | 2026-09-03 12:12:48 | 46.36783 | 7.55149 | 180° | 2km/h | 22655m | 5m/s | -52.7°C | 3.8% | 0hPa | 2.6V | 08:30:00 | 01:39:49 | 00:00:00 | |
| DO3MHA-11 | 2026-09-03 12:12:47 | 46.36782 | 7.55148 | 236° | 5km/h | 22671m | 6.1m/s | -52.7°C | 3.8% | 0hPa | 2.7V | 00:00:00 | 01:39:52 | 00:00:00 | |
| IW2NTF | 2026-09-03 12:12:38 | 46.36796 | 7.55164 | 197° | 9km/h | 22603m | 4m/s | -52.6°C | 3.7% | 0hPa | 2.7V | 08:30:00 | 01:39:39 | 00:00:00 | |
| DO3MHA-11 | 2026-09-03 12:12:37 | 46.36791 | 7.55159 | 243° | 5km/h | 22619m | 5.1m/s | -52.7°C | 3.8% | 0hPa | 2.6V | 00:00:00 | 01:39:42 | 08:30:00 | |
| DB0UT-7 | 2026-09-03 12:12:34 | 46.36796 | 7.55164 | 198° | 5km/h | 22603m | 3.9m/s | -52.6°C | 3.7% | 0hPa | 2.6V | 00:00:00 | 01:39:39 | 00:00:00 | |
| DB0NH | 2026-09-03 12:12:33 | 46.36798 | 7.55165 | 191° | 5km/h | 22598m | 5.8m/s | 0°C | 0% | 0hPa | 2.6V | 00:00:00 | 01:39:38 | 00:00:00 | |
| IW2NTF | 2026-09-03 12:12:28 | 46.36806 | 7.55156 | 58° | 4km/h | 22548m | 4.2m/s | -52.5°C | 3.8% | 0hPa | 2.6V | 08:30:00 | 01:39:29 | 00:00:00 | |
| DO3MHA-11 | 2026-09-03 12:12:27 | 46.36806 | 7.55160 | 141° | 4km/h | 22565m | 5.0m/s | -52.5°C | 3.8% | 0hPa | 2.6V | 00:00:00 | 01:39:32 | 00:00:00 | |
| DK5PH-5 | 2026-09-03 12:12:25 | 46.36806 | 7.55157 | 62° | 7km/h | 22553m | 5.5m/s | -52.5°C | 3.7% | 0hPa | 2.6V | 00:00:00 | 01:39:30 | 08:30:00 | |
| DL2OL | 2026-09-03 12:12:24 | 46.36806 | 7.55156 | 60° | 4km/h | 22548m | 4.2m/s | -52.5°C | 1.1% | 0hPa | 2.6V | 00:00:00 | 00:00:00 | 00:00:00 | |
| DF7PN | 2026-09-03 12:12:22 | 46.36806 | 7.55154 | 144° | 2km/h | 22538m | 5.9m/s | -52.5°C | 1.0% | -1.0hPa | 2.6V | 00:00:00 | 00:00:00 | 00:00:00 | |
| IW2NTF | 2026-09-03 12:12:18 | 46.36810 | 7.55149 | 127° | 5km/h | 22495m | 4.4m/s | -52.2°C | 3.7% | 0hPa | 2.6V | 08:30:00 | 01:39:19 | 00:00:00 | |
| DO3MHA-11 | 2026-09-03 12:12:17 | 46.36808 | 7.55152 | 66° | 7km/h | 22511m | 4.7m/s | -52.2°C | 3.7% | 0hPa | 2.7V | 00:00:00 | 01:39:22 | 00:00:00 | |
| DH7VM-15 | 2026-09-03 12:12:07 | 46.36812 | 7.55129 | 134° | 13km/h | 22458m | 4.0m/s | 0°C | 0% | 0hPa | 2.7V | 00:00:00 | 00:00:00 | 00:00:00 | |
| IW2NTF | 2026-09-03 12:12:06 | 46.36816 | 7.55118 | 98° | 11km/h | 22443m | 5m/s | -52.4°C | 3.7% | 0hPa | 2.7V | 08:30:00 | 01:39:09 | 00:00:00 | |
| DB0UT-7 | 2026-09-03 12:12:04 | 46.36817 | 7.55118 | 99° | 11km/h | 22443m | 5.0m/s | -52.4°C | 3.7% | 0hPa | 2.6V | 00:00:00 | 00:00:00 | 00:00:00 | |
| IW2NTF | 2026-09-03 12:11:59 | 46.36816 | 7.55074 | 138° | 9km/h | 22389m | 4.4m/s | -52.3°C | 3.7% | 0hPa | 2.6V | 08:30:00 | 01:38:59 | 00:00:00 | |
| DF7PN | 2026-09-03 12:11:51 | 46.36821 | 7.55071 | 168° | 4km/h | 22369m | 5.3m/s | -52.4°C | 1.0% | -1.0hPa | 2.6V | 00:00:00 | 00:00:00 | 00:00:00 | |
| IW2NTF | 2026-09-03 12:11:47 | 46.36826 | 7.55053 | 93° | 15km/h | 22338m | 4.6m/s | -52.4°C | 3.7% | 0hPa | 2.6V | 08:30:00 | 01:38:49 | 00:00:00 | |
| IW2NTF | 2026-09-03 12:11:36 | 46.36848 | 7.55030 | 156° | 11km/h | 22286m | 4.8m/s | -52.5°C | 3.7% | 0hPa | 2.7V | 08:30:00 | 01:38:39 | 00:00:00 | |
| DB0UT-7 | 2026-09-03 12:11:34 | 46.36847 | 7.55030 | 157° | 13km/h | 22286m | 4.8m/s | -52.4°C | 3.7% | 0hPa | 2.7V | 00:00:00 | 01:38:39 | 00:00:00 | |
| DO3MHA-11 | 2026-09-03 12:11:27 | 46.36856 | 7.55012 | 145° | 13km/h | 22250m | 5.5m/s | -52.6°C | 3.6% | 0hPa | 2.6V | 00:00:00 | 01:38:32 | 00:00:00 | |
| IW2NTF | 2026-09-03 12:11:26 | 46.36863 | 7.55010 | 188° | 11km/h | 22235m | 6m/s | -52.9°C | 3.8% | 0hPa | 2.7V | 08:30:00 | 01:38:29 | 00:00:00 | |
| DK5PH-5 | 2026-09-03 12:11:25 | 46.36860 | 7.55010 | 183° | 13km/h | 22240m | 4.0m/s | -52.7°C | 3.7% | 0hPa | 2.6V | 00:00:00 | 01:38:30 | 00:00:00 | |
| DF7PN | 2026-09-03 12:11:20 | 46.36880 | 7.55013 | 171° | 11km/h | 22209m | 4.6m/s | -52.9°C | 1.0% | -1.0hPa | 2.6V | 00:00:00 | 00:00:00 | 00:00:00 | |
| IW2NTF | 2026-09-03 12:11:16 | 46.36895 | 7.55007 | 166° | 9km/h | 22183m | 5.7m/s | -52.9°C | 3.8% | 0hPa | 2.6V | 08:30:00 | 01:38:19 | 00:00:00 | |
| DO3MHA-11 | 2026-09-03 12:11:11 | 46.36903 | 7.55006 | 184° | 15km/h | 22170m | 6.0m/s | -53.0°C | 3.7% | 0hPa | 2.7V | 00:00:00 | 01:38:16 | 00:00:00 | |
| IW2NTF | 2026-09-03 12:11:05 | 46.36929 | 7.55000 | 143° | 15km/h | 22137m | 5.4m/s | -53.1°C | 3.9% | 0hPa | 2.7V | 08:30:00 | 01:38:09 | 00:00:00 | |
| DB0UT-7 | 2026-09-03 12:11:04 | 46.36929 | 7.55000 | 144° | 16km/h | 22137m | 5.3m/s | -53.1°C | 3.9% | 0hPa | 2.6V | 00:00:00 | 00:00:00 | 00:00:00 | |
| DO3MHA-11 | 2026-09-03 12:10:59 | 46.36944 | 7.54982 | 140° | 11km/h | 22113m | 4.7m/s | -53.0°C | 3.8% | 0hPa | 2.6V | 00:00:00 | 01:38:04 | 00:00:00 | |
| IW2NTF | 2026-09-03 12:10:56 | 46.36962 | 7.54966 | 150° | 20km/h | 22089m | 4.5m/s | -53.3°C | 3.7% | 0hPa | 2.6V | 08:30:00 | 01:37:59 | 00:00:00 | |
| DF7PN | 2026-09-03 12:10:49 | 46.36978 | 7.54941 | 109° | 16km/h | 22059m | 4.9m/s | -53.4°C | 1.0% | -1.0hPa | 2.6V | 00:00:00 | 00:00:00 | 00:00:00 | |
| IW2NTF | 2026-09-03 12:10:45 | 46.36982 | 7.54914 | 110° | 20km/h | 22039m | 5.5m/s | -53.6°C | 3.9% | 0hPa | 2.6V | 08:30:00 | 01:37:49 | 00:00:00 | |
| DO3MHA-11 | 2026-09-03 12:10:44 | 46.36982 | 7.54914 | 111° | 20km/h | 22039m | 5.5m/s | -53.6°C | 3.9% | 0hPa | 2.6V | 00:00:00 | 01:37:49 | 08:30:00 | |
| IW2NTF | 2026-09-03 12:10:36 | 46.36997 | 7.54850 | 95° | 16km/h | 21990m | 5m/s | -54°C | 4% | 0hPa | 2.7V | 08:30:00 | 01:37:39 | 00:00:00 | |
| DB0UT-7 | 2026-09-03 12:10:34 | 46.36997 | 7.54849 | 96° | 15km/h | 21990m | 4.9m/s | -53.9°C | 4.0% | 0hPa | 2.6V | 00:00:00 | 01:37:39 | 00:00:00 | |
| IW2NTF | 2026-09-03 12:10:25 | 46.36997 | 7.54775 | 88° | 13km/h | 21941m | 4.2m/s | -53.8°C | 3.8% | 0hPa | 2.6V | 08:30:00 | 01:37:29 | 00:00:00 | |
| DK5PH-5 | 2026-09-03 12:10:25 | 46.36997 | 7.54781 | 86° | 13km/h | 21946m | 4.9m/s | -53.9°C | 3.9% | 0hPa | 2.7V | 00:00:00 | 01:37:30 | 00:00:00 | |
| DO3MHA-11 | 2026-09-03 12:10:24 | 46.36997 | 7.54775 | 89° | 11km/h | 21941m | 4.2m/s | -53.8°C | 3.8% | 0hPa | 2.7V | 00:00:00 | 01:37:29 | 00:00:00 | |
| IW2NTF | 2026-09-03 12:10:19 | 46.37003 | 7.54738 | 90° | 11km/h | 21893m | 5.4m/s | -54.3°C | 3.9% | 0hPa | 2.7V | 08:30:00 | 01:37:19 | 00:00:00 | |
| DF7PN | 2026-09-03 12:10:18 | 46.37001 | 7.54749 | 117° | 11km/h | 21909m | 5.3m/s | -54.0°C | 1.0% | -1.0hPa | 2.7V | 00:00:00 | 00:00:00 | 00:00:00 | |
| DO3MHA-11 | 2026-09-03 12:10:14 | 46.37003 | 7.54738 | 91° | 11km/h | 21893m | 5.3m/s | -54.2°C | 3.9% | 0hPa | 2.7V | 00:00:00 | 01:37:19 | 00:00:00 | |
| DL2OL | 2026-09-03 12:10:11 | 46.37003 | 7.54730 | 84° | 11km/h | 21884m | 4.2m/s | -54.5°C | 1.1% | 0hPa | 2.6V | 00:00:00 | 00:00:00 | 00:00:00 | |
| IW2NTF | 2026-09-03 12:10:05 | 46.37002 | 7.54705 | 126° | 13km/h | 21843m | 5.6m/s | -54.8°C | 4.1% | 0hPa | 2.6V | 08:30:00 | 01:37:09 | 00:00:00 | |
| DB0UT-7 | 2026-09-03 12:10:04 | 46.37001 | 7.54705 | 127° | 11km/h | 21843m | 5.6m/s | -54.8°C | 4.1% | 0hPa | 2.6V | 00:00:00 | 00:00:00 | 00:00:00 | |
| IW2NTF | 2026-09-03 12:09:59 | 46.37019 | 7.54667 | 130° | 9km/h | 21793m | 3.7m/s | -55.1°C | 4.3% | 0hPa | 2.6V | 08:30:00 | 01:36:59 | 00:00:00 | |
| DF7PN | 2026-09-03 12:09:47 | 46.37017 | 7.54627 | 64° | 16km/h | 21752m | 5.7m/s | -54.8°C | 1.1% | -1.0hPa | 2.7V | 00:00:00 | 00:00:00 | 00:00:00 | |
| IW2NTF | 2026-09-03 12:09:45 | 46.37013 | 7.54617 | 58° | 13km/h | 21743m | 5m/s | -54.7°C | 4.3% | 0hPa | 2.7V | 08:30:00 | 01:36:49 | 00:00:00 | |
| DO3MHA-11 | 2026-09-03 12:09:44 | 46.37013 | 7.54617 | 59° | 7km/h | 21743m | 4.9m/s | -54.7°C | 4.3% | 0hPa | 2.7V | 00:00:00 | 01:36:49 | 00:00:00 | |
| IW2NTF | 2026-09-03 12:09:37 | 46.37001 | 7.54597 | 57° | 13km/h | 21692m | 5.7m/s | -54.4°C | 4.1% | 0hPa | 2.6V | 08:30:00 | 01:36:39 | 00:00:00 | |
| DO3MHA-11 | 2026-09-03 12:09:34 | 46.37001 | 7.54597 | 58° | 13km/h | 21693m | 5.7m/s | -54.4°C | 4.1% | 0hPa | 2.7V | 00:00:00 | 01:36:39 | 00:00:00 | |
| IW2NTF | 2026-09-03 12:09:25 | 46.36982 | 7.54572 | 166° | 2km/h | 21643m | 3.9m/s | -54.4°C | 4.2% | 0hPa | 2.7V | 08:30:00 | 01:36:29 | 00:00:00 | |
| DO3MHA-11 | 2026-09-03 12:09:24 | 46.36982 | 7.54572 | 167° | 7km/h | 21644m | 3.9m/s | -54.3°C | 4.2% | 0hPa | 2.7V | 00:00:00 | 01:36:29 | 00:00:00 | |
| IW2NTF | 2026-09-03 12:09:17 | 46.36978 | 7.54549 | 16° | 4km/h | 21597m | 6.1m/s | -54.4°C | 4% | 0hPa | 2.7V | 08:30:00 | 01:36:19 | 00:00:00 | |
| DF7PN | 2026-09-03 12:09:16 | 46.36979 | 7.54550 | 68° | 4km/h | 21603m | 5.8m/s | -54.4°C | 1.1% | -1.0hPa | 2.7V | 00:00:00 | 00:00:00 | 00:00:00 | |
| DO3MHA-11 | 2026-09-03 12:09:14 | 46.36978 | 7.54549 | 17° | 4km/h | 21597m | 6.1m/s | -54.4°C | 4.0% | 0hPa | 2.7V | 00:00:00 | 01:36:19 | 08:30:00 | |
| IW2NTF | 2026-09-03 12:09:05 | 46.36981 | 7.54540 | 120° | 7km/h | 21548m | 4.8m/s | -54.5°C | 4.2% | 0hPa | 2.6V | 08:30:00 | 01:36:09 | 00:00:00 | |
| DO3MHA-11 | 2026-09-03 12:09:04 | 46.36981 | 7.54540 | 121° | 5km/h | 21548m | 4.7m/s | -54.5°C | 4.2% | 0hPa | 2.7V | 00:00:00 | 01:36:09 | 00:00:00 | |
| IW2NTF | 2026-09-03 12:08:57 | 46.36976 | 7.54528 | 109° | 5km/h | 21500m | 4.9m/s | -54.6°C | 4% | 0hPa | 2.7V | 08:30:00 | 01:35:59 | 00:00:00 | |
| DO3MHA-11 | 2026-09-03 12:08:54 | 46.36976 | 7.54527 | 110° | 11km/h | 21500m | 4.9m/s | -54.6°C | 4.0% | 0hPa | 2.7V | 00:00:00 | 01:35:59 | 00:00:00 | |
| DL2OL | 2026-09-03 12:08:53 | 46.36976 | 7.54527 | 110° | 5km/h | 21500m | 4.9m/s | -54.6°C | 1.2% | 0hPa | 2.7V | 00:00:00 | 00:00:00 | 00:00:00 | |
| IW2NTF | 2026-09-03 12:08:45 | 46.36983 | 7.54483 | 98° | 13km/h | 21448m | 4m/s | -54.5°C | 4% | 0hPa | 2.7V | 08:30:00 | 01:35:48 | 00:00:00 | |
| DF7PN | 2026-09-03 12:08:45 | 46.36983 | 7.54487 | 105° | 11km/h | 21452m | 3.3m/s | -54.5°C | 1.1% | -1.0hPa | 2.6V | 00:00:00 | 00:00:00 | 00:00:00 | |
| DO3MHA-11 | 2026-09-03 12:08:44 | 46.36982 | 7.54487 | 106° | 16km/h | 21452m | 3.2m/s | -54.5°C | 4.0% | 0hPa | 2.6V | 00:00:00 | 01:35:49 | 00:00:00 | |
| IW2NTF | 2026-09-03 12:08:37 | 46.36985 | 7.54426 | 51° | 11km/h | 21401m | 5.1m/s | -55.4°C | 4.2% | 0hPa | 2.6V | 08:30:00 | 01:35:38 | 00:00:00 | |
| DB0UT-7 | 2026-09-03 12:08:34 | 46.36987 | 7.54429 | 56° | 13km/h | 21406m | 4.2m/s | -55.3°C | 4.2% | 0hPa | 2.7V | 00:00:00 | 01:35:39 | 08:30:00 | |
| DO3MHA-11 | 2026-09-03 12:08:32 | 46.36984 | 7.54423 | 50° | 11km/h | 21396m | 5.8m/s | -55.4°C | 4.3% | 0hPa | 2.7V | 00:00:00 | 01:35:37 | 00:00:00 | |
| IW2NTF | 2026-09-03 12:08:25 | 46.36981 | 7.54383 | 88° | 20km/h | 21352m | 5.3m/s | -55.4°C | 4.4% | 0hPa | 2.7V | 08:30:00 | 01:35:28 | 00:00:00 | |
| DO3MHA-11 | 2026-09-03 12:08:22 | 46.36980 | 7.54376 | 80° | 15km/h | 21347m | 4.3m/s | -55.3°C | 4.4% | 0hPa | 2.6V | 00:00:00 | 01:35:27 | 00:00:00 | |
| IW2NTF | 2026-09-03 12:08:17 | 46.36977 | 7.54331 | 106° | 16km/h | 21306m | 5.7m/s | -55.1°C | 4.3% | 0hPa | 2.6V | 08:30:00 | 01:35:18 | 00:00:00 | |
| DF7PN | 2026-09-03 12:08:13 | 46.36977 | 7.54331 | 106° | 15km/h | 21306m | 5.7m/s | -55.2°C | 1.2% | -1.0hPa | 2.7V | 00:00:00 | 00:00:00 | 00:00:00 | |
| DO3MHA-11 | 2026-09-03 12:08:12 | 46.36979 | 7.54325 | 111° | 13km/h | 21301m | 4.7m/s | -55.0°C | 4.3% | 0hPa | 2.7V | 00:00:00 | 01:35:17 | 00:00:00 | |
| IW2NTF | 2026-09-03 12:08:05 | 46.36971 | 7.54290 | 31° | 13km/h | 21256m | 4.1m/s | -54.8°C | 4.3% | 0hPa | 2.6V | 08:30:00 | 01:35:08 | 00:00:00 | |
| DB0UT-7 | 2026-09-03 12:08:04 | 46.36973 | 7.54292 | 31° | 9km/h | 21262m | 5.8m/s | -54.8°C | 4.3% | 0hPa | 2.7V | 00:00:00 | 00:00:00 | 00:00:00 | |
| DO3MHA-11 | 2026-09-03 12:08:02 | 46.36968 | 7.54288 | 36° | 9km/h | 21252m | 4.1m/s | -54.7°C | 4.3% | 0hPa | 2.7V | 00:00:00 | 01:35:07 | 00:00:00 | |
| DL2OL | 2026-09-03 12:07:59 | 46.36966 | 7.54284 | 94° | 5km/h | 21242m | 5.1m/s | -54.7°C | 1.3% | 0hPa | 2.7V | 00:00:00 | 00:00:00 | 00:00:00 | |
| IW2NTF | 2026-09-03 12:07:57 | 46.36963 | 7.54265 | 26° | 7km/h | 21209m | 4.4m/s | -54.5°C | 4.2% | 0hPa | 2.7V | 08:30:00 | 01:34:58 | 00:00:00 | |
| DO3MHA-11 | 2026-09-03 12:07:52 | 46.36960 | 7.54264 | 15° | 9km/h | 21205m | 3.8m/s | -54.4°C | 4.2% | 0hPa | 2.6V | 00:00:00 | 01:34:57 | 00:00:00 | |
| IW2NTF | 2026-09-03 12:07:45 | 46.36941 | 7.54263 | 50° | 7km/h | 21161m | 4.6m/s | -54.1°C | 4.1% | 0hPa | 2.6V | 08:30:00 | 01:34:48 | 00:00:00 | |
| DF7PN | 2026-09-03 12:07:43 | 46.36939 | 7.54261 | 57° | 7km/h | 21157m | 3.9m/s | -54.1°C | 1.1% | -1.0hPa | 2.7V | 00:00:00 | 00:00:00 | 00:00:00 | |
| DO3MHA-11 | 2026-09-03 12:07:42 | 46.36939 | 7.54261 | 58° | 7km/h | 21157m | 3.8m/s | -54.1°C | 4.1% | 0hPa | 2.7V | 00:00:00 | 01:34:47 | 08:30:00 | |
| IW2NTF | 2026-09-03 12:07:37 | 46.36927 | 7.54251 | 349° | 4km/h | 21112m | 4.8m/s | -53.9°C | 4.1% | 0hPa | 2.7V | 08:30:00 | 01:34:38 | 00:00:00 | |
| DB0UT-7 | 2026-09-03 12:07:34 | 46.36928 | 7.54251 | 353° | 5km/h | 21117m | 5.9m/s | -53.9°C | 4.1% | 0hPa | 2.6V | 00:00:00 | 01:34:39 | 00:00:00 | |
| DO3MHA-11 | 2026-09-03 12:07:32 | 46.36926 | 7.54251 | 4° | 4km/h | 21107m | 3.9m/s | -53.9°C | 4.0% | 0hPa | 2.6V | 00:00:00 | 01:34:37 | 00:00:00 | |
| DK5PH-5 | 2026-09-03 12:07:31 | 46.36925 | 7.54251 | 28° | 7km/h | 21103m | 6.0m/s | -53.8°C | 4.0% | 0hPa | 2.6V | 00:00:00 | 01:34:36 | 00:00:00 | |
| IW2NTF | 2026-09-03 12:07:25 | 46.36924 | 7.54251 | 326° | 5km/h | 21061m | 4.2m/s | -54.1°C | 4% | 0hPa | 2.6V | 08:30:00 | 01:34:28 | 00:00:00 | |
| DO3MHA-11 | 2026-09-03 12:07:22 | 46.36923 | 7.54252 | 326° | 5km/h | 21058m | 3.9m/s | -54.1°C | 4.0% | 0hPa | 2.6V | 00:00:00 | 01:34:27 | 00:00:00 | |
| IW2NTF | 2026-09-03 12:07:17 | 46.36932 | 7.54262 | 207° | 7km/h | 21013m | 5.3m/s | -54.2°C | 4% | 0hPa | 2.6V | 08:30:00 | 01:34:18 | 00:00:00 | |
| DO3MHA-11 | 2026-09-03 12:07:12 | 46.36934 | 7.54263 | 207° | 9km/h | 21008m | 3.8m/s | -54.1°C | 4.0% | 0hPa | 2.6V | 00:00:00 | 01:34:17 | 00:00:00 | |
| DF7PN | 2026-09-03 12:07:11 | 46.36936 | 7.54265 | 200° | 9km/h | 21004m | 4.2m/s | -54.1°C | 1.0% | -1.0hPa | 2.7V | 00:00:00 | 00:00:00 | 00:00:00 | |
| IW2NTF | 2026-09-03 12:07:05 | 46.36952 | 7.54254 | 134° | 7km/h | 20963m | 5.8m/s | -54.1°C | 4% | 0hPa | 2.7V | 08:30:00 | 01:34:08 | 00:00:00 | |
| DB0UT-7 | 2026-09-03 12:07:04 | 46.36951 | 7.54256 | 146° | 9km/h | 20969m | 5.4m/s | -54.1°C | 4.0% | 0hPa | 2.6V | 00:00:00 | 00:00:00 | 00:00:00 | |
| DO3MHA-11 | 2026-09-03 12:07:02 | 46.36953 | 7.54253 | 119° | 5km/h | 20958m | 4.6m/s | -54.1°C | 4.1% | 0hPa | 2.7V | 00:00:00 | 01:34:07 | 00:00:00 | |
| DK5PH-5 | 2026-09-03 12:07:01 | 46.36954 | 7.54251 | 131° | 9km/h | 20953m | 5.6m/s | -54.2°C | 4.1% | 0hPa | 2.7V | 00:00:00 | 01:34:06 | 00:00:00 | |
| IW2NTF | 2026-09-03 12:06:57 | 46.36959 | 7.54235 | 111° | 7km/h | 20913m | 4.2m/s | -54.2°C | 4.2% | 0hPa | 2.6V | 08:30:00 | 01:33:58 | 00:00:00 | |
| DO3MHA-11 | 2026-09-03 12:06:52 | 46.36960 | 7.54232 | 103° | 20km/h | 20908m | 5.2m/s | -54.1°C | 4.1% | 0hPa | 2.7V | 00:00:00 | 01:33:57 | 00:00:00 | |
| IW2NTF | 2026-09-03 12:06:45 | 46.36957 | 7.54199 | 84° | 16km/h | 20862m | 3.5m/s | -53.9°C | 4.1% | 0hPa | 2.7V | 08:30:00 | 01:33:48 | 00:00:00 | |
| DF7PN | 2026-09-03 12:06:40 | 46.36957 | 7.54184 | 87° | 9km/h | 20849m | 3.6m/s | -53.8°C | 1.1% | -1.0hPa | 2.6V | 00:00:00 | 00:00:00 | 00:00:00 | |
| IW2NTF | 2026-09-03 12:06:37 | 46.36952 | 7.54156 | 96° | 11km/h | 20814m | 4.3m/s | -53.5°C | 4.1% | 0hPa | 2.6V | 08:30:00 | 01:33:38 | 00:00:00 | |
| DB0UT-7 | 2026-09-03 12:06:34 | 46.36952 | 7.54160 | 97° | 7km/h | 20818m | 4.3m/s | -53.5°C | 4.0% | 0hPa | 2.6V | 00:00:00 | 01:33:39 | 00:00:00 | |
| DK5PH-5 | 2026-09-03 12:06:31 | 46.36952 | 7.54147 | 82° | 15km/h | 20804m | 4.6m/s | -53.4°C | 4.1% | 0hPa | 2.6V | 00:00:00 | 01:33:36 | 00:00:00 | |
| IW2NTF | 2026-09-03 12:06:24 | 46.36946 | 7.54123 | 74° | 9km/h | 20764m | 5.4m/s | -53.3°C | 3.9% | 0hPa | 2.6V | 08:30:00 | 01:33:28 | 00:00:00 | |
| IW2NTF | 2026-09-03 12:06:18 | 46.36939 | 7.54096 | 49° | 5km/h | 20712m | 4.8m/s | -53.1°C | 3.9% | 0hPa | 2.7V | 08:30:00 | 01:33:18 | 00:00:00 | |
| DF7PN | 2026-09-03 12:06:09 | 46.36936 | 7.54098 | 302° | 4km/h | 20692m | 3.8m/s | -53.2°C | 1.0% | -1.0hPa | 2.6V | 00:00:00 | 00:00:00 | 00:00:00 | |
| IW2NTF | 2026-09-03 12:06:04 | 46.36931 | 7.54099 | 134° | 2km/h | 20661m | 4.9m/s | -53°C | 4% | 0hPa | 2.6V | 08:30:00 | 01:33:08 | 00:00:00 | |
| DB0UT-7 | 2026-09-03 12:06:04 | 46.36931 | 7.54099 | 39° | 9km/h | 20667m | 5.3m/s | -53.0°C | 4.0% | 0hPa | 2.7V | 00:00:00 | 00:00:00 | 00:00:00 | |
| IW2NTF | 2026-09-03 12:05:58 | 46.36937 | 7.54082 | 108° | 5km/h | 20610m | 5.7m/s | -52.9°C | 3.8% | 0hPa | 2.7V | 08:30:00 | 01:32:58 | 00:00:00 | |
| IW2NTF | 2026-09-03 12:05:45 | 46.36961 | 7.54055 | 135° | 11km/h | 20550m | 4.9m/s | -52.9°C | 3.8% | 0hPa | 2.7V | 08:30:00 | 01:32:46 | 00:00:00 | |
| DF7PN | 2026-09-03 12:05:38 | 46.36969 | 7.54047 | 144° | 13km/h | 20534m | 5.9m/s | -53.1°C | 1.0% | -1.0hPa | 2.6V | 00:00:00 | 00:00:00 | 00:00:00 | |
| IW2NTF | 2026-09-03 12:05:36 | 46.36995 | 7.54028 | 147° | 20km/h | 20498m | 6m/s | -53.5°C | 3.8% | 0hPa | 2.6V | 08:30:00 | 01:32:36 | 00:00:00 | |
| DB0UT-7 | 2026-09-03 12:05:34 | 46.36982 | 7.54036 | 162° | 27km/h | 20513m | 5.5m/s | -53.2°C | 3.8% | 0hPa | 2.6V | 00:00:00 | 01:32:39 | 00:00:00 | |
| IW2NTF | 2026-09-03 12:05:26 | 46.37041 | 7.53980 | 144° | 29km/h | 20449m | 5.6m/s | -54.1°C | 3.9% | 0hPa | 2.7V | 08:30:00 | 01:32:26 | 00:00:00 | |
| IW2NTF | 2026-09-03 12:05:16 | 46.37093 | 7.53893 | 115° | 33km/h | 20400m | 5.1m/s | -54.5°C | 3.9% | 0hPa | 2.7V | 08:30:00 | 01:32:16 | 00:00:00 | |
| DL2OL | 2026-09-03 12:05:11 | 46.37092 | 7.53893 | 116° | 33km/h | 20400m | 5.1m/s | -54.5°C | 1.2% | 0hPa | 2.6V | 00:00:00 | 00:00:00 | 00:00:00 | |
| DF7PN | 2026-09-03 12:05:07 | 46.37111 | 7.53851 | 129° | 35km/h | 20381m | 4.1m/s | -55.2°C | 1.2% | -1.0hPa | 2.6V | 00:00:00 | 00:00:00 | 00:00:00 | |
| DB0UT-7 | 2026-09-03 12:05:04 | 46.37126 | 7.53818 | 115° | 33km/h | 20366m | 4.8m/s | -55.5°C | 4.1% | 0hPa | 2.6V | 00:00:00 | 00:00:00 | 00:00:00 | |
| IW2NTF | 2026-09-03 12:05:01 | 46.37138 | 7.53764 | 103° | 26km/h | 20343m | 3.7m/s | -56.4°C | 4.5% | 0hPa | 2.6V | 08:30:00 | 01:32:04 | 00:00:00 | |
| IW2NTF | 2026-09-03 12:04:51 | 46.37156 | 7.53635 | 91° | 42km/h | 20297m | 3.3m/s | -56.6°C | 4.6% | 0hPa | 2.6V | 08:30:00 | 01:31:54 | 00:00:00 | |
| IW2NTF | 2026-09-03 12:04:41 | 46.37164 | 7.53523 | 107° | 35km/h | 20250m | 4.7m/s | -56.7°C | 4.5% | 0hPa | 2.7V | 08:30:00 | 01:31:44 | 00:00:00 | |
| DF7PN | 2026-09-03 12:04:36 | 46.37168 | 7.53486 | 88° | 31km/h | 20236m | 4.5m/s | 0°C | -1.0% | -1.0hPa | 2.6V | 00:00:00 | 00:00:00 | 00:00:00 | |
| DB0UT-7 | 2026-09-03 12:04:34 | 46.37166 | 7.53465 | 77° | 18km/h | 20227m | 4.5m/s | -56.6°C | 4.4% | 0hPa | 2.6V | 00:00:00 | 01:31:39 | 00:00:00 | |
| IW2NTF | 2026-09-03 12:04:31 | 46.37159 | 7.53426 | 100° | 20km/h | 20202m | 5.5m/s | -57°C | 4.6% | 0hPa | 2.6V | 08:30:00 | 01:31:34 | 00:00:00 | |
| DL2OL | 2026-09-03 12:04:26 | 46.37163 | 7.53412 | 114° | 22km/h | 20193m | 4.7m/s | -57.0°C | 1.4% | 0hPa | 2.6V | 00:00:00 | 00:00:00 | 00:00:00 | |
| IW2NTF | 2026-09-03 12:04:21 | 46.37158 | 7.53358 | 46° | 24km/h | 20155m | 3.1m/s | -57.3°C | 4.6% | 0hPa | 2.6V | 08:30:00 | 01:31:24 | 00:00:00 | |
| IW2NTF | 2026-09-03 12:04:11 | 46.37147 | 7.53298 | 70° | 13km/h | 20111m | 5.7m/s | -57.4°C | 4.8% | 0hPa | 2.6V | 08:30:00 | 01:31:14 | 00:00:00 | |
| DB0UT-7 | 2026-09-03 12:04:04 | 46.37133 | 7.53284 | 17° | 11km/h | 20088m | 4.6m/s | -57.4°C | 4.7% | 0hPa | 2.6V | 00:00:00 | 00:00:00 | 08:30:00 | |
| IW2NTF | 2026-09-03 12:04:01 | 46.37117 | 7.53274 | 67° | 7km/h | 20062m | 6.1m/s | -57°C | 4.7% | 0hPa | 2.6V | 08:30:00 | 01:31:04 | 00:00:00 | |
| IW2NTF | 2026-09-03 12:03:54 | 46.37100 | 7.53258 | 13° | 18km/h | 20010m | 4.3m/s | -56.9°C | 4.7% | 0hPa | 2.7V | 08:30:00 | 01:30:54 | 00:00:00 | |
| IW2NTF | 2026-09-03 12:03:43 | 46.37105 | 7.53233 | 284° | 5km/h | 19945m | 5m/s | -56.3°C | 4.5% | 0hPa | 2.7V | 08:30:00 | 01:30:42 | 00:00:00 | |
| DL2OL | 2026-09-03 12:03:42 | 46.37095 | 7.53239 | 136° | 9km/h | 19980m | 6.9m/s | -56.6°C | 1.4% | 0hPa | 2.6V | 00:00:00 | 00:00:00 | 00:00:00 | |
| DB0UT-7 | 2026-09-03 12:03:34 | 46.37106 | 7.53240 | 235° | 11km/h | 19931m | 6.6m/s | -56.4°C | 4.6% | 0hPa | 2.6V | 00:00:00 | 01:30:39 | 00:00:00 | |
| IW2NTF | 2026-09-03 12:03:31 | 46.37120 | 7.53242 | 171° | 9km/h | 19892m | 6.2m/s | -56.4°C | 4.6% | 0hPa | 2.6V | 08:30:00 | 01:30:32 | 00:00:00 | |
| IW2NTF | 2026-09-03 12:03:18 | 46.37128 | 7.53268 | 213° | 9km/h | 19842m | 6.4m/s | -56.2°C | 4.6% | 0hPa | 2.7V | 08:30:00 | 01:30:22 | 00:00:00 | |
| IW2NTF | 2026-09-03 12:03:08 | 46.37146 | 7.53286 | 269° | 16km/h | 19789m | 5.9m/s | -55.7°C | 4.4% | 0hPa | 2.7V | 08:30:00 | 01:30:12 | 00:00:00 | |
| DB0UT-7 | 2026-09-03 12:03:04 | 46.37149 | 7.53303 | 236° | 18km/h | 19773m | 5.0m/s | -55.4°C | 4.4% | 0hPa | 2.6V | 00:00:00 | 00:00:00 | 00:00:00 | |
| IW2NTF | 2026-09-03 12:03:01 | 46.37185 | 7.53312 | 188° | 9km/h | 19736m | 5.4m/s | -55.5°C | 4.4% | 0hPa | 2.6V | 08:30:00 | 01:30:02 | 00:00:00 | |
| DL2OL | 2026-09-03 12:02:59 | 46.37170 | 7.53313 | 181° | 27km/h | 19752m | 3.1m/s | -55.4°C | 1.4% | 0hPa | 2.7V | 00:00:00 | 00:00:00 | 00:00:00 | |
| IW2NTF | 2026-09-03 12:02:48 | 46.37207 | 7.53346 | 176° | 16km/h | 19680m | 6.1m/s | -55.3°C | 4.4% | 0hPa | 2.7V | 08:30:00 | 01:29:52 | 00:00:00 | |
| IW2NTF | 2026-09-03 12:02:41 | 46.37260 | 7.53354 | 188° | 24km/h | 19619m | 5.8m/s | -55.2°C | 4.3% | 0hPa | 2.6V | 08:30:00 | 01:29:42 | 00:00:00 | |
| DB0UT-7 | 2026-09-03 12:02:34 | 46.37275 | 7.53357 | 190° | 26km/h | 19603m | 3.8m/s | -55.1°C | 4.3% | 0hPa | 2.7V | 00:00:00 | 01:29:39 | 00:00:00 | |
| IW2NTF | 2026-09-03 12:02:31 | 46.37318 | 7.53358 | 171° | 29km/h | 19567m | 5.4m/s | -55°C | 4.3% | 0hPa | 2.7V | 08:30:00 | 01:29:32 | 00:00:00 | |
| DH7VM-15 | 2026-09-03 12:02:29 | 46.37304 | 7.53360 | 177° | 27km/h | 19577m | 5.3m/s | 0°C | 0% | 0hPa | 2.6V | 00:00:00 | 00:00:00 | 00:00:00 | |
| IW2NTF | 2026-09-03 12:02:20 | 46.37380 | 7.53332 | 169° | 24km/h | 19516m | 4.7m/s | -55°C | 4.3% | 0hPa | 2.6V | 08:30:00 | 01:29:22 | 00:00:00 | |
| DL2OL | 2026-09-03 12:02:15 | 46.37386 | 7.53330 | 174° | 26km/h | 19512m | 3.8m/s | -55.0°C | 1.3% | 0hPa | 2.6V | 00:00:00 | 00:00:00 | 00:00:00 | |
| IW2NTF | 2026-09-03 12:02:11 | 46.37446 | 7.53308 | 150° | 27km/h | 19467m | 5.1m/s | -55.3°C | 4.3% | 0hPa | 2.6V | 08:30:00 | 01:29:12 | 00:00:00 | |
| DB0UT-7 | 2026-09-03 12:02:04 | 46.37464 | 7.53293 | 156° | 26km/h | 19452m | 4.0m/s | -55.3°C | 4.3% | 0hPa | 2.6V | 00:00:00 | 00:00:00 | 00:00:00 | |
| DF7PN | 2026-09-03 12:02:01 | 46.37570 | 7.53229 | 170° | 18km/h | 19372m | 6.1m/s | 0°C | -1.0% | -1.0hPa | 2.6V | 00:00:00 | 00:00:00 | 00:00:00 | |
| IW2NTF | 2026-09-03 12:02:00 | 46.37518 | 7.53276 | 165° | 35km/h | 19416m | 5m/s | -55.4°C | 4.3% | 0hPa | 2.6V | 08:30:00 | 01:29:02 | 00:00:00 | |
| IW2NTF | 2026-09-03 12:01:51 | 46.37575 | 7.53229 | 179° | 18km/h | 19366m | 4.2m/s | -55.6°C | 4.2% | 0hPa | 2.6V | 08:30:00 | 01:28:52 | 00:00:00 | |
| IW2NTF | 2026-09-03 12:01:40 | 46.37623 | 7.53196 | 127° | 20km/h | 19319m | 5.7m/s | -56°C | 4.4% | 0hPa | 2.7V | 08:30:00 | 01:28:42 | 00:00:00 | |
| DB0UT-7 | 2026-09-03 12:01:34 | 46.37631 | 7.53180 | 126° | 20km/h | 19303m | 4.7m/s | -55.9°C | 4.4% | 0hPa | 2.6V | 00:00:00 | 01:28:39 | 00:00:00 | |
| IW2NTF | 2026-09-03 12:01:31 | 46.37653 | 7.53152 | 134° | 18km/h | 19268m | 4.2m/s | -56.1°C | 4.4% | 0hPa | 2.6V | 08:30:00 | 01:28:32 | 00:00:00 | |
| IW2NTF | 2026-09-03 12:01:20 | 46.37698 | 7.53123 | 168° | 20km/h | 19219m | 5.1m/s | -56.4°C | 4.5% | 0hPa | 2.7V | 08:30:00 | 01:28:22 | 00:00:00 | |
| IW2NTF | 2026-09-03 12:01:11 | 46.37752 | 7.53083 | 145° | 24km/h | 19171m | 4m/s | -56.6°C | 4.6% | 0hPa | 2.6V | 08:30:00 | 01:28:12 | 00:00:00 | |
| DB0UT-7 | 2026-09-03 12:01:04 | 46.37764 | 7.53070 | 143° | 9km/h | 19157m | 3.6m/s | -56.5°C | 4.6% | 0hPa | 2.7V | 00:00:00 | 00:00:00 | 00:00:00 | |
| IW2NTF | 2026-09-03 12:00:59 | 46.37787 | 7.53053 | 148° | 13km/h | 19124m | 4.8m/s | -56.6°C | 4.5% | 0hPa | 2.7V | 08:30:00 | 01:28:02 | 00:00:00 | |
| DK5PH-5 | 2026-09-03 12:00:54 | 46.37796 | 7.53045 | 136° | 11km/h | 19111m | 3.9m/s | -56.7°C | 4.6% | 0hPa | 2.6V | 00:00:00 | 01:27:59 | 08:30:00 | |
| IW2NTF | 2026-09-03 12:00:51 | 46.37807 | 7.53018 | 92° | 0km/h | 19067m | 4m/s | -56.5°C | 4.6% | 0hPa | 2.6V | 08:30:00 | 01:27:50 | 00:00:00 | |
| DH7VM-15 | 2026-09-03 12:00:44 | 46.37807 | 7.53018 | 0° | 0km/h | 19068m | 4.0m/s | 0°C | 0% | 0hPa | 2.6V | 00:00:00 | 00:00:00 | 00:00:00 | |
| IW2NTF | 2026-09-03 12:00:40 | 46.37810 | 7.53006 | 137° | 9km/h | 19022m | 3.2m/s | -56.7°C | 4.7% | 0hPa | 2.6V | 08:30:00 | 01:27:40 | 00:00:00 | |
| DB0UT-7 | 2026-09-03 12:00:34 | 46.37812 | 7.53004 | 148° | 9km/h | 19018m | 5.0m/s | -56.7°C | 4.7% | 0hPa | 2.6V | 00:00:00 | 01:27:39 | 00:00:00 | |
| IW2NTF | 2026-09-03 12:00:30 | 46.37822 | 7.53016 | 216° | 7km/h | 18976m | 5.4m/s | -56.5°C | 4.6% | 0hPa | 2.6V | 08:30:00 | 01:27:30 | 00:00:00 | |
| IW2NTF | 2026-09-03 12:00:20 | 46.37842 | 7.53029 | 209° | 16km/h | 18930m | 5.1m/s | -56.1°C | 4.5% | 0hPa | 2.7V | 08:30:00 | 01:27:20 | 00:00:00 | |
| DK5PH-5 | 2026-09-03 12:00:15 | 46.37842 | 7.53029 | 210° | 20km/h | 18930m | 5.0m/s | -56.1°C | 4.5% | 0hPa | 2.6V | 00:00:00 | 01:27:20 | 00:00:00 | |
| IW2NTF | 2026-09-03 12:00:10 | 46.37870 | 7.53045 | 206° | 15km/h | 18882m | 5.4m/s | -55.9°C | 4.3% | 0hPa | 2.6V | 08:30:00 | 01:27:10 | 00:00:00 | |
| DB0UT-7 | 2026-09-03 12:00:04 | 46.37874 | 7.53047 | 203° | 24km/h | 18877m | 4.3m/s | -55.9°C | 4.3% | 0hPa | 2.7V | 00:00:00 | 00:00:00 | 00:00:00 | |
| IW2NTF | 2026-09-03 12:00:00 | 46.37922 | 7.53069 | 192° | 16km/h | 18834m | 3.4m/s | -56.1°C | 4.5% | 0hPa | 2.7V | 08:30:00 | 01:27:00 | 00:00:00 | |
| IW2NTF | 2026-09-03 11:59:50 | 46.37978 | 7.53082 | 190° | 26km/h | 18787m | 4.6m/s | -56.2°C | 4.4% | 0hPa | 2.6V | 08:30:00 | 01:26:50 | 00:00:00 | |
| DK5PH-5 | 2026-09-03 11:59:45 | 46.37977 | 7.53082 | 191° | 33km/h | 18787m | 4.6m/s | -56.1°C | 4.4% | 0hPa | 2.7V | 00:00:00 | 01:26:50 | 00:00:00 | |
| IW2NTF | 2026-09-03 11:59:41 | 46.38048 | 7.53093 | 182° | 37km/h | 18740m | 5.8m/s | -56.1°C | 4.5% | 0hPa | 2.7V | 08:30:00 | 01:26:40 | 00:00:00 | |
| DB0UT-7 | 2026-09-03 11:59:34 | 46.38057 | 7.53093 | 180° | 37km/h | 18735m | 4.6m/s | -56.1°C | 4.6% | 0hPa | 2.6V | 00:00:00 | 01:26:39 | 08:30:00 | |
| IW2NTF | 2026-09-03 11:59:30 | 46.38129 | 7.53077 | 167° | 29km/h | 18693m | 4.5m/s | -56.3°C | 4.4% | 0hPa | 2.7V | 08:30:00 | 01:26:30 | 00:00:00 | |
| IW2NTF | 2026-09-03 11:59:20 | 46.38223 | 7.53039 | 156° | 35km/h | 18644m | 5m/s | -56.3°C | 4.4% | 0hPa | 2.6V | 08:30:00 | 01:26:20 | 00:00:00 | |
| DK5PH-5 | 2026-09-03 11:59:15 | 46.38223 | 7.53038 | 157° | 37km/h | 18644m | 4.9m/s | 0°C | 0% | 0hPa | 2.7V | 00:00:00 | 01:26:20 | 00:00:00 | |
| IW2NTF | 2026-09-03 11:59:10 | 46.38307 | 7.52975 | 147° | 40km/h | 18597m | 5.4m/s | -56.5°C | 4.5% | 0hPa | 2.7V | 08:30:00 | 01:26:10 | 00:00:00 | |
| DB0UT-7 | 2026-09-03 11:59:04 | 46.38315 | 7.52968 | 150° | 35km/h | 18592m | 4.8m/s | -56.4°C | 4.5% | 0hPa | 2.6V | 00:00:00 | 00:00:00 | 00:00:00 | |
| IW2NTF | 2026-09-03 11:59:01 | 46.38383 | 7.52888 | 133° | 37km/h | 18550m | 4.4m/s | -56.8°C | 4.7% | 0hPa | 2.6V | 08:30:00 | 01:26:00 | 00:00:00 | |
| IW2NTF | 2026-09-03 11:58:48 | 46.38443 | 7.52797 | 132° | 37km/h | 18502m | 5.2m/s | -56.7°C | 4.6% | 0hPa | 2.7V | 08:30:00 | 01:25:50 | 00:00:00 | |
| DK5PH-5 | 2026-09-03 11:58:45 | 46.38442 | 7.52797 | 133° | 31km/h | 18502m | 5.1m/s | 0°C | 0% | 0hPa | 2.7V | 00:00:00 | 01:25:50 | 00:00:00 | |
| IW2NTF | 2026-09-03 11:58:35 | 46.38509 | 7.52705 | 130° | 27km/h | 18446m | 4.8m/s | -56.9°C | 4.5% | 0hPa | 2.7V | 08:30:00 | 01:25:38 | 00:00:00 | |
| DB0UT-7 | 2026-09-03 11:58:34 | 46.38504 | 7.52712 | 135° | 33km/h | 18451m | 4.8m/s | -56.8°C | 4.5% | 0hPa | 2.6V | 00:00:00 | 01:25:39 | 00:00:00 | |
| IW2NTF | 2026-09-03 11:58:28 | 46.38572 | 7.52634 | 147° | 31km/h | 18398m | 5.5m/s | -57.2°C | 4.8% | 0hPa | 2.6V | 08:30:00 | 01:25:28 | 00:00:00 | |
| IW2NTF | 2026-09-03 11:58:18 | 46.38641 | 7.52572 | 153° | 35km/h | 18350m | 4.3m/s | -57.4°C | 4.8% | 0hPa | 2.7V | 08:30:00 | 01:25:18 | 00:00:00 | |
| DK5PH-5 | 2026-09-03 11:58:15 | 46.38625 | 7.52583 | 150° | 44km/h | 18360m | 5.4m/s | 0°C | 0% | 0hPa | 2.7V | 00:00:00 | 01:25:20 | 00:00:00 | |
| IW2NTF | 2026-09-03 11:58:05 | 46.38724 | 7.52493 | 138° | 42km/h | 18303m | 5.3m/s | -57.4°C | 4.9% | 0hPa | 2.7V | 08:30:00 | 01:25:08 | 00:00:00 | |
| DB0UT-7 | 2026-09-03 11:58:04 | 46.38716 | 7.52503 | 139° | 49km/h | 18308m | 4.5m/s | -57.3°C | 4.9% | 0hPa | 2.7V | 00:00:00 | 00:00:00 | 00:00:00 | |
| IW2NTF | 2026-09-03 11:57:58 | 46.38811 | 7.52393 | 142° | 51km/h | 18256m | 4.1m/s | -57.4°C | 4.8% | 0hPa | 2.6V | 08:30:00 | 01:24:58 | 00:00:00 | |
| IW2NTF | 2026-09-03 11:57:46 | 46.38896 | 7.52249 | 134° | 51km/h | 18211m | 5.4m/s | -57.9°C | 5% | 0hPa | 2.7V | 08:30:00 | 01:24:48 | 00:00:00 | |
| IW2NTF | 2026-09-03 11:57:38 | 46.38982 | 7.52107 | 124° | 46km/h | 18165m | 5.3m/s | -57.8°C | 5% | 0hPa | 2.6V | 08:30:00 | 01:24:38 | 00:00:00 | |
| DB0UT-7 | 2026-09-03 11:57:34 | 46.38975 | 7.52122 | 125° | 40km/h | 18170m | 4.4m/s | -57.7°C | 5.0% | 0hPa | 2.7V | 00:00:00 | 01:24:39 | 00:00:00 | |
| IW2NTF | 2026-09-03 11:57:25 | 46.39056 | 7.51987 | 127° | 46km/h | 18120m | 3.2m/s | -57.9°C | 5.1% | 0hPa | 2.7V | 08:30:00 | 01:24:28 | 00:00:00 | |
| IW2NTF | 2026-09-03 11:57:15 | 46.39104 | 7.51854 | 115° | 35km/h | 18073m | 4.2m/s | -58°C | 5% | 0hPa | 2.7V | 08:30:00 | 01:24:18 | 00:00:00 | |
| IW2NTF | 2026-09-03 11:57:09 | 46.39147 | 7.51744 | 128° | 31km/h | 18025m | 3.3m/s | -58.1°C | 5.1% | 0hPa | 2.6V | 08:30:00 | 01:24:08 | 00:00:00 | |
| DB0UT-7 | 2026-09-03 11:57:04 | 46.39142 | 7.51753 | 130° | 27km/h | 18029m | 4.3m/s | -58.1°C | 5.1% | 0hPa | 2.7V | 00:00:00 | 00:00:00 | 00:00:00 | |
| IW2NTF | 2026-09-03 11:56:54 | 46.39178 | 7.51648 | 125° | 20km/h | 17978m | 4.6m/s | -58.8°C | 5.3% | 0hPa | 2.7V | 08:30:00 | 01:23:58 | 00:00:00 | |
| IW2NTF | 2026-09-03 11:56:48 | 46.39219 | 7.51592 | 122° | 27km/h | 17931m | 4.4m/s | -58.8°C | 5.4% | 0hPa | 2.6V | 08:30:00 | 01:23:48 | 00:00:00 | |
| IW2NTF | 2026-09-03 11:56:35 | 46.39256 | 7.51505 | 122° | 22km/h | 17884m | 4.7m/s | -59.1°C | 5.4% | 0hPa | 2.7V | 08:30:00 | 01:23:38 | 00:00:00 | |
| DB0UT-7 | 2026-09-03 11:56:34 | 46.39252 | 7.51512 | 124° | 27km/h | 17890m | 4.7m/s | -59.1°C | 5.5% | 0hPa | 2.7V | 00:00:00 | 01:23:39 | 00:00:00 | |
| IW2NTF | 2026-09-03 11:56:28 | 46.39299 | 7.51403 | 128° | 31km/h | 17840m | 5.3m/s | -59.2°C | 5.7% | 0hPa | 2.7V | 08:30:00 | 01:23:28 | 00:00:00 | |
| IW2NTF | 2026-09-03 11:56:18 | 46.39340 | 7.51328 | 121° | 31km/h | 17794m | 6.2m/s | -59.2°C | 5.6% | 0hPa | 2.6V | 08:30:00 | 01:23:18 | 00:00:00 | |
| DO3MHA-11 | 2026-09-03 11:56:13 | 46.39340 | 7.51328 | 122° | 29km/h | 17795m | 6.1m/s | -59.1°C | 5.6% | 0hPa | 2.6V | 00:00:00 | 01:23:18 | 00:00:00 | |
| IW2NTF | 2026-09-03 11:56:09 | 46.39383 | 7.51267 | 141° | 20km/h | 17743m | 4.3m/s | -59.1°C | 5.4% | 0hPa | 2.6V | 08:30:00 | 01:23:08 | 00:00:00 | |
| DB0UT-7 | 2026-09-03 11:56:04 | 46.39379 | 7.51271 | 151° | 35km/h | 17749m | 7.1m/s | -59.1°C | 5.4% | 0hPa | 2.7V | 00:00:00 | 00:00:00 | 00:00:00 | |
| IW2NTF | 2026-09-03 11:55:57 | 46.39447 | 7.51211 | 161° | 37km/h | 17694m | 3.6m/s | -59.7°C | 5.9% | 0hPa | 2.7V | 08:30:00 | 01:22:58 | 00:00:00 | |
| DH7VM-15 | 2026-09-03 11:55:53 | 46.39438 | 7.51216 | 161° | 35km/h | 17698m | 4.9m/s | 0°C | 0% | 0hPa | 2.6V | 00:00:00 | 00:00:00 | 00:00:00 | |
| IW2NTF | 2026-09-03 11:55:44 | 46.39532 | 7.51156 | 160° | 37km/h | 17648m | 5.1m/s | -59.8°C | 5.8% | 0hPa | 2.6V | 08:30:00 | 01:22:48 | 00:00:00 | |
| DL2OL | 2026-09-03 11:55:42 | 46.39532 | 7.51156 | 161° | 37km/h | 17649m | 5.1m/s | -59.8°C | 2.2% | 0hPa | 2.6V | 00:00:00 | 00:00:00 | 00:00:00 | |
| IW2NTF | 2026-09-03 11:55:39 | 46.39625 | 7.51124 | 157° | 37km/h | 17603m | 4.4m/s | -59.6°C | 5.8% | 0hPa | 2.6V | 08:30:00 | 01:22:38 | 00:00:00 | |
| DB0UT-7 | 2026-09-03 11:55:34 | 46.39616 | 7.51128 | 164° | 46km/h | 17608m | 5.5m/s | -59.5°C | 5.8% | 0hPa | 2.8V | 00:00:00 | 01:22:39 | 00:00:00 | |
| DH7VM-15 | 2026-09-03 11:55:32 | 46.39625 | 7.51123 | 159° | 38km/h | 17603m | 4.4m/s | 0°C | 0% | 0hPa | 2.8V | 00:00:00 | 00:00:00 | 00:00:00 | |
| IW2NTF | 2026-09-03 11:55:24 | 46.39725 | 7.51069 | 162° | 44km/h | 17558m | 3.8m/s | -59.3°C | 5.7% | 0hPa | 2.8V | 08:30:00 | 01:22:28 | 00:00:00 | |
| IW2NTF | 2026-09-03 11:55:17 | 46.39850 | 7.50989 | 160° | 53km/h | 17501m | 4.6m/s | -59.4°C | 5.6% | 0hPa | 2.7V | 08:30:00 | 01:22:16 | 00:00:00 | |
| IW2NTF | 2026-09-03 11:55:07 | 46.39965 | 7.50892 | 143° | 58km/h | 17455m | 5.8m/s | -59.6°C | 5.7% | 0hPa | 2.6V | 08:30:00 | 01:22:06 | 00:00:00 | |
| DB0UT-7 | 2026-09-03 11:55:04 | 46.39931 | 7.50926 | 148° | 58km/h | 17468m | 5.4m/s | -59.5°C | 5.8% | 0hPa | 2.7V | 00:00:00 | 00:00:00 | 08:30:00 | |
| IW2NTF | 2026-09-03 11:54:57 | 46.40082 | 7.50779 | 142° | 58km/h | 17410m | 4.5m/s | -59.6°C | 5.8% | 0hPa | 2.6V | 08:30:00 | 01:21:56 | 00:00:00 | |
| IW2NTF | 2026-09-03 11:54:47 | 46.40200 | 7.50629 | 134° | 60km/h | 17365m | 5.6m/s | -59.8°C | 5.9% | 0hPa | 2.8V | 08:30:00 | 01:21:46 | 00:00:00 | |
| IW2NTF | 2026-09-03 11:54:37 | 46.40302 | 7.50468 | 126° | 57km/h | 17318m | 4m/s | -59.9°C | 5.8% | 0hPa | 2.6V | 08:30:00 | 01:21:36 | 00:00:00 | |
| DB0UT-7 | 2026-09-03 11:54:32 | 46.40293 | 7.50484 | 129° | 49km/h | 17323m | 4.5m/s | -59.8°C | 5.9% | 0hPa | 2.6V | 00:00:00 | 01:21:37 | 00:00:00 | |
| IW2NTF | 2026-09-03 11:54:26 | 46.40392 | 7.50319 | 135° | 51km/h | 17274m | 3.8m/s | -60°C | 6.1% | 0hPa | 2.6V | 08:30:00 | 01:21:26 | 00:00:00 | |
| DL2OL | 2026-09-03 11:54:23 | 46.40373 | 7.50346 | 135° | 53km/h | 17284m | 5.5m/s | -60.0°C | 2.3% | 0hPa | 2.6V | 00:00:00 | 00:00:00 | 00:00:00 | |
| DO3MHA-11 | 2026-09-03 11:54:18 | 46.40418 | 7.50280 | 133° | 44km/h | 17262m | 4.4m/s | -60.0°C | 6.0% | 0hPa | 2.6V | 00:00:00 | 01:21:23 | 00:00:00 | |
| IW2NTF | 2026-09-03 11:54:15 | 46.40482 | 7.50173 | 128° | 44km/h | 17221m | 4.6m/s | -60.1°C | 5.8% | 0hPa | 2.6V | 08:30:00 | 01:21:14 | 00:00:00 | |
| IW2NTF | 2026-09-03 11:54:05 | 46.40564 | 7.50036 | 131° | 55km/h | 17177m | 4.6m/s | -60.1°C | 5.9% | 0hPa | 2.8V | 08:30:00 | 01:21:04 | 00:00:00 | |
| DO3MHA-11 | 2026-09-03 11:54:04 | 46.40521 | 7.50109 | 135° | 53km/h | 17199m | 3.8m/s | -60.1°C | 6.0% | 0hPa | 2.8V | 00:00:00 | 01:21:09 | 00:00:00 | |
| DB0UT-7 | 2026-09-03 11:54:02 | 46.40538 | 7.50081 | 130° | 57km/h | 17190m | 3.8m/s | -60.0°C | 6.0% | 0hPa | 2.8V | 00:00:00 | 00:00:00 | 00:00:00 | |
| IW2NTF | 2026-09-03 11:53:55 | 46.40646 | 7.49881 | 122° | 55km/h | 17131m | 5.9m/s | -60.2°C | 6.1% | 0hPa | 2.8V | 08:30:00 | 01:20:54 | 00:00:00 | |
| DO3MHA-11 | 2026-09-03 11:53:53 | 46.40616 | 7.49945 | 129° | 57km/h | 17150m | 4.1m/s | -60.2°C | 6.1% | 0hPa | 2.7V | 00:00:00 | 01:20:58 | 08:30:00 | |
| DO3MHA-11 | 2026-09-03 11:53:41 | 46.40712 | 7.49739 | 126° | 58km/h | 17096m | 4.2m/s | -60.0°C | 6.0% | 0hPa | 2.6V | 00:00:00 | 01:20:46 | 00:00:00 | |
| DL2OL | 2026-09-03 11:53:39 | 46.40721 | 7.49721 | 125° | 62km/h | 17091m | 4.9m/s | -60.0°C | 2.4% | 0hPa | 2.6V | 00:00:00 | 00:00:00 | 00:00:00 | |
| IW2NTF | 2026-09-03 11:53:38 | 46.40746 | 7.49666 | 121° | 58km/h | 17077m | 4.5m/s | -59.9°C | 6% | 0hPa | 2.6V | 08:30:00 | 01:20:42 | 00:00:00 | |
| DB0UT-7 | 2026-09-03 11:53:32 | 46.40777 | 7.49573 | 114° | 58km/h | 17054m | 5.1m/s | -59.8°C | 6.0% | 0hPa | 2.6V | 00:00:00 | 01:20:37 | 00:00:00 | |
| IW2NTF | 2026-09-03 11:53:28 | 46.40808 | 7.49477 | 117° | 62km/h | 17031m | 5.4m/s | -59.8°C | 6.1% | 0hPa | 2.6V | 08:30:00 | 01:20:32 | 00:00:00 | |
| DK5PH-5 | 2026-09-03 11:53:26 | 46.40816 | 7.49456 | 119° | 57km/h | 17026m | 4.5m/s | 0°C | 0% | 0hPa | 2.6V | 00:00:00 | 01:20:31 | 00:00:00 | |
| DO3MHA-11 | 2026-09-03 11:53:21 | 46.40849 | 7.49349 | 111° | 60km/h | 17004m | 5.8m/s | -59.6°C | 5.9% | 0hPa | 2.6V | 00:00:00 | 01:20:26 | 00:00:00 | |
| IW2NTF | 2026-09-03 11:53:19 | 46.40869 | 7.49267 | 108° | 60km/h | 16985m | 3.4m/s | -59.5°C | 5.9% | 0hPa | 2.6V | 08:30:00 | 01:20:22 | 00:00:00 | |
| DO3MHA-11 | 2026-09-03 11:53:11 | 46.40906 | 7.49149 | 116° | 57km/h | 16958m | 2.9m/s | -59.3°C | 6.0% | 0hPa | 2.8V | 00:00:00 | 01:20:16 | 00:00:00 | |
| IW2NTF | 2026-09-03 11:53:09 | 46.40931 | 7.49078 | 115° | 51km/h | 16939m | 4.8m/s | -59.4°C | 6% | 0hPa | 2.8V | 08:30:00 | 01:20:12 | 00:00:00 | |
| DB0UT-7 | 2026-09-03 11:53:02 | 46.40960 | 7.48986 | 118° | 49km/h | 16916m | 4.1m/s | -59.2°C | 5.8% | 0hPa | 2.8V | 00:00:00 | 00:00:00 | 00:00:00 | |
| DO3MHA-11 | 2026-09-03 11:53:01 | 46.40967 | 7.48966 | 117° | 57km/h | 16911m | 5.2m/s | -59.2°C | 5.8% | 0hPa | 2.8V | 00:00:00 | 01:20:06 | 00:00:00 | |
| IW2NTF | 2026-09-03 11:52:59 | 46.40993 | 7.48887 | 114° | 55km/h | 16892m | 3.8m/s | -59.1°C | 5.9% | 0hPa | 2.8V | 08:30:00 | 01:20:02 | 00:00:00 | |
| DL2OL | 2026-09-03 11:52:57 | 46.40987 | 7.48906 | 117° | 58km/h | 16897m | 5.2m/s | -59.1°C | 2.4% | 0hPa | 2.7V | 00:00:00 | 00:00:00 | 00:00:00 | |
| DO3MHA-11 | 2026-09-03 11:52:51 | 46.41020 | 7.48789 | 114° | 53km/h | 16864m | 4.2m/s | -59.0°C | 5.8% | 0hPa | 2.7V | 00:00:00 | 01:19:56 | 00:00:00 | |
| IW2NTF | 2026-09-03 11:52:48 | 46.41040 | 7.48719 | 113° | 55km/h | 16844m | 5.3m/s | -59°C | 5.8% | 0hPa | 2.6V | 08:30:00 | 01:19:52 | 00:00:00 | |
| DO3MHA-11 | 2026-09-03 11:52:41 | 46.41070 | 7.48614 | 114° | 40km/h | 16819m | 4.8m/s | -58.9°C | 5.8% | 0hPa | 2.6V | 00:00:00 | 01:19:46 | 00:00:00 | |
| IW2NTF | 2026-09-03 11:52:37 | 46.41088 | 7.48562 | 113° | 40km/h | 16800m | 3.9m/s | -59.1°C | 5.9% | 0hPa | 2.6V | 08:30:00 | 01:19:42 | 00:00:00 | |
| IW2NTF | 2026-09-03 11:52:32 | 46.41138 | 7.48408 | 114° | 47km/h | 16754m | 3.8m/s | -58.9°C | 5.8% | 0hPa | 2.8V | 08:30:00 | 01:19:32 | 00:00:00 | |
| DB0UT-7 | 2026-09-03 11:52:32 | 46.41113 | 7.48490 | 116° | 46km/h | 16777m | 4.8m/s | -59.0°C | 5.9% | 0hPa | 2.8V | 00:00:00 | 01:19:37 | 00:00:00 | |
| DO3MHA-11 | 2026-09-03 11:52:30 | 46.41123 | 7.48457 | 113° | 49km/h | 16768m | 3.8m/s | -58.9°C | 5.9% | 0hPa | 2.8V | 00:00:00 | 01:19:35 | 00:00:00 | |
| IW2NTF | 2026-09-03 11:52:18 | 46.41190 | 7.48248 | 118° | 49km/h | 16711m | 5.3m/s | -59°C | 5.9% | 0hPa | 2.8V | 08:30:00 | 01:19:22 | 00:00:00 | |
| DO3MHA-11 | 2026-09-03 11:52:18 | 46.41185 | 7.48264 | 116° | 44km/h | 16715m | 3.6m/s | -58.9°C | 5.9% | 0hPa | 2.7V | 00:00:00 | 01:19:23 | 08:30:00 | |
| DL2OL | 2026-09-03 11:52:14 | 46.41203 | 7.48219 | 124° | 46km/h | 16701m | 4.4m/s | -59.0°C | 2.6% | 0hPa | 2.8V | 00:00:00 | 00:00:00 | 00:00:00 | |
| IW2NTF | 2026-09-03 11:52:12 | 46.41257 | 7.48082 | 122° | 44km/h | 16656m | 3.8m/s | -59°C | 6% | 0hPa | 2.8V | 08:30:00 | 01:19:10 | 00:00:00 | |
| DO3MHA-11 | 2026-09-03 11:52:07 | 46.41245 | 7.48109 | 122° | 46km/h | 16666m | 5.0m/s | -59.0°C | 6.0% | 0hPa | 2.6V | 00:00:00 | 01:19:12 | 00:00:00 | |
| DB0UT-7 | 2026-09-03 11:52:02 | 46.41277 | 7.48044 | 132° | 53km/h | 16642m | 3.9m/s | -59.0°C | 6.1% | 0hPa | 2.6V | 00:00:00 | 00:00:00 | 00:00:00 | |
| IW2NTF | 2026-09-03 11:51:59 | 46.41328 | 7.47953 | 125° | 47km/h | 16610m | 5.4m/s | -59°C | 6% | 0hPa | 2.8V | 08:30:00 | 01:19:00 | 00:00:00 | |
| DO3MHA-11 | 2026-09-03 11:51:57 | 46.41314 | 7.47979 | 131° | 49km/h | 16619m | 4.6m/s | -58.9°C | 6.0% | 0hPa | 2.8V | 00:00:00 | 01:19:02 | 00:00:00 | |
| IW2NTF | 2026-09-03 11:51:50 | 46.41409 | 7.47802 | 135° | 55km/h | 16562m | 4.2m/s | -58.9°C | 6.1% | 0hPa | 2.8V | 08:30:00 | 01:18:50 | 00:00:00 | |
| DO3MHA-11 | 2026-09-03 11:51:47 | 46.41389 | 7.47830 | 133° | 55km/h | 16572m | 5.4m/s | -58.9°C | 6.1% | 0hPa | 2.6V | 00:00:00 | 01:18:52 | 00:00:00 | |
| IW2NTF | 2026-09-03 11:51:39 | 46.41496 | 7.47643 | 126° | 57km/h | 16515m | 3.6m/s | -58.8°C | 6% | 0hPa | 2.7V | 08:30:00 | 01:18:40 | 00:00:00 | |
| DO3MHA-11 | 2026-09-03 11:51:37 | 46.41479 | 7.47676 | 124° | 58km/h | 16524m | 4.5m/s | -58.8°C | 6.1% | 0hPa | 2.7V | 00:00:00 | 01:18:42 | 00:00:00 | |
| DB0UT-7 | 2026-09-03 11:51:32 | 46.41523 | 7.47591 | 129° | 62km/h | 16502m | 3.9m/s | -58.6°C | 6.0% | 0hPa | 2.7V | 00:00:00 | 01:18:37 | 00:00:00 | |
| DL2OL | 2026-09-03 11:51:30 | 46.41533 | 7.47573 | 130° | 64km/h | 16498m | 3.8m/s | -58.7°C | 2.7% | 0hPa | 2.7V | 00:00:00 | 00:00:00 | 00:00:00 | |
| IW2NTF | 2026-09-03 11:51:29 | 46.41590 | 7.47469 | 126° | 60km/h | 16470m | 4.8m/s | -58.6°C | 6% | 0hPa | 2.7V | 08:30:00 | 01:18:30 | 00:00:00 | |
| DO3MHA-11 | 2026-09-03 11:51:27 | 46.41572 | 7.47505 | 127° | 60km/h | 16479m | 5.2m/s | -58.6°C | 6.1% | 0hPa | 2.8V | 00:00:00 | 01:18:32 | 00:00:00 | |
| IW2NTF | 2026-09-03 11:51:21 | 46.41677 | 7.47287 | 117° | 60km/h | 16423m | 4.4m/s | -58.6°C | 6.1% | 0hPa | 2.8V | 08:30:00 | 01:18:20 | 00:00:00 | |
| DO3MHA-11 | 2026-09-03 11:51:16 | 46.41670 | 7.47306 | 120° | 60km/h | 16428m | 4.9m/s | -58.5°C | 6.1% | 0hPa | 2.7V | 00:00:00 | 01:18:21 | 00:00:00 | |
| IW2NTF | 2026-09-03 11:51:08 | 46.41753 | 7.47096 | 118° | 66km/h | 16380m | 4.8m/s | -58.9°C | 6.1% | 0hPa | 2.7V | 08:30:00 | 01:18:10 | 00:00:00 | |
| DO3MHA-11 | 2026-09-03 11:51:06 | 46.41745 | 7.47116 | 121° | 64km/h | 16384m | 3.1m/s | -58.8°C | 6.1% | 0hPa | 2.7V | 00:00:00 | 01:18:11 | 00:00:00 | |
| DB0UT-7 | 2026-09-03 11:51:02 | 46.41775 | 7.47029 | 115° | 62km/h | 16366m | 4.3m/s | -59.0°C | 6.3% | 0hPa | 2.7V | 00:00:00 | 00:00:00 | 00:00:00 | |
| IW2NTF | 2026-09-03 11:50:57 | 46.41822 | 7.46885 | 115° | 60km/h | 16335m | 5.6m/s | -59°C | 6.4% | 0hPa | 2.7V | 08:30:00 | 01:18:00 | 00:00:00 | |
| DO3MHA-11 | 2026-09-03 11:50:56 | 46.41816 | 7.46905 | 115° | 62km/h | 16340m | 4.5m/s | -58.9°C | 6.3% | 0hPa | 2.6V | 00:00:00 | 01:18:01 | 00:00:00 | |
| IW2NTF | 2026-09-03 11:50:49 | 46.41890 | 7.46678 | 113° | 66km/h | 16290m | 4.2m/s | -58.9°C | 6.4% | 0hPa | 2.6V | 08:30:00 | 01:17:50 | 00:00:00 | |
| DO3MHA-11 | 2026-09-03 11:50:46 | 46.41882 | 7.46699 | 116° | 66km/h | 16295m | 5.6m/s | -58.9°C | 6.4% | 0hPa | 2.7V | 00:00:00 | 01:17:51 | 08:30:00 | |
| DL2OL | 2026-09-03 11:50:45 | 46.41890 | 7.46677 | 115° | 66km/h | 16290m | 4.2m/s | -58.9°C | 2.9% | 0hPa | 2.8V | 00:00:00 | 00:00:00 | 00:00:00 | |
| IW2NTF | 2026-09-03 11:50:39 | 46.41961 | 7.46468 | 120° | 57km/h | 16247m | 5.2m/s | -58.7°C | 6.4% | 0hPa | 2.8V | 08:30:00 | 01:17:40 | 00:00:00 | |
| DO3MHA-11 | 2026-09-03 11:50:36 | 46.41953 | 7.46486 | 122° | 60km/h | 16251m | 3.2m/s | -58.6°C | 6.4% | 0hPa | 2.6V | 00:00:00 | 01:17:41 | 00:00:00 | |
| DB0UT-7 | 2026-09-03 11:50:32 | 46.41982 | 7.46412 | 120° | 57km/h | 16235m | 4.0m/s | -58.5°C | 6.4% | 0hPa | 2.6V | 00:00:00 | 01:17:37 | 08:30:00 | |
| IW2NTF | 2026-09-03 11:50:28 | 46.42040 | 7.46278 | 125° | 62km/h | 16202m | 4.6m/s | -58.6°C | 6.5% | 0hPa | 2.6V | 08:30:00 | 01:17:30 | 00:00:00 | |
| DO3MHA-11 | 2026-09-03 11:50:26 | 46.42031 | 7.46296 | 124° | 58km/h | 16207m | 5.1m/s | -58.6°C | 6.4% | 0hPa | 2.7V | 00:00:00 | 01:17:31 | 00:00:00 | |
| IW2NTF | 2026-09-03 11:50:19 | 46.42115 | 7.46105 | 120° | 53km/h | 16158m | 5m/s | -58.9°C | 6.7% | 0hPa | 2.7V | 08:30:00 | 01:17:20 | 00:00:00 | |
| IW2NTF | 2026-09-03 11:50:09 | 46.42197 | 7.45941 | 129° | 53km/h | 16115m | 3.1m/s | -59.8°C | 7.2% | 0hPa | 2.7V | 08:30:00 | 01:17:10 | 00:00:00 | |
| DO3MHA-11 | 2026-09-03 11:50:06 | 46.42189 | 7.45956 | 130° | 57km/h | 16119m | 4.5m/s | -59.7°C | 7.2% | 0hPa | 2.7V | 00:00:00 | 01:17:11 | 00:00:00 | |
| DB0UT-7 | 2026-09-03 11:50:02 | 46.42224 | 7.45899 | 134° | 64km/h | 16102m | 3.8m/s | -59.9°C | 7.3% | 0hPa | 2.7V | 00:00:00 | 00:00:00 | 00:00:00 | |
| DL2OL | 2026-09-03 11:50:00 | 46.42234 | 7.45884 | 132° | 55km/h | 16097m | 5.3m/s | -60.0°C | 3.6% | 0hPa | 2.7V | 00:00:00 | 00:00:00 | 00:00:00 | |
| IW2NTF | 2026-09-03 11:49:59 | 46.42308 | 7.45741 | 127° | 62km/h | 16059m | 5m/s | -60.1°C | 7.4% | 0hPa | 2.7V | 08:30:00 | 01:16:58 | 00:00:00 | |
| DK5PH-5 | 2026-09-03 11:49:58 | 46.42261 | 7.45834 | 128° | 66km/h | 16083m | 5.5m/s | 0°C | 0% | 0hPa | 2.7V | 00:00:00 | 01:17:03 | 00:00:00 | |
| DO3MHA-11 | 2026-09-03 11:49:56 | 46.42280 | 7.45797 | 126° | 62km/h | 16073m | 5.2m/s | -60.0°C | 7.4% | 0hPa | 2.7V | 00:00:00 | 01:17:01 | 00:00:00 | |
| IW2NTF | 2026-09-03 11:49:49 | 46.42406 | 7.45556 | 126° | 71km/h | 16016m | 4.3m/s | -60.3°C | 7.5% | 0hPa | 2.7V | 08:30:00 | 01:16:48 | 00:00:00 | |
| DO3MHA-11 | 2026-09-03 11:49:46 | 46.42374 | 7.45615 | 129° | 68km/h | 16029m | 4.0m/s | -60.2°C | 7.5% | 0hPa | 2.7V | 00:00:00 | 01:16:51 | 00:00:00 | |
| IW2NTF | 2026-09-03 11:49:39 | 46.42509 | 7.45357 | 126° | 68km/h | 15972m | 3.9m/s | -60.4°C | 7.5% | 0hPa | 2.7V | 08:30:00 | 01:16:38 | 00:00:00 | |
| DO3MHA-11 | 2026-09-03 11:49:36 | 46.42479 | 7.45417 | 126° | 71km/h | 15984m | 3.8m/s | -60.2°C | 7.6% | 0hPa | 2.8V | 00:00:00 | 01:16:41 | 00:00:00 | |
| DB0UT-7 | 2026-09-03 11:49:32 | 46.42519 | 7.45336 | 125° | 71km/h | 15967m | 5.7m/s | -60.4°C | 7.5% | 0hPa | 2.8V | 00:00:00 | 01:16:37 | 00:00:00 | |
| IW2NTF | 2026-09-03 11:49:29 | 46.42613 | 7.45138 | 121° | 71km/h | 15925m | 4.2m/s | -60.7°C | 7.6% | 0hPa | 2.8V | 08:30:00 | 01:16:28 | 00:00:00 | |
| DK5PH-5 | 2026-09-03 11:49:28 | 46.42562 | 7.45249 | 126° | 68km/h | 15948m | 3.9m/s | 0°C | 0% | 0hPa | 2.7V | 00:00:00 | 01:16:33 | 00:00:00 | |
| DO3MHA-11 | 2026-09-03 11:49:26 | 46.42583 | 7.45205 | 124° | 71km/h | 15938m | 4.3m/s | -60.6°C | 7.4% | 0hPa | 2.7V | 00:00:00 | 01:16:31 | 00:00:00 | |
| IW2NTF | 2026-09-03 11:49:19 | 46.42698 | 7.44906 | 118° | 71km/h | 15882m | 4m/s | -60.6°C | 7.6% | 0hPa | 2.7V | 08:30:00 | 01:16:18 | 00:00:00 | |
| DL2OL | 2026-09-03 11:49:18 | 46.42646 | 7.45045 | 117° | 69km/h | 15908m | 5.0m/s | -60.6°C | 3.7% | 0hPa | 2.7V | 00:00:00 | 00:00:00 | 00:00:00 | |
| DO3MHA-11 | 2026-09-03 11:49:16 | 46.42671 | 7.44977 | 120° | 71km/h | 15894m | 5.0m/s | -60.5°C | 7.6% | 0hPa | 2.7V | 00:00:00 | 01:16:21 | 08:30:00 | |
| DO3MHA-11 | 2026-09-03 11:49:06 | 46.42759 | 7.44749 | 116° | 69km/h | 15852m | 5.2m/s | -60.6°C | 7.6% | 0hPa | 2.8V | 00:00:00 | 01:16:11 | 00:00:00 | |
| IW2NTF | 2026-09-03 11:49:03 | 46.43306 | 7.43254 | 134° | 71km/h | 15508m | 4.9m/s | -61.1°C | 7.9% | 0hPa | 2.8V | 08:30:00 | 01:14:56 | 00:00:00 | |
| IW2NTF | 2026-09-03 11:49:03 | 46.43383 | 7.43143 | 133° | 73km/h | 15480m | 4.4m/s | -61.1°C | 8.1% | 0hPa | 2.8V | 08:30:00 | 01:14:50 | 00:00:00 | |
| DB0UT-7 | 2026-09-03 11:49:02 | 46.42786 | 7.44656 | 114° | 64km/h | 15833m | 4.6m/s | -60.5°C | 7.5% | 0hPa | 2.7V | 00:00:00 | 00:00:00 | 00:00:00 | |
| DO3MHA-11 | 2026-09-03 11:48:56 | 46.42824 | 7.44519 | 112° | 64km/h | 15806m | 4.3m/s | -60.4°C | 7.5% | 0hPa | 2.7V | 00:00:00 | 01:16:01 | 00:00:00 | |
| DO3MHA-12 | 2026-09-03 11:48:49 | 46.42860 | 7.44362 | 108° | 64km/h | 15774m | 4.2m/s | -60.2°C | 7.8% | 0hPa | 2.7V | 00:00:00 | 01:15:54 | 00:00:00 | |
| DK5PH-5 | 2026-09-03 11:48:48 | 46.42865 | 7.44340 | 108° | 69km/h | 15769m | 4.0m/s | 0°C | 0% | 0hPa | 2.7V | 00:00:00 | 01:15:53 | 00:00:00 | |
| DO3MHA-11 | 2026-09-03 11:48:46 | 46.42875 | 7.44296 | 110° | 64km/h | 15760m | 3.9m/s | -60.2°C | 7.7% | 0hPa | 2.7V | 00:00:00 | 01:15:51 | 00:00:00 | |
| DO3MHA-12 | 2026-09-03 11:48:39 | 46.42910 | 7.44138 | 107° | 60km/h | 15730m | 4.8m/s | -60.2°C | 7.7% | 0hPa | 2.7V | 00:00:00 | 01:15:44 | 00:00:00 | |
| DO3MHA-11 | 2026-09-03 11:48:36 | 46.42924 | 7.44075 | 110° | 58km/h | 15717m | 5.2m/s | -60.2°C | 7.7% | 0hPa | 2.7V | 00:00:00 | 01:15:41 | 00:00:00 | |
| DL2OL | 2026-09-03 11:48:34 | 46.42929 | 7.44054 | 112° | 58km/h | 15713m | 3.8m/s | -60.3°C | 3.9% | 0hPa | 2.7V | 00:00:00 | 00:00:00 | 00:00:00 | |
| DB0UT-7 | 2026-09-03 11:48:32 | 46.42944 | 7.43995 | 110° | 58km/h | 15699m | 3.3m/s | -60.2°C | 7.6% | 0hPa | 2.7V | 00:00:00 | 01:15:37 | 00:00:00 | |
| DO3MHA-12 | 2026-09-03 11:48:29 | 46.42960 | 7.43933 | 113° | 60km/h | 15685m | 4.0m/s | -60.2°C | 7.6% | 0hPa | 2.7V | 00:00:00 | 01:15:34 | 00:00:00 | |
| DO3MHA-11 | 2026-09-03 11:48:26 | 46.42977 | 7.43872 | 114° | 58km/h | 15673m | 3.6m/s | -60.3°C | 7.4% | 0hPa | 2.7V | 00:00:00 | 01:15:31 | 00:00:00 | |
| DO3MHA-12 | 2026-09-03 11:48:19 | 46.43025 | 7.43737 | 119° | 57km/h | 15640m | 4.8m/s | -60.5°C | 7.8% | 0hPa | 2.7V | 00:00:00 | 01:15:24 | 00:00:00 | |
| DO3MHA-11 | 2026-09-03 11:48:16 | 46.43047 | 7.43682 | 119° | 57km/h | 15625m | 5.2m/s | -60.6°C | 7.7% | 0hPa | 2.7V | 00:00:00 | 01:15:21 | 00:00:00 | |
| DO3MHA-12 | 2026-09-03 11:48:08 | 46.43113 | 7.43551 | 127° | 58km/h | 15588m | 4.4m/s | -60.8°C | 7.9% | 0hPa | 2.7V | 00:00:00 | 01:15:13 | 00:00:00 | |
| DO3MHA-11 | 2026-09-03 11:48:06 | 46.43131 | 7.43517 | 130° | 64km/h | 15579m | 4.3m/s | -61.0°C | 8.0% | 0hPa | 2.7V | 00:00:00 | 01:15:11 | 00:00:00 | |
| DB0UT-7 | 2026-09-03 11:48:02 | 46.43171 | 7.43450 | 132° | 75km/h | 15560m | 3.4m/s | -61.1°C | 8.2% | 0hPa | 2.7V | 00:00:00 | 00:00:00 | 00:00:00 | |
| DO3MHA-11 | 2026-09-03 11:47:56 | 46.43242 | 7.43346 | 134° | 71km/h | 15532m | 3.9m/s | -61.1°C | 8.1% | 0hPa | 2.7V | 00:00:00 | 01:15:01 | 00:00:00 | |
| DO3MHA-12 | 2026-09-03 11:47:55 | 46.43253 | 7.43328 | 135° | 77km/h | 15527m | 5.0m/s | -61.1°C | 8.1% | 0hPa | 2.7V | 00:00:00 | 01:15:00 | 08:30:00 | |
| DO3MHA-11 | 2026-09-03 11:47:46 | 46.43370 | 7.43163 | 135° | 82km/h | 15485m | 5.4m/s | -61.1°C | 8.1% | 0hPa | 2.7V | 00:00:00 | 01:14:51 | 08:30:00 | |
| DL2OL | 2026-09-03 11:47:45 | 46.43370 | 7.43163 | 135° | 73km/h | 15485m | 5.4m/s | -61.1°C | 4.1% | 0hPa | 2.7V | 00:00:00 | 00:00:00 | 00:00:00 | |
| DH7VM-15 | 2026-09-03 11:47:44 | 46.43383 | 7.43143 | 134° | 73km/h | 15480m | 4.4m/s | 0°C | 0% | 0hPa | 2.7V | 00:00:00 | 00:00:00 | 00:00:00 | |
| IW2NTF | 2026-09-03 11:47:41 | 46.43526 | 7.42922 | 132° | 82km/h | 15437m | 5.3m/s | -61°C | 8% | 0hPa | 2.7V | 08:30:00 | 01:14:40 | 00:00:00 | |
| DO3MHA-11 | 2026-09-03 11:47:36 | 46.43512 | 7.42944 | 133° | 82km/h | 15441m | 3.7m/s | -61.0°C | 8.1% | 0hPa | 2.7V | 00:00:00 | 01:14:41 | 00:00:00 | |
| DB0UT-7 | 2026-09-03 11:47:32 | 46.43568 | 7.42860 | 137° | 86km/h | 15424m | 4.6m/s | -60.9°C | 8.0% | 0hPa | 2.7V | 00:00:00 | 01:14:37 | 00:00:00 | |
| IW2NTF | 2026-09-03 11:47:30 | 46.43668 | 7.42696 | 128° | 89km/h | 15395m | 4.7m/s | -60.8°C | 7.9% | 0hPa | 2.7V | 08:30:00 | 01:14:30 | 00:00:00 | |
| IW2NTF | 2026-09-03 11:47:20 | 46.43806 | 7.42449 | 128° | 78km/h | 15353m | 5m/s | -60.6°C | 7.9% | 0hPa | 2.7V | 08:30:00 | 01:14:20 | 00:00:00 | |
| DO3MHA-11 | 2026-09-03 11:47:16 | 46.43793 | 7.42472 | 130° | 84km/h | 15358m | 4.2m/s | -60.6°C | 7.9% | 0hPa | 2.7V | 00:00:00 | 01:14:21 | 00:00:00 | |
| IW2NTF | 2026-09-03 11:47:10 | 46.43932 | 7.42199 | 125° | 86km/h | 15311m | 3.3m/s | -60.3°C | 7.9% | 0hPa | 2.8V | 08:30:00 | 01:14:10 | 00:00:00 | |
| DO3MHA-11 | 2026-09-03 11:47:06 | 46.43919 | 7.42225 | 126° | 82km/h | 15315m | 3.9m/s | -60.3°C | 7.9% | 0hPa | 2.8V | 00:00:00 | 01:14:11 | 00:00:00 | |
| DB0UT-7 | 2026-09-03 11:47:02 | 46.43967 | 7.42124 | 125° | 80km/h | 15299m | 3.7m/s | -60.2°C | 8.0% | 0hPa | 2.8V | 00:00:00 | 00:00:00 | 00:00:00 | |
| IW2NTF | 2026-09-03 11:47:01 | 46.44049 | 7.41956 | 124° | 84km/h | 15268m | 4.7m/s | -60.1°C | 7.9% | 0hPa | 2.8V | 08:30:00 | 01:14:00 | 00:00:00 | |
| DO3MHA-11 | 2026-09-03 11:46:53 | 46.44073 | 7.41904 | 124° | 80km/h | 15261m | 5.0m/s | -60.1°C | 7.9% | 0hPa | 2.8V | 00:00:00 | 01:13:58 | 00:00:00 | |
| IW2NTF | 2026-09-03 11:46:50 | 46.44162 | 7.41709 | 124° | 80km/h | 15225m | 4.8m/s | -60°C | 7.8% | 0hPa | 2.8V | 08:30:00 | 01:13:50 | 00:00:00 | |
| DO3MHA-12 | 2026-09-03 11:46:44 | 46.44174 | 7.41685 | 126° | 84km/h | 15221m | 3.9m/s | -59.9°C | 7.8% | 0hPa | 2.7V | 00:00:00 | 01:13:49 | 00:00:00 | |
| DO3MHA-11 | 2026-09-03 11:46:43 | 46.44186 | 7.41660 | 125° | 78km/h | 15217m | 3.4m/s | -59.9°C | 7.9% | 0hPa | 2.7V | 00:00:00 | 01:13:48 | 00:00:00 | |
| IW2NTF | 2026-09-03 11:46:41 | 46.44270 | 7.41464 | 120° | 75km/h | 15183m | 5m/s | -60°C | 8.1% | 0hPa | 2.8V | 08:30:00 | 01:13:40 | 00:00:00 | |
| DL2OL | 2026-09-03 11:46:35 | 46.44260 | 7.41487 | 123° | 77km/h | 15188m | 4.3m/s | -59.9°C | 4.2% | 0hPa | 2.7V | 00:00:00 | 00:00:00 | 00:00:00 | |
| DO3MHA-11 | 2026-09-03 11:46:33 | 46.44288 | 7.41417 | 121° | 77km/h | 15175m | 4.7m/s | -59.9°C | 8.0% | 0hPa | 2.7V | 00:00:00 | 01:13:38 | 00:00:00 | |
| DB0UT-7 | 2026-09-03 11:46:32 | 46.44298 | 7.41394 | 121° | 77km/h | 15171m | 3.1m/s | -59.9°C | 8.0% | 0hPa | 2.7V | 00:00:00 | 01:13:37 | 00:00:00 | |
| IW2NTF | 2026-09-03 11:46:31 | 46.44365 | 7.41221 | 117° | 82km/h | 15141m | 5m/s | -60.1°C | 8.2% | 0hPa | 2.7V | 08:30:00 | 01:13:30 | 00:00:00 | |
| DH7VM-15 | 2026-09-03 11:46:25 | 46.44355 | 7.41247 | 120° | 80km/h | 15146m | 4.8m/s | 0°C | 0% | 0hPa | 2.7V | 00:00:00 | 00:00:00 | 00:00:00 | |
| DO3MHA-11 | 2026-09-03 11:46:23 | 46.44384 | 7.41169 | 119° | 73km/h | 15131m | 4.7m/s | -60.1°C | 8.4% | 0hPa | 2.7V | 00:00:00 | 01:13:28 | 00:00:00 | |
| IW2NTF | 2026-09-03 11:46:21 | 46.44447 | 7.40978 | 112° | 71km/h | 15099m | 4.2m/s | -60.1°C | 8.6% | 0hPa | 2.7V | 08:30:00 | 01:13:20 | 00:00:00 | |
| DO3MHA-11 | 2026-09-03 11:46:13 | 46.44460 | 7.40927 | 110° | 78km/h | 15091m | 3.4m/s | -60.0°C | 8.3% | 0hPa | 2.7V | 00:00:00 | 01:13:18 | 08:30:00 | |
| IW2NTF | 2026-09-03 11:46:11 | 46.44516 | 7.40706 | 112° | 73km/h | 15057m | 3.3m/s | -59.8°C | 8.4% | 0hPa | 2.7V | 08:30:00 | 01:13:10 | 00:00:00 | |
| DO3MHA-11 | 2026-09-03 11:46:03 | 46.44529 | 7.40657 | 111° | 73km/h | 15050m | 4.5m/s | -59.7°C | 8.4% | 0hPa | 2.7V | 00:00:00 | 01:13:08 | 00:00:00 | |
| DB0UT-7 | 2026-09-03 11:46:02 | 46.44535 | 7.40634 | 111° | 69km/h | 15046m | 3.8m/s | -59.7°C | 8.4% | 0hPa | 2.7V | 00:00:00 | 00:00:00 | 08:30:00 | |
| IW2NTF | 2026-09-03 11:46:00 | 46.44581 | 7.40462 | 108° | 77km/h | 15015m | 4.4m/s | -59.7°C | 8.3% | 0hPa | 2.7V | 08:30:00 | 01:13:00 | 00:00:00 | |
| DO3MHA-11 | 2026-09-03 11:45:53 | 46.44594 | 7.40408 | 109° | 68km/h | 15007m | 3.9m/s | -59.7°C | 8.4% | 0hPa | 2.7V | 00:00:00 | 01:12:58 | 00:00:00 | |
| IW2NTF | 2026-09-03 11:45:51 | 46.44646 | 7.40224 | 116° | 66km/h | 14973m | 3.3m/s | -59.6°C | 8.4% | 0hPa | 2.7V | 08:30:00 | 01:12:50 | 00:00:00 | |
| DO3MHA-11 | 2026-09-03 11:45:43 | 46.44662 | 7.40180 | 118° | 69km/h | 14964m | 4.8m/s | -59.6°C | 8.3% | 0hPa | 2.7V | 00:00:00 | 01:12:48 | 00:00:00 | |
| IW2NTF | 2026-09-03 11:45:41 | 46.44722 | 7.39996 | 119° | 64km/h | 14929m | 4.3m/s | -59.4°C | 8.6% | 0hPa | 2.8V | 08:30:00 | 01:12:40 | 00:00:00 | |
| DB0UT-7 | 2026-09-03 11:45:32 | 46.44745 | 7.39935 | 118° | 60km/h | 14916m | 4.2m/s | -59.3°C | 8.6% | 0hPa | 2.8V | 00:00:00 | 01:12:37 | 00:00:00 | |
| IW2NTF | 2026-09-03 11:45:31 | 46.44790 | 7.39784 | 107° | 66km/h | 14883m | 4.9m/s | -59.2°C | 8.3% | 0hPa | 2.8V | 08:30:00 | 01:12:30 | 00:00:00 | |
| IW2NTF | 2026-09-03 11:45:21 | 46.44855 | 7.39578 | 117° | 55km/h | 14840m | 4.2m/s | -59.1°C | 8.3% | 0hPa | 2.8V | 08:30:00 | 01:12:20 | 00:00:00 | |
| DO3MHA-11 | 2026-09-03 11:45:17 | 46.44841 | 7.39615 | 120° | 57km/h | 14850m | 4.3m/s | -59.0°C | 8.4% | 0hPa | 2.7V | 00:00:00 | 01:12:22 | 00:00:00 | |
| IW2NTF | 2026-09-03 11:45:11 | 46.44918 | 7.39392 | 116° | 57km/h | 14797m | 5.1m/s | -59.1°C | 8.6% | 0hPa | 2.7V | 08:30:00 | 01:12:10 | 00:00:00 | |
| DO3MHA-11 | 2026-09-03 11:45:07 | 46.44905 | 7.39431 | 116° | 57km/h | 14805m | 3.0m/s | -59.0°C | 8.5% | 0hPa | 2.7V | 00:00:00 | 01:12:12 | 00:00:00 | |
| DL2OL | 2026-09-03 11:45:06 | 46.44904 | 7.39431 | 117° | 60km/h | 14805m | 3.0m/s | -59.0°C | 4.8% | 0hPa | 2.7V | 00:00:00 | 00:00:00 | 00:00:00 | |
| DB0UT-7 | 2026-09-03 11:45:02 | 46.44939 | 7.39337 | 121° | 60km/h | 14784m | 4.6m/s | -59.1°C | 8.8% | 0hPa | 2.7V | 00:00:00 | 00:00:00 | 00:00:00 | |
| IW2NTF | 2026-09-03 11:45:01 | 46.44986 | 7.39218 | 117° | 53km/h | 14752m | 4.2m/s | -59.3°C | 8.9% | 0hPa | 2.7V | 08:30:00 | 01:12:00 | 00:00:00 | |
| DO3MHA-11 | 2026-09-03 11:44:57 | 46.44973 | 7.39251 | 120° | 57km/h | 14762m | 5.5m/s | -59.1°C | 8.7% | 0hPa | 2.7V | 00:00:00 | 01:12:02 | 00:00:00 | |
| IW2NTF | 2026-09-03 11:44:50 | 46.45112 | 7.38924 | 123° | 62km/h | 14680m | 3.9m/s | -59.3°C | 9.1% | 0hPa | 2.7V | 08:30:00 | 01:11:44 | 00:00:00 | |
| DO3MHA-11 | 2026-09-03 11:44:47 | 46.45040 | 7.39068 | 126° | 60km/h | 14718m | 3.0m/s | -59.3°C | 9.3% | 0hPa | 2.7V | 00:00:00 | 01:11:52 | 00:00:00 | |
| DO3MHA-11 | 2026-09-03 11:44:37 | 46.45129 | 7.38886 | 124° | 71km/h | 14671m | 4.8m/s | -59.3°C | 9.3% | 0hPa | 2.7V | 00:00:00 | 01:11:42 | 00:00:00 | |
| IW2NTF | 2026-09-03 11:44:34 | 46.45172 | 7.38805 | 130° | 75km/h | 14652m | 3.2m/s | -59.4°C | 9.2% | 0hPa | 2.7V | 08:30:00 | 01:11:38 | 00:00:00 | |
| DB0UT-7 | 2026-09-03 11:44:32 | 46.45184 | 7.38784 | 131° | 71km/h | 14647m | 6.7m/s | -59.5°C | 9.2% | 0hPa | 2.7V | 00:00:00 | 01:11:37 | 00:00:00 | |
| IW2NTF | 2026-09-03 11:44:29 | 46.45284 | 7.38597 | 128° | 68km/h | 14603m | 4.7m/s | -59.4°C | 9.4% | 0hPa | 2.7V | 08:30:00 | 01:11:28 | 00:00:00 | |
| DO3MHA-11 | 2026-09-03 11:44:27 | 46.45241 | 7.38679 | 126° | 69km/h | 14621m | 3.6m/s | -59.4°C | 9.3% | 0hPa | 2.7V | 00:00:00 | 01:11:32 | 08:30:00 | |
| DL2OL | 2026-09-03 11:44:23 | 46.45284 | 7.38597 | 129° | 68km/h | 14603m | 4.7m/s | -59.4°C | 5.5% | 0hPa | 2.7V | 00:00:00 | 00:00:00 | 00:00:00 | |
| DO3MHA-11 | 2026-09-03 11:44:17 | 46.45348 | 7.38480 | 129° | 77km/h | 14575m | 4.4m/s | -59.5°C | 9.9% | 0hPa | 2.7V | 00:00:00 | 01:11:22 | 00:00:00 | |
| IW2NTF | 2026-09-03 11:44:15 | 46.45390 | 7.38395 | 121° | 69km/h | 14558m | 3.5m/s | -59.5°C | 9.8% | 0hPa | 2.7V | 08:30:00 | 01:11:18 | 00:00:00 | |
| IW2NTF | 2026-09-03 11:44:08 | 46.45493 | 7.38186 | 125° | 75km/h | 14514m | 4.3m/s | -59.3°C | 9.6% | 0hPa | 2.8V | 08:30:00 | 01:11:08 | 00:00:00 | |
| DB0UT-7 | 2026-09-03 11:44:02 | 46.45505 | 7.38163 | 127° | 78km/h | 14511m | 4.0m/s | -59.2°C | 9.6% | 0hPa | 2.8V | 00:00:00 | 00:00:00 | 00:00:00 | |
| IW2NTF | 2026-09-03 11:43:55 | 46.45607 | 7.37967 | 126° | 78km/h | 14471m | 4.6m/s | -59.1°C | 9.6% | 0hPa | 2.8V | 08:30:00 | 01:10:58 | 00:00:00 | |
| IW2NTF | 2026-09-03 11:43:49 | 46.45729 | 7.37743 | 127° | 80km/h | 14428m | 4.7m/s | -59.1°C | 9.6% | 0hPa | 2.8V | 08:30:00 | 01:10:48 | 00:00:00 | |
| DL2OL | 2026-09-03 11:43:39 | 46.45766 | 7.37671 | 127° | 82km/h | 14416m | 4.3m/s | -59.3°C | 5.9% | 0hPa | 2.7V | 00:00:00 | 00:00:00 | 00:00:00 | |
| IW2NTF | 2026-09-03 11:43:35 | 46.45856 | 7.37516 | 130° | 77km/h | 14387m | 3.2m/s | -59.3°C | 9.7% | 0hPa | 2.7V | 08:30:00 | 01:10:38 | 00:00:00 | |
| DB0UT-7 | 2026-09-03 11:43:32 | 46.45869 | 7.37495 | 132° | 78km/h | 14382m | 5.4m/s | -59.3°C | 9.7% | 0hPa | 2.8V | 00:00:00 | 01:10:37 | 00:00:00 | |
| IW2NTF | 2026-09-03 11:43:29 | 46.45988 | 7.37303 | 132° | 75km/h | 14341m | 3.8m/s | -59.4°C | 9.7% | 0hPa | 2.8V | 08:30:00 | 01:10:28 | 00:00:00 | |
| IW2NTF | 2026-09-03 11:43:15 | 46.46128 | 7.37097 | 133° | 78km/h | 14296m | 4.3m/s | -59.4°C | 9.9% | 0hPa | 2.7V | 08:30:00 | 01:10:18 | 00:00:00 | |
| DO3MHA-11 | 2026-09-03 11:43:14 | 46.46114 | 7.37118 | 136° | 78km/h | 14301m | 4.9m/s | -59.3°C | 9.8% | 0hPa | 2.7V | 00:00:00 | 01:10:19 | 00:00:00 | |
| IW2NTF | 2026-09-03 11:43:09 | 46.46263 | 7.36888 | 139° | 77km/h | 14253m | 4.8m/s | -59.5°C | 10.2% | 0hPa | 2.7V | 08:30:00 | 01:10:08 | 00:00:00 | |
| DO3MHA-11 | 2026-09-03 11:43:04 | 46.46248 | 7.36906 | 139° | 80km/h | 14258m | 4.4m/s | -59.5°C | 10.2% | 0hPa | 2.7V | 00:00:00 | 01:10:09 | 00:00:00 | |
| DB0UT-7 | 2026-09-03 11:43:02 | 46.46277 | 7.36869 | 140° | 84km/h | 14249m | 3.4m/s | -59.4°C | 10.1% | 0hPa | 2.7V | 00:00:00 | 00:00:00 | 00:00:00 | |
| IW2NTF | 2026-09-03 11:42:54 | 46.46407 | 7.36679 | 134° | 84km/h | 14210m | 3.8m/s | -59.1°C | 9.8% | 0hPa | 2.8V | 08:30:00 | 01:09:58 | 00:00:00 | |
| DO3MHA-11 | 2026-09-03 11:42:54 | 46.46392 | 7.36701 | 133° | 82km/h | 14214m | 4.4m/s | -59.1°C | 9.8% | 0hPa | 2.7V | 00:00:00 | 01:09:59 | 00:00:00 | |
| IW2NTF | 2026-09-03 11:42:48 | 46.46560 | 7.36472 | 133° | 86km/h | 14164m | 4.9m/s | -59.3°C | 10.2% | 0hPa | 2.7V | 08:30:00 | 01:09:48 | 00:00:00 | |
| DO3MHA-11 | 2026-09-03 11:42:44 | 46.46545 | 7.36495 | 135° | 88km/h | 14169m | 4.3m/s | -59.3°C | 10.0% | 0hPa | 2.7V | 00:00:00 | 01:09:49 | 00:00:00 | |
| IW2NTF | 2026-09-03 11:42:34 | 46.46721 | 7.36253 | 140° | 88km/h | 14123m | 3.6m/s | -59.8°C | 10.6% | 0hPa | 2.7V | 08:30:00 | 01:09:38 | 00:00:00 | |
| DO3MHA-11 | 2026-09-03 11:42:34 | 46.46704 | 7.36273 | 140° | 93km/h | 14127m | 5.0m/s | -59.7°C | 10.4% | 0hPa | 2.7V | 00:00:00 | 01:09:39 | 00:00:00 | |
| DB0UT-7 | 2026-09-03 11:42:32 | 46.46738 | 7.36233 | 142° | 93km/h | 14120m | 3.4m/s | -59.7°C | 10.6% | 0hPa | 2.8V | 00:00:00 | 01:09:37 | 00:00:00 | |
| IW2NTF | 2026-09-03 11:42:28 | 46.46896 | 7.36021 | 134° | 95km/h | 14082m | 4.9m/s | -59.7°C | 10.7% | 0hPa | 2.8V | 08:30:00 | 01:09:28 | 00:00:00 | |
| DO3MHA-11 | 2026-09-03 11:42:24 | 46.46879 | 7.36046 | 134° | 93km/h | 14087m | 4.1m/s | -59.6°C | 10.7% | 0hPa | 2.7V | 00:00:00 | 01:09:29 | 00:00:00 | |
| IW2NTF | 2026-09-03 11:42:14 | 46.47067 | 7.35796 | 136° | 93km/h | 14042m | 3.6m/s | -59.9°C | 11.9% | 0hPa | 2.7V | 08:30:00 | 01:09:18 | 00:00:00 | |
| IW2NTF | 2026-09-03 11:42:09 | 46.47235 | 7.35550 | 136° | 91km/h | 14000m | 3.5m/s | -60°C | 12.7% | 0hPa | 2.7V | 08:30:00 | 01:09:08 | 00:00:00 | |
| DB0UT-7 | 2026-09-03 11:42:02 | 46.47252 | 7.35527 | 136° | 95km/h | 13996m | 4.9m/s | -60.0°C | 12.8% | 0hPa | 2.7V | 00:00:00 | 00:00:00 | 00:00:00 | |
| IW2NTF | 2026-09-03 11:41:53 | 46.47434 | 7.35234 | 130° | 95km/h | 13949m | 4.5m/s | -59.8°C | 14.1% | 0hPa | 2.7V | 08:30:00 | 01:08:56 | 00:00:00 | |
| IW2NTF | 2026-09-03 11:41:42 | 46.47597 | 7.34983 | 131° | 95km/h | 13907m | 4.7m/s | -59.7°C | 15.2% | 0hPa | 2.8V | 08:30:00 | 01:08:46 | 00:00:00 | |
| IW2NTF | 2026-09-03 11:41:35 | 46.47762 | 7.34729 | 132° | 93km/h | 13866m | 5.2m/s | -59.9°C | 18% | 0hPa | 2.7V | 08:30:00 | 01:08:36 | 00:00:00 | |
| DB0UT-7 | 2026-09-03 11:41:32 | 46.47746 | 7.34754 | 134° | 95km/h | 13870m | 3.7m/s | -59.9°C | 17.6% | 0hPa | 2.7V | 00:00:00 | 01:08:37 | 08:30:00 | |
| DL2OL | 2026-09-03 11:41:26 | 46.47839 | 7.34594 | 129° | 93km/h | 13845m | 4.7m/s | -59.9°C | 13.6% | 0hPa | 2.7V | 00:00:00 | 00:00:00 | 00:00:00 | |
| IW2NTF | 2026-09-03 11:41:24 | 46.47910 | 7.34463 | 127° | 93km/h | 13825m | 4.4m/s | -59.9°C | 18.8% | 0hPa | 2.7V | 08:30:00 | 01:08:26 | 00:00:00 | |
| IW2NTF | 2026-09-03 11:41:17 | 46.48067 | 7.34186 | 130° | 95km/h | 13782m | 3.4m/s | -60.1°C | 19.4% | 0hPa | 2.8V | 08:30:00 | 01:08:16 | 00:00:00 | |
| DO3MHA-11 | 2026-09-03 11:41:16 | 46.47984 | 7.34325 | 131° | 97km/h | 13804m | 4.5m/s | -60.0°C | 19.0% | 0hPa | 2.7V | 00:00:00 | 01:08:21 | 00:00:00 | |
| DO3MHA-11 | 2026-09-03 11:41:06 | 46.48142 | 7.34056 | 130° | 95km/h | 13767m | 2.5m/s | -60.1°C | 19.3% | 0hPa | 2.7V | 00:00:00 | 01:08:11 | 08:30:00 | |
| IW2NTF | 2026-09-03 11:41:04 | 46.48221 | 7.33928 | 132° | 97km/h | 13745m | 6.5m/s | -60.1°C | 19% | 0hPa | 2.7V | 08:30:00 | 01:08:06 | 00:00:00 | |
| DB0UT-7 | 2026-09-03 11:41:02 | 46.48204 | 7.33954 | 133° | 99km/h | 13751m | 4.2m/s | -60.1°C | 19.1% | 0hPa | 2.7V | 00:00:00 | 00:00:00 | 00:00:00 | |
| DH7VM-15 | 2026-09-03 11:41:00 | 46.48221 | 7.33928 | 133° | 97km/h | 13746m | 6.5m/s | 0°C | 0% | 0hPa | 2.7V | 00:00:00 | 00:00:00 | 00:00:00 | |
| IW2NTF | 2026-09-03 11:40:57 | 46.48390 | 7.33682 | 138° | 93km/h | 13699m | 5m/s | -60.4°C | 19.6% | 0hPa | 2.7V | 08:30:00 | 01:07:56 | 00:00:00 | |
| DO3MHA-11 | 2026-09-03 11:40:56 | 46.48305 | 7.33802 | 136° | 97km/h | 13723m | 3.4m/s | -60.2°C | 18.7% | 0hPa | 2.7V | 00:00:00 | 01:08:01 | 00:00:00 | |
| DO3MHA-11 | 2026-09-03 11:40:46 | 46.48486 | 7.33564 | 137° | 102km/h | 13679m | 3.1m/s | -60.6°C | 21.3% | 0hPa | 2.7V | 00:00:00 | 01:07:51 | 00:00:00 | |
| IW2NTF | 2026-09-03 11:40:44 | 46.48578 | 7.33435 | 136° | 99km/h | 13658m | 3.8m/s | -60.7°C | 21.4% | 0hPa | 2.7V | 08:30:00 | 01:07:46 | 00:00:00 | |
| DL2OL | 2026-09-03 11:40:41 | 46.48560 | 7.33460 | 137° | 100km/h | 13662m | 4.5m/s | -60.7°C | 15.9% | 0hPa | 2.8V | 00:00:00 | 00:00:00 | 00:00:00 | |
| IW2NTF | 2026-09-03 11:40:37 | 46.48772 | 7.33184 | 134° | 102km/h | 13619m | 4.9m/s | -60.9°C | 23.8% | 0hPa | 2.8V | 08:30:00 | 01:07:36 | 00:00:00 | |
| DB0ND-19 | 2026-09-03 11:40:36 | 46.48698 | 7.33287 | 139° | 102km/h | 13635m | 3.6m/s | 0°C | -1.0% | -1.0hPa | 2.7V | 00:00:00 | 00:00:00 | 00:00:00 | |
| DO3MHA-12 | 2026-09-03 11:40:32 | 46.48754 | 7.33210 | 136° | 115km/h | 13623m | 3.9m/s | -60.8°C | 23.6% | 0hPa | 2.7V | 00:00:00 | 01:07:37 | 00:00:00 | |
| DO3MHA-11 | 2026-09-03 11:40:26 | 46.48860 | 7.33052 | 136° | 100km/h | 13598m | 5.6m/s | -61.3°C | 26.0% | 0hPa | 2.8V | 00:00:00 | 01:07:31 | 00:00:00 | |
| IW2NTF | 2026-09-03 11:40:24 | 46.48952 | 7.32925 | 135° | 99km/h | 13577m | 3.9m/s | -61.4°C | 27.8% | 0hPa | 2.8V | 08:30:00 | 01:07:26 | 00:00:00 | |
| IW2NTF | 2026-09-03 11:40:16 | 46.49131 | 7.32666 | 138° | 99km/h | 13536m | 4.5m/s | -62.2°C | 32.4% | 0hPa | 2.8V | 08:30:00 | 01:07:16 | 00:00:00 | |
| DO3MHA-11 | 2026-09-03 11:40:16 | 46.49040 | 7.32794 | 134° | 102km/h | 13558m | 2.7m/s | -61.4°C | 29.9% | 0hPa | 2.7V | 00:00:00 | 01:07:21 | 00:00:00 | |
| DO3MHA-11 | 2026-09-03 11:40:06 | 46.49234 | 7.32547 | 142° | 108km/h | 13513m | 4.6m/s | -62.5°C | 34.8% | 0hPa | 2.7V | 00:00:00 | 01:07:11 | 00:00:00 | |
| IW2NTF | 2026-09-03 11:40:05 | 46.49372 | 7.32366 | 138° | 115km/h | 13483m | 4.3m/s | -63.3°C | 41.5% | 0hPa | 2.7V | 08:30:00 | 01:07:04 | 00:00:00 | |
| DB0UT-7 | 2026-09-03 11:40:02 | 46.49312 | 7.32448 | 137° | 110km/h | 13497m | 5.3m/s | -63.0°C | 38.7% | 0hPa | 2.7V | 00:00:00 | 00:00:00 | 00:00:00 | |
| DL2OL | 2026-09-03 11:39:57 | 46.49395 | 7.32338 | 139° | 117km/h | 13479m | 3.2m/s | -63.4°C | 33.3% | 0hPa | 2.7V | 00:00:00 | 00:00:00 | 00:00:00 | |
| DO3MHA-11 | 2026-09-03 11:39:56 | 46.49438 | 7.32280 | 138° | 115km/h | 13471m | 5.4m/s | -63.3°C | 42.5% | 0hPa | 2.7V | 00:00:00 | 01:07:01 | 00:00:00 | |
| IW2NTF | 2026-09-03 11:39:53 | 46.49629 | 7.32018 | 136° | 108km/h | 13430m | 5.2m/s | -63.2°C | 43.6% | 0hPa | 2.7V | 08:30:00 | 01:06:52 | 00:00:00 | |
| DO3MHA-11 | 2026-09-03 11:39:46 | 46.49648 | 7.31991 | 136° | 104km/h | 13426m | 4.1m/s | -63.1°C | 43.4% | 0hPa | 2.8V | 00:00:00 | 01:06:51 | 00:00:00 | |
| IW2NTF | 2026-09-03 11:39:42 | 46.49827 | 7.31763 | 147° | 104km/h | 13376m | 6.1m/s | -62.8°C | 46% | 0hPa | 2.8V | 08:30:00 | 01:06:42 | 00:00:00 | |
| DO3MHA-11 | 2026-09-03 11:39:36 | 46.49849 | 7.31742 | 147° | 106km/h | 13370m | 5.6m/s | -62.7°C | 46.6% | 0hPa | 2.7V | 00:00:00 | 01:06:41 | 08:30:00 | |
| DB0UT-7 | 2026-09-03 11:39:32 | 46.49936 | 7.31646 | 139° | 110km/h | 13352m | 3.3m/s | -62.7°C | 45.8% | 0hPa | 2.8V | 00:00:00 | 01:06:37 | 00:00:00 | |
| IW2NTF | 2026-09-03 11:39:27 | 46.50039 | 7.31521 | 141° | 106km/h | 13326m | 5.9m/s | -62.7°C | 45.9% | 0hPa | 2.8V | 08:30:00 | 01:06:32 | 00:00:00 | |
| DO3MHA-11 | 2026-09-03 11:39:26 | 46.50060 | 7.31496 | 143° | 110km/h | 13321m | 3.9m/s | -62.6°C | 45.9% | 0hPa | 2.7V | 00:00:00 | 01:06:31 | 00:00:00 | |
| IW2NTF | 2026-09-03 11:39:21 | 46.50256 | 7.31274 | 140° | 108km/h | 13278m | 4.5m/s | -62.4°C | 47.8% | 0hPa | 2.7V | 08:30:00 | 01:06:22 | 00:00:00 | |
| DO3MHA-11 | 2026-09-03 11:39:16 | 46.50277 | 7.31249 | 143° | 120km/h | 13274m | 3.9m/s | -62.4°C | 48.0% | 0hPa | 2.7V | 00:00:00 | 01:06:21 | 00:00:00 | |
| DL2OL | 2026-09-03 11:39:13 | 46.50320 | 7.31203 | 146° | 108km/h | 13265m | 4.6m/s | -62.5°C | 40.7% | 0hPa | 2.7V | 00:00:00 | 00:00:00 | 00:00:00 | |
| IW2NTF | 2026-09-03 11:39:12 | 46.50483 | 7.31034 | 146° | 111km/h | 13228m | 4.8m/s | -63°C | 50% | 0hPa | 2.7V | 08:30:00 | 01:06:12 | 00:00:00 | |
| IW2NTF | 2026-09-03 11:39:02 | 46.50735 | 7.30797 | 145° | 128km/h | 13177m | 3.8m/s | -64.2°C | 56.4% | 0hPa | 2.8V | 08:30:00 | 01:06:02 | 00:00:00 | |
| IW2NTF | 2026-09-03 11:38:52 | 46.51004 | 7.30532 | 145° | 131km/h | 13129m | 4.3m/s | -64.1°C | 54.4% | 0hPa | 2.8V | 08:30:00 | 01:05:52 | 00:00:00 | |
| IW2NTF | 2026-09-03 11:38:42 | 46.51278 | 7.30249 | 141° | 126km/h | 13076m | 6m/s | -63.9°C | 56.2% | 0hPa | 2.7V | 08:30:00 | 01:05:42 | 00:00:00 | |
| IW2NTF | 2026-09-03 11:38:32 | 46.51537 | 7.29931 | 143° | 122km/h | 13018m | 6m/s | -63.5°C | 53.1% | 0hPa | 2.8V | 08:30:00 | 01:05:32 | 00:00:00 | |
| DL2OL | 2026-09-03 11:38:29 | 46.51487 | 7.29988 | 142° | 130km/h | 13029m | 5.3m/s | -63.6°C | 44.3% | 0hPa | 2.8V | 00:00:00 | 00:00:00 | 00:00:00 | |
| IW2NTF | 2026-09-03 11:38:22 | 46.51784 | 7.29649 | 140° | 122km/h | 12964m | 5m/s | -63.4°C | 53.5% | 0hPa | 2.8V | 08:30:00 | 01:05:22 | 00:00:00 | |
| DH7VM-15 | 2026-09-03 11:38:20 | 46.51685 | 7.29764 | 143° | 128km/h | 12983m | 4.4m/s | 0°C | 0% | 0hPa | 2.7V | 00:00:00 | 00:00:00 | 00:00:00 | |
| DO3MHA-12 | 2026-09-03 11:38:19 | 46.51735 | 7.29706 | 142° | 124km/h | 12975m | 4.9m/s | -63.3°C | 53.5% | 0hPa | 2.7V | 00:00:00 | 01:05:24 | 00:00:00 | |
| DO3MHA-11 | 2026-09-03 11:38:12 | 46.51902 | 7.29502 | 140° | 122km/h | 12942m | 4.7m/s | -63.2°C | 52.6% | 0hPa | 2.7V | 00:00:00 | 01:05:17 | 00:00:00 | |
| IW2NTF | 2026-09-03 11:38:11 | 46.52023 | 7.29355 | 140° | 120km/h | 12919m | 4.3m/s | -63.1°C | 53.1% | 0hPa | 2.7V | 08:30:00 | 01:05:12 | 00:00:00 | |
| DO3MHA-12 | 2026-09-03 11:38:09 | 46.51975 | 7.29414 | 141° | 122km/h | 12928m | 3.8m/s | -63.1°C | 53.2% | 0hPa | 2.9V | 00:00:00 | 01:05:14 | 00:00:00 | |
| IW2NTF | 2026-09-03 11:38:02 | 46.52253 | 7.29053 | 138° | 126km/h | 12874m | 4.9m/s | -62.7°C | 51.3% | 0hPa | 2.9V | 08:30:00 | 01:05:02 | 00:00:00 | |
| DO3MHA-12 | 2026-09-03 11:37:59 | 46.52205 | 7.29116 | 138° | 122km/h | 12883m | 5.3m/s | -62.7°C | 50.9% | 0hPa | 2.7V | 00:00:00 | 01:05:04 | 00:00:00 | |
| IW2NTF | 2026-09-03 11:37:52 | 46.52475 | 7.28759 | 135° | 120km/h | 12828m | 4.5m/s | -62.3°C | 51.1% | 0hPa | 2.7V | 08:30:00 | 01:04:52 | 00:00:00 | |
| DO3MHA-12 | 2026-09-03 11:37:49 | 46.52432 | 7.28819 | 138° | 122km/h | 12838m | 4.4m/s | -62.4°C | 52.1% | 0hPa | 2.9V | 00:00:00 | 01:04:54 | 00:00:00 | |
| DL2OL | 2026-09-03 11:37:46 | 46.52475 | 7.28759 | 136° | 120km/h | 12828m | 4.5m/s | -62.3°C | 41.7% | 0hPa | 2.9V | 00:00:00 | 00:00:00 | 00:00:00 | |
| DO3MHA-11 | 2026-09-03 11:37:42 | 46.52593 | 7.28603 | 141° | 117km/h | 12808m | 4.3m/s | -62.1°C | 52.6% | 0hPa | 2.9V | 00:00:00 | 01:04:47 | 00:00:00 | |
| IW2NTF | 2026-09-03 11:37:41 | 46.52699 | 7.28465 | 135° | 111km/h | 12782m | 5.9m/s | -62°C | 49.9% | 0hPa | 2.9V | 08:30:00 | 01:04:42 | 00:00:00 | |
| DO3MHA-12 | 2026-09-03 11:37:39 | 46.52659 | 7.28520 | 138° | 117km/h | 12793m | 5.7m/s | -62.1°C | 51.4% | 0hPa | 2.8V | 00:00:00 | 01:04:44 | 00:00:00 | |
| IW2NTF | 2026-09-03 11:37:33 | 46.52920 | 7.28165 | 137° | 119km/h | 12726m | 5m/s | -61.6°C | 50.9% | 0hPa | 2.8V | 08:30:00 | 01:04:32 | 00:00:00 | |
| DO3MHA-11 | 2026-09-03 11:37:32 | 46.52806 | 7.28311 | 138° | 115km/h | 12757m | 5.8m/s | -61.8°C | 49.2% | 0hPa | 2.9V | 00:00:00 | 01:04:37 | 00:00:00 | |
| DO3MHA-12 | 2026-09-03 11:37:29 | 46.52874 | 7.28224 | 139° | 111km/h | 12740m | 7.4m/s | -61.7°C | 49.1% | 0hPa | 2.9V | 00:00:00 | 01:04:34 | 08:30:00 | |
| IW2NTF | 2026-09-03 11:37:23 | 46.53122 | 7.27897 | 139° | 110km/h | 12666m | 7.1m/s | -61.3°C | 50.3% | 0hPa | 2.9V | 08:30:00 | 01:04:22 | 00:00:00 | |
| DO3MHA-11 | 2026-09-03 11:37:22 | 46.53019 | 7.28032 | 139° | 110km/h | 12700m | 6.2m/s | -61.5°C | 51.0% | 0hPa | 2.9V | 00:00:00 | 01:04:27 | 08:30:00 | |
| DO3MHA-12 | 2026-09-03 11:37:19 | 46.53080 | 7.27951 | 137° | 108km/h | 12682m | 7.3m/s | -61.4°C | 50.0% | 0hPa | 2.9V | 00:00:00 | 01:04:24 | 00:00:00 | |
| IW2NTF | 2026-09-03 11:37:12 | 46.53338 | 7.27619 | 141° | 100km/h | 12596m | 4.8m/s | -60.9°C | 50.1% | 0hPa | 2.9V | 08:30:00 | 01:04:11 | 00:00:00 | |
| DO3MHA-12 | 2026-09-03 11:37:09 | 46.53280 | 7.27686 | 140° | 102km/h | 12617m | 7.7m/s | -61.0°C | 48.9% | 0hPa | 2.9V | 00:00:00 | 01:04:14 | 00:00:00 | |
| DO3MHA-11 | 2026-09-03 11:37:02 | 46.53422 | 7.27527 | 144° | 102km/h | 12575m | 2.9m/s | -60.7°C | 49.7% | 0hPa | 2.9V | 00:00:00 | 01:04:07 | 00:00:00 | |
| DO3MHA-12 | 2026-09-03 11:36:59 | 46.53483 | 7.27458 | 140° | 102km/h | 12560m | 5.4m/s | -60.7°C | 47.5% | 0hPa | 2.9V | 00:00:00 | 01:04:04 | 00:00:00 | |
| DL2OL | 2026-09-03 11:36:57 | 46.53522 | 7.27408 | 137° | 104km/h | 12550m | 5.6m/s | -60.6°C | 38.6% | 0hPa | 2.9V | 00:00:00 | 00:00:00 | 00:00:00 | |
| IW2NTF | 2026-09-03 11:36:53 | 46.53730 | 7.27185 | 142° | 99km/h | 12493m | 5.4m/s | -60.3°C | 47.5% | 0hPa | 2.9V | 08:30:00 | 01:03:52 | 00:00:00 | |
| DO3MHA-11 | 2026-09-03 11:36:52 | 46.53620 | 7.27289 | 148° | 102km/h | 12523m | 7.0m/s | -60.4°C | 48.3% | 0hPa | 2.9V | 00:00:00 | 01:03:57 | 00:00:00 | |
| DO3MHA-12 | 2026-09-03 11:36:49 | 46.53688 | 7.27229 | 147° | 106km/h | 12506m | 5.2m/s | -60.3°C | 49.0% | 0hPa | 2.9V | 00:00:00 | 01:03:54 | 00:00:00 | |
| DO3MHA-11 | 2026-09-03 11:36:42 | 46.53827 | 7.27058 | 138° | 104km/h | 12470m | 4.9m/s | -60.3°C | 47.6% | 0hPa | 2.9V | 00:00:00 | 01:03:47 | 00:00:00 | |
| DO3MHA-12 | 2026-09-03 11:36:39 | 46.53896 | 7.26977 | 144° | 95km/h | 12458m | 5.4m/s | 0°C | 0% | 0hPa | 2.9V | 00:00:00 | 01:03:44 | 00:00:00 | |
| DB0UT-7 | 2026-09-03 11:36:32 | 46.54044 | 7.26861 | 156° | 111km/h | 12411m | 3.7m/s | -60.2°C | 47.0% | 0hPa | 2.9V | 00:00:00 | 01:03:37 | 00:00:00 | |
| DO3MHA-12 | 2026-09-03 11:36:29 | 46.54105 | 7.26810 | 147° | 111km/h | 12396m | 5.9m/s | 0°C | 0% | 0hPa | 2.9V | 00:00:00 | 01:03:34 | 00:00:00 | |
| IW2NTF | 2026-09-03 11:36:23 | 46.54382 | 7.26598 | 154° | 113km/h | 12318m | 6.5m/s | -60.1°C | 45.1% | 0hPa | 2.9V | 08:30:00 | 01:03:23 | 00:00:00 | |
| DO3MHA-11 | 2026-09-03 11:36:22 | 46.54276 | 7.26669 | 156° | 113km/h | 12344m | 7.4m/s | 0°C | 0% | 0hPa | 2.9V | 00:00:00 | 01:03:27 | 00:00:00 | |
| DO3MHA-12 | 2026-09-03 11:36:19 | 46.54356 | 7.26616 | 155° | 115km/h | 12325m | 6.5m/s | 0°C | 0% | 0hPa | 2.9V | 00:00:00 | 01:03:24 | 00:00:00 | |
| DO3MHA-11 | 2026-09-03 11:36:12 | 46.54537 | 7.26496 | 157° | 119km/h | 12289m | 5.3m/s | 0°C | 0% | 0hPa | 2.9V | 00:00:00 | 01:03:17 | 00:00:00 | |
| IW2NTF | 2026-09-03 11:36:09 | 46.54647 | 7.26425 | 156° | 117km/h | 12271m | 3.8m/s | -59.7°C | 46.9% | 0hPa | 2.9V | 08:30:00 | 01:03:13 | 00:00:00 | |
| DO3MHA-12 | 2026-09-03 11:36:09 | 46.54620 | 7.26442 | 156° | 119km/h | 12275m | 4.6m/s | 0°C | 0% | 0hPa | 2.9V | 00:00:00 | 01:03:14 | 00:00:00 | |
| DB0UT-7 | 2026-09-03 11:36:02 | 46.54811 | 7.26320 | 155° | 120km/h | 12242m | 4.7m/s | -59.5°C | 45.5% | 0hPa | 2.9V | 00:00:00 | 00:00:00 | 00:00:00 | |
| IW2NTF | 2026-09-03 11:36:00 | 46.54919 | 7.26250 | 158° | 110km/h | 12214m | 4.8m/s | -59.4°C | 44% | 0hPa | 2.9V | 08:30:00 | 01:03:03 | 00:00:00 | |
| DO3MHA-12 | 2026-09-03 11:35:59 | 46.54892 | 7.26266 | 158° | 111km/h | 12220m | 7.2m/s | 0°C | 0% | 0hPa | 2.8V | 00:00:00 | 01:03:04 | 00:00:00 | |
| DO3MHA-11 | 2026-09-03 11:35:52 | 46.55080 | 7.26154 | 156° | 124km/h | 12179m | 7.2m/s | 0°C | 0% | 0hPa | 2.8V | 00:00:00 | 01:02:57 | 08:30:00 | |
| IW2NTF | 2026-09-03 11:35:50 | 46.55194 | 7.26070 | 151° | 126km/h | 12153m | 7m/s | -59°C | 44.8% | 0hPa | 2.8V | 08:30:00 | 01:02:53 | 00:00:00 | |
| IW2NTF | 2026-09-03 11:35:44 | 46.55473 | 7.25890 | 155° | 122km/h | 12091m | 6.5m/s | -58.5°C | 45.9% | 0hPa | 2.9V | 08:30:00 | 01:02:43 | 00:00:00 | |
| DO3MHA-11 | 2026-09-03 11:35:42 | 46.55360 | 7.25957 | 160° | 120km/h | 12115m | 7.5m/s | 0°C | 0% | 0hPa | 2.9V | 00:00:00 | 01:02:47 | 00:00:00 | |
| IW2NTF | 2026-09-03 11:35:33 | 46.55780 | 7.25659 | 155° | 130km/h | 12023m | 5.9m/s | -58°C | 50.3% | 0hPa | 2.9V | 08:30:00 | 01:02:32 | 00:00:00 | |
| DB0UT-7 | 2026-09-03 11:35:32 | 46.55637 | 7.25767 | 151° | 126km/h | 12055m | 4.1m/s | -58.1°C | 48.7% | 0hPa | 2.9V | 00:00:00 | 01:02:37 | 00:00:00 | |
| DL2OL | 2026-09-03 11:35:23 | 46.55868 | 7.25604 | 158° | 124km/h | 12008m | 4.6m/s | -57.9°C | 42.0% | 0hPa | 2.9V | 00:00:00 | 00:00:00 | 00:00:00 | |
| IW2NTF | 2026-09-03 11:35:13 | 46.56199 | 7.25380 | 153° | 122km/h | 11941m | 4.8m/s | -57.3°C | 52% | 0hPa | 2.9V | 08:30:00 | 01:02:17 | 00:00:00 | |
| IW2NTF | 2026-09-03 11:35:04 | 46.56592 | 7.25114 | 151° | 124km/h | 11874m | 5.5m/s | -56.6°C | 51% | 0hPa | 2.8V | 08:30:00 | 01:02:03 | 00:00:00 | |
| DL2OL | 2026-09-03 11:34:39 | 46.57097 | 7.24740 | 156° | 124km/h | 11784m | 3.8m/s | -55.8°C | 45.7% | 0hPa | 2.9V | 00:00:00 | 00:00:00 | 00:00:00 | |
| DB0UT-7 | 2026-09-03 11:34:33 | 46.57296 | 7.24600 | 155° | 122km/h | 11749m | 6.7m/s | -55.5°C | 55.5% | 0hPa | 2.9V | 00:00:00 | 00:00:00 | 00:00:00 | |
| DO3MHA-11 | 2026-09-03 11:34:24 | 46.57538 | 7.24404 | 155° | 120km/h | 11692m | 6.7m/s | 0°C | 0% | 0hPa | 2.9V | 00:00:00 | 01:01:29 | 00:00:00 | |
| DO3MHA-11 | 2026-09-03 11:34:14 | 46.57815 | 7.24221 | 151° | 124km/h | 11642m | 4.7m/s | 0°C | 0% | 0hPa | 2.9V | 00:00:00 | 01:01:19 | 00:00:00 | |
| DO3MHA-11 | 2026-09-03 11:34:04 | 46.58095 | 7.24012 | 153° | 124km/h | 11593m | 6.1m/s | 0°C | 0% | 0hPa | 2.9V | 00:00:00 | 01:01:09 | 00:00:00 | |
| DB0UT-7 | 2026-09-03 11:34:03 | 46.58123 | 7.23990 | 152° | 120km/h | 11587m | 5.2m/s | -54.0°C | 56.2% | 0hPa | 2.9V | 00:00:00 | 01:01:08 | 00:00:00 | |
| DB0ND-19 | 2026-09-03 11:33:52 | 46.58432 | 7.23764 | 154° | 126km/h | 11528m | 6.8m/s | -53.6°C | 50.4% | -1.0hPa | 2.9V | 00:00:00 | 00:00:00 | 00:00:00 | |
| DO3MHA-11 | 2026-09-03 11:33:44 | 46.58643 | 7.23614 | 152° | 120km/h | 11484m | 6.4m/s | 0°C | 0% | 0hPa | 2.9V | 00:00:00 | 01:00:49 | 00:00:00 | |
| IW2NTF | 2026-09-03 11:33:41 | 46.58887 | 7.23432 | 151° | 119km/h | 11430m | 4.1m/s | -52.6°C | 0% | 0hPa | 2.9V | 00:00:00 | 01:00:40 | 00:00:00 | |
| DO3MHA-11 | 2026-09-03 11:33:34 | 46.58914 | 7.23411 | 152° | 120km/h | 11424m | 7.9m/s | 0°C | 0% | 0hPa | 2.7V | 00:00:00 | 01:00:39 | 00:00:00 | |
| DB0UT-7 | 2026-09-03 11:33:33 | 46.58941 | 7.23390 | 152° | 119km/h | 11418m | 5.4m/s | -52.5°C | 50.7% | 0hPa | 2.7V | 00:00:00 | 00:00:00 | 00:00:00 | |
| IW2NTF | 2026-09-03 11:33:31 | 46.59162 | 7.23235 | 152° | 115km/h | 11371m | 3.3m/s | -52.2°C | 0% | 0hPa | 2.9V | 00:00:00 | 01:00:30 | 00:00:00 | |
| DO3MHA-11 | 2026-09-03 11:33:24 | 46.59188 | 7.23216 | 154° | 120km/h | 11367m | 5.5m/s | 0°C | 0% | 0hPa | 2.8V | 00:00:00 | 01:00:29 | 00:00:00 | |
| IW2NTF | 2026-09-03 11:33:21 | 46.59436 | 7.23052 | 154° | 126km/h | 11327m | 4.2m/s | 0°C | 0% | 0hPa | 2.8V | 00:00:00 | 01:00:20 | 00:00:00 | |
| DO3MHA-11 | 2026-09-03 11:33:14 | 46.59465 | 7.23032 | 156° | 117km/h | 11323m | 3.7m/s | 0°C | 0% | 0hPa | 2.9V | 00:00:00 | 01:00:19 | 00:00:00 | |
| DL2OL | 2026-09-03 11:33:13 | 46.59465 | 7.23032 | 156° | 124km/h | 11323m | 3.8m/s | -51.6°C | 41.4% | 0hPa | 2.9V | 00:00:00 | 00:00:00 | 00:00:00 | |
| IW2NTF | 2026-09-03 11:33:10 | 46.59693 | 7.22866 | 153° | 117km/h | 11286m | 6.5m/s | 0°C | 0% | 0hPa | 2.9V | 00:00:00 | 01:00:10 | 00:00:00 | |
| DB0UT-7 | 2026-09-03 11:33:03 | 46.59747 | 7.22826 | 153° | 117km/h | 11275m | 5.8m/s | -51.3°C | 47.1% | 0hPa | 2.9V | 00:00:00 | 01:00:08 | 00:00:00 | |
| IW2NTF | 2026-09-03 11:33:00 | 46.59964 | 7.22675 | 153° | 128km/h | 11228m | 5.3m/s | 0°C | 0% | 0hPa | 2.9V | 00:00:00 | 01:00:00 | 00:00:00 | |
| IW2NTF | 2026-09-03 11:32:49 | 46.60230 | 7.22485 | 153° | 106km/h | 11172m | 5.6m/s | 0°C | 0% | 0hPa | 2.8V | 00:00:00 | 00:59:50 | 00:00:00 | |
| IW2NTF | 2026-09-03 11:32:37 | 46.60537 | 7.22267 | 157° | 113km/h | 11114m | 4.3m/s | 0°C | 0% | 0hPa | 2.9V | 00:00:00 | 00:59:38 | 00:00:00 | |
| DB0UT-7 | 2026-09-03 11:32:33 | 46.60537 | 7.22267 | 158° | 108km/h | 11115m | 4.3m/s | -49.9°C | 44.2% | 0hPa | 2.9V | 00:00:00 | 00:00:00 | 00:00:00 | |
| DL2OL | 2026-09-03 11:32:29 | 46.60613 | 7.22223 | 159° | 104km/h | 11097m | 4.4m/s | -49.8°C | 38.1% | 0hPa | 2.9V | 00:00:00 | 00:00:00 | 00:00:00 | |
| DH7VM-15 | 2026-09-03 11:32:27 | 46.60661 | 7.22191 | 154° | 108km/h | 11088m | 4.8m/s | 0°C | 0% | 0hPa | 2.9V | 00:00:00 | 00:00:00 | 00:00:00 | |
| IW2NTF | 2026-09-03 11:32:20 | 46.60944 | 7.22012 | 154° | 111km/h | 11045m | 4.8m/s | 0°C | 0% | 0hPa | 2.9V | 00:00:00 | 00:59:22 | 00:00:00 | |
| DB0UT-7 | 2026-09-03 11:32:03 | 46.61275 | 7.21762 | 157° | 104km/h | 10968m | 7.2m/s | -48.5°C | 39.1% | 0hPa | 2.9V | 00:00:00 | 00:59:08 | 08:30:00 | |
| IW2NTF | 2026-09-03 11:31:50 | 46.61667 | 7.21486 | 154° | 100km/h | 10887m | 4.8m/s | 0°C | 0% | 0hPa | 2.8V | 00:00:00 | 00:58:51 | 00:00:00 | |
| DB0ND-19 | 2026-09-03 11:31:48 | 46.61622 | 7.21519 | 152° | 99km/h | 10895m | 3.0m/s | -47.8°C | 34.0% | -1.0hPa | 2.9V | 00:00:00 | 00:00:00 | 00:00:00 | |
| DL2OL | 2026-09-03 11:31:45 | 46.61667 | 7.21486 | 155° | 100km/h | 10887m | 4.8m/s | -47.7°C | 34.1% | 0hPa | 2.9V | 00:00:00 | 00:00:00 | 00:00:00 | |
| IW2NTF | 2026-09-03 11:31:39 | 46.61911 | 7.21317 | 157° | 104km/h | 10848m | 4m/s | 0°C | 0% | 0hPa | 2.9V | 00:00:00 | 00:58:41 | 00:00:00 | |
| DB0UT-7 | 2026-09-03 11:31:33 | 46.61984 | 7.21271 | 156° | 100km/h | 10837m | 3.4m/s | -47.2°C | 43.2% | 0hPa | 2.8V | 00:00:00 | 00:00:00 | 00:00:00 | |
| IW2NTF | 2026-09-03 11:31:28 | 46.62140 | 7.21130 | 150° | 110km/h | 10811m | 5.9m/s | 0°C | 0% | 0hPa | 2.8V | 00:00:00 | 00:58:31 | 00:00:00 | |
| DB0ND-19 | 2026-09-03 11:31:17 | 46.62341 | 7.20998 | 156° | 110km/h | 10762m | 5.6m/s | -46.6°C | 44.9% | -1.0hPa | 2.9V | 00:00:00 | 00:00:00 | 00:00:00 | |
| IW2NTF | 2026-09-03 11:31:15 | 46.62524 | 7.20836 | 154° | 84km/h | 10715m | 4.8m/s | 0°C | 0% | 0hPa | 2.9V | 00:00:00 | 00:58:14 | 00:00:00 | |
| DH7VM-15 | 2026-09-03 11:31:05 | 46.62585 | 7.20803 | 166° | 91km/h | 10700m | 7.0m/s | 0°C | 0% | 0hPa | 2.8V | 00:00:00 | 00:00:00 | 00:00:00 | |
| DB0UT-7 | 2026-09-03 11:31:03 | 46.62660 | 7.20769 | 161° | 100km/h | 10681m | 4.4m/s | -45.7°C | 52.5% | 0hPa | 2.8V | 00:00:00 | 00:58:08 | 00:00:00 | |
| IW2NTF | 2026-09-03 11:30:58 | 46.62797 | 7.20655 | 147° | 82km/h | 10643m | 6.8m/s | 0°C | 0% | 0hPa | 2.8V | 00:00:00 | 00:58:02 | 00:00:00 | |
| DB0ND-19 | 2026-09-03 11:30:46 | 46.63075 | 7.20455 | 153° | 86km/h | 10558m | 6.1m/s | -44.6°C | 47.9% | -1.0hPa | 2.9V | 00:00:00 | 00:00:00 | 00:00:00 | |
| DH7VM-15 | 2026-09-03 11:30:45 | 46.63056 | 7.20470 | 150° | 89km/h | 10564m | 6.9m/s | 0°C | 0% | 0hPa | 2.9V | 00:00:00 | 00:00:00 | 00:00:00 | |
| DB0UT-7 | 2026-09-03 11:30:33 | 46.63317 | 7.20212 | 145° | 110km/h | 10475m | 5.3m/s | -43.8°C | 55.6% | 0hPa | 2.9V | 00:00:00 | 00:00:00 | 00:00:00 | |
| DL2OL | 2026-09-03 11:30:18 | 46.63630 | 7.19941 | 151° | 110km/h | 10396m | 5.1m/s | -43.1°C | 52.7% | 0hPa | 2.9V | 00:00:00 | 00:00:00 | 00:00:00 | |
| DB0UT-7 | 2026-09-03 11:29:38 | 46.64549 | 7.19225 | 151° | 108km/h | 10172m | 6.1m/s | -41.1°C | 69.9% | 0hPa | 2.9V | 00:00:00 | 00:56:43 | 00:00:00 | |
| DL2OL | 2026-09-03 11:29:32 | 46.64664 | 7.19122 | 153° | 110km/h | 10139m | 8.7m/s | -41.0°C | 66.8% | 0hPa | 2.9V | 00:00:00 | 00:00:00 | 00:00:00 | |
| DB0ND-19 | 2026-09-03 11:29:13 | 46.65158 | 7.18726 | 143° | 97km/h | 10013m | 4.3m/s | -40.3°C | -1.0% | -1.0hPa | 2.9V | 00:00:00 | 00:00:00 | 00:00:00 | |
| DB0UT-7 | 2026-09-03 11:29:02 | 46.65384 | 7.18494 | 151° | 113km/h | 9950m | 5.0m/s | -39.7°C | 61.3% | 0hPa | 2.9V | 00:00:00 | 00:00:00 | 00:00:00 | |
| DL2OL | 2026-09-03 11:28:50 | 46.65647 | 7.18246 | 149° | 113km/h | 9885m | 7.7m/s | -39.1°C | 55.8% | 0hPa | 2.9V | 00:00:00 | 00:00:00 | 00:00:00 | |
| DB0ND-19 | 2026-09-03 11:28:42 | 46.65888 | 7.18020 | 151° | 108km/h | 9817m | 5.7m/s | 0°C | -1.0% | -1.0hPa | 2.9V | 00:00:00 | 00:00:00 | 00:00:00 | |
| DB0UT-7 | 2026-09-03 11:28:32 | 46.66102 | 7.17823 | 149° | 108km/h | 9769m | 5.0m/s | -38.1°C | 57.3% | 0hPa | 2.9V | 00:00:00 | 00:55:37 | 00:00:00 | |
| DL2OL | 2026-09-03 11:28:09 | 46.66630 | 7.17357 | 153° | 95km/h | 9662m | 5.3m/s | -37.5°C | 62.6% | 0hPa | 2.7V | 00:00:00 | 00:00:00 | 00:00:00 | |
| DB0UT-7 | 2026-09-03 11:28:02 | 46.66792 | 7.17182 | 149° | 99km/h | 9608m | 6.1m/s | -37.0°C | 65.9% | 0hPa | 2.7V | 00:00:00 | 00:00:00 | 00:00:00 | |
| DB0UT-7 | 2026-09-03 11:27:32 | 46.67390 | 7.16526 | 145° | 95km/h | 9434m | 4.2m/s | -35.4°C | 65.9% | 0hPa | 2.7V | 00:00:00 | 00:54:37 | 00:00:00 | |
| DL2OL | 2026-09-03 11:27:17 | 46.67656 | 7.16216 | 136° | 100km/h | 9373m | 5.1m/s | -34.9°C | 62.8% | 0hPa | 2.7V | 00:00:00 | 00:00:00 | 00:00:00 | |
| DB0UT-7 | 2026-09-03 11:27:02 | 46.67940 | 7.15842 | 139° | 91km/h | 9276m | 6.6m/s | -34.1°C | 64.7% | 0hPa | 2.7V | 00:00:00 | 00:00:00 | 08:30:00 | |
| DL2OL | 2026-09-03 11:26:49 | 46.68139 | 7.15596 | 135° | 91km/h | 9204m | 7.7m/s | -33.5°C | 54.5% | 0hPa | 2.9V | 00:00:00 | 00:00:00 | 00:00:00 | |
| DB0UT-7 | 2026-09-03 11:26:32 | 46.68467 | 7.15175 | 143° | 99km/h | 9092m | 7.1m/s | -32.5°C | 61.9% | 0hPa | 2.9V | 00:00:00 | 00:53:37 | 00:00:00 | |
| DL2OL | 2026-09-03 11:26:07 | 46.68903 | 7.14598 | 133° | 106km/h | 8948m | 5.3m/s | -31.2°C | 53.5% | 0hPa | 2.9V | 00:00:00 | 00:00:00 | 00:00:00 | |
| DB0UT-7 | 2026-09-03 11:26:02 | 46.69019 | 7.14453 | 145° | 102km/h | 8914m | 4.5m/s | -30.8°C | 54.8% | 0hPa | 2.9V | 00:00:00 | 00:00:00 | 00:00:00 | |
| DB0ND-19 | 2026-09-03 11:25:36 | 46.69569 | 7.13769 | 142° | 100km/h | 8735m | 8.0m/s | -29.4°C | 42.3% | -1.0hPa | 2.9V | 00:00:00 | 00:00:00 | 00:00:00 | |
| DB0UT-7 | 2026-09-03 11:25:32 | 46.69609 | 7.13722 | 142° | 100km/h | 8723m | 5.0m/s | -29.2°C | 45.9% | 0hPa | 2.9V | 00:00:00 | 00:52:37 | 00:00:00 | |
| DL2OL | 2026-09-03 11:25:17 | 46.69872 | 7.13370 | 135° | 93km/h | 8634m | 6.8m/s | -28.5°C | 40.6% | 0hPa | 2.9V | 00:00:00 | 00:00:00 | 00:00:00 | |
| DB0ND-19 | 2026-09-03 11:25:05 | 46.70127 | 7.13032 | 134° | 82km/h | 8558m | 8.2m/s | -27.8°C | 41.0% | -1.0hPa | 2.9V | 00:00:00 | 00:00:00 | 00:00:00 | |
| DB0UT-7 | 2026-09-03 11:25:02 | 46.70155 | 7.12987 | 133° | 93km/h | 8545m | 6.9m/s | -27.6°C | 43.5% | 0hPa | 2.9V | 00:00:00 | 00:00:00 | 00:00:00 | |
| DL2OL | 2026-09-03 11:24:49 | 46.70362 | 7.12698 | 136° | 100km/h | 8469m | 3.2m/s | -27.1°C | 40.8% | 0hPa | 2.9V | 00:00:00 | 00:00:00 | 00:00:00 | |
| DB0ND-19 | 2026-09-03 11:24:33 | 46.70655 | 7.12299 | 140° | 99km/h | 8373m | 5.8m/s | -26.2°C | 39.8% | -1.0hPa | 2.9V | 00:00:00 | 00:00:00 | 00:00:00 | |
| DB0UT-7 | 2026-09-03 11:24:32 | 46.70674 | 7.12276 | 143° | 91km/h | 8367m | 5.7m/s | -26.1°C | 42.2% | 0hPa | 2.9V | 00:00:00 | 00:51:37 | 00:00:00 | |
| DL2OL | 2026-09-03 11:24:05 | 46.71135 | 7.11635 | 132° | 91km/h | 8205m | 8.1m/s | -24.6°C | 37.2% | 0hPa | 2.9V | 00:00:00 | 00:00:00 | 00:00:00 | |
| DB0UT-7 | 2026-09-03 11:24:02 | 46.71183 | 7.11562 | 139° | 88km/h | 8187m | 4.5m/s | -24.4°C | 42.3% | 0hPa | 2.9V | 00:00:00 | 00:00:00 | 00:00:00 | |
| DB0ND-19 | 2026-09-03 11:23:32 | 46.72062 | 7.10475 | 135° | 93km/h | 7860m | 6.2m/s | -21.9°C | 32.9% | -1.0hPa | 3.0V | 00:00:00 | 00:00:00 | 00:00:00 | |
| DL2OL | 2026-09-03 11:23:09 | 46.72062 | 7.10475 | 136° | 95km/h | 7860m | 6.2m/s | 0°C | 0% | 0hPa | 3.0V | 00:00:00 | 00:00:00 | 00:00:00 | |
| DB0UT-7 | 2026-09-03 11:23:02 | 46.72199 | 7.10291 | 139° | 78km/h | 7821m | 6.3m/s | -21.5°C | 32.5% | 0hPa | 3.0V | 00:00:00 | 00:00:00 | 00:00:00 | |
| DB0ND-19 | 2026-09-03 11:23:00 | 46.72226 | 7.10253 | 133° | 71km/h | 7807m | 6.8m/s | -21.5°C | 29.8% | -1.0hPa | 3.0V | 00:00:00 | 00:00:00 | 00:00:00 | |
| DL2OL | 2026-09-03 11:22:35 | 46.72599 | 7.09811 | 137° | 77km/h | 7661m | 6.8m/s | 0°C | 0% | 0hPa | 3.0V | 00:00:00 | 00:00:00 | 00:00:00 | |
| DB0UT-7 | 2026-09-03 11:22:32 | 46.72655 | 7.09734 | 140° | 75km/h | 7631m | 4.8m/s | -20.0°C | 23.3% | 0hPa | 3.0V | 00:00:00 | 00:49:37 | 08:30:00 | |
| DB0ND-19 | 2026-09-03 11:22:30 | 46.72987 | 7.09266 | 131° | 71km/h | 7505m | 7.3m/s | -19.0°C | 19.0% | -1.0hPa | 2.7V | 00:00:00 | 00:00:00 | 00:00:00 | |
| DB0UT-7 | 2026-09-03 11:22:02 | 46.73064 | 7.09156 | 138° | 71km/h | 7464m | 6.1m/s | -18.6°C | 19.6% | 0hPa | 2.7V | 00:00:00 | 00:00:00 | 00:00:00 | |
| DB0ND-19 | 2026-09-03 11:21:58 | 46.73115 | 7.09085 | 138° | 73km/h | 7437m | 7.4m/s | -18.4°C | 18.7% | -1.0hPa | 2.7V | 00:00:00 | 00:00:00 | 00:00:00 | |
| DL2OL | 2026-09-03 11:21:33 | 46.73426 | 7.08638 | 145° | 62km/h | 7291m | 5.3m/s | 0°C | 0% | 0hPa | 2.7V | 00:00:00 | 00:00:00 | 00:00:00 | |
| DB0UT-7 | 2026-09-03 11:21:32 | 46.73453 | 7.08610 | 144° | 69km/h | 7281m | 3.2m/s | -16.9°C | 19.8% | 0hPa | 2.7V | 00:00:00 | 00:48:37 | 00:00:00 | |
| DB0ND-19 | 2026-09-03 11:21:27 | 46.73523 | 7.08517 | 130° | 75km/h | 7259m | 3.5m/s | -16.8°C | 18.7% | -1.0hPa | 2.7V | 00:00:00 | 00:00:00 | 00:00:00 | |
| DB0UT-7 | 2026-09-03 11:21:02 | 46.73854 | 7.08115 | 136° | 69km/h | 7113m | 5.7m/s | -15.5°C | 28.7% | 0hPa | 2.7V | 00:00:00 | 00:00:00 | 00:00:00 | |
| DL2OL | 2026-09-03 11:20:56 | 46.73927 | 7.08007 | 139° | 69km/h | 7077m | 5.3m/s | 0°C | 0% | 0hPa | 2.9V | 00:00:00 | 00:00:00 | 00:00:00 | |
| DB0UT-7 | 2026-09-03 11:20:32 | 46.74240 | 7.07594 | 138° | 64km/h | 6975m | 3.1m/s | -14.5°C | 30.0% | 0hPa | 2.9V | 00:00:00 | 00:47:37 | 00:00:00 | |
| DL2OL | 2026-09-03 11:20:18 | 46.74406 | 7.07382 | 124° | 66km/h | 6900m | 5.2m/s | 0°C | 0% | 0hPa | 2.9V | 00:00:00 | 00:00:00 | 00:00:00 | |
| DB0UT-7 | 2026-09-03 11:20:02 | 46.74589 | 7.07097 | 136° | 57km/h | 6809m | 5.7m/s | -13.4°C | 22.1% | 0hPa | 2.9V | 00:00:00 | 00:00:00 | 00:00:00 | |
| DB0ND-19 | 2026-09-03 11:19:54 | 46.74678 | 7.06946 | 141° | 47km/h | 6760m | 4.6m/s | -13.1°C | -1.0% | -1.0hPa | 2.9V | 00:00:00 | 00:00:00 | 00:00:00 | |
| DL2OL | 2026-09-03 11:19:51 | 46.74688 | 7.06935 | 144° | 47km/h | 6757m | 2.6m/s | 0°C | 0% | 0hPa | 2.9V | 00:00:00 | 00:00:00 | 00:00:00 | |
| DB0UT-7 | 2026-09-03 11:19:32 | 46.74868 | 7.06635 | 135° | 57km/h | 6644m | 5.1m/s | -12.2°C | 20.9% | 0hPa | 2.9V | 00:00:00 | 00:46:37 | 00:00:00 | |
| DL2OL | 2026-09-03 11:19:20 | 46.74975 | 7.06478 | 133° | 51km/h | 6591m | 4.8m/s | 0°C | 0% | 0hPa | 3.0V | 00:00:00 | 00:00:00 | 00:00:00 | |
| DB0UT-7 | 2026-09-03 11:19:02 | 46.75170 | 7.06177 | 135° | 66km/h | 6524m | 2.6m/s | -12.0°C | 13.8% | 0hPa | 3.0V | 00:00:00 | 00:00:00 | 00:00:00 | |
| DB0ND-19 | 2026-09-03 11:18:52 | 46.75295 | 7.05959 | 124° | 66km/h | 6457m | 4.4m/s | -12.4°C | -1.0% | -1.0hPa | 3.0V | 00:00:00 | 00:00:00 | 00:00:00 | |
| DB0UT-7 | 2026-09-03 11:18:32 | 46.75479 | 7.05606 | 126° | 62km/h | 6362m | 6.7m/s | -12.0°C | 21.7% | 0hPa | 3.0V | 00:00:00 | 00:45:37 | 00:00:00 | |
| DB0ND-19 | 2026-09-03 11:18:21 | 46.75592 | 7.05403 | 125° | 73km/h | 6313m | 3.0m/s | -11.8°C | -1.0% | -1.0hPa | 3.0V | 00:00:00 | 00:00:00 | 00:00:00 | |
| DL2OL | 2026-09-03 11:18:18 | 46.75614 | 7.05355 | 125° | 77km/h | 6304m | 4.9m/s | 0°C | 0% | 0hPa | 3.0V | 00:00:00 | 00:00:00 | 00:00:00 | |
| DB0UT-7 | 2026-09-03 11:18:02 | 46.75788 | 7.05032 | 130° | 64km/h | 6231m | 3.2m/s | -11.5°C | 28.2% | 0hPa | 3.0V | 00:00:00 | 00:00:00 | 08:30:00 | |
| DB0ND-19 | 2026-09-03 11:17:50 | 46.76167 | 7.04326 | 129° | 64km/h | 6060m | 5.4m/s | -10.9°C | -1.0% | -1.0hPa | 3.0V | 00:00:00 | 00:00:00 | 00:00:00 | |
| DB0ND-19 | 2026-09-03 11:17:19 | 46.76233 | 7.04205 | 125° | 68km/h | 6024m | 2.7m/s | -10.8°C | -1.0% | -1.0hPa | 3.0V | 00:00:00 | 00:00:00 | 00:00:00 | |
| DB0UT-7 | 2026-09-03 11:17:02 | 46.76403 | 7.03906 | 131° | 62km/h | 5949m | 4.0m/s | -10.4°C | 53.5% | 0hPa | 3.0V | 00:00:00 | 00:00:00 | 00:00:00 | |
| DB0UT-7 | 2026-09-03 11:16:32 | 46.76672 | 7.03330 | 134° | 60km/h | 5797m | 4.3m/s | -9.7°C | 74.3% | 0hPa | 3.0V | 00:00:00 | 00:43:37 | 00:00:00 | |
| DB0UT-7 | 2026-09-03 11:15:23 | 46.77304 | 7.02101 | 131° | 60km/h | 5450m | 4.5m/s | -6.5°C | 65.8% | 0hPa | 3.0V | 00:00:00 | 00:42:28 | 00:00:00 | |
| DB0UT-7 | 2026-09-03 11:14:53 | 46.77569 | 7.01564 | 114° | 57km/h | 5304m | 3.4m/s | -5.5°C | 70.1% | 0hPa | 3.0V | 00:00:00 | 00:00:00 | 00:00:00 | |
| DB0UT-7 | 2026-09-03 11:14:23 | 46.77823 | 7.01065 | 136° | 57km/h | 5138m | 2.9m/s | 0°C | 0% | 0hPa | 0V | 00:00:00 | 00:41:28 | 00:00:00 |